# Wetter Temperatur Luftdruck Luftfeuchtigkeit Sichtweite Windgeschwindigkeit Windrichtung Zeit
1 Clouds -2 1013 50 10000 8 270 01:48 05.04.2020
2 Clouds -2 1012 50 10000 8 280 01:30 05.04.2020
3 Clouds -2 1012 58 10000 7 280 00:46 05.04.2020
4 Clouds -1 1011 63 10000 7 280 00:22 05.04.2020
5 Snow -1 1011 68 10000 6 280 23:56 04.04.2020
6 Clouds -3 1011 86 10000 4 210 23:37 04.04.2020
7 Clouds -3 1011 86 10000 4 210 23:19 04.04.2020
8 Clouds -4 1011 85 10000 3 220 22:41 04.04.2020
9 Clouds -3 1010 86 10000 3 210 22:22 04.04.2020
10 Clouds -3 1010 79 10000 2 190 21:59 04.04.2020
11 Clouds -3 1010 79 10000 2 190 21:40 04.04.2020
12 Clouds -3 1011 73 10000 3 190 21:20 04.04.2020
13 Clouds -3 1011 73 10000 3 190 21:20 04.04.2020
14 Clouds -3 1011 73 10000 3 190 20:59 04.04.2020
15 Clouds -3 1011 73 10000 3 190 20:41 04.04.2020
16 Clouds -3 1010 63 10000 3 170 20:22 04.04.2020
17 Clouds -3 1011 49 10000 3 170 19:57 04.04.2020
18 Clouds -3 1011 49 10000 2 150 19:37 04.04.2020
19 Clouds -3 1011 49 10000 2 150 19:19 04.04.2020
20 Clouds -3 1011 58 10000 1 190 18:57 04.04.2020
21 Clouds -3 1011 58 10000 1 190 18:57 04.04.2020
22 Snow -3 1011 45 10000 2 160 18:38 04.04.2020
23 Snow -3 1011 45 10000 2 160 18:38 04.04.2020
24 Snow -3 1011 45 10000 2 160 18:19 04.04.2020
25 Snow -3 1011 49 10000 1 210 17:56 04.04.2020
26 Snow -3 1011 49 10000 1 210 17:38 04.04.2020
27 Snow -3 1011 49 10000 1 210 17:38 04.04.2020
28 Snow -3 1011 45 10000 2 190 17:18 04.04.2020
29 Snow -3 1011 45 10000 3 170 16:42 04.04.2020
30 Snow -3 1011 45 10000 3 170 16:42 04.04.2020
31 Snow -3 1011 42 10000 4 170 16:22 04.04.2020
32 Snow -3 1012 42 10000 4 160 15:56 04.04.2020
33 Snow -3 1012 42 10000 4 160 15:38 04.04.2020
34 Clouds -3 1012 42 10000 4 160 15:19 04.04.2020
35 Clouds -3 1012 42 10000 4 160 15:19 04.04.2020
36 Clouds -3 1012 42 10000 4 150 14:43 04.04.2020
37 Clouds -3 1013 42 10000 4 140 14:23 04.04.2020
38 Clouds -3 1013 42 10000 3 130 13:56 04.04.2020
39 Clouds -3 1014 42 10000 3 130 13:38 04.04.2020
40 Clouds -3 1014 42 10000 3 130 13:20 04.04.2020
41 Clouds -3 1014 42 10000 3 130 12:55 04.04.2020
42 Clouds -2 1014 42 10000 3 140 12:36 04.04.2020
43 Clouds -2 1014 42 10000 3 140 12:18 04.04.2020
44 Clouds -2 1014 42 10000 5 140 11:40 04.04.2020
45 Clouds -1 1015 36 10000 5 150 11:21 04.04.2020
46 Clouds -1 1015 33 10000 5 150 10:58 04.04.2020
47 Clouds -1 1015 33 10000 5 150 10:40 04.04.2020
48 Clouds -1 1016 36 10000 4 150 10:21 04.04.2020
49 Clouds 0 1016 94 10000 4 160 09:55 04.04.2020
50 Clouds 0 1016 94 10000 4 160 09:37 04.04.2020
51 Clouds 0 1017 93 10000 4 170 09:19 04.04.2020
52 Clouds 0 1018 93 10000 3 180 08:42 04.04.2020
53 Clouds 0 1018 93 10000 3 170 08:23 04.04.2020
54 Clouds 0 1018 93 10000 4 180 07:47 04.04.2020
55 Clouds -1 1019 33 10000 3 160 07:28 04.04.2020
56 Clouds -3 1020 45 10000 1 80 06:58 04.04.2020
57 Clouds -4 1021 49 10000 1 70 06:21 04.04.2020
58 Clouds -3 1021 45 10000 1 130 05:51 04.04.2020
59 Clouds -4 1022 38 10000 2 220 05:32 04.04.2020
60 Clouds -6 1023 41 10000 2 190 04:33 04.04.2020
61 Clouds -8 1023 48 10000 3 190 03:55 04.04.2020
62 Clouds -10 1024 56 10000 2 190 03:27 04.04.2020
63 Clouds -12 1025 60 10000 2 190 02:40 04.04.2020
64 Clouds -13 1025 60 10000 2 180 02:22 04.04.2020
65 Clouds -16 1026 71 10000 2 170 01:27 04.04.2020
66 Clouds -18 1026 77 10000 1 190 00:55 04.04.2020
67 Clouds -21 1026 83 10000 1 210 00:30 04.04.2020
68 Clear -23 1027 83 10000 2 200 23:55 03.04.2020
69 Clear -23 1027 83 10000 1.97 203 23:36 03.04.2020
70 Clear -23 1027 83 10000 1.97 203 23:18 03.04.2020
71 Clear -24 1027 83 10000 1 210 22:40 03.04.2020
72 Clear -23 1027 83 10000 1.97 203 22:19 03.04.2020
73 Clear -22 1027 83 10000 1 280 21:56 03.04.2020
74 Clear -23 1027 76 10000 1 170 21:37 03.04.2020
75 Clouds -23 1027 76 10000 1 170 21:19 03.04.2020
76 Clouds -22 1027 83 10000 1 280 20:54 03.04.2020
77 Clouds -22 1027 76 10000 1 290 20:36 03.04.2020
78 Clouds -22 1027 76 10000 1 290 20:18 03.04.2020
79 Clouds -20 1027 76 10000 1 310 19:54 03.04.2020
80 Clouds -19 1027 77 10000 1.71 228 19:36 03.04.2020
81 Clouds -19 1027 77 10000 1.71 228 19:36 03.04.2020
82 Clouds -19 1027 77 10000 1.71 228 19:18 03.04.2020
83 Clouds -18 1028 77 10000 1 120 18:56 03.04.2020
84 Clouds -18 1028 77 10000 1 130 18:38 03.04.2020
85 Clouds -18 1028 77 10000 1 130 18:19 03.04.2020
86 Clouds -17 1028 77 10000 1 160 17:40 03.04.2020
87 Clouds -17 1028 77 10000 1 160 17:19 03.04.2020
88 Clouds -18 1028 70 10000 1 260 16:55 03.04.2020
89 Clouds -18 1028 70 10000 1 260 16:55 03.04.2020
90 Clouds -18 1028 70 10000 1 260 16:55 03.04.2020
91 Clouds -15 1028 65 10000 2 280 16:36 03.04.2020
92 Clouds -15 1028 65 10000 2 280 16:18 03.04.2020
93 Clouds -13 1028 60 10000 3 290 15:41 03.04.2020
94 Clouds -18 1028 70 10000 1 280 15:22 03.04.2020
95 Clouds -18 1028 70 10000 1 280 14:58 03.04.2020
96 Clouds -10 1030 94 0 1.76 284 14:40 03.04.2020
97 Clouds -12 1028 55 10000 3 210 14:21 03.04.2020
98 Clouds -12 1028 55 10000 3 210 13:46 03.04.2020
99 Clouds -12 1028 55 10000 3 210 13:27 03.04.2020
100 Clouds -13 1027 60 10000 2 190 12:57 03.04.2020
101 Clouds -8 1027 48 10000 2 150 12:39 03.04.2020
102 Snow -8 1027 48 10000 2 150 12:18 03.04.2020
103 Snow -6 1027 41 10000 1 140 11:55 03.04.2020
104 Snow -6 1027 41 10000 1 140 11:55 03.04.2020
105 Snow -5 1027 35 10000 1 10 11:37 03.04.2020
106 Snow -5 1027 35 10000 1 10 11:18 03.04.2020
107 Snow -5 1027 35 10000 2 30 10:56 03.04.2020
108 Snow -4 1027 32 10000 1 20 10:37 03.04.2020
109 Snow -4 1027 32 10000 1 20 10:19 03.04.2020
110 Snow -4 1027 32 10000 1 340 09:55 03.04.2020
111 Snow -4 1027 32 10000 1 340 09:37 03.04.2020
112 Clouds -4 1027 32 10000 3 290 09:19 03.04.2020
113 Clouds -5 1027 38 10000 4 280 08:44 03.04.2020
114 Clouds -4 1027 35 10000 1 130 08:24 03.04.2020
115 Clouds -5 1027 38 10000 1 120 07:55 03.04.2020
116 Clouds -7 1027 48 10000 2 140 07:33 03.04.2020
117 Clouds -8 1026 48 10000 3 140 06:58 03.04.2020
118 Clouds -9 1026 52 10000 2 130 06:28 03.04.2020
119 Clouds -8 1026 52 10000 3 120 05:42 03.04.2020
120 Clouds -11 1026 51 10000 2 130 04:27 03.04.2020
121 Clouds -13 1026 55 10000 2 120 03:33 03.04.2020
122 Clouds -13 1025 50 10000 1 120 02:39 03.04.2020
123 Clouds -16 1024 59 10000 1 310 01:25 03.04.2020
124 Clouds -16 1024 59 10000 2 310 00:47 03.04.2020
125 Clouds -17 1023 64 10000 1 310 00:29 03.04.2020
126 Clouds -18 1023 70 10000 1 320 23:55 02.04.2020
127 Clouds -18 1022 70 10000 1 320 23:37 02.04.2020
128 Clouds -18 1022 70 10000 1 320 23:18 02.04.2020
129 Clouds -18 1022 70 10000 2 310 22:41 02.04.2020
130 Clouds -18 1022 70 10000 3 300 22:22 02.04.2020
131 Clouds -17 1021 64 10000 4 290 21:58 02.04.2020
132 Clouds -16 1021 59 10000 4 300 21:37 02.04.2020
133 Clouds -16 1021 59 10000 4 300 21:18 02.04.2020
134 Clouds -16 1021 65 10000 4 300 20:45 02.04.2020
135 Clouds -16 1020 65 10000 4 290 20:25 02.04.2020
136 Clouds -15 1020 60 10000 4 280 19:59 02.04.2020
137 Clouds -15 1020 60 10000 4 280 19:40 02.04.2020
138 Clouds -15 1020 60 10000 4 280 19:20 02.04.2020
139 Clouds -15 1019 60 10000 5 280 18:56 02.04.2020
140 Clouds -15 1019 60 10000 4 270 18:37 02.04.2020
141 Clouds -15 1019 60 10000 4 270 18:18 02.04.2020
142 Clouds -15 1019 60 10000 4 270 18:18 02.04.2020
143 Clouds -15 1019 60 10000 4 270 17:42 02.04.2020
144 Clouds -15 1019 60 10000 4 270 17:24 02.04.2020
145 Clouds -16 1019 59 10000 3 260 16:58 02.04.2020
146 Clouds -16 1019 59 10000 3 260 16:40 02.04.2020
147 Clouds -15 1018 60 10000 3 270 16:21 02.04.2020
148 Clouds -14 1018 55 10000 3 280 15:57 02.04.2020
149 Clouds -14 1018 55 10000 3 280 15:39 02.04.2020
150 Clouds -14 1018 55 10000 3 280 15:18 02.04.2020
151 Clouds -13 1018 50 10000 3 290 14:57 02.04.2020
152 Clouds -13 1018 50 10000 3 290 14:38 02.04.2020
153 Clouds -12 1018 51 10000 4 290 14:18 02.04.2020
154 Clouds -12 1018 51 10000 4 290 14:18 02.04.2020
155 Clouds -12 1018 51 10000 3 280 13:54 02.04.2020
156 Clouds -12 1018 51 10000 3 280 13:54 02.04.2020
157 Clouds -15 1018 92 0 2.72 276 13:36 02.04.2020
158 Clouds -15 1018 92 0 2.72 276 13:18 02.04.2020
159 Clouds -9 1016 40 10000 4 300 12:44 02.04.2020
160 Clouds -9 1016 40 10000 4 300 12:19 02.04.2020
161 Clouds -9 1016 40 10000 4 300 11:57 02.04.2020
162 Clouds -9 1016 40 10000 4 300 11:39 02.04.2020
163 Clouds -8 1015 40 10000 5 280 11:20 02.04.2020
164 Clouds -8 1015 40 10000 5 280 11:20 02.04.2020
165 Clouds -8 1015 40 10000 4 290 10:56 02.04.2020
166 Clouds -8 1014 40 10000 4 280 10:38 02.04.2020
167 Clouds -8 1014 40 10000 4 280 10:38 02.04.2020
168 Clouds -8 1014 40 10000 4 280 10:20 02.04.2020
169 Clouds -8 1014 44 10000 5 280 09:58 02.04.2020
170 Clouds -8 1014 44 10000 5 280 09:58 02.04.2020
171 Clouds -8 1014 44 10000 5 280 09:40 02.04.2020
172 Clouds -8 1013 44 10000 6 260 09:20 02.04.2020
173 Clouds -8 1013 48 10000 6 260 08:47 02.04.2020
174 Clouds -7 1013 44 10000 5 270 08:28 02.04.2020
175 Clouds -8 1012 48 10000 7 260 07:54 02.04.2020
176 Clouds -8 1012 48 10000 7 260 07:36 02.04.2020
177 Clouds -8 1012 48 10000 7 260 07:18 02.04.2020
178 Clouds -8 1012 48 10000 7 250 06:23 02.04.2020
179 Clouds -9 1012 52 10000 7 260 05:46 02.04.2020
180 Clouds -9 1012 52 10000 7 260 05:46 02.04.2020
181 Clouds -10 1011 61 10000 7 270 04:50 02.04.2020
182 Clouds -11 1010 72 10000 6 270 02:19 02.04.2020
183 Clouds -11 1009 72 10000 5 280 00:59 02.04.2020
184 Clouds -11 1008 72 10000 5 270 00:38 02.04.2020
185 Clouds -11 1008 72 10000 5 270 00:19 02.04.2020
186 Clouds -11 1008 72 10000 6 290 23:38 01.04.2020
187 Clouds -11 1007 72 10000 6 290 23:19 01.04.2020
188 Clouds -10 1007 66 10000 7 290 22:56 01.04.2020
189 Clouds -10 1007 66 10000 7 290 22:37 01.04.2020
190 Clouds -10 1006 66 10000 5 300 22:19 01.04.2020
191 Clouds -10 1006 66 10000 6 300 21:41 01.04.2020
192 Clouds -10 1005 66 10000 5 310 21:19 01.04.2020
193 Clouds -9 1005 66 10000 6 300 20:56 01.04.2020
194 Clouds -9 1005 66 10000 6 300 20:38 01.04.2020
195 Clouds -9 1005 66 10000 5 300 20:19 01.04.2020
196 Clouds -8 1004 67 10000 5 290 19:57 01.04.2020
197 Clouds -8 1004 67 10000 5 290 19:57 01.04.2020
198 Clouds -7 1004 62 10000 5 300 19:38 01.04.2020
199 Clouds -7 1004 62 10000 5 300 19:19 01.04.2020
200 Clouds -7 1003 67 10000 6 300 18:42 01.04.2020
201 Clouds -6 1003 67 10000 5 300 18:23 01.04.2020
202 Clouds -6 1002 73 10000 6 300 17:57 01.04.2020
203 Clouds -5 1002 73 10000 7 300 17:37 01.04.2020
204 Clouds -5 1002 73 10000 7 300 17:19 01.04.2020
205 Clouds -5 1001 79 10000 5 300 16:57 01.04.2020
206 Snow -6 1001 92 10000 4 290 16:39 01.04.2020
207 Snow -6 1001 92 10000 4 290 16:20 01.04.2020
208 Snow -5 1001 85 10000 5 280 15:56 01.04.2020
209 Snow -6 1001 85 10000 5 290 15:37 01.04.2020
210 Clouds -6 1001 85 10000 5 290 15:18 01.04.2020
211 Clouds -6 1000 79 10000 4 300 14:40 01.04.2020
212 Clouds -5 1000 73 10000 4 300 14:22 01.04.2020
213 Clouds -4 1000 73 10000 4 310 13:59 01.04.2020
214 Clouds -4 1000 73 10000 4 310 13:40 01.04.2020
215 Clouds -4 999 73 10000 3 330 13:20 01.04.2020
216 Clouds -3 999 73 10000 3 310 12:59 01.04.2020
217 Clouds -3 999 73 10000 3 310 12:40 01.04.2020
218 Clouds -3 998 73 10000 3 330 12:22 01.04.2020
219 Clouds -3 998 73 10000 4 310 11:57 01.04.2020
220 Clouds -2 997 58 10000 4 300 11:37 01.04.2020
221 Clouds -2 997 58 10000 4 300 11:37 01.04.2020
222 Clouds -2 997 58 10000 4 300 11:19 01.04.2020
223 Clouds -2 996 58 10000 4 300 10:39 01.04.2020
224 Clouds -2 996 63 10000 3 330 10:21 01.04.2020
225 Clouds -1 994 54 10000 4 310 09:59 01.04.2020
226 Clouds -1 994 54 10000 4 310 09:40 01.04.2020
227 Clouds -1 994 54 10000 4 310 09:40 01.04.2020
228 Clouds -1 994 54 10000 4 310 09:20 01.04.2020
229 Clouds -1 994 54 10000 4 310 08:54 01.04.2020
230 Clouds -1 994 58 10000 4 340 08:36 01.04.2020
231 Clouds -1 994 58 10000 4 340 08:18 01.04.2020
232 Snow -1 994 58 10000 4 340 07:40 01.04.2020
233 Clouds -1 993 58 10000 3 300 07:19 01.04.2020
234 Clouds -2 993 68 10000 1 80 06:42 01.04.2020
235 Clouds -2 993 68 10000 2 80 06:20 01.04.2020
236 Clouds -3 992 73 10000 2 90 05:28 01.04.2020
237 Clouds -3 992 73 10000 3 300 03:40 01.04.2020
238 Clouds -4 992 79 10000 3 300 02:59 01.04.2020
239 Snow -5 991 85 10000 1 160 02:31 01.04.2020
240 Snow -6 991 85 2400 1 180 01:50 01.04.2020
241 Snow -6 991 85 10000 1 310 01:25 01.04.2020
242 Snow -7 991 92 10000 1 320 00:47 01.04.2020
243 Clouds -8 991 92 10000 2 290 00:22 01.04.2020
244 Clouds -8 991 85 10000 1 320 23:57 31.03.2020
245 Clouds -9 991 92 10000 1 310 23:38 31.03.2020
246 Clouds -9 991 92 10000 1 330 23:19 31.03.2020
247 Clouds -9 991 92 10000 2 320 22:40 31.03.2020
248 Clouds -9 991 92 10000 2 320 22:21 31.03.2020
249 Clouds -9 991 92 10000 2 330 21:58 31.03.2020
250 Clouds -9 991 92 10000 2 340 21:40 31.03.2020
251 Clouds -9 991 92 10000 2 340 21:21 31.03.2020
252 Clouds -10 991 92 10000 3 330 20:57 31.03.2020
253 Clouds -10 991 92 10000 3 330 20:57 31.03.2020
254 Clouds -10 991 92 10000 3 330 20:37 31.03.2020
255 Clouds -10 991 92 10000 3 330 20:19 31.03.2020
256 Clouds -10 991 92 10000 2 330 19:56 31.03.2020
257 Clouds -10 991 100 10000 3 340 19:37 31.03.2020
258 Clouds -10 991 92 10000 3 330 19:19 31.03.2020
259 Snow -10 991 85 10000 1 350 18:43 31.03.2020
260 Snow -9 991 92 10000 2 30 18:20 31.03.2020
261 Snow -9 991 92 10000 2 30 17:57 31.03.2020
262 Snow -8 991 92 5000 1 30 17:39 31.03.2020
263 Snow -8 991 92 5000 1 30 17:21 31.03.2020
264 Snow -7 991 79 3200 1 90 16:56 31.03.2020
265 Snow -7 992 85 10000 2 350 16:36 31.03.2020
266 Snow -7 992 85 10000 2 350 16:18 31.03.2020
267 Snow -7 992 85 10000 2.46 134 15:54 31.03.2020
268 Clouds -7 992 79 10000 1 190 15:36 31.03.2020
269 Clouds -7 992 79 10000 1 190 15:18 31.03.2020
270 Clouds -7 993 79 10000 1 290 14:41 31.03.2020
271 Clouds -8 993 78 10000 1 90 14:22 31.03.2020
272 Clouds -7 993 73 10000 1 70 13:58 31.03.2020
273 Clouds -7 993 73 10000 1 70 13:39 31.03.2020
274 Clouds -7 993 73 10000 1 110 13:19 31.03.2020
275 Clouds -6 993 67 10000 1 130 12:44 31.03.2020
276 Snow -5 994 62 10000 2 130 12:20 31.03.2020
277 Clouds -4 994 62 10000 2 140 11:56 31.03.2020
278 Clouds -3 994 58 10000 2 160 11:37 31.03.2020
279 Clouds -3 994 58 10000 2 160 11:18 31.03.2020
280 Clouds -2 994 54 10000 2 170 10:55 31.03.2020
281 Clouds -2 994 54 10000 2 170 10:55 31.03.2020
282 Clouds -2 994 58 10000 2 170 10:37 31.03.2020
283 Clouds -2 994 58 10000 2 170 10:18 31.03.2020
284 Clouds -2 994 58 10000 2 170 10:18 31.03.2020
285 Clouds -2 995 58 10000 4 190 09:43 31.03.2020
286 Clouds -2 995 58 10000 4 190 09:25 31.03.2020
287 Clouds -3 995 68 10000 3 180 08:58 31.03.2020
288 Clouds -3 995 68 10000 3 180 08:40 31.03.2020
289 Snow -2 996 68 10000 4 170 08:20 31.03.2020
290 Snow -2 996 68 10000 4 170 07:57 31.03.2020
291 Snow -2 996 68 10000 4 170 07:38 31.03.2020
292 Snow -2 996 68 10000 4 170 07:20 31.03.2020
293 Clouds -3 996 86 10000 4 170 06:51 31.03.2020
294 Snow -4 997 92 1500 5 170 06:31 31.03.2020
295 Snow -4 997 79 3200 5 160 05:41 31.03.2020
296 Clouds -5 998 79 10000 4 160 04:33 31.03.2020
297 Clouds -8 998 85 10000 3 160 02:30 31.03.2020
298 Clouds -9 999 92 10000 3 160 01:46 31.03.2020
299 Snow -10 999 92 5000 3 160 00:53 31.03.2020
300 Snow -11 999 92 10000 2 160 00:25 31.03.2020
301 Clouds -11 999 92 10000 2 160 23:59 30.03.2020
302 Clouds -11 999 92 10000 2 160 23:38 30.03.2020
303 Clouds -11 999 92 10000 3 180 23:19 30.03.2020
304 Clouds -14 999 92 10000 2 150 22:57 30.03.2020
305 Clouds -14 999 92 10000 2 150 22:38 30.03.2020
306 Clouds -14 1000 92 10000 2 150 22:18 30.03.2020
307 Clouds -9 1000 92 10000 3 210 21:57 30.03.2020
308 Clouds -9 1000 92 10000 3 220 21:37 30.03.2020
309 Clouds -9 1000 92 10000 3 220 21:19 30.03.2020
310 Clouds -10 1000 100 10000 3 210 20:56 30.03.2020
311 Clouds -10 1000 85 10000 1 250 20:37 30.03.2020
312 Clouds -10 1000 85 10000 1 250 20:19 30.03.2020
313 Clouds -7 1000 85 10000 3 270 19:41 30.03.2020
314 Clouds -7 1000 85 10000 3 270 19:41 30.03.2020
315 Clouds -6 1000 85 10000 4 260 19:22 30.03.2020
316 Clouds -6 1000 92 10000 4 270 18:57 30.03.2020
317 Clouds -6 1000 92 10000 5 270 18:39 30.03.2020
318 Clouds -6 1000 92 10000 5 270 18:21 30.03.2020
319 Clouds -6 1000 92 10000 5 270 17:57 30.03.2020
320 Clouds -6 1000 92 10000 4 260 17:38 30.03.2020
321 Clouds -6 1000 92 10000 4 260 17:19 30.03.2020
322 Clouds -10 1000 92 10000 3 240 16:56 30.03.2020
323 Clouds -10 1000 92 10000 3 240 16:56 30.03.2020
324 Clouds -10 1000 92 10000 3 240 16:38 30.03.2020
325 Clouds -8 1000 92 10000 3 230 16:19 30.03.2020
326 Clouds -9 1000 100 10000 4 220 15:54 30.03.2020
327 Clouds -9 1000 92 10000 3 220 15:36 30.03.2020
328 Clouds -9 1000 92 10000 3 220 15:18 30.03.2020
329 Clouds -7 1000 92 10000 1 300 14:54 30.03.2020
330 Snow -4 1000 92 3200 2 260 14:36 30.03.2020
331 Snow -4 1000 92 3200 2 260 14:18 30.03.2020
332 Snow -3 1000 92 5000 3 260 13:43 30.03.2020
333 Snow -3 1000 73 3200 4 230 13:21 30.03.2020
334 Clouds -6 999 79 10000 2 190 12:57 30.03.2020
335 Clouds -5 999 79 10000 2 160 12:38 30.03.2020
336 Clouds -5 999 79 10000 2 160 12:38 30.03.2020
337 Clouds -5 999 79 10000 2 160 12:19 30.03.2020
338 Clouds -4 999 79 10000 3 140 11:56 30.03.2020
339 Clouds -4 999 79 10000 3 140 11:38 30.03.2020
340 Clouds -3 999 79 10000 2 120 11:20 30.03.2020
341 Clouds -3 999 73 10000 1 80 10:40 30.03.2020
342 Clouds -1 998 63 10000 4 260 10:21 30.03.2020
343 Clouds -1 998 86 10000 2 110 09:56 30.03.2020
344 Clouds -1 998 86 10000 2 110 09:56 30.03.2020
345 Clouds -1 998 86 10000 2 110 09:38 30.03.2020
346 Clouds -2 998 86 10000 2 60 09:18 30.03.2020
347 Clouds -2 998 86 10000 2 310 08:41 30.03.2020
348 Snow -3 998 92 800 6 320 08:22 30.03.2020
349 Snow -3 998 92 1500 5 250 07:49 30.03.2020
350 Clouds -1 997 63 10000 4 170 07:27 30.03.2020
351 Clouds -2 998 68 10000 3 160 06:54 30.03.2020
352 Clouds -1 998 63 10000 3 170 06:31 30.03.2020
353 Clouds -1 998 63 10000 3 170 06:31 30.03.2020
354 Clouds -2 998 68 10000 2 170 05:53 30.03.2020
355 Clouds -4 998 73 10000 2 170 05:22 30.03.2020
356 Clouds -5 997 73 10000 2 160 04:23 30.03.2020
357 Clouds -6 997 73 10000 2 170 03:38 30.03.2020
358 Clouds -9 997 72 10000 2 210 02:39 30.03.2020
359 Clouds -11 997 78 10000 1 130 01:44 30.03.2020
360 Clouds -11 997 78 10000 1.42 221 00:49 30.03.2020
361 Clouds -12 997 85 10000 1.42 221 00:22 30.03.2020
362 Clouds -12 997 78 10000 1 200 23:42 29.03.2020
363 Clouds -13 997 84 10000 1 250 23:23 29.03.2020
364 Clouds -13 996 84 10000 1 150 22:57 29.03.2020
365 Clouds -13 996 84 10000 1 150 22:38 29.03.2020
366 Clouds -13 996 78 10000 1.01 217 22:19 29.03.2020
367 Clouds -14 996 84 10000 1.01 217 21:56 29.03.2020
368 Clouds -14 996 84 10000 1.01 217 21:36 29.03.2020
369 Clouds -14 996 84 10000 0.56 218 21:18 29.03.2020
370 Clouds -13 996 84 10000 0.56 218 20:54 29.03.2020
371 Clouds -13 996 78 10000 1 100 20:36 29.03.2020
372 Clouds -13 996 78 10000 1 100 20:18 29.03.2020
373 Clouds -13 995 78 10000 0.56 218 19:42 29.03.2020
374 Clouds -13 995 78 10000 0.56 218 19:24 29.03.2020
375 Clouds -13 995 71 10000 1 170 18:58 29.03.2020
376 Clouds -13 995 71 10000 1 270 18:40 29.03.2020
377 Clouds -14 995 77 10000 1 260 18:20 29.03.2020
378 Clouds -14 995 77 10000 1 260 18:20 29.03.2020
379 Clouds -14 995 77 10000 1 260 17:57 29.03.2020
380 Clouds -16 995 84 10000 1 300 17:39 29.03.2020
381 Clouds -16 995 84 10000 1 300 17:20 29.03.2020
382 Clouds -17 995 84 10000 1 290 16:58 29.03.2020
383 Clouds -17 995 84 10000 1 290 16:39 29.03.2020
384 Clouds -20 995 83 10000 2 230 16:20 29.03.2020
385 Clouds -18 994 77 10000 1 270 15:56 29.03.2020
386 Clouds -16 994 77 10000 2 320 15:37 29.03.2020
387 Clouds -16 994 77 10000 2 320 15:19 29.03.2020
388 Clouds -16 994 84 10000 2 270 14:55 29.03.2020
389 Clouds -14 994 84 10000 2 230 14:36 29.03.2020
390 Clouds -14 994 84 10000 2 230 14:18 29.03.2020
391 Clouds -14 994 77 10000 3 210 13:41 29.03.2020
392 Clouds -14 994 77 10000 3 210 13:21 29.03.2020
393 Clouds -14 994 77 10000 3 210 13:21 29.03.2020
394 Clouds -11 993 72 10000 2 210 12:58 29.03.2020
395 Clouds -9 993 66 10000 1 180 12:39 29.03.2020
396 Clouds -9 993 66 10000 1 180 12:19 29.03.2020
397 Clouds -6 993 57 10000 2 180 11:57 29.03.2020
398 Clouds -5 993 53 10000 3 160 11:37 29.03.2020
399 Clouds -5 993 53 10000 3 160 11:19 29.03.2020
400 Clouds -5 993 53 10000 3 170 10:39 29.03.2020
401 Clouds -5 993 53 10000 3 170 10:20 29.03.2020
402 Clouds -5 993 53 10000 4 160 09:56 29.03.2020
403 Clouds -5 993 53 10000 4 160 09:56 29.03.2020
404 Clouds -5 993 53 10000 3 170 09:37 29.03.2020
405 Clouds -5 993 53 10000 3 170 09:18 29.03.2020
406 Clouds -6 993 62 10000 2 130 08:43 29.03.2020
407 Clouds -7 992 67 10000 3 130 08:24 29.03.2020
408 Clouds -6 992 62 10000 2 150 07:47 29.03.2020
409 Clouds -7 992 62 10000 2 140 07:23 29.03.2020
410 Clouds -9 993 66 10000 2 170 06:34 29.03.2020
411 Clouds -12 993 66 10000 1 130 04:56 29.03.2020
412 Clouds -15 993 71 10000 1 70 03:41 29.03.2020
413 Clouds -17 993 77 10000 1.12 328 03:20 29.03.2020
414 Clouds -17 993 77 10000 1 70 01:40 29.03.2020
415 Clouds -17 994 84 10000 1.12 328 01:21 29.03.2020
416 Clouds -20 994 83 10000 1 360 00:40 29.03.2020
417 Clouds -20 994 83 10000 1 360 00:19 29.03.2020
418 Clouds -23 994 83 10000 2 300 23:40 28.03.2020
419 Clouds -23 994 83 10000 2 300 23:22 28.03.2020
420 Snow -24 994 83 10000 2 310 22:44 28.03.2020
421 Snow -24 994 83 10000 3 310 22:22 28.03.2020
422 Snow -23 994 83 10000 2 320 21:57 28.03.2020
423 Snow -23 994 83 10000 2 320 21:57 28.03.2020
424 Snow -23 994 83 10000 2 320 21:39 28.03.2020
425 Snow -22 994 83 10000 3 300 21:20 28.03.2020
426 Snow -22 994 83 10000 2 310 20:57 28.03.2020
427 Snow -22 994 83 10000 2 310 20:38 28.03.2020
428 Clouds -22 994 83 10000 3 300 20:19 28.03.2020
429 Snow -22 994 76 10000 2 310 19:55 28.03.2020
430 Snow -21 994 83 10000 2 320 19:36 28.03.2020
431 Snow -21 994 83 10000 2 320 19:36 28.03.2020
432 Snow -21 994 83 10000 2 320 19:18 28.03.2020
433 Snow -20 995 83 10000 2 340 18:42 28.03.2020
434 Snow -20 995 83 10000 2 340 18:20 28.03.2020
435 Snow -17 995 84 10000 1 350 17:43 28.03.2020
436 Snow -17 995 84 10000 1 350 17:24 28.03.2020
437 Clouds -17 995 77 10000 2 320 16:59 28.03.2020
438 Clouds -17 995 77 10000 2 320 16:59 28.03.2020
439 Clouds -18 995 84 10000 2 310 16:40 28.03.2020
440 Clouds -18 995 84 10000 2 310 16:18 28.03.2020
441 Clouds -18 995 84 10000 3 320 15:55 28.03.2020
442 Clouds -18 995 84 10000 3 290 15:37 28.03.2020
443 Clouds -18 995 84 10000 3 290 15:18 28.03.2020
444 Clouds -19 995 84 10000 3 310 14:41 28.03.2020
445 Clouds -18 996 84 10000 3 320 14:21 28.03.2020
446 Clouds -18 996 84 10000 3 320 14:21 28.03.2020
447 Clouds -18 996 84 10000 2 320 13:43 28.03.2020
448 Clouds -18 996 84 10000 1 350 13:24 28.03.2020
449 Clouds -16 996 84 10000 2 360 12:57 28.03.2020
450 Clouds -15 996 77 10000 2 340 12:37 28.03.2020
451 Clouds -15 996 77 10000 2 340 12:18 28.03.2020
452 Clouds -12 996 72 10000 1 30 11:41 28.03.2020
453 Clouds -11 996 66 10000 2 70 11:21 28.03.2020
454 Clouds -9 996 61 10000 2 70 10:40 28.03.2020
455 Clouds -9 996 61 10000 2 70 10:22 28.03.2020
456 Clouds -8 996 57 10000 1 100 09:56 28.03.2020
457 Clouds -8 996 57 10000 2 140 09:37 28.03.2020
458 Clouds -8 996 57 10000 2 140 09:19 28.03.2020
459 Clouds -8 996 61 10000 2 140 08:42 28.03.2020
460 Clouds -8 996 61 10000 3 140 08:22 28.03.2020
461 Clouds -8 996 61 10000 3 140 07:46 28.03.2020
462 Clouds -8 996 61 10000 3 140 07:28 28.03.2020
463 Clouds -8 997 57 10000 2 150 06:37 28.03.2020
464 Clouds -8 997 57 10000 2 150 06:18 28.03.2020
465 Clouds -9 997 61 10000 3 170 05:23 28.03.2020
466 Clouds -10 997 66 10000 3 180 04:43 28.03.2020
467 Clouds -11 997 66 10000 3 180 04:20 28.03.2020
468 Clouds -15 998 60 10000 2 140 02:33 28.03.2020
469 Clouds -16 998 59 10000 2 160 01:46 28.03.2020
470 Clouds -17 999 64 10000 1 150 01:20 28.03.2020
471 Clouds -19 999 64 10000 1 150 00:47 28.03.2020
472 Clouds -19 999 64 10000 1 150 00:20 28.03.2020
473 Clouds -23 999 83 10000 1 160 23:43 27.03.2020
474 Clouds -23 999 83 10000 1 160 23:24 27.03.2020
475 Clouds -24 999 76 10000 1 180 22:56 27.03.2020
476 Clouds -22 999 76 10000 2 170 22:38 27.03.2020
477 Clouds -22 999 76 10000 2 170 22:20 27.03.2020
478 Clouds -22 999 76 10000 1 170 21:56 27.03.2020
479 Clouds -20 999 70 10000 1 210 21:38 27.03.2020
480 Clouds -20 999 70 10000 1 210 21:20 27.03.2020
481 Clouds -19 999 64 10000 3 220 20:43 27.03.2020
482 Clouds -17 999 59 10000 3 240 20:22 27.03.2020
483 Snow -16 1000 59 10000 3 250 19:59 27.03.2020
484 Snow -16 1000 59 10000 3 250 19:41 27.03.2020
485 Snow -15 1000 60 10000 3 250 19:22 27.03.2020
486 Snow -14 1000 55 10000 3 250 18:56 27.03.2020
487 Snow -14 1000 55 10000 2 250 18:38 27.03.2020
488 Snow -14 1000 55 10000 2 250 18:19 27.03.2020
489 Snow -13 1001 55 10000 3 250 17:40 27.03.2020
490 Snow -13 1001 55 10000 3 250 17:20 27.03.2020
491 Snow -13 1001 55 10000 3 250 16:54 27.03.2020
492 Snow -13 1001 55 10000 4 250 16:36 27.03.2020
493 Snow -13 1001 55 10000 4 250 16:18 27.03.2020
494 Snow -12 1002 51 10000 2 260 15:41 27.03.2020
495 Snow -12 1002 51 10000 2 260 15:23 27.03.2020
496 Snow -12 1002 55 10000 3 260 14:46 27.03.2020
497 Snow -11 1003 47 10000 2 280 14:25 27.03.2020
498 Snow -11 1003 47 10000 3 270 13:57 27.03.2020
499 Snow -11 1003 51 10000 3 260 13:37 27.03.2020
500 Snow -11 1003 51 10000 3 260 13:19 27.03.2020
501 Snow -11 1003 56 10000 2 250 12:55 27.03.2020
502 Clouds -11 1004 56 10000 1 250 12:37 27.03.2020
503 Clouds -11 1004 51 10000 1 280 12:18 27.03.2020
504 Clouds -10 1004 47 10000 2 280 11:41 27.03.2020
505 Clouds -10 1004 47 10000 2 280 11:23 27.03.2020
506 Clouds -10 1004 56 10000 1 340 10:55 27.03.2020
507 Clouds -10 1004 51 10000 2 360 10:37 27.03.2020
508 Clouds -10 1004 51 10000 2 360 10:37 27.03.2020
509 Clouds -10 1004 51 10000 2 360 10:18 27.03.2020
510 Clouds -10 1004 51 10000 3 300 09:56 27.03.2020
511 Clouds -10 1004 51 10000 4 300 09:37 27.03.2020
512 Clouds -10 1004 51 10000 4 300 09:18 27.03.2020
513 Clouds -10 1004 51 10000 4 270 08:55 27.03.2020
514 Clouds -10 1004 56 10000 5 280 08:37 27.03.2020
515 Clouds -10 1004 56 10000 5 280 08:18 27.03.2020
516 Clouds -10 1004 56 10000 4 280 07:49 27.03.2020
517 Clouds -10 1004 56 10000 5 280 07:23 27.03.2020
518 Clouds -10 1004 61 10000 1 350 06:46 27.03.2020
519 Clouds -10 1004 61 10000 1 350 06:27 27.03.2020
520 Clouds -13 1005 65 10000 3 250 04:21 27.03.2020
521 Snow -15 1006 71 10000 3 230 02:25 27.03.2020
522 Clouds -16 1006 71 10000 4 260 01:23 27.03.2020
523 Clouds -16 1006 71 10000 4 260 00:48 27.03.2020
524 Snow -16 1005 71 10000 4 270 00:23 27.03.2020
525 Snow -16 1005 77 10000 4 270 23:42 26.03.2020
526 Snow -16 1005 77 10000 5 270 23:21 26.03.2020
527 Snow -16 1005 77 10000 5 270 22:58 26.03.2020
528 Snow -16 1005 77 5000 5 270 22:37 26.03.2020
529 Snow -16 1005 77 5000 5 270 22:19 26.03.2020
530 Snow -15 1005 77 3200 5 270 21:55 26.03.2020
531 Snow -15 1005 77 5000 5 260 21:36 26.03.2020
532 Snow -15 1005 77 5000 5 260 21:18 26.03.2020
533 Snow -15 1004 84 5000 5 270 20:41 26.03.2020
534 Snow -15 1004 84 5000 5 270 20:23 26.03.2020
535 Snow -15 1004 84 5000 5 270 20:23 26.03.2020
536 Snow -15 1004 84 2400 6 280 19:58 26.03.2020
537 Snow -15 1004 84 1500 5 280 19:40 26.03.2020
538 Snow -15 1004 84 1500 5 280 19:22 26.03.2020
539 Snow -15 1004 84 2100 6 280 18:59 26.03.2020
540 Snow -14 1004 84 2400 5 290 18:41 26.03.2020
541 Snow -14 1004 84 2400 5 290 18:23 26.03.2020
542 Snow -13 1003 84 2400 5 300 17:45 26.03.2020
543 Snow -13 1003 84 2400 6 300 17:20 26.03.2020
544 Snow -13 1003 84 2400 6 300 17:20 26.03.2020
545 Snow -13 1003 84 2400 6 300 16:59 26.03.2020
546 Snow -13 1004 84 2400 6 300 16:38 26.03.2020
547 Snow -13 1004 84 2400 6 300 16:20 26.03.2020
548 Snow -13 1004 84 3200 5 300 15:56 26.03.2020
549 Snow -13 1004 84 10000 5 310 15:38 26.03.2020
550 Snow -13 1004 84 10000 5 310 15:19 26.03.2020
551 Snow -13 1003 84 10000 4 310 14:43 26.03.2020
552 Snow -13 1004 92 3200 4 310 14:25 26.03.2020
553 Snow -13 1004 92 3200 4 310 14:25 26.03.2020
554 Snow -12 1004 85 3200 4 310 13:58 26.03.2020
555 Snow -12 1004 85 3200 4 310 13:40 26.03.2020
556 Snow -12 1004 92 3200 5 320 13:21 26.03.2020
557 Snow -12 1004 85 3200 5 330 12:39 26.03.2020
558 Snow -13 1004 92 5000 5 330 12:21 26.03.2020
559 Snow -13 1004 92 5000 5 330 11:56 26.03.2020
560 Snow -13 1004 92 5000 5 330 11:56 26.03.2020
561 Snow -13 1005 84 2400 5 340 11:37 26.03.2020
562 Snow -13 1005 84 2400 5 340 11:19 26.03.2020
563 Snow -13 1005 84 2000 6 360 10:42 26.03.2020
564 Snow -13 1005 84 2000 6 360 10:20 26.03.2020
565 Snow -13 1005 84 2000 6 360 09:46 26.03.2020
566 Snow -13 1006 84 1400 6 360 09:24 26.03.2020
567 Snow -14 1006 92 900 6 360 08:58 26.03.2020
568 Snow -14 1007 84 1500 7 360 08:40 26.03.2020
569 Snow -14 1007 84 1500 7 360 08:22 26.03.2020
570 Snow -14 1007 84 2000 7 360 07:47 26.03.2020
571 Snow -14 1008 84 1800 7 360 07:24 26.03.2020
572 Snow -14 1008 84 900 8 10 06:59 26.03.2020
573 Snow -14 1009 71 1200 9 360 06:32 26.03.2020
574 Snow -14 1011 65 10000 9 360 05:47 26.03.2020
575 Clouds -15 1013 77 10000 8 10 03:46 26.03.2020
576 Clouds -16 1015 77 10000 7 10 02:58 26.03.2020
577 Clouds -18 1016 77 10000 6 360 01:51 26.03.2020
578 Clouds -18 1017 77 10000 6 10 01:18 26.03.2020
579 Clouds -18 1018 77 10000 4 10 00:30 26.03.2020
580 Clouds -19 1019 77 10000 3 350 23:42 25.03.2020
581 Clouds -19 1019 77 10000 3 350 23:24 25.03.2020
582 Clouds -19 1019 70 10000 3 360 22:42 25.03.2020
583 Clouds -20 1020 76 10000 3 350 22:22 25.03.2020
584 Clouds -20 1020 70 10000 3 350 21:59 25.03.2020
585 Clouds -20 1020 70 10000 3 350 21:41 25.03.2020
586 Clouds -20 1021 70 10000 3 350 21:23 25.03.2020
587 Clouds -20 1021 70 10000 3 360 20:57 25.03.2020
588 Clouds -20 1021 70 10000 3 350 20:38 25.03.2020
589 Clouds -20 1021 70 10000 3 350 20:38 25.03.2020
590 Clouds -20 1021 70 10000 3 350 20:18 25.03.2020
591 Clouds -20 1022 70 10000 3 350 19:43 25.03.2020
592 Clouds -20 1022 70 10000 3 350 19:43 25.03.2020
593 Clouds -19 1022 64 10000 3 350 19:24 25.03.2020
594 Clouds -19 1023 64 10000 3 340 18:59 25.03.2020
595 Clouds -19 1023 64 10000 3 350 18:41 25.03.2020
596 Clouds -19 1023 64 10000 2 350 18:23 25.03.2020
597 Clouds -19 1023 64 10000 2 350 17:58 25.03.2020
598 Clouds -18 1023 59 10000 3 350 17:40 25.03.2020
599 Clouds -19 1023 64 10000 2 330 17:21 25.03.2020
600 Clouds -19 1023 64 10000 2 330 16:55 25.03.2020
601 Clouds -20 1023 70 10000 1 330 16:37 25.03.2020
602 Clouds -20 1023 70 10000 1 330 16:19 25.03.2020
603 Clouds -20 1023 70 10000 2 320 15:42 25.03.2020
604 Clouds -20 1024 70 10000 3 310 15:20 25.03.2020
605 Clouds -20 1023 70 10000 2 310 14:56 25.03.2020
606 Clouds -19 1023 64 10000 2 330 14:37 25.03.2020
607 Clouds -19 1023 64 10000 2 330 14:19 25.03.2020
608 Clouds -20 1023 70 10000 2 340 13:44 25.03.2020
609 Clouds -19 1023 70 10000 2 320 13:22 25.03.2020
610 Clouds -18 1023 70 10000 1.59 16 12:39 25.03.2020
611 Clouds -18 1023 70 10000 1.59 16 12:20 25.03.2020
612 Clouds -17 1023 64 10000 1.59 16 11:57 25.03.2020
613 Clouds -17 1023 64 10000 1 150 11:39 25.03.2020
614 -273 0 0 0 0 0 11:20 25.03.2020
615 Clouds -13 1023 55 10000 1 150 10:57 25.03.2020
616 Clouds -12 1023 51 10000 1 140 10:39 25.03.2020
617 Clouds -12 1023 51 10000 1 140 10:18 25.03.2020
618 Clouds -11 1023 47 10000 2 120 09:43 25.03.2020
619 Clouds -11 1023 51 10000 2 140 09:25 25.03.2020
620 Clouds -11 1023 43 10000 2 70 08:58 25.03.2020
621 Clouds -11 1023 43 10000 2 70 08:39 25.03.2020
622 Clouds -11 1022 47 10000 1 60 08:20 25.03.2020
623 Clouds -10 1022 36 10000 2 310 07:55 25.03.2020
624 Clouds -10 1022 40 10000 2 260 07:36 25.03.2020
625 Clouds -10 1022 40 10000 2 260 07:18 25.03.2020
626 Clouds -11 1023 43 10000 3 260 06:41 25.03.2020
627 Clouds -11 1023 43 10000 3 260 06:22 25.03.2020
628 Clouds -10 1022 40 10000 1 230 05:46 25.03.2020
629 Clouds -12 1022 46 10000 4 260 04:42 25.03.2020
630 Clouds -13 1022 50 10000 2 260 03:57 25.03.2020
631 Clouds -14 1022 55 10000 3 270 03:30 25.03.2020
632 Clear -15 1021 54 10000 5 260 01:40 25.03.2020
633 Clouds -16 1020 65 10000 3 290 00:50 25.03.2020
634 Clouds -16 1020 65 10000 3 260 00:27 25.03.2020
635 Clouds -17 1020 70 10000 2 210 23:54 24.03.2020
636 Clouds -17 1019 70 10000 3 260 23:28 24.03.2020
637 Clouds -17 1019 77 10000 3 250 22:58 24.03.2020
638 Clouds -17 1018 70 10000 2 260 22:38 24.03.2020
639 Clouds -17 1018 70 10000 2 260 22:20 24.03.2020
640 Clouds -17 1018 70 10000 2 260 22:20 24.03.2020
641 Clouds -17 1018 77 10000 3 280 21:58 24.03.2020
642 Clouds -17 1018 77 10000 3 280 21:40 24.03.2020
643 Clouds -17 1018 77 10000 3 280 21:40 24.03.2020
644 Clouds -17 1018 77 10000 3 250 21:18 24.03.2020
645 Clouds -17 1018 77 10000 3 260 20:58 24.03.2020
646 Clouds -17 1018 77 10000 3 260 20:39 24.03.2020
647 Clouds -17 1017 77 10000 3 260 20:21 24.03.2020
648 Clouds -17 1017 77 10000 3.84 267 19:47 24.03.2020
649 Clouds -16 1016 71 10000 1 260 19:22 24.03.2020
650 Clouds -16 1016 77 10000 3 270 18:58 24.03.2020
651 Clouds -15 1015 71 10000 3 290 18:38 24.03.2020
652 Clouds -15 1015 71 10000 2 270 18:20 24.03.2020
653 Clouds -15 1015 71 10000 2 270 17:56 24.03.2020
654 Clouds -15 1015 71 10000 2 270 17:56 24.03.2020
655 Clouds -14 1015 65 10000 2 270 17:38 24.03.2020
656 Clouds -13 1014 65 10000 2 280 17:20 24.03.2020
657 Clouds -13 1014 65 10000 2 280 16:56 24.03.2020
658 Clouds -12 1014 60 10000 4 290 16:37 24.03.2020
659 Clouds -12 1014 60 10000 4 290 16:19 24.03.2020
660 Clouds -11 1013 56 10000 6 290 15:42 24.03.2020
661 Clouds -11 1013 61 10000 6 290 15:24 24.03.2020
662 Clouds -10 1012 61 10000 6 300 14:44 24.03.2020
663 Clouds -10 1012 61 10000 6 300 14:44 24.03.2020
664 Clouds -9 1012 61 10000 6 300 14:23 24.03.2020
665 Clouds -8 1011 61 10000 5 310 13:59 24.03.2020
666 Clouds -6 1010 62 10000 5 290 13:41 24.03.2020
667 Clouds -6 1010 62 10000 5 290 13:41 24.03.2020
668 Clouds -6 1010 62 10000 5 290 13:22 24.03.2020
669 Clouds -5 1009 57 10000 6 290 12:43 24.03.2020
670 Clouds -5 1009 57 10000 6 290 12:25 24.03.2020
671 Clouds -4 1008 62 10000 6 300 11:56 24.03.2020
672 Snow -4 1007 68 10000 7 300 11:37 24.03.2020
673 Snow -4 1007 68 10000 7 300 11:18 24.03.2020
674 Snow -1 1005 74 10000 6 300 10:41 24.03.2020
675 Snow -1 1005 74 10000 6 300 10:19 24.03.2020
676 Snow -1 1005 74 10000 6 300 10:19 24.03.2020
677 Clouds 0 1004 84 10000 4 300 09:47 24.03.2020
678 Clouds 0 1003 84 10000 5 300 09:27 24.03.2020
679 Clouds 0 1002 84 10000 6 300 08:58 24.03.2020
680 Clouds 0 1002 84 10000 6 300 08:38 24.03.2020
681 Snow -1 1002 92 3400 10 290 08:20 24.03.2020
682 Clouds 1 1001 69 10000 7 290 07:44 24.03.2020
683 Clouds 3 1000 55 10000 5 290 07:22 24.03.2020
684 Clouds 1 1000 86 10000 5 260 06:42 24.03.2020
685 Clouds 1 1000 86 10000 5 260 06:21 24.03.2020
686 Clouds 2 999 69 10000 6 250 04:52 24.03.2020
687 Clouds 2 998 74 10000 6 250 03:41 24.03.2020
688 Clouds 0 998 99 10000 2 170 02:45 24.03.2020
689 Clouds -2 998 92 10000 3 180 01:22 24.03.2020
690 Clouds -2 997 92 10000 3 170 00:41 24.03.2020
691 Clouds -3 998 100 10000 3 180 00:22 24.03.2020
692 Clouds -3 997 92 10000 3 180 23:38 23.03.2020
693 Clouds -3 997 92 10000 3 180 23:20 23.03.2020
694 Snow -3 997 92 2100 4 170 22:45 23.03.2020
695 Snow -4 997 100 2400 4 170 22:23 23.03.2020
696 Snow -4 997 100 1000 4 160 21:57 23.03.2020
697 Snow -4 997 92 900 4 150 21:38 23.03.2020
698 Snow -4 997 92 900 4 150 21:20 23.03.2020
699 Snow -4 998 92 900 5 150 20:56 23.03.2020
700 Snow -4 998 92 800 5 160 20:38 23.03.2020
701 Snow -4 998 92 800 5 160 20:19 23.03.2020
702 Snow -4 998 92 1200 5 170 19:44 23.03.2020
703 Snow -3 998 63 10000 3 170 19:24 23.03.2020
704 Snow -4 998 62 10000 3 150 18:56 23.03.2020
705 Snow -4 998 62 10000 3 130 18:38 23.03.2020
706 Snow -4 999 62 10000 3 130 18:20 23.03.2020
707 Snow -5 1000 67 10000 3 130 17:42 23.03.2020
708 Snow -5 1001 67 10000 2 140 17:21 23.03.2020
709 Clouds -5 1001 67 10000 2 140 16:57 23.03.2020
710 Clouds -5 1001 62 10000 1 170 16:39 23.03.2020
711 Clouds -5 1001 62 10000 1 170 16:20 23.03.2020
712 Clouds -5 1002 62 10000 2 160 15:41 23.03.2020
713 Clouds -5 1002 62 10000 4 130 15:19 23.03.2020
714 Clouds -5 1003 62 10000 3 130 14:38 23.03.2020
715 Clouds -5 1003 62 10000 3 130 14:20 23.03.2020
716 Clouds -5 1004 62 10000 2 160 13:59 23.03.2020
717 Clouds -7 1004 67 10000 2 150 13:40 23.03.2020
718 Clouds -7 1004 67 10000 2 150 13:20 23.03.2020
719 Clouds -13 1004 71 10000 1 300 12:44 23.03.2020
720 Clouds -12 1005 66 10000 1 350 12:25 23.03.2020
721 Clouds -12 1005 66 10000 1 340 11:59 23.03.2020
722 Clouds -12 1005 66 10000 1 340 11:59 23.03.2020
723 Clouds -11 1005 66 10000 2 10 11:40 23.03.2020
724 Clouds -10 1006 61 10000 1 340 11:19 23.03.2020
725 Clouds -10 1006 61 10000 1 340 10:57 23.03.2020
726 Clouds -9 1006 61 10000 2 350 10:38 23.03.2020
727 Clouds -9 1006 61 10000 2 350 10:20 23.03.2020
728 Clouds -9 1006 61 10000 2 350 09:44 23.03.2020
729 Clouds -9 1007 56 10000 2 360 09:21 23.03.2020
730 Clouds -9 1007 56 10000 2 360 08:57 23.03.2020
731 Clouds -9 1008 56 10000 2 360 08:36 23.03.2020
732 Clouds -9 1008 56 10000 2 360 08:18 23.03.2020
733 Clouds -9 1008 56 10000 2 10 07:42 23.03.2020
734 Clouds -9 1009 56 10000 2 20 07:23 23.03.2020
735 Clouds -9 1009 52 10000 2 20 06:50 23.03.2020
736 Clouds -10 1010 51 10000 1 30 05:54 23.03.2020
737 Clouds -10 1010 51 10000 1 30 05:29 23.03.2020
738 Clear -13 1011 50 10000 0.85 153 03:29 23.03.2020
739 Clear -16 1012 71 10000 0.15 160 01:51 23.03.2020
740 Clear -16 1012 71 10000 0.15 160 01:33 23.03.2020
741 Clear -22 1012 83 10000 2 300 00:39 23.03.2020
742 Clear -23 1012 83 10000 4 290 23:47 22.03.2020
743 Clear -23 1012 83 10000 4 290 23:26 22.03.2020
744 Clear -22 1012 83 10000 4 290 22:45 22.03.2020
745 Clear -22 1012 83 10000 4 290 22:26 22.03.2020
746 Clear -21 1012 83 10000 3 300 21:56 22.03.2020
747 Clear -21 1012 83 10000 2 280 21:37 22.03.2020
748 Clear -21 1012 83 10000 2 280 21:19 22.03.2020
749 Clear -20 1012 91 10000 3 290 20:46 22.03.2020
750 Clear -19 1012 91 10000 2 290 20:26 22.03.2020
751 Snow -22 1012 83 10000 1 280 19:59 22.03.2020
752 Snow -22 1012 83 10000 1 280 19:40 22.03.2020
753 Snow -16 1012 77 10000 2 320 19:21 22.03.2020
754 Snow -15 1012 77 10000 3 310 18:59 22.03.2020
755 Snow -15 1012 84 10000 2 310 18:41 22.03.2020
756 Snow -15 1012 84 10000 2 310 18:22 22.03.2020
757 Snow -14 1011 77 10000 2 340 17:59 22.03.2020
758 Clouds -13 1011 78 10000 3 340 17:39 22.03.2020
759 Clouds -13 1011 78 10000 3 340 17:21 22.03.2020
760 Clouds -13 1011 78 10000 3 340 17:21 22.03.2020
761 Clouds -11 1011 72 10000 4 350 16:59 22.03.2020
762 Clouds -11 1011 72 10000 4 350 16:59 22.03.2020
763 Clouds -11 1011 72 10000 4 350 16:41 22.03.2020
764 Snow -11 1011 92 10000 2 340 16:22 22.03.2020
765 Snow -11 1011 85 10000 2 350 15:58 22.03.2020
766 Snow -11 1011 85 10000 2 350 15:39 22.03.2020
767 Snow -10 1010 92 10000 2 330 14:47 22.03.2020
768 Clouds -8 1010 78 10000 3 320 14:19 22.03.2020
769 Clouds -8 1010 85 10000 3 310 13:57 22.03.2020
770 Clouds -8 1010 85 10000 3 310 13:39 22.03.2020
771 Clouds -8 1010 85 10000 3 300 13:19 22.03.2020
772 Clouds -8 1010 85 10000 2 330 12:44 22.03.2020
773 Clouds -10 1009 78 10000 3 290 12:21 22.03.2020
774 Clouds -11 1009 78 10000 2 290 11:57 22.03.2020
775 Clouds -9 1009 72 10000 1 310 11:39 22.03.2020
776 Clouds -9 1009 72 10000 1 310 11:20 22.03.2020
777 Clouds -7 1009 73 10000 1 110 10:43 22.03.2020
778 Clouds -6 1009 62 10000 1.41 248 10:24 22.03.2020
779 Clouds -5 1009 62 10000 1.41 248 09:49 22.03.2020
780 Clouds -5 1008 62 10000 2 90 09:30 22.03.2020
781 Clouds -6 1009 62 10000 1 30 08:55 22.03.2020
782 Clouds -3 1008 45 10000 1 170 08:37 22.03.2020
783 Clouds -3 1008 45 10000 1 170 08:18 22.03.2020
784 Clouds -4 1008 45 10000 2 190 07:49 22.03.2020
785 Clouds -4 1008 45 10000 2 170 07:19 22.03.2020
786 Clouds -5 1008 45 10000 3 170 05:56 22.03.2020
787 Clouds -7 1009 48 10000 2 170 04:58 22.03.2020
788 Clouds -12 1009 60 10000 1 170 02:50 22.03.2020
789 Clouds -20 1009 76 10000 2.03 190 01:22 22.03.2020
790 Clouds -21 1009 76 10000 2.03 190 00:39 22.03.2020
791 Clouds -21 1009 76 10000 2.03 190 00:21 22.03.2020
792 Clouds -22 1009 76 10000 1 300 23:41 21.03.2020
793 Clouds -22 1009 76 10000 1 300 23:41 21.03.2020
794 Clouds -22 1009 76 10000 1 300 23:19 21.03.2020
795 Clouds -25 1009 75 10000 1.85 175 22:38 21.03.2020
796 Clouds -25 1009 75 10000 1.85 175 22:20 21.03.2020
797 Clouds -23 1009 83 10000 1 290 21:59 21.03.2020
798 Clouds -23 1009 83 10000 1 290 21:40 21.03.2020
799 Clouds -24 1009 76 10000 1 300 21:22 21.03.2020
800 Clouds -25 1009 83 10000 1 280 20:46 21.03.2020
801 Clouds -24 1009 83 10000 1 260 20:23 21.03.2020
802 Clouds -24 1009 83 10000 1.93 172 19:58 21.03.2020
803 Clouds -22 1009 76 10000 1 280 19:39 21.03.2020
804 Clouds -22 1009 76 10000 1 280 19:21 21.03.2020
805 Clouds -22 1009 83 10000 2 290 18:55 21.03.2020
806 Clouds -20 1009 83 10000 2 290 18:37 21.03.2020
807 Clouds -20 1009 83 10000 2 290 18:19 21.03.2020
808 Clouds -19 1010 84 10000 2 290 17:43 21.03.2020
809 Clouds -19 1010 84 10000 2 290 17:43 21.03.2020
810 Clouds -19 1010 84 10000 2 290 17:24 21.03.2020
811 Clouds -19 1010 84 10000 2 290 16:57 21.03.2020
812 Clouds -18 1010 77 10000 2 300 16:39 21.03.2020
813 Clouds -18 1010 77 10000 2 300 16:19 21.03.2020
814 Clouds -17 1010 70 10000 2 310 15:55 21.03.2020
815 Clouds -18 1010 77 10000 2 310 15:36 21.03.2020
816 Clouds -18 1010 77 10000 2 310 15:18 21.03.2020
817 Clouds -16 1010 77 10000 2 310 14:54 21.03.2020
818 Clouds -16 1010 77 10000 2 320 14:36 21.03.2020
819 Clouds -16 1010 77 10000 2 320 14:36 21.03.2020
820 Clear -16 1010 77 10000 2 320 14:18 21.03.2020
821 Clear -14 1010 71 10000 1 240 13:54 21.03.2020
822 Clear -14 1010 65 10000 1 200 13:36 21.03.2020
823 Clear -14 1010 65 10000 1 200 13:18 21.03.2020
824 Clear -13 1010 65 10000 2 190 12:39 21.03.2020
825 Clear -13 1010 65 10000 2 190 12:19 21.03.2020
826 Clear -14 1010 65 10000 2 170 11:57 21.03.2020
827 Clear -10 1010 61 10000 2 160 11:38 21.03.2020
828 Clear -10 1010 61 10000 2 160 11:38 21.03.2020
829 Clear -6 1010 48 10000 2 170 11:19 21.03.2020
830 Clear -6 1010 48 10000 2 170 10:57 21.03.2020
831 Clear -4 1010 38 10000 3 180 10:39 21.03.2020
832 Clear -4 1010 38 10000 3 180 10:20 21.03.2020
833 Clear -3 1010 38 10000 2 180 09:57 21.03.2020
834 Clear -3 1010 35 10000 3 160 09:37 21.03.2020
835 Clear -3 1010 35 10000 3 160 09:19 21.03.2020
836 Clear -3 1010 35 10000 3 160 09:19 21.03.2020
837 Clear -3 1009 38 10000 3 170 08:44 21.03.2020
838 Clear -3 1009 38 10000 3 170 08:25 21.03.2020
839 Clear -3 1009 38 10000 3 170 07:52 21.03.2020
840 Clear -3 1010 38 10000 4 170 07:32 21.03.2020
841 Clear -3 1010 38 10000 3 170 06:49 21.03.2020
842 Clear -4 1010 41 10000 3 180 06:29 21.03.2020
843 Clear -5 1010 45 10000 4 180 05:48 21.03.2020
844 Clear -6 1010 48 10000 3 180 05:23 21.03.2020
845 Clouds -12 1011 66 10000 3 180 03:32 21.03.2020
846 Clouds -14 1011 65 10000 3 180 02:35 21.03.2020
847 Clouds -15 1011 65 10000 3 170 01:40 21.03.2020
848 Clouds -17 1011 70 10000 1 210 01:20 21.03.2020
849 Clouds -22 1011 76 10000 2.4 192 00:38 21.03.2020
850 Clouds -23 1010 83 10000 2.4 192 23:59 20.03.2020
851 Clouds -23 1010 83 10000 1 180 23:40 20.03.2020
852 Clouds -23 1010 83 10000 1 180 23:18 20.03.2020
853 Clouds -24 1010 83 10000 1 200 22:42 20.03.2020
854 Clouds -23 1010 83 10000 2 210 22:24 20.03.2020
855 Clouds -24 1009 83 10000 1 210 21:57 20.03.2020
856 Clouds -23 1009 83 10000 2 200 21:39 20.03.2020
857 Clouds -23 1009 83 10000 2 200 21:18 20.03.2020
858 Clouds -24 1009 83 10000 2 200 20:57 20.03.2020
859 Clouds -23 1009 76 10000 1 190 20:39 20.03.2020
860 Clouds -23 1009 76 10000 1 190 20:18 20.03.2020
861 Clouds -23 1009 83 10000 1 170 19:46 20.03.2020
862 Clouds -23 1009 83 10000 1 200 19:19 20.03.2020
863 Clouds -23 1009 76 10000 1 210 18:56 20.03.2020
864 Clouds -24 1009 83 10000 1 200 18:37 20.03.2020
865 Clouds -24 1009 83 10000 1 200 18:19 20.03.2020
866 Clouds -23 1008 83 10000 2.08 190 17:40 20.03.2020
867 Clouds -23 1008 83 10000 2.08 190 17:21 20.03.2020
868 Clouds -23 1008 83 10000 1.41 210 16:59 20.03.2020
869 Clouds -21 1008 83 10000 1 280 16:41 20.03.2020
870 Clouds -21 1008 83 10000 1 280 16:20 20.03.2020
871 Clouds -19 1008 84 10000 1 260 15:43 20.03.2020
872 Clouds -19 1008 84 10000 2 280 15:22 20.03.2020
873 Clouds -18 1007 77 10000 1 240 14:57 20.03.2020
874 Clouds -18 1007 77 10000 1 240 14:38 20.03.2020
875 Clouds -18 1007 77 10000 1 240 14:19 20.03.2020
876 Clouds -17 1007 77 10000 2 260 13:46 20.03.2020
877 Clouds -17 1007 84 10000 2 220 13:20 20.03.2020
878 Clouds -18 1007 77 10000 1 190 12:54 20.03.2020
879 Clouds -16 1006 77 10000 1 220 12:36 20.03.2020
880 Clouds -16 1006 71 10000 1 230 12:18 20.03.2020
881 Clouds -12 1006 60 10000 1 250 11:39 20.03.2020
882 Clouds -10 1005 51 10000 2 250 11:20 20.03.2020
883 Clouds -10 1005 51 10000 2 250 10:54 20.03.2020
884 Clouds -7 1005 48 10000 3 260 10:36 20.03.2020
885 Clouds -7 1005 48 10000 3 260 10:18 20.03.2020
886 Clouds -6 1005 44 10000 3 240 09:43 20.03.2020
887 Clouds -5 1004 45 10000 4 270 09:20 20.03.2020
888 Clouds -5 1004 41 10000 5 260 08:43 20.03.2020
889 Clouds -4 1004 38 10000 3 270 08:22 20.03.2020
890 Clouds -5 1003 41 10000 4 270 07:57 20.03.2020
891 Clouds -5 1003 41 10000 6 270 07:38 20.03.2020
892 Clouds -5 1003 41 10000 6 270 07:19 20.03.2020
893 Clouds -5 1003 45 10000 5 280 06:42 20.03.2020
894 Clouds -4 1001 53 10000 3 300 04:57 20.03.2020
895 Clouds -5 1001 57 10000 4 310 04:27 20.03.2020
896 Clouds -8 1000 85 10000 3 360 02:43 20.03.2020
897 Snow -11 999 85 3200 1 300 01:50 20.03.2020
898 Clouds -15 998 77 10000 1 270 00:38 20.03.2020
899 Clouds -15 997 77 10000 4.18 292 23:58 19.03.2020
900 Snow -16 997 84 10000 1 270 23:40 19.03.2020
901 Snow -15 997 77 5000 1.97 218 23:19 19.03.2020
902 Snow -15 997 77 5000 1 300 22:38 19.03.2020
903 Snow -15 997 77 5000 1 300 22:20 19.03.2020
904 Clouds -16 997 77 10000 2 320 21:58 19.03.2020
905 Clouds -16 996 77 10000 1 10 21:38 19.03.2020
906 Clouds -16 996 77 10000 1 10 21:18 19.03.2020
907 Clouds -16 996 77 10000 2 340 20:43 19.03.2020
908 Clouds -18 996 84 10000 2 340 20:25 19.03.2020
909 Clouds -19 996 84 10000 2 310 19:59 19.03.2020
910 Clouds -17 996 77 10000 1 350 19:38 19.03.2020
911 Clouds -17 996 77 10000 1 350 19:20 19.03.2020
912 Clouds -17 996 77 10000 1 350 19:20 19.03.2020
913 Clouds -18 996 77 10000 1 290 18:58 19.03.2020
914 Clouds -17 996 77 10000 1.77 222 18:40 19.03.2020
915 Clouds -17 996 70 10000 1 260 18:21 19.03.2020
916 Clouds -17 996 70 10000 1 260 18:21 19.03.2020
917 Clouds -15 996 71 10000 1 260 17:44 19.03.2020
918 Clouds -15 996 71 10000 1 270 17:20 19.03.2020
919 Clouds -15 996 71 10000 1 270 17:20 19.03.2020
920 Clouds -15 996 71 10000 1 270 16:58 19.03.2020
921 Clouds -14 996 71 10000 1 300 16:39 19.03.2020
922 Clouds -14 996 71 10000 1 300 16:21 19.03.2020
923 Clouds -13 996 65 10000 1 330 15:42 19.03.2020
924 Clouds -13 996 65 10000 2 320 15:23 19.03.2020
925 Clouds -13 996 65 10000 2 330 14:43 19.03.2020
926 Snow -13 996 65 10000 1 330 14:23 19.03.2020
927 Clouds -15 996 65 10000 1 330 13:57 19.03.2020
928 Clouds -15 996 60 10000 2 330 13:37 19.03.2020
929 Clouds -15 996 60 10000 2 330 13:18 19.03.2020
930 Clouds -14 996 60 10000 2 330 12:41 19.03.2020
931 Clouds -14 996 60 10000 2 330 12:23 19.03.2020
932 Clouds -13 997 60 10000 2 330 11:58 19.03.2020
933 Clouds -13 997 60 10000 1 340 11:40 19.03.2020
934 Clouds -13 997 60 10000 1 320 11:22 19.03.2020
935 Clouds -13 998 60 10000 1 340 10:42 19.03.2020
936 Clouds -13 998 60 10000 1 340 10:21 19.03.2020
937 Clouds -13 998 55 10000 2 340 09:58 19.03.2020
938 Clouds -13 998 55 10000 2 340 09:39 19.03.2020
939 Clouds -13 998 55 10000 2 350 09:19 19.03.2020
940 Clouds -13 998 60 10000 2 350 08:46 19.03.2020
941 Clouds -13 999 60 10000 1 340 08:22 19.03.2020
942 Clouds -13 999 55 10000 1 30 07:47 19.03.2020
943 Clouds -14 1000 55 10000 2 30 07:29 19.03.2020
944 Clouds -13 1000 50 10000 2 20 06:51 19.03.2020
945 Clouds -14 1001 42 10000 1 20 05:52 19.03.2020
946 Clouds -14 1002 38 10000 1 30 05:22 19.03.2020
947 Clouds -14 1003 35 10000 1 200 04:41 19.03.2020
948 Clouds -18 1004 40 10000 3 140 03:36 19.03.2020
949 Clear -24 1006 57 10000 2 140 01:27 19.03.2020
950 Clear -25 1006 69 10000 1 240 00:38 19.03.2020
951 Clear -28 1007 68 10000 1.07 166 23:58 18.03.2020
952 Clear -29 1007 68 10000 1 290 23:39 18.03.2020
953 Clear -29 1007 68 10000 1 290 23:18 18.03.2020
954 Clear -28 1007 68 10000 1 200 22:42 18.03.2020
955 Clear -28 1007 68 10000 1 200 22:22 18.03.2020
956 Clear -27 1008 68 10000 2 200 21:54 18.03.2020
957 Clear -26 1008 62 10000 2 240 21:36 18.03.2020
958 Clear -26 1008 62 10000 2 240 21:18 18.03.2020
959 Clear -24 1008 57 10000 3 250 20:41 18.03.2020
960 Clear -25 1008 62 10000 3 240 20:21 18.03.2020
961 Clear -26 1008 62 10000 2 260 19:59 18.03.2020
962 Clear -26 1008 62 10000 1 290 19:40 18.03.2020
963 Clear -26 1008 62 10000 1 290 19:21 18.03.2020
964 Clear -25 1008 69 10000 2 290 18:56 18.03.2020
965 Clear -25 1008 62 10000 1 270 18:37 18.03.2020
966 Clear -24 1008 52 10000 1 350 18:18 18.03.2020
967 Clear -24 1008 52 10000 1 350 17:54 18.03.2020
968 Clear -22 1008 48 10000 1.51 284 17:36 18.03.2020
969 Clear -20 1008 44 10000 3 290 17:18 18.03.2020
970 Clear -19 1008 44 10000 2 300 16:42 18.03.2020
971 Clear -19 1008 44 10000 2 300 16:20 18.03.2020
972 Clear -19 1008 44 10000 2 310 15:56 18.03.2020
973 Clear -18 1008 40 10000 1 310 15:37 18.03.2020
974 Clear -18 1008 40 10000 1 310 15:19 18.03.2020
975 Clear -17 1008 41 10000 2 310 14:42 18.03.2020
976 Clear -17 1008 45 10000 2 330 14:21 18.03.2020
977 Clouds -15 1007 45 10000 5 300 13:41 18.03.2020
978 Clouds -15 1007 45 10000 5 300 13:19 18.03.2020
979 Clouds -15 1007 45 10000 5 290 12:54 18.03.2020
980 Clouds -14 1007 42 10000 4 290 12:36 18.03.2020
981 Clouds -13 1007 42 10000 5 290 12:18 18.03.2020
982 Clouds -13 1007 42 10000 5 290 12:18 18.03.2020
983 Clouds -13 1007 46 10000 4 290 11:38 18.03.2020
984 Clouds -13 1007 46 10000 4 290 11:19 18.03.2020
985 Clouds -13 1007 46 10000 4 290 10:56 18.03.2020
986 Clouds -12 1007 46 10000 5 280 10:37 18.03.2020
987 Clouds -12 1007 46 10000 5 280 10:18 18.03.2020
988 Clouds -12 1007 46 10000 5 280 10:18 18.03.2020
989 Clouds -12 1007 46 10000 5 280 10:18 18.03.2020
990 Clouds -12 1007 51 10000 3 290 09:42 18.03.2020
991 Clouds -12 1006 51 10000 4 290 09:23 18.03.2020
992 Clouds -11 1006 51 10000 4 300 08:55 18.03.2020
993 Clouds -11 1006 51 10000 4 300 08:55 18.03.2020
994 Clouds -11 1006 51 10000 4 290 08:36 18.03.2020
995 Clouds -11 1006 51 10000 4 290 08:18 18.03.2020
996 Clouds -11 1005 56 10000 4 320 07:40 18.03.2020
997 Clouds -11 1005 56 10000 4 320 07:22 18.03.2020
998 Clouds -12 1005 60 10000 5 290 06:42 18.03.2020
999 Clouds -12 1005 66 10000 5 300 05:47 18.03.2020
1000 Clouds -12 1004 66 10000 2 90 05:18 18.03.2020
1001 Clouds -13 1004 71 10000 2 50 03:53 18.03.2020
1002 Clouds -14 1004 77 10000 3 20 02:37 18.03.2020
1003 Clouds -14 1004 77 10000 3 20 02:37 18.03.2020
1004 Clouds -14 1003 77 10000 1 30 01:46 18.03.2020
1005 Clouds -14 1003 77 10000 2 330 01:20 18.03.2020
1006 Clouds -14 1003 77 10000 4 310 00:23 18.03.2020
1007 Clouds -14 1003 84 10000 4 320 23:43 17.03.2020
1008 Clouds -13 1002 84 10000 3 310 23:23 17.03.2020
1009 Snow -12 1002 85 10000 3 320 22:47 17.03.2020
1010 Snow -12 1002 85 10000 3 320 22:28 17.03.2020
1011 Snow -11 1001 85 10000 3 320 21:57 17.03.2020
1012 Snow -11 1001 85 10000 2 320 21:37 17.03.2020
1013 Snow -11 1001 85 10000 2 320 21:19 17.03.2020
1014 Snow -11 1000 85 10000 2 340 20:38 17.03.2020
1015 Snow -11 1000 85 10000 2 340 20:20 17.03.2020
1016 Snow -11 1000 85 10000 2 330 19:54 17.03.2020
1017 Snow -11 1000 85 10000 2 330 19:36 17.03.2020
1018 Snow -11 999 85 10000 2 330 19:18 17.03.2020
1019 Snow -11 999 85 10000 2 330 18:54 17.03.2020
1020 Snow -10 999 78 10000 2 330 18:36 17.03.2020
1021 Snow -10 999 78 10000 2 330 18:36 17.03.2020
1022 Snow -10 999 78 10000 2 320 18:18 17.03.2020
1023 Snow -10 999 78 10000 3 320 17:39 17.03.2020
1024 Snow -10 999 78 10000 3 320 17:20 17.03.2020
1025 Snow -10 999 78 10000 3 320 16:44 17.03.2020
1026 Snow -10 999 78 10000 2 330 16:20 17.03.2020
1027 Clouds -10 999 85 10000 3 340 15:56 17.03.2020
1028 Clouds -10 998 85 10000 2 320 15:38 17.03.2020
1029 Clouds -10 998 85 10000 2 320 15:18 17.03.2020
1030 Clouds -10 998 85 10000 2 320 14:41 17.03.2020
1031 Clouds -10 998 85 10000 3 340 14:18 17.03.2020
1032 Clouds -10 998 85 10000 2 340 13:41 17.03.2020
1033 Clouds -10 997 85 10000 1 320 13:22 17.03.2020
1034 Clouds -10 997 85 10000 2 330 12:48 17.03.2020
1035 Clouds -10 997 85 10000 2 360 12:26 17.03.2020
1036 Snow -10 997 92 10000 2 20 11:59 17.03.2020
1037 Snow -9 997 85 10000 2 30 11:39 17.03.2020
1038 Snow -9 997 92 10000 2 20 11:21 17.03.2020
1039 Snow -9 997 92 10000 2 20 10:55 17.03.2020
1040 Snow -8 996 85 5000 2 360 10:36 17.03.2020
1041 Snow -8 996 85 5000 2 360 10:18 17.03.2020
1042 Snow -8 996 85 10000 3 350 09:45 17.03.2020
1043 Snow -8 996 78 10000 2 350 09:20 17.03.2020
1044 Snow -8 995 78 10000 2 340 08:58 17.03.2020
1045 Snow -8 995 78 10000 2 340 08:58 17.03.2020
1046 Snow -8 995 78 10000 2 350 08:40 17.03.2020
1047 Snow -8 995 78 10000 2 350 08:18 17.03.2020
1048 Snow -9 995 85 10000 2 20 07:49 17.03.2020
1049 Snow -9 995 78 10000 3 360 07:20 17.03.2020
1050 Snow -9 995 72 10000 2 350 06:49 17.03.2020
1051 Snow -9 995 72 10000 2 350 06:25 17.03.2020
1052 Snow -9 995 72 10000 1 330 05:26 17.03.2020
1053 Snow -12 995 85 10000 2 360 03:31 17.03.2020
1054 Snow -13 995 84 10000 2 20 02:31 17.03.2020
1055 Snow -13 995 84 10000 3 320 01:38 17.03.2020
1056 Snow -13 995 84 10000 2 360 00:53 17.03.2020
1057 Snow -14 996 84 10000 2 360 00:18 17.03.2020
1058 Snow -14 996 84 10000 3 360 23:38 16.03.2020
1059 Snow -14 996 84 10000 3 360 23:19 16.03.2020
1060 Snow -14 996 84 10000 3 10 22:38 16.03.2020
1061 Snow -14 996 84 10000 3 10 22:20 16.03.2020
1062 Snow -14 996 84 10000 2 20 21:45 16.03.2020
1063 Snow -14 996 84 10000 2 360 21:26 16.03.2020
1064 Snow -14 996 84 10000 2 50 20:59 16.03.2020
1065 Snow -13 996 78 10000 3 60 20:39 16.03.2020
1066 Snow -13 996 78 10000 3 60 20:20 16.03.2020
1067 Snow -14 996 92 10000 2 20 19:46 16.03.2020
1068 Snow -14 997 84 10000 2 20 19:24 16.03.2020
1069 Snow -14 997 84 2400 2 360 18:59 16.03.2020
1070 Snow -14 997 77 5000 2 30 18:39 16.03.2020
1071 Snow -15 997 77 10000 2 20 18:19 16.03.2020
1072 Snow -15 998 77 10000 2 40 17:46 16.03.2020
1073 Snow -15 998 77 10000 2 40 17:25 16.03.2020
1074 Snow -14 998 71 10000 2 40 16:56 16.03.2020
1075 Snow -13 998 71 10000 2 60 16:37 16.03.2020
1076 Snow -13 998 71 10000 2 60 16:19 16.03.2020
1077 Clouds -13 999 65 10000 2 70 15:42 16.03.2020
1078 Clouds -12 999 60 10000 2 70 15:23 16.03.2020
1079 Clouds -12 999 60 10000 2 70 15:23 16.03.2020
1080 Clouds -13 999 71 10000 2 70 14:45 16.03.2020
1081 Clouds -13 1000 71 10000 2 10 14:20 16.03.2020
1082 Clouds -13 1000 71 10000 2 360 13:47 16.03.2020
1083 Clouds -13 1000 71 10000 2 10 13:27 16.03.2020
1084 Clouds -13 1001 65 10000 2 30 12:57 16.03.2020
1085 Clouds -14 1001 71 10000 2 30 12:38 16.03.2020
1086 Clouds -14 1001 71 10000 2 30 12:20 16.03.2020
1087 Clouds -13 1001 60 10000 2 10 11:43 16.03.2020
1088 Clouds -13 1001 60 10000 2 10 11:23 16.03.2020
1089 Clouds -13 1001 65 10000 3 350 10:44 16.03.2020
1090 Clouds -13 1001 60 10000 2 350 10:24 16.03.2020
1091 Clouds -13 1001 60 10000 2 340 09:49 16.03.2020
1092 Clouds -12 1001 55 10000 2 350 09:30 16.03.2020
1093 Clouds -11 1002 51 10000 2 340 08:59 16.03.2020
1094 Clouds -11 1002 51 10000 3 340 08:39 16.03.2020
1095 Clouds -11 1002 51 10000 3 340 08:20 16.03.2020
1096 Clouds -11 1002 51 10000 3 340 07:41 16.03.2020
1097 Clouds -12 1002 51 10000 3 350 07:18 16.03.2020
1098 Clouds -13 1003 55 10000 3 330 06:28 16.03.2020
1099 Clouds -14 1003 55 10000 3 350 05:55 16.03.2020
1100 Clouds -18 1004 64 10000 3 350 03:54 16.03.2020
1101 Clouds -21 1005 70 10000 3 340 01:46 16.03.2020
1102 Clouds -23 1006 69 10000 3 350 00:44 16.03.2020
1103 Clouds -24 1006 76 10000 3 350 00:25 16.03.2020
1104 Clouds -25 1006 75 10000 3 340 23:39 15.03.2020
1105 Clouds -25 1006 75 10000 3 340 23:18 15.03.2020
1106 Clouds -25 1006 75 10000 3 360 22:42 15.03.2020
1107 Clouds -25 1006 75 10000 3 350 22:20 15.03.2020
1108 Clouds -25 1006 69 10000 3 360 21:39 15.03.2020
1109 Clouds -25 1006 75 10000 3 350 21:21 15.03.2020
1110 Clouds -25 1006 75 10000 3 360 20:55 15.03.2020
1111 Clouds -25 1006 75 10000 3 10 20:36 15.03.2020
1112 Clouds -25 1006 75 10000 3 10 20:18 15.03.2020
1113 Clouds -25 1006 75 10000 3 360 19:43 15.03.2020
1114 Clouds -24 1006 76 10000 3 350 19:25 15.03.2020
1115 Clouds -24 1006 69 10000 3 350 18:59 15.03.2020
1116 Clouds -24 1006 76 10000 3 350 18:40 15.03.2020
1117 Clouds -24 1006 76 10000 3 350 18:22 15.03.2020
1118 Clouds -23 1006 69 10000 3 340 17:57 15.03.2020
1119 Clouds -23 1006 69 10000 3 360 17:38 15.03.2020
1120 Snow -22 1006 69 10000 3 330 17:19 15.03.2020
1121 Snow -22 1006 69 10000 3 330 16:44 15.03.2020
1122 Snow -22 1006 76 10000 3 340 16:26 15.03.2020
1123 Clouds -22 1006 76 10000 3 340 15:59 15.03.2020
1124 Clouds -22 1006 76 10000 3 340 15:41 15.03.2020
1125 Clouds -21 1006 70 10000 2 360 15:20 15.03.2020
1126 Clouds -21 1006 70 10000 2 350 14:46 15.03.2020
1127 Clouds -21 1006 70 10000 2 10 14:25 15.03.2020
1128 Clouds -18 1006 59 10000 1 40 13:59 15.03.2020
1129 Clouds -18 1006 59 10000 1 40 13:59 15.03.2020
1130 Clouds -17 1007 59 10000 2 40 13:38 15.03.2020
1131 Clouds -17 1007 59 10000 2 40 13:20 15.03.2020
1132 Clouds -18 1007 64 10000 3 20 12:44 15.03.2020
1133 Clouds -16 1007 54 10000 2 10 12:26 15.03.2020
1134 Clouds -16 1007 59 10000 1 20 11:59 15.03.2020
1135 Clouds -15 1007 54 10000 2 60 11:40 15.03.2020
1136 Clouds -15 1007 54 10000 2 60 11:22 15.03.2020
1137 Snow -15 1007 50 10000 2 60 10:56 15.03.2020
1138 Snow -16 1006 54 10000 2 40 10:36 15.03.2020
1139 Snow -16 1006 54 10000 2 40 10:18 15.03.2020
1140 Snow -16 1007 54 10000 2 20 09:40 15.03.2020
1141 Snow -15 1006 50 10000 1 30 09:21 15.03.2020
1142 Snow -16 1006 59 10000 2 360 08:42 15.03.2020
1143 Snow -15 1006 54 10000 2 360 08:21 15.03.2020
1144 Clouds -16 1006 54 10000 2 10 07:51 15.03.2020
1145 Clouds -17 1007 59 10000 2 360 07:31 15.03.2020
1146 Clouds -18 1007 64 10000 2 360 06:53 15.03.2020
1147 Clouds -19 1007 64 10000 2 350 06:18 15.03.2020
1148 Clouds -20 1008 64 10000 1 340 05:19 15.03.2020
1149 Clouds -21 1008 63 10000 2 330 04:43 15.03.2020
1150 Clouds -22 1008 63 10000 2 330 04:24 15.03.2020
1151 Clouds -24 1009 69 10000 2 320 03:54 15.03.2020
1152 Clouds -26 1010 75 10000 2 10 02:44 15.03.2020
1153 Clouds -29 1011 75 10000 1 20 01:35 15.03.2020
1154 Clouds -29 1011 75 10000 1.86 161 00:46 15.03.2020
1155 Mist -30 1011 74 5000 1.86 161 00:27 15.03.2020
1156 Mist -31 1011 74 2000 1 10 23:55 14.03.2020
1157 Clouds -31 1011 74 10000 1 30 23:37 14.03.2020
1158 Clouds -31 1011 74 10000 1 30 23:18 14.03.2020
1159 Clouds -31 1012 82 10000 1.93 187 22:42 14.03.2020
1160 Clouds -30 1012 74 10000 1.93 187 22:23 14.03.2020
1161 Clouds -31 1012 74 10000 2 170 21:56 14.03.2020
1162 Clouds -32 1013 74 10000 1 120 21:36 14.03.2020
1163 Clouds -32 1013 74 10000 1 120 21:18 14.03.2020
1164 Clouds -30 1013 74 10000 1 310 20:59 14.03.2020
1165 Clouds -30 1013 74 10000 1 310 20:40 14.03.2020
1166 Clouds -31 1013 74 10000 1.66 224 20:19 14.03.2020
1167 Clouds -30 1013 74 10000 1.78 221 19:44 14.03.2020
1168 Clouds -29 1013 75 10000 1 270 19:25 14.03.2020
1169 Clouds -30 1013 82 10000 1 240 18:56 14.03.2020
1170 Clouds -30 1013 74 10000 1 170 18:37 14.03.2020
1171 Clouds -28 1013 75 10000 1 160 18:19 14.03.2020
1172 Clouds -26 1014 75 10000 1 170 17:39 14.03.2020
1173 Clouds -26 1014 83 10000 1 220 17:20 14.03.2020
1174 Clouds -24 1014 69 10000 3 280 16:41 14.03.2020
1175 Clouds -24 1014 69 10000 3 280 16:23 14.03.2020
1176 Clouds -24 1014 69 10000 3 280 16:23 14.03.2020
1177 Clouds -24 1014 76 10000 3 290 15:58 14.03.2020
1178 Clouds -25 1014 83 10000 3 270 15:27 14.03.2020
1179 Clouds -24 1015 83 10000 3 240 14:59 14.03.2020
1180 Clouds -23 1015 76 10000 2 230 14:37 14.03.2020
1181 Clouds -23 1015 76 10000 2 230 14:19 14.03.2020
1182 Clouds -20 1015 70 10000 3 260 13:44 14.03.2020
1183 Clouds -20 1015 70 10000 3 260 13:24 14.03.2020
1184 Clouds -19 1015 70 10000 3 280 12:58 14.03.2020
1185 Clouds -19 1015 70 10000 3 280 12:38 14.03.2020
1186 Clouds -19 1015 64 10000 3 260 12:20 14.03.2020
1187 Clouds -18 1015 70 10000 4 270 11:42 14.03.2020
1188 Clouds -17 1014 64 10000 3 260 11:24 14.03.2020
1189 Snow -17 1014 70 10000 3 260 10:47 14.03.2020
1190 Snow -17 1014 70 10000 3 260 10:27 14.03.2020
1191 Snow -16 1014 59 10000 4 270 09:59 14.03.2020
1192 Snow -16 1014 59 10000 4 270 09:40 14.03.2020
1193 Snow -16 1014 59 10000 4 270 09:20 14.03.2020
1194 Snow -16 1014 59 10000 5 280 08:46 14.03.2020
1195 Snow -16 1014 65 10000 4 270 08:24 14.03.2020
1196 Clouds -16 1013 59 10000 5 280 07:40 14.03.2020
1197 Clouds -16 1013 59 10000 5 280 07:21 14.03.2020
1198 Clouds -16 1013 59 10000 4 260 06:41 14.03.2020
1199 Clouds -16 1013 59 10000 4 250 05:58 14.03.2020
1200 Clouds -18 1013 64 10000 2 140 04:52 14.03.2020
1201 Clouds -20 1013 64 10000 2 140 03:25 14.03.2020
1202 Clouds -20 1013 70 10000 2 270 02:43 14.03.2020
1203 Clouds -23 1012 76 10000 3 290 01:42 14.03.2020
1204 Clouds -25 1011 75 10000 4 300 00:23 14.03.2020
1205 Clouds -26 1010 75 10000 3 300 23:42 13.03.2020
1206 Clouds -26 1010 75 10000 3 300 23:22 13.03.2020
1207 Snow -25 1009 75 10000 3 310 22:41 13.03.2020
1208 Snow -25 1009 75 10000 3 310 22:22 13.03.2020
1209 Snow -25 1009 75 10000 3 310 21:40 13.03.2020
1210 Snow -25 1008 75 10000 4 300 21:19 13.03.2020
1211 Snow -27 1008 82 10000 3 290 20:42 13.03.2020
1212 Clouds -26 1007 75 10000 3 300 20:22 13.03.2020
1213 Snow -26 1007 75 10000 4 290 19:57 13.03.2020
1214 Snow -25 1007 75 10000 3 300 19:39 13.03.2020
1215 Snow -25 1007 75 10000 3 300 19:18 13.03.2020
1216 Snow -24 1006 69 10000 2 310 18:40 13.03.2020
1217 Snow -24 1006 69 10000 2 310 18:22 13.03.2020
1218 Snow -22 1005 69 10000 3 340 17:42 13.03.2020
1219 Snow -22 1005 69 10000 3 340 17:21 13.03.2020
1220 Clouds -22 1005 69 10000 3 340 16:56 13.03.2020
1221 Clouds -22 1005 63 10000 3 350 16:38 13.03.2020
1222 Clouds -22 1005 63 10000 3 350 16:20 13.03.2020
1223 Snow -21 1004 63 10000 3 340 15:43 13.03.2020
1224 Snow -20 1004 64 10000 3 340 15:22 13.03.2020
1225 Clouds -20 1004 64 10000 3 340 14:57 13.03.2020
1226 Clouds -19 1003 58 10000 3 340 14:38 13.03.2020
1227 Snow -19 1003 58 10000 3 340 14:18 13.03.2020
1228 Snow -20 1003 64 10000 3 340 13:42 13.03.2020
1229 Clouds -20 1003 64 10000 2 340 13:22 13.03.2020
1230 Clouds -19 1002 64 10000 2 350 12:58 13.03.2020
1231 Clouds -19 1002 58 10000 2 350 12:38 13.03.2020
1232 Clouds -18 1001 54 10000 3 350 12:19 13.03.2020
1233 Clouds -18 1001 54 10000 3 350 11:55 13.03.2020
1234 Clouds -18 1001 59 10000 1 350 11:36 13.03.2020
1235 Snow -17 1001 54 10000 2 20 11:18 13.03.2020
1236 Snow -17 1001 54 10000 2 20 10:46 13.03.2020
1237 Snow -17 1000 54 10000 3 350 10:25 13.03.2020
1238 Snow -17 1000 54 10000 3 350 09:48 13.03.2020
1239 Snow -17 999 59 10000 3 360 09:28 13.03.2020
1240 Snow -17 999 49 10000 3 350 08:59 13.03.2020
1241 Snow -18 999 54 10000 2 340 08:38 13.03.2020
1242 Clouds -18 999 54 10000 2 340 08:20 13.03.2020
1243 Clouds -19 998 53 10000 3 330 07:44 13.03.2020
1244 Clouds -19 998 53 10000 3 330 07:25 13.03.2020
1245 Clouds -19 998 53 10000 3 330 06:46 13.03.2020
1246 Clouds -19 998 53 10000 3 330 06:23 13.03.2020
1247 Clouds -22 998 57 10000 2 350 05:46 13.03.2020
1248 Clouds -23 998 63 10000 3 350 04:57 13.03.2020
1249 Clouds -25 998 69 10000 3 330 04:26 13.03.2020
1250 Clouds -28 999 68 10000 2 10 02:43 13.03.2020
1251 Mist -32 1000 74 5000 2 10 01:39 13.03.2020
1252 Mist -32 1000 74 5000 2 10 01:18 13.03.2020
1253 Mist -34 1000 73 2400 1 10 00:42 13.03.2020
1254 Mist -35 1000 73 2000 1 360 00:19 13.03.2020
1255 Mist -36 1000 73 3200 1 10 23:40 12.03.2020
1256 Mist -36 1000 73 3200 1 10 23:22 12.03.2020
1257 Mist -36 1000 73 3200 2 360 22:47 12.03.2020
1258 Mist -36 1000 66 5000 2 350 22:29 12.03.2020
1259 Mist -36 1000 66 5000 1 330 21:59 12.03.2020
1260 Mist -36 1000 66 5000 1 330 21:40 12.03.2020
1261 Mist -36 1001 73 5000 1 360 21:21 12.03.2020
1262 Mist -36 1001 66 5000 1 350 20:55 12.03.2020
1263 Clouds -36 1001 66 10000 1 330 20:36 12.03.2020
1264 Clear -36 1001 66 10000 1 330 20:18 12.03.2020
1265 Clear -36 1002 66 10000 1 320 19:39 12.03.2020
1266 Clear -36 1002 66 10000 1 320 19:19 12.03.2020
1267 Clear -35 1003 66 10000 2 310 18:42 12.03.2020
1268 Clear -35 1003 66 10000 1 310 18:23 12.03.2020
1269 Clear -35 1003 66 10000 1 310 17:56 12.03.2020
1270 Clear -35 1003 73 10000 1 330 17:37 12.03.2020
1271 Clear -34 1004 73 10000 2 300 17:18 12.03.2020
1272 Clear -33 1004 74 10000 1 310 16:43 12.03.2020
1273 Clear -33 1004 74 10000 1 310 16:23 12.03.2020
1274 Clear -32 1005 74 10000 1 300 15:59 12.03.2020
1275 Clear -33 1005 74 10000 1 330 15:39 12.03.2020
1276 Clear -33 1005 74 10000 1 330 15:21 12.03.2020
1277 Clear -32 1005 74 10000 1 190 14:38 12.03.2020
1278 Clear -32 1005 74 10000 1 190 14:19 12.03.2020
1279 Clear -31 1006 67 10000 2 210 13:40 12.03.2020
1280 Clouds -28 1006 75 10000 1 200 13:21 12.03.2020
1281 Clouds -29 1006 75 10000 2 200 12:55 12.03.2020
1282 Clouds -28 1007 68 10000 1 190 12:37 12.03.2020
1283 Clouds -26 1007 62 10000 2 200 12:18 12.03.2020
1284 Clouds -26 1007 62 10000 2 200 11:56 12.03.2020
1285 Clouds -24 1007 63 10000 3 170 11:37 12.03.2020
1286 Clouds -23 1008 57 10000 3 160 11:19 12.03.2020
1287 Clouds -23 1008 57 10000 3 160 10:55 12.03.2020
1288 Clouds -23 1008 57 10000 3 160 10:55 12.03.2020
1289 Clouds -22 1008 52 10000 3 220 10:37 12.03.2020
1290 Clouds -22 1008 52 10000 3 220 10:18 12.03.2020
1291 Clouds -21 1008 53 10000 4 220 09:42 12.03.2020
1292 Clouds -19 1008 44 10000 5 230 09:23 12.03.2020
1293 Clouds -19 1009 44 10000 6 220 08:40 12.03.2020
1294 Clouds -19 1009 44 10000 5 240 08:19 12.03.2020
1295 Clouds -19 1010 44 10000 4 230 07:52 12.03.2020
1296 Clouds -19 1010 44 10000 5 230 07:23 12.03.2020
1297 Clouds -20 1011 48 10000 6 230 06:38 12.03.2020
1298 Clouds -21 1012 48 10000 5 230 05:40 12.03.2020
1299 Clouds -23 1014 57 10000 5 240 03:54 12.03.2020
1300 Clouds -25 1016 57 10000 3 240 02:21 12.03.2020
1301 Clouds -27 1016 62 10000 5 270 01:29 12.03.2020
1302 Clouds -27 1016 62 10000 4 250 00:42 12.03.2020
1303 Clouds -27 1016 62 10000 3 270 23:59 11.03.2020
1304 Clouds -27 1016 62 10000 3 260 23:37 11.03.2020
1305 Clouds -27 1016 68 10000 5 270 23:18 11.03.2020
1306 Clouds -27 1017 68 10000 2 290 22:42 11.03.2020
1307 Clouds -27 1017 68 10000 2 290 22:23 11.03.2020
1308 Clouds -28 1017 75 10000 3 290 21:58 11.03.2020
1309 Clouds -28 1017 75 10000 3 290 21:40 11.03.2020
1310 Clouds -28 1017 75 10000 2 300 21:22 11.03.2020
1311 Clouds -28 1017 75 10000 3 290 20:57 11.03.2020
1312 Clouds -28 1017 75 10000 3 290 20:57 11.03.2020
1313 Clouds -28 1017 75 10000 3 280 20:37 11.03.2020
1314 Snow -28 1017 75 10000 3 280 20:19 11.03.2020
1315 Snow -27 1017 68 10000 3 280 19:42 11.03.2020
1316 Snow -27 1017 68 10000 3 270 19:24 11.03.2020
1317 Snow -26 1018 68 10000 3 280 18:57 11.03.2020
1318 Snow -26 1018 68 10000 5 280 18:38 11.03.2020
1319 Snow -26 1018 68 10000 5 280 18:38 11.03.2020
1320 Snow -26 1018 68 10000 5 280 18:19 11.03.2020
1321 Snow -25 1017 69 10000 4 290 17:55 11.03.2020
1322 Snow -25 1017 69 10000 5 290 17:37 11.03.2020
1323 Snow -25 1017 69 10000 4 310 17:19 11.03.2020
1324 Snow -25 1017 69 10000 4 310 16:44 11.03.2020
1325 Snow -24 1017 69 10000 5 300 16:20 11.03.2020
1326 Snow -23 1017 69 10000 7 290 15:43 11.03.2020
1327 Snow -22 1017 69 10000 6 290 15:23 11.03.2020
1328 Snow -21 1017 70 10000 6 290 14:56 11.03.2020
1329 Snow -20 1017 70 10000 5 300 14:37 11.03.2020
1330 Snow -20 1017 70 10000 5 300 14:18 11.03.2020
1331 Snow -19 1016 70 10000 6 300 13:42 11.03.2020
1332 Snow -19 1016 70 10000 5 310 13:24 11.03.2020
1333 Snow -19 1016 77 10000 4 310 12:57 11.03.2020
1334 Snow -19 1015 77 10000 5 310 12:39 11.03.2020
1335 Snow -19 1015 77 10000 5 310 12:19 11.03.2020
1336 Snow -18 1015 77 10000 4 290 11:41 11.03.2020
1337 Snow -18 1015 77 10000 4 290 11:22 11.03.2020
1338 Snow -18 1014 77 10000 3 300 10:49 11.03.2020
1339 Snow -17 1014 70 10000 3 320 10:21 11.03.2020
1340 Snow -18 1014 77 10000 2 330 10:00 11.03.2020
1341 Snow -18 1014 77 10000 2 330 09:41 11.03.2020
1342 Snow -18 1013 77 10000 2 350 09:22 11.03.2020
1343 Snow -18 1013 77 10000 2 350 09:22 11.03.2020
1344 Snow -18 1013 77 10000 2 360 08:44 11.03.2020
1345 Snow -18 1013 84 5000 3 360 08:26 11.03.2020
1346 Snow -18 1013 77 3200 3 10 07:48 11.03.2020
1347 Snow -18 1013 77 3200 2 20 07:22 11.03.2020
1348 Snow -18 1012 77 3200 3 30 06:53 11.03.2020
1349 Snow -18 1012 77 3200 1 20 06:33 11.03.2020
1350 Snow -20 1012 83 10000 1 60 05:33 11.03.2020
1351 Clouds -22 1012 76 10000 1 70 03:34 11.03.2020
1352 Clouds -24 1011 83 10000 1 300 01:56 11.03.2020
1353 Clouds -25 1011 83 10000 0.94 317 01:25 11.03.2020
1354 Clouds -28 1011 75 10000 0.91 320 00:44 11.03.2020
1355 Mist -28 1010 75 5000 1 40 23:50 10.03.2020
1356 Mist -28 1010 82 5000 1 300 23:28 10.03.2020
1357 Mist -32 1009 74 5000 1 110 22:59 10.03.2020
1358 Clouds -30 1009 74 10000 1 70 22:38 10.03.2020
1359 Clouds -30 1009 74 10000 1 70 22:19 10.03.2020
1360 Clouds -30 1009 74 10000 1 70 22:19 10.03.2020
1361 Clouds -29 1009 82 10000 1.21 254 21:56 10.03.2020
1362 Clouds -26 1009 83 10000 2 170 21:38 10.03.2020
1363 Clouds -26 1009 83 10000 2 170 21:38 10.03.2020
1364 Clouds -26 1009 83 10000 2 170 21:19 10.03.2020
1365 Clouds -24 1009 83 10000 3 240 20:56 10.03.2020
1366 Clouds -24 1008 83 10000 2 220 20:38 10.03.2020
1367 Clouds -24 1008 83 10000 2 220 20:18 10.03.2020
1368 Clouds -24 1008 83 10000 3 230 19:55 10.03.2020
1369 Clouds -23 1008 83 10000 3 200 19:36 10.03.2020
1370 Clouds -23 1008 83 10000 3 200 19:18 10.03.2020
1371 Clouds -21 1007 83 10000 5 250 18:42 10.03.2020
1372 Clouds -21 1007 83 10000 5 250 18:23 10.03.2020
1373 Clouds -20 1007 83 10000 3 250 17:56 10.03.2020
1374 Clouds -20 1007 83 10000 5 280 17:37 10.03.2020
1375 Clouds -20 1007 83 10000 5 280 17:19 10.03.2020
1376 Clouds -18 1006 84 10000 5 280 16:38 10.03.2020
1377 Clouds -18 1006 84 10000 5 280 16:18 10.03.2020
1378 Clouds -17 1006 84 10000 4 280 15:44 10.03.2020
1379 Clouds -18 1006 84 10000 3 240 15:20 10.03.2020
1380 Clouds -20 1005 91 10000 2 240 14:59 10.03.2020
1381 Clouds -20 1005 91 10000 2 240 14:40 10.03.2020
1382 Snow -19 1005 84 10000 2 260 14:19 10.03.2020
1383 Snow -19 1005 84 10000 2 250 13:45 10.03.2020
1384 Snow -18 1004 91 10000 3 240 13:27 10.03.2020
1385 Clouds -18 1004 84 10000 2 260 12:59 10.03.2020
1386 Snow -16 1004 84 10000 2 200 12:39 10.03.2020
1387 Snow -16 1004 84 10000 2 200 12:18 10.03.2020
1388 Snow -14 1004 84 5000 1 220 11:43 10.03.2020
1389 Snow -14 1004 84 5000 1 220 11:24 10.03.2020
1390 Snow -12 1003 92 5000 1 220 10:58 10.03.2020
1391 Snow -11 1003 85 5000 2.27 90 10:40 10.03.2020
1392 Snow -11 1003 85 5000 2.27 90 10:21 10.03.2020
1393 Snow -11 1003 92 1800 2 110 09:56 10.03.2020
1394 Snow -11 1002 85 2100 3 90 09:37 10.03.2020
1395 Snow -11 1002 85 2100 3 90 09:18 10.03.2020
1396 Snow -11 1002 85 3200 3 100 08:43 10.03.2020
1397 Snow -10 1002 66 10000 3 110 08:25 10.03.2020
1398 Snow -10 1002 51 10000 3 110 07:46 10.03.2020
1399 Snow -10 1002 51 10000 2 100 07:28 10.03.2020
1400 Snow -11 1002 51 10000 3 80 06:42 10.03.2020
1401 Snow -11 1002 51 10000 3 80 06:23 10.03.2020
1402 Snow -11 1002 51 10000 2 80 05:38 10.03.2020
1403 Clouds -13 1003 55 10000 2 80 04:34 10.03.2020
1404 Clouds -13 1003 55 10000 3 110 03:34 10.03.2020
1405 Snow -16 1004 71 10000 3 120 01:55 10.03.2020
1406 Snow -16 1004 71 10000 3 110 00:53 10.03.2020
1407 Snow -18 1004 84 5000 2 100 00:30 10.03.2020
1408 Snow -18 1004 77 5000 1 90 23:56 09.03.2020
1409 Snow -18 1004 77 5000 2 80 23:37 09.03.2020
1410 Snow -20 1005 83 10000 2 60 23:19 09.03.2020
1411 Snow -20 1005 76 10000 1 50 22:40 09.03.2020
1412 Snow -20 1005 76 10000 1 50 22:21 09.03.2020
1413 Snow -19 1005 77 10000 1 20 21:57 09.03.2020
1414 Snow -19 1005 77 10000 2 60 21:38 09.03.2020
1415 Snow -19 1005 77 10000 2 60 21:20 09.03.2020
1416 Snow -19 1005 77 10000 2 50 20:55 09.03.2020
1417 Snow -20 1006 76 10000 2 20 20:36 09.03.2020
1418 Snow -20 1006 76 10000 2 20 20:18 09.03.2020
1419 Snow -20 1006 76 10000 2 10 19:42 09.03.2020
1420 Snow -20 1006 76 10000 2 360 19:20 09.03.2020
1421 Snow -21 1007 76 10000 3 360 18:57 09.03.2020
1422 Snow -21 1007 76 10000 2 360 18:38 09.03.2020
1423 Snow -21 1007 76 10000 2 360 18:19 09.03.2020
1424 Snow -21 1007 76 10000 3 360 17:56 09.03.2020
1425 Snow -21 1008 76 10000 3 350 17:37 09.03.2020
1426 Snow -22 1008 83 10000 3 340 17:19 09.03.2020
1427 Snow -22 1008 83 10000 3 340 16:56 09.03.2020
1428 Snow -22 1009 83 10000 3 330 16:38 09.03.2020
1429 Snow -22 1009 83 10000 3 330 16:20 09.03.2020
1430 Snow -22 1009 83 10000 3 330 15:57 09.03.2020
1431 Snow -22 1009 76 10000 3 340 15:38 09.03.2020
1432 Snow -22 1009 76 10000 3 340 15:19 09.03.2020
1433 Snow -22 1010 76 10000 3 340 14:41 09.03.2020
1434 Clouds -22 1010 76 10000 3 340 14:23 09.03.2020
1435 Clouds -22 1011 76 10000 3 340 13:59 09.03.2020
1436 Clouds -22 1011 76 10000 3 340 13:59 09.03.2020
1437 Clouds -22 1011 69 10000 3 340 13:40 09.03.2020
1438 Clouds -22 1011 69 10000 3 340 13:21 09.03.2020
1439 Clouds -22 1011 69 10000 3 340 12:59 09.03.2020
1440 Clouds -22 1012 69 10000 3 340 12:40 09.03.2020
1441 Clouds -22 1012 69 10000 3 340 12:20 09.03.2020
1442 Clouds -23 1012 63 10000 2 350 11:40 09.03.2020
1443 Clouds -23 1012 63 10000 2 350 11:40 09.03.2020
1444 Clouds -23 1012 63 10000 2 350 11:20 09.03.2020
1445 Clouds -22 1012 63 10000 2 350 10:58 09.03.2020
1446 Clouds -22 1012 63 10000 2 360 10:40 09.03.2020
1447 Clouds -22 1012 63 10000 2 360 10:40 09.03.2020
1448 Clouds -22 1012 63 10000 2 360 10:19 09.03.2020
1449 Clouds -22 1012 63 10000 2 360 10:19 09.03.2020
1450 Clouds -22 1012 63 10000 2 350 09:43 09.03.2020
1451 Clouds -22 1013 63 10000 2 350 09:24 09.03.2020
1452 Clouds -21 1013 63 10000 2 340 08:55 09.03.2020
1453 Clouds -21 1013 63 10000 2 10 08:37 09.03.2020
1454 Clouds -21 1013 63 10000 2 10 08:18 09.03.2020
1455 Clouds -22 1014 63 10000 2 10 07:39 09.03.2020
1456 Clouds -22 1014 63 10000 2 10 07:21 09.03.2020
1457 Clouds -22 1014 63 10000 2 20 06:43 09.03.2020
1458 Clouds -23 1014 69 10000 1 30 06:23 09.03.2020
1459 Clouds -23 1015 63 10000 1 30 05:46 09.03.2020
1460 Clouds -23 1015 63 10000 1 350 04:59 09.03.2020
1461 Clouds -25 1016 69 10000 1 300 04:40 09.03.2020
1462 Clouds -25 1016 69 10000 1 300 04:21 09.03.2020
1463 Mist -28 1016 75 5000 0.75 185 02:56 09.03.2020
1464 Mist -35 1017 66 3200 1 350 00:46 09.03.2020
1465 Mist -37 1016 73 5000 1 10 00:28 09.03.2020
1466 Clouds -35 1017 66 10000 0.56 146 23:59 08.03.2020
1467 Clouds -35 1017 66 10000 1 240 23:41 08.03.2020
1468 Clouds -35 1017 66 10000 1 240 23:21 08.03.2020
1469 Clouds -35 1017 66 10000 1 240 23:21 08.03.2020
1470 Clouds -36 1017 73 10000 0.38 248 22:55 08.03.2020
1471 Clouds -35 1017 73 10000 0.38 248 22:37 08.03.2020
1472 Clouds -35 1017 73 10000 0.38 248 22:18 08.03.2020
1473 Clouds -35 1017 66 10000 0.38 248 21:42 08.03.2020
1474 Clouds -35 1017 66 10000 0.38 248 21:42 08.03.2020
1475 Clouds -34 1017 66 10000 1 280 21:23 08.03.2020
1476 Clouds -35 1017 73 10000 0.38 248 20:59 08.03.2020
1477 Clouds -34 1017 66 10000 1 270 20:39 08.03.2020
1478 Clouds -34 1017 66 10000 1 270 20:39 08.03.2020
1479 Clouds -34 1017 66 10000 1 270 20:20 08.03.2020
1480 Clouds -33 1017 74 10000 1 290 19:41 08.03.2020
1481 Clouds -33 1017 74 10000 1 290 19:21 08.03.2020
1482 Clouds -34 1017 66 10000 0.72 258 18:58 08.03.2020
1483 Clouds -34 1017 73 10000 1 270 18:40 08.03.2020
1484 Clouds -34 1017 73 10000 1 270 18:21 08.03.2020
1485 Clouds -31 1017 74 10000 0.72 258 17:55 08.03.2020
1486 Clouds -31 1017 74 10000 0.72 258 17:37 08.03.2020
1487 Clouds -31 1017 74 10000 0.97 261 17:18 08.03.2020
1488 Clouds -31 1017 74 10000 0.97 261 16:42 08.03.2020
1489 Clouds -31 1016 74 10000 2 280 16:23 08.03.2020
1490 Clouds -30 1017 82 10000 1 290 15:55 08.03.2020
1491 Clouds -30 1017 82 10000 1 290 15:37 08.03.2020
1492 Clouds -30 1017 82 10000 1 290 15:18 08.03.2020
1493 Clouds -28 1017 82 10000 2 280 14:40 08.03.2020
1494 Clouds -28 1017 82 10000 2 280 14:21 08.03.2020
1495 Clouds -27 1016 75 10000 2 280 13:55 08.03.2020
1496 Clouds -27 1016 75 10000 2 280 13:36 08.03.2020
1497 Clouds -26 1016 75 10000 2 280 13:18 08.03.2020
1498 Clouds -23 1016 76 10000 3 290 12:38 08.03.2020
1499 Clouds -20 1016 70 10000 3 290 12:18 08.03.2020
1500 Clouds -19 1015 64 10000 2 280 11:44 08.03.2020
1501 Clouds -19 1015 64 10000 2 280 11:24 08.03.2020
1502 Clouds -19 1015 64 10000 2 280 10:59 08.03.2020
1503 Clouds -19 1015 64 10000 2 280 10:40 08.03.2020
1504 Clouds -18 1015 64 10000 3 280 10:22 08.03.2020
1505 Clouds -17 1015 59 10000 3 280 09:40 08.03.2020
1506 Clouds -16 1014 59 10000 4 280 09:22 08.03.2020
1507 Clouds -15 1014 65 10000 4 280 08:49 08.03.2020
1508 Clouds -15 1014 65 10000 4 280 08:25 08.03.2020
1509 Clouds -15 1014 54 10000 5 260 07:51 08.03.2020
1510 Clouds -15 1014 60 10000 6 250 07:29 08.03.2020
1511 Clouds -14 1013 60 10000 4 270 06:58 08.03.2020
1512 Clouds -15 1013 71 10000 4 280 06:37 08.03.2020
1513 Clouds -14 1013 65 10000 5 270 06:18 08.03.2020
1514 Snow -14 1013 71 5000 5 270 05:18 08.03.2020
1515 Clouds -14 1012 65 10000 4 260 03:50 08.03.2020
1516 Clouds -15 1012 77 10000 5 270 02:28 08.03.2020
1517 Clouds -15 1010 77 10000 5 270 01:22 08.03.2020
1518 Clouds -15 1010 77 10000 5 270 00:43 08.03.2020
1519 Clouds -15 1010 77 10000 5 270 00:24 08.03.2020
1520 Clouds -15 1010 77 10000 5 270 23:43 07.03.2020
1521 Clouds -15 1009 77 10000 5 270 23:22 07.03.2020
1522 Clear -13 1009 71 10000 7 270 22:40 07.03.2020
1523 Clear -13 1009 71 10000 7 270 22:21 07.03.2020
1524 Clear -14 1008 77 10000 6 260 21:48 07.03.2020
1525 Clear -13 1008 71 10000 5 260 21:25 07.03.2020
1526 Clear -13 1008 78 10000 4 260 20:42 07.03.2020
1527 Clear -13 1008 71 10000 4 260 20:24 07.03.2020
1528 Clouds -13 1007 71 10000 4 250 19:59 07.03.2020
1529 Clouds -12 1007 66 10000 4 260 19:40 07.03.2020
1530 Clouds -12 1007 66 10000 4 260 19:20 07.03.2020
1531 Clouds -10 1007 66 10000 4 260 18:42 07.03.2020
1532 Clouds -9 1006 66 10000 3 280 18:24 07.03.2020
1533 Clouds -9 1006 72 10000 2 280 17:56 07.03.2020
1534 Clouds -9 1006 78 10000 4 290 17:38 07.03.2020
1535 Clouds -9 1006 78 10000 4 290 17:18 07.03.2020
1536 Clouds -8 1005 72 10000 5 280 16:42 07.03.2020
1537 Clouds -8 1005 72 10000 5 280 16:23 07.03.2020
1538 Clouds -10 1004 85 10000 3 270 15:58 07.03.2020
1539 Clouds -8 1004 78 10000 3 290 15:40 07.03.2020
1540 Clouds -8 1004 78 10000 3 290 15:21 07.03.2020
1541 Clouds -8 1004 78 10000 3 290 15:21 07.03.2020
1542 Clouds -7 1004 73 10000 4 280 14:57 07.03.2020
1543 Clouds -7 1003 79 10000 3 280 14:38 07.03.2020
1544 Clouds -7 1003 79 10000 3 280 14:19 07.03.2020
1545 Clouds -6 1003 85 10000 3 320 13:40 07.03.2020
1546 Clouds -6 1003 85 10000 3 320 13:21 07.03.2020
1547 Snow -6 1003 92 5000 3 280 12:44 07.03.2020
1548 Snow -6 1003 92 5000 3 280 12:44 07.03.2020
1549 Snow -8 1002 92 5000 2 260 12:22 07.03.2020
1550 Snow -8 1002 92 5000 2 260 11:59 07.03.2020
1551 Snow -9 1002 92 10000 1 200 11:40 07.03.2020
1552 Snow -9 1002 92 10000 1 200 11:22 07.03.2020
1553 Snow -9 1002 92 10000 1 200 11:22 07.03.2020
1554 Snow -8 1001 92 5000 1 160 10:42 07.03.2020
1555 Snow -7 1001 92 5000 1 180 10:22 07.03.2020
1556 Snow -6 1001 85 5000 1 140 09:58 07.03.2020
1557 Snow -6 1001 92 5000 1 170 09:40 07.03.2020
1558 Snow -6 1001 92 5000 1 170 09:19 07.03.2020
1559 Snow -6 1000 92 10000 2 170 08:44 07.03.2020
1560 Snow -6 1000 92 10000 2 170 08:44 07.03.2020
1561 Snow -6 1000 92 5000 2 170 08:22 07.03.2020
1562 Snow -6 1000 92 2400 3 170 07:59 07.03.2020
1563 Snow -6 1002 93 0 2.97 193 07:41 07.03.2020
1564 Snow -6 1002 93 0 2.97 193 07:20 07.03.2020
1565 Snow -6 1002 93 0 2.97 193 06:37 07.03.2020
1566 Clouds -6 1000 62 10000 2 160 05:57 07.03.2020
1567 Clouds -6 1000 62 10000 2 160 05:33 07.03.2020
1568 Clouds -11 1000 72 10000 4.4 157 02:58 07.03.2020
1569 Clouds -11 1000 72 10000 4.4 157 02:39 07.03.2020
1570 Clouds -11 1000 72 10000 4.45 154 01:47 07.03.2020
1571 Clouds -14 1001 84 10000 4.54 155 00:42 07.03.2020
1572 Clouds -14 1001 84 10000 4.54 155 00:23 07.03.2020
1573 Clouds -14 1001 84 10000 1 90 23:56 06.03.2020
1574 Clouds -14 1001 77 10000 1 130 23:38 06.03.2020
1575 Clouds -14 1001 77 10000 1 130 23:19 06.03.2020
1576 Clouds -12 1001 78 10000 2 120 22:42 06.03.2020
1577 Clouds -12 1001 78 10000 2 120 22:18 06.03.2020
1578 Clouds -13 1002 84 10000 2 120 21:45 06.03.2020
1579 Clouds -13 1002 78 10000 2 100 21:19 06.03.2020
1580 Clouds -14 1002 84 10000 2 90 20:40 06.03.2020
1581 Clouds -14 1002 84 10000 2 90 20:21 06.03.2020
1582 Clouds -14 1003 84 10000 1 40 19:54 06.03.2020
1583 Clouds -14 1003 84 10000 2 40 19:34 06.03.2020
1584 Clouds -15 1003 92 10000 1 50 18:59 06.03.2020
1585 Clouds -15 1003 92 10000 1 50 18:41 06.03.2020
1586 Clouds -15 1003 84 10000 1 60 18:19 06.03.2020
1587 Clouds -16 1004 84 10000 2 80 17:55 06.03.2020
1588 Clouds -16 1004 84 10000 2 90 17:36 06.03.2020
1589 Clouds -18 1005 84 10000 1 30 17:18 06.03.2020
1590 Clouds -18 1005 84 10000 1 30 16:42 06.03.2020
1591 Clouds -18 1005 84 10000 1 30 16:20 06.03.2020
1592 Clouds -18 1005 84 10000 2 360 15:45 06.03.2020
1593 Clouds -18 1005 84 10000 2 360 15:25 06.03.2020
1594 Clouds -18 1006 84 10000 2 340 14:59 06.03.2020
1595 Clouds -18 1006 91 10000 2 340 14:39 06.03.2020
1596 Clouds -18 1006 91 10000 2 340 14:19 06.03.2020
1597 Clouds -18 1006 91 10000 1 330 13:43 06.03.2020
1598 Clouds -18 1006 84 10000 1 320 13:22 06.03.2020
1599 Clouds -18 1007 91 10000 2 310 12:57 06.03.2020
1600 Clouds -18 1007 91 10000 2 340 12:38 06.03.2020
1601 Clouds -18 1007 91 10000 2 340 12:19 06.03.2020
1602 Clouds -17 1007 84 10000 2 350 11:57 06.03.2020
1603 Clouds -17 1007 84 10000 2 350 11:57 06.03.2020
1604 Clouds -18 1007 84 10000 2 10 11:38 06.03.2020
1605 Clouds -18 1007 84 10000 2 10 11:20 06.03.2020
1606 Clouds -15 1007 77 10000 2 350 10:39 06.03.2020
1607 Clouds -15 1007 77 10000 2 350 10:21 06.03.2020
1608 Clouds -14 1007 71 10000 1 330 09:55 06.03.2020
1609 Clouds -14 1007 71 10000 1 330 09:55 06.03.2020
1610 Clouds -12 1007 66 10000 1 330 09:37 06.03.2020
1611 Clouds -12 1007 66 10000 1 330 09:19 06.03.2020
1612 Clouds -13 1007 71 10000 1 360 08:45 06.03.2020
1613 Clouds -12 1008 72 10000 1 360 08:27 06.03.2020
1614 Clouds -12 1008 72 10000 2 10 07:57 06.03.2020
1615 Clouds -12 1008 72 10000 2 10 07:57 06.03.2020
1616 Clouds -11 1008 72 10000 2 20 07:38 06.03.2020
1617 Clouds -11 1008 66 10000 1 10 06:59 06.03.2020
1618 Clouds -12 1008 72 10000 1 20 06:40 06.03.2020
1619 Clouds -12 1009 72 10000 1 30 05:46 06.03.2020
1620 Clouds -13 1009 78 10000 1 30 05:27 06.03.2020
1621 Clouds -14 1009 77 10000 1 20 04:57 06.03.2020
1622 Clouds -17 1010 84 10000 1 360 02:37 06.03.2020
1623 Clouds -19 1010 84 10000 1 360 01:40 06.03.2020
1624 Clouds -19 1010 84 10000 1 360 01:22 06.03.2020
1625 Snow -20 1011 83 10000 2 350 00:32 06.03.2020
1626 Snow -19 1011 84 10000 2 330 23:57 05.03.2020
1627 Snow -19 1011 84 5000 1 360 23:39 05.03.2020
1628 Snow -19 1011 84 5000 1 360 23:19 05.03.2020
1629 Snow -20 1011 83 10000 2 340 22:40 05.03.2020
1630 Snow -20 1011 83 10000 2 340 22:22 05.03.2020
1631 Snow -21 1011 83 10000 1 350 21:57 05.03.2020
1632 Snow -20 1011 83 10000 2 360 21:38 05.03.2020
1633 Snow -20 1011 83 10000 2 360 21:20 05.03.2020
1634 Snow -21 1011 83 10000 1 340 20:58 05.03.2020
1635 Snow -21 1011 83 10000 1 340 20:58 05.03.2020
1636 Snow -22 1011 83 10000 1 320 20:39 05.03.2020
1637 Clouds -22 1011 83 10000 1 320 20:20 05.03.2020
1638 Clouds -23 1012 83 10000 2 330 19:58 05.03.2020
1639 Clouds -23 1012 76 10000 2 350 19:39 05.03.2020
1640 Clouds -23 1012 76 10000 2 350 19:18 05.03.2020
1641 Clouds -23 1012 76 10000 1 330 18:55 05.03.2020
1642 Clouds -23 1012 76 10000 2 320 18:36 05.03.2020
1643 Clouds -23 1012 76 10000 2 320 18:18 05.03.2020
1644 Clouds -23 1012 83 10000 1 310 17:42 05.03.2020
1645 Clouds -23 1013 76 10000 2 290 17:22 05.03.2020
1646 Clouds -23 1013 83 10000 1.25 143 16:57 05.03.2020
1647 Clouds -23 1013 83 10000 1 300 16:38 05.03.2020
1648 Clouds -23 1013 83 10000 1 300 16:19 05.03.2020
1649 Clouds -24 1013 83 10000 1 270 15:45 05.03.2020
1650 Clouds -23 1013 83 10000 1 290 15:23 05.03.2020
1651 Clouds -22 1013 83 10000 2 310 14:59 05.03.2020
1652 Clouds -23 1013 83 10000 2 310 14:40 05.03.2020
1653 Clouds -23 1013 83 10000 2 310 14:21 05.03.2020
1654 Clouds -24 1013 83 10000 1 320 13:56 05.03.2020
1655 Clouds -23 1013 83 10000 1 340 13:37 05.03.2020
1656 Clouds -23 1013 83 10000 1 340 13:19 05.03.2020
1657 Clouds -22 1013 83 10000 0.66 161 12:41 05.03.2020
1658 Clouds -20 1013 76 10000 1 10 12:20 05.03.2020
1659 Clouds -19 1013 84 10000 1 360 11:57 05.03.2020
1660 Clouds -19 1013 84 10000 1 360 11:57 05.03.2020
1661 Clouds -20 1013 83 10000 1 340 11:37 05.03.2020
1662 Clouds -20 1013 83 10000 1 340 11:19 05.03.2020
1663 Clouds -21 1013 83 10000 1 350 10:57 05.03.2020
1664 Clouds -21 1013 83 10000 1 350 10:57 05.03.2020
1665 Clouds -19 1012 77 10000 1 350 10:39 05.03.2020
1666 Clouds -19 1012 77 10000 1 350 10:21 05.03.2020
1667 Clouds -18 1012 77 10000 1 330 09:47 05.03.2020
1668 Clouds -17 1012 70 10000 0.41 235 09:28 05.03.2020
1669 Clouds -17 1012 70 10000 0.41 235 09:28 05.03.2020
1670 Clouds -16 1012 71 10000 1 50 08:59 05.03.2020
1671 Clouds -16 1012 71 10000 1 50 08:41 05.03.2020
1672 Clouds -16 1012 71 10000 1 50 08:21 05.03.2020
1673 Clouds -17 1012 77 10000 1.39 176 07:41 05.03.2020
1674 Clouds -17 1012 77 10000 1.39 176 07:19 05.03.2020
1675 Clouds -16 1012 71 10000 1 70 06:43 05.03.2020
1676 Clouds -17 1012 77 10000 1 30 06:19 05.03.2020
1677 Clouds -18 1012 84 10000 1 30 05:33 05.03.2020
1678 Clouds -19 1013 84 10000 1 350 04:23 05.03.2020
1679 Clouds -20 1012 83 10000 1 10 03:58 05.03.2020
1680 Clouds -22 1013 83 10000 1 330 02:32 05.03.2020
1681 Clouds -25 1013 83 10000 1 10 01:26 05.03.2020
1682 Clouds -26 1013 75 10000 2 360 00:44 05.03.2020
1683 Mist -29 1013 75 5000 2 340 23:57 04.03.2020
1684 Mist -28 1013 75 5000 2 350 23:39 04.03.2020
1685 Mist -28 1013 75 5000 2 350 23:20 04.03.2020
1686 Clouds -28 1013 75 10000 2 320 22:55 04.03.2020
1687 Clouds -28 1013 75 10000 2 340 22:36 04.03.2020
1688 Clouds -28 1013 75 10000 2 340 22:18 04.03.2020
1689 Mist -29 1013 75 2100 2 30 21:42 04.03.2020
1690 Mist -29 1013 75 2100 2 30 21:42 04.03.2020
1691 Clouds -28 1013 75 10000 2 350 21:22 04.03.2020
1692 Clouds -27 1013 75 10000 2 340 20:59 04.03.2020
1693 Clouds -28 1013 82 10000 1 360 20:40 04.03.2020
1694 Clear -28 1013 82 10000 1 360 20:21 04.03.2020
1695 Clear -27 1013 75 10000 1 20 19:43 04.03.2020
1696 Clear -28 1013 82 10000 1 20 19:24 04.03.2020
1697 Clear -27 1013 75 10000 2 10 18:59 04.03.2020
1698 Clear -27 1013 75 10000 2 10 18:41 04.03.2020
1699 Clear -26 1014 75 10000 2 360 18:23 04.03.2020
1700 Clear -27 1014 82 10000 2 360 17:59 04.03.2020
1701 Clear -25 1014 75 10000 2 10 17:38 04.03.2020
1702 Clear -25 1014 75 10000 2 10 17:20 04.03.2020
1703 Clear -25 1014 75 10000 2 360 16:55 04.03.2020
1704 Clear -24 1014 76 10000 2 360 16:36 04.03.2020
1705 Clear -24 1014 76 10000 2 360 16:18 04.03.2020
1706 Clear -24 1014 83 10000 2 360 15:42 04.03.2020
1707 Clear -24 1015 83 10000 2 340 15:23 04.03.2020
1708 Clear -24 1015 83 10000 2 330 14:56 04.03.2020
1709 Clear -23 1015 83 10000 2 340 14:38 04.03.2020
1710 Clouds -23 1015 83 10000 2 340 14:19 04.03.2020
1711 Clouds -22 1015 83 10000 2 330 13:57 04.03.2020
1712 Clouds -24 1015 91 10000 2 340 13:39 04.03.2020
1713 Clouds -24 1015 91 10000 2 340 13:39 04.03.2020
1714 Clouds -24 1015 91 10000 2 340 13:20 04.03.2020
1715 Clouds -24 1016 91 10000 2 350 12:45 04.03.2020
1716 Clouds -24 1016 83 10000 2 360 12:27 04.03.2020
1717 Clouds -25 1016 75 10000 2 340 11:59 04.03.2020
1718 Clouds -25 1016 75 10000 2 340 11:41 04.03.2020
1719 Clouds -25 1016 75 10000 2 10 11:23 04.03.2020
1720 Clouds -23 1016 76 10000 1 340 10:57 04.03.2020
1721 Clouds -21 1016 70 10000 2 330 10:39 04.03.2020
1722 Clouds -21 1016 70 10000 2 330 10:18 04.03.2020
1723 Clouds -20 1016 70 10000 2 360 09:42 04.03.2020
1724 Clouds -19 1016 77 10000 2 360 09:21 04.03.2020
1725 Clouds -19 1017 70 10000 2 360 08:47 04.03.2020
1726 Clouds -18 1017 70 10000 2 350 08:27 04.03.2020
1727 Clouds -18 1018 77 10000 2 10 07:56 04.03.2020
1728 Clouds -18 1018 70 10000 3 10 07:37 04.03.2020
1729 Clouds -18 1018 70 10000 3 10 07:18 04.03.2020
1730 Clouds -20 1019 76 10000 2 20 06:43 04.03.2020
1731 Clouds -20 1019 76 10000 2 360 06:23 04.03.2020
1732 Clouds -22 1020 76 10000 2 30 05:48 04.03.2020
1733 Clouds -24 1022 76 10000 1 20 04:30 04.03.2020
1734 Clouds -26 1023 83 10000 1 30 03:42 04.03.2020
1735 Clouds -26 1023 75 10000 1 20 03:24 04.03.2020
1736 Mist -28 1024 75 5000 1 20 02:55 04.03.2020
1737 Mist -29 1024 75 5000 1 10 02:20 04.03.2020
1738 Mist -29 1024 75 3200 1 350 01:52 04.03.2020
1739 Fog -31 1025 74 750 1 340 00:50 04.03.2020
1740 Fog -33 1025 74 350 1 20 00:25 04.03.2020
1741 Fog -32 1025 67 600 1 360 23:46 03.03.2020
1742 Fog -32 1026 74 900 1.44 134 23:27 03.03.2020
1743 Fog -31 1026 74 700 1 350 22:58 03.03.2020
1744 Fog -31 1026 74 700 1 350 22:58 03.03.2020
1745 Fog -32 1026 74 600 1.66 157 22:40 03.03.2020
1746 Fog -32 1026 74 600 1.66 157 22:19 03.03.2020
1747 Mist -31 1026 74 1300 1.66 157 21:57 03.03.2020
1748 Mist -31 1026 74 5000 1 300 21:38 03.03.2020
1749 Mist -31 1026 74 5000 1 300 21:19 03.03.2020
1750 Mist -31 1027 74 3200 1 320 20:55 03.03.2020
1751 Mist -31 1027 74 3200 1.66 157 20:36 03.03.2020
1752 Mist -31 1027 74 3200 1.55 150 20:18 03.03.2020
1753 Mist -31 1027 74 3200 1 300 19:54 03.03.2020
1754 Clouds -30 1027 74 10000 1 280 19:36 03.03.2020
1755 Clouds -30 1027 74 10000 1 280 19:18 03.03.2020
1756 Clouds -30 1027 74 10000 1 280 19:18 03.03.2020
1757 Clouds -30 1028 74 10000 1 300 18:42 03.03.2020
1758 Clouds -30 1028 74 10000 1 30 18:21 03.03.2020
1759 Clouds -30 1028 74 10000 2 320 17:59 03.03.2020
1760 Clouds -30 1028 82 10000 2 310 17:40 03.03.2020
1761 Clouds -30 1028 82 10000 2 310 17:21 03.03.2020
1762 Clouds -31 1029 74 10000 2 310 16:57 03.03.2020
1763 Clouds -31 1029 74 10000 1 320 16:38 03.03.2020
1764 Clouds -31 1029 74 10000 1 320 16:19 03.03.2020
1765 Clouds -31 1029 74 10000 1 320 16:19 03.03.2020
1766 Clouds -28 1029 75 10000 1 310 15:45 03.03.2020
1767 Clouds -28 1029 75 10000 2 300 15:23 03.03.2020
1768 Clouds -28 1029 75 10000 2 290 14:58 03.03.2020
1769 Clouds -28 1029 75 10000 2 290 14:58 03.03.2020
1770 Clouds -28 1030 75 10000 1 290 14:40 03.03.2020
1771 Clouds -28 1030 75 10000 1 290 14:19 03.03.2020
1772 Clouds -28 1030 75 10000 1 290 14:19 03.03.2020
1773 Clouds -27 1030 82 10000 2 310 13:57 03.03.2020
1774 Clouds -27 1030 82 10000 2 310 13:39 03.03.2020
1775 Clouds -27 1030 82 10000 2 310 13:19 03.03.2020
1776 Clouds -29 1031 75 10000 1 330 12:47 03.03.2020
1777 Clouds -28 1031 75 10000 1 10 12:25 03.03.2020
1778 Clouds -25 1031 75 10000 1.02 159 11:57 03.03.2020
1779 Clouds -25 1031 83 10000 1.02 159 11:37 03.03.2020
1780 Clouds -25 1031 83 10000 0.93 217 11:18 03.03.2020
1781 Clouds -24 1031 83 10000 1 110 10:55 03.03.2020
1782 Clouds -21 1031 76 10000 2 150 10:37 03.03.2020
1783 Clouds -21 1031 76 10000 2 150 10:18 03.03.2020
1784 Clouds -21 1031 76 10000 1 140 09:43 03.03.2020
1785 Clouds -19 1032 77 10000 1 170 09:22 03.03.2020
1786 Clouds -18 1032 70 10000 1 170 08:56 03.03.2020
1787 Clouds -16 1032 65 10000 1 160 08:37 03.03.2020
1788 Clouds -16 1032 65 10000 1 160 08:19 03.03.2020
1789 Clouds -15 1032 77 10000 1 220 07:42 03.03.2020
1790 Clouds -16 1032 71 10000 1 210 07:20 03.03.2020
1791 Clouds -17 1033 70 10000 1 170 06:41 03.03.2020
1792 Clouds -17 1033 70 10000 1 170 06:22 03.03.2020
1793 Clouds -19 1033 70 10000 1 140 05:47 03.03.2020
1794 Clouds -20 1033 70 10000 2 140 05:18 03.03.2020
1795 Clouds -21 1034 76 10000 1 130 04:24 03.03.2020
1796 Mist -27 1035 82 5000 0.47 242 01:40 03.03.2020
1797 Mist -28 1035 75 5000 0.51 237 00:49 03.03.2020
1798 Mist -31 1034 74 5000 1 250 00:26 03.03.2020
1799 Clouds -33 1034 74 10000 1 200 23:57 02.03.2020
1800 Clouds -31 1034 74 10000 1 270 23:38 02.03.2020
1801 Clouds -31 1034 74 10000 1 270 23:19 02.03.2020
1802 Clouds -33 1034 74 10000 1 180 22:54 02.03.2020
1803 Clouds -32 1034 67 10000 0.69 239 22:36 02.03.2020
1804 Clouds -32 1034 67 10000 0.69 239 22:18 02.03.2020
1805 Clouds -31 1034 74 10000 0.69 239 21:41 02.03.2020
1806 Clouds -31 1034 74 10000 0.69 239 21:23 02.03.2020
1807 Clouds -29 1034 75 10000 1 130 20:58 02.03.2020
1808 Clouds -29 1034 75 10000 0.69 239 20:39 02.03.2020
1809 Clouds -29 1034 75 10000 0.4 272 20:20 02.03.2020
1810 Clouds -29 1034 75 10000 1 290 19:56 02.03.2020
1811 Clouds -29 1034 75 10000 1 290 19:56 02.03.2020
1812 Clouds -29 1034 75 10000 1 260 19:37 02.03.2020
1813 Clouds -29 1034 75 10000 1 260 19:19 02.03.2020
1814 Clouds -29 1034 82 10000 1 260 18:45 02.03.2020
1815 Clouds -30 1034 74 10000 1 230 18:20 02.03.2020
1816 Clouds -25 1034 75 10000 1 280 17:59 02.03.2020
1817 Clouds -25 1034 75 10000 1 280 17:59 02.03.2020
1818 Clouds -25 1034 75 10000 1 280 17:59 02.03.2020
1819 Clouds -27 1034 82 10000 2 290 17:41 02.03.2020
1820 Clouds -27 1034 82 10000 2 290 17:21 02.03.2020
1821 Clouds -27 1034 82 10000 2 290 17:21 02.03.2020
1822 Clouds -27 1034 82 10000 2 290 17:21 02.03.2020
1823 Clouds -23 1034 83 10000 2 300 16:56 02.03.2020
1824 Clouds -23 1034 83 10000 2 300 16:56 02.03.2020
1825 Clouds -26 1034 83 10000 2 300 16:38 02.03.2020
1826 Clouds -26 1034 83 10000 2 300 16:20 02.03.2020
1827 Clouds -26 1033 83 10000 3 290 15:44 02.03.2020
1828 Clouds -26 1033 75 10000 2 290 15:20 02.03.2020
1829 Clouds -25 1033 83 10000 2 290 14:56 02.03.2020
1830 Clouds -27 1033 82 10000 1 220 14:37 02.03.2020
1831 Clouds -27 1033 82 10000 1 220 14:18 02.03.2020
1832 Clouds -29 1033 82 10000 0.91 231 13:40 02.03.2020
1833 Clouds -29 1033 82 10000 0.87 238 13:19 02.03.2020
1834 Clouds -26 1033 83 10000 1 250 12:55 02.03.2020
1835 Clouds -25 1033 83 10000 0.87 238 12:36 02.03.2020
1836 Clouds -25 1033 83 10000 0.87 238 12:18 02.03.2020
1837 Clouds -23 1032 76 10000 1 190 11:38 02.03.2020
1838 Clouds -23 1032 76 10000 1 190 11:19 02.03.2020
1839 Clouds -23 1032 76 10000 2 150 10:55 02.03.2020
1840 Clouds -21 1032 70 10000 1 170 10:36 02.03.2020
1841 Clouds -21 1032 70 10000 1 170 10:18 02.03.2020
1842 Clouds -18 1032 70 10000 1 170 09:45 02.03.2020
1843 Clouds -16 1032 65 10000 1 180 09:26 02.03.2020
1844 Clouds -16 1032 65 10000 1 190 08:48 02.03.2020
1845 Clouds -15 1032 65 10000 2 180 08:22 02.03.2020
1846 Clouds -16 1031 71 10000 2 170 07:47 02.03.2020
1847 Clouds -16 1031 65 10000 2 160 07:28 02.03.2020
1848 Clouds -17 1031 64 10000 2 140 06:50 02.03.2020
1849 Clouds -17 1031 64 10000 2 140 06:20 02.03.2020
1850 Clouds -19 1032 77 10000 1 140 05:23 02.03.2020
1851 Clouds -22 1031 76 10000 1 140 03:25 02.03.2020
1852 Clouds -23 1031 83 10000 1 160 02:53 02.03.2020
1853 Clouds -24 1031 83 10000 1 140 02:29 02.03.2020
1854 Clouds -25 1031 83 10000 1 210 01:33 02.03.2020
1855 Clouds -26 1031 75 10000 2 280 00:48 02.03.2020
1856 Clouds -28 1030 75 10000 1 250 00:22 02.03.2020
1857 Clouds -29 1030 82 10000 1 260 23:41 01.03.2020
1858 Clouds -29 1030 82 10000 1 260 23:21 01.03.2020
1859 Clouds -26 1030 75 10000 2 290 22:44 01.03.2020
1860 Clouds -26 1030 83 10000 2 310 22:21 01.03.2020
1861 Clouds -26 1029 75 10000 2 310 21:57 01.03.2020
1862 Clouds -26 1029 83 10000 2 330 21:39 01.03.2020
1863 Clouds -26 1029 83 10000 2 330 21:20 01.03.2020
1864 Clouds -26 1029 83 10000 2 320 20:45 01.03.2020
1865 Clouds -26 1029 75 10000 2 310 20:26 01.03.2020
1866 Clouds -26 1029 83 10000 2 320 19:59 01.03.2020
1867 Clouds -26 1028 83 10000 2 320 19:40 01.03.2020
1868 Clouds -26 1028 83 10000 2 320 19:21 01.03.2020
1869 Clouds -26 1028 83 10000 3 300 18:54 01.03.2020
1870 Clouds -26 1028 75 10000 3 310 18:36 01.03.2020
1871 Clouds -26 1028 75 10000 3 310 18:18 01.03.2020
1872 Clouds -26 1028 75 10000 2 300 17:54 01.03.2020
1873 Clouds -25 1028 75 10000 3 300 17:36 01.03.2020
1874 Clouds -25 1028 75 10000 3 300 17:18 01.03.2020
1875 Clouds -25 1028 75 10000 2 310 16:40 01.03.2020
1876 Clouds -25 1028 75 10000 2 310 16:20 01.03.2020
1877 Clouds -24 1028 83 10000 3 320 15:59 01.03.2020
1878 Clouds -24 1028 83 10000 2 330 15:40 01.03.2020
1879 Clouds -24 1028 83 10000 2 330 15:22 01.03.2020
1880 Clouds -25 1027 83 10000 2 330 14:58 01.03.2020
1881 Clouds -24 1027 83 10000 2 340 14:39 01.03.2020
1882 Clouds -24 1027 83 10000 2 340 14:21 01.03.2020
1883 Clouds -24 1027 83 10000 2 340 14:21 01.03.2020
1884 Clouds -24 1027 83 10000 2 340 14:21 01.03.2020
1885 Clouds -26 1027 83 10000 1 340 13:57 01.03.2020
1886 Clouds -25 1027 83 10000 2 340 13:38 01.03.2020
1887 Clouds -25 1027 83 10000 2 340 13:19 01.03.2020
1888 Clouds -25 1027 83 10000 2 350 12:56 01.03.2020
1889 Clouds -23 1027 83 10000 3 360 12:38 01.03.2020
1890 Clouds -23 1027 83 10000 3 360 12:19 01.03.2020
1891 Clouds -22 1027 76 10000 2 10 11:40 01.03.2020
1892 Clouds -22 1027 76 10000 2 10 11:19 01.03.2020
1893 Clouds -22 1027 76 10000 3 360 10:56 01.03.2020
1894 Clouds -22 1026 76 10000 3 360 10:37 01.03.2020
1895 Clouds -22 1026 76 10000 3 360 10:18 01.03.2020
1896 Clouds -20 1026 76 10000 3 360 09:44 01.03.2020
1897 Clouds -18 1026 70 10000 2 360 09:26 01.03.2020
1898 Clouds -17 1026 70 10000 2 350 08:47 01.03.2020
1899 Clouds -17 1026 77 10000 2 340 08:28 01.03.2020
1900 Clear -17 1026 77 10000 2 340 07:57 01.03.2020
1901 Clear -18 1026 77 10000 2 360 07:39 01.03.2020
1902 Clear -18 1026 77 10000 2 360 07:21 01.03.2020
1903 Clear -18 1026 77 10000 2 350 06:42 01.03.2020
1904 Clear -20 1027 76 10000 1 360 05:58 01.03.2020
1905 Clear -24 1027 76 10000 2 360 03:38 01.03.2020
1906 Clear -26 1027 83 10000 2 350 02:23 01.03.2020
1907 Clear -28 1028 82 10000 1 330 01:46 01.03.2020
1908 Clear -30 1028 82 10000 1 320 00:59 01.03.2020
1909 Clear -31 1028 74 10000 1 330 00:39 01.03.2020
1910 Clear -31 1028 74 10000 1 330 00:18 01.03.2020
1911 Clear -31 1028 74 10000 1 330 23:41 29.02.2020
1912 Clear -31 1028 74 10000 1 330 23:22 29.02.2020
1913 Clear -30 1028 74 10000 2 330 22:39 29.02.2020
1914 -273 0 0 0 0 0 22:21 29.02.2020
1915 Clear -30 1028 74 10000 2 330 21:41 29.02.2020
1916 Clear -30 1028 74 10000 2 320 21:21 29.02.2020
1917 Clear -30 1028 74 10000 2 320 20:42 29.02.2020
1918 Clear -30 1028 82 10000 1 330 20:21 29.02.2020
1919 Clear -29 1028 75 10000 2 320 19:56 29.02.2020
1920 Clear -30 1028 82 10000 2 310 19:37 29.02.2020
1921 Clear -30 1028 82 10000 2 310 19:19 29.02.2020
1922 Clear -29 1028 82 10000 2 330 18:42 29.02.2020
1923 Clear -28 1028 75 10000 2 310 18:23 29.02.2020
1924 Clear -28 1028 75 10000 2 320 17:57 29.02.2020
1925 Clear -28 1028 75 10000 2 320 17:39 29.02.2020
1926 Clear -28 1028 75 10000 2 320 17:19 29.02.2020
1927 Clear -28 1028 82 10000 2 330 16:45 29.02.2020
1928 Clear -28 1028 82 10000 2 320 16:20 29.02.2020
1929 Clear -27 1028 82 10000 2 340 15:58 29.02.2020
1930 Clear -26 1028 75 10000 2 330 15:38 29.02.2020
1931 Clear -26 1028 75 10000 2 330 15:20 29.02.2020
1932 Clear -27 1028 82 10000 2 330 14:40 29.02.2020
1933 Clear -27 1028 82 10000 2 330 14:22 29.02.2020
1934 Clouds -26 1028 83 10000 2 350 13:46 29.02.2020
1935 Clouds -25 1028 83 10000 2 330 13:28 29.02.2020
1936 Clouds -26 1028 75 10000 2 340 12:58 29.02.2020
1937 Clouds -23 1028 83 10000 2 350 12:38 29.02.2020
1938 Clouds -23 1028 83 10000 2 350 12:20 29.02.2020
1939 Clouds -24 1028 83 10000 2 330 11:45 29.02.2020
1940 Clouds -24 1028 83 10000 2 330 11:27 29.02.2020
1941 Clouds -23 1028 83 10000 2 340 10:55 29.02.2020
1942 Clouds -23 1028 83 10000 1 10 10:36 29.02.2020
1943 Clouds -23 1028 83 10000 1 10 10:18 29.02.2020
1944 Clouds -22 1028 76 10000 2.01 85 09:46 29.02.2020
1945 Clouds -19 1028 84 10000 1 80 09:18 29.02.2020
1946 Clouds -19 1028 84 10000 2 80 08:40 29.02.2020
1947 Clouds -19 1028 84 10000 2 80 08:21 29.02.2020
1948 Clouds -20 1028 83 10000 2 80 07:53 29.02.2020
1949 Clouds -20 1028 83 10000 2 80 07:53 29.02.2020
1950 Clouds -18 1028 84 10000 1.41 51 07:25 29.02.2020
1951 Clouds -17 1028 77 10000 1.41 51 06:56 29.02.2020
1952 Clouds -16 1028 84 10000 1 320 06:30 29.02.2020
1953 Clouds -18 1029 84 10000 1.41 51 05:54 29.02.2020
1954 Clouds -19 1029 84 10000 1.41 51 05:33 29.02.2020
1955 Clouds -23 1029 83 10000 0.57 79 04:25 29.02.2020
1956 Clouds -25 1030 75 10000 0.57 79 03:37 29.02.2020
1957 Clouds -25 1030 75 10000 0.57 79 03:18 29.02.2020
1958 Clouds -29 1030 82 10000 1 50 02:26 29.02.2020
1959 Clouds -29 1030 75 10000 1 300 00:54 29.02.2020
1960 Clouds -29 1030 75 10000 2 300 00:36 29.02.2020
1961 Clouds -30 1029 74 10000 2 300 23:42 28.02.2020
1962 Clouds -30 1030 74 10000 2 320 23:24 28.02.2020
1963 Clouds -30 1030 74 10000 2 320 23:24 28.02.2020
1964 Clouds -30 1030 82 10000 1 340 22:44 28.02.2020
1965 Clouds -28 1029 75 10000 2 310 22:24 28.02.2020
1966 Clouds -28 1029 82 10000 2 310 21:56 28.02.2020
1967 Clouds -28 1029 82 10000 3 300 21:38 28.02.2020
1968 Clouds -28 1029 82 10000 3 300 21:20 28.02.2020
1969 Clouds -27 1029 75 10000 2 320 20:39 28.02.2020
1970 Clouds -27 1029 75 10000 2 320 20:21 28.02.2020
1971 Clouds -27 1029 75 10000 2 310 19:57 28.02.2020
1972 Clouds -27 1029 82 10000 3 300 19:39 28.02.2020
1973 Clouds -27 1029 82 10000 3 300 19:20 28.02.2020
1974 Clouds -27 1029 75 10000 2 300 18:55 28.02.2020
1975 Clouds -26 1029 83 10000 2 330 18:37 28.02.2020
1976 Clouds -26 1029 83 10000 2 330 18:19 28.02.2020
1977 Clouds -25 1030 83 10000 3 310 17:40 28.02.2020
1978 Clouds -25 1030 83 10000 3 310 17:22 28.02.2020
1979 Clouds -25 1030 83 10000 2 320 16:44 28.02.2020
1980 Clouds -24 1030 83 10000 3 310 16:20 28.02.2020
1981 Clouds -23 1030 83 10000 3 290 15:58 28.02.2020
1982 Clouds -24 1030 83 10000 2 300 15:40 28.02.2020
1983 Clouds -24 1030 83 10000 2 300 15:19 28.02.2020
1984 Clouds -24 1030 83 10000 2 300 15:19 28.02.2020
1985 Clouds -23 1030 83 10000 2 290 14:57 28.02.2020
1986 Clouds -22 1030 83 10000 1 320 14:38 28.02.2020
1987 Clouds -22 1030 83 10000 1 320 14:38 28.02.2020
1988 Clouds -22 1030 83 10000 1 320 14:18 28.02.2020
1989 Clouds -20 1030 83 10000 3 360 13:42 28.02.2020
1990 Clouds -20 1030 83 10000 2 350 13:21 28.02.2020
1991 Clouds -19 1030 84 10000 2 330 12:59 28.02.2020
1992 Clouds -20 1030 91 10000 2 340 12:40 28.02.2020
1993 Clouds -20 1030 91 10000 2 340 12:22 28.02.2020
1994 Clouds -19 1030 84 10000 2 350 11:42 28.02.2020
1995 Clouds -18 1030 84 10000 2 330 11:23 28.02.2020
1996 Clouds -16 1030 84 10000 2 340 10:57 28.02.2020
1997 Clouds -16 1030 84 10000 1 350 10:39 28.02.2020
1998 Clouds -16 1030 84 10000 1 350 10:20 28.02.2020
1999 Clouds -14 1030 77 10000 2 350 09:44 28.02.2020
2000 Clouds -13 1030 78 10000 2 330 09:21 28.02.2020
2001 Clouds -13 1030 78 10000 2 320 08:56 28.02.2020
2002 Clouds -13 1030 84 10000 2 350 08:36 28.02.2020
2003 Clouds -13 1030 84 10000 2 350 08:18 28.02.2020
2004 Clouds -13 1030 84 10000 3 10 07:39 28.02.2020
2005 Clouds -13 1030 84 10000 3 10 07:19 28.02.2020
2006 Clouds -12 1030 78 10000 2 350 06:41 28.02.2020
2007 Clouds -13 1030 84 10000 2 10 05:50 28.02.2020
2008 Snow -13 1030 84 10000 3 360 04:34 28.02.2020
2009 Snow -14 1030 84 10000 3 350 03:43 28.02.2020
2010 Snow -14 1030 84 10000 4 10 02:45 28.02.2020
2011 Snow -14 1030 84 10000 3 10 02:20 28.02.2020
2012 Snow -15 1029 92 5000 2 340 00:39 28.02.2020
2013 Snow -15 1029 92 5000 2 340 00:21 28.02.2020
2014 Snow -15 1029 92 5000 1 330 23:41 27.02.2020
2015 Snow -15 1029 92 5000 1 330 23:19 27.02.2020
2016 Snow -15 1029 92 10000 1 340 22:41 27.02.2020
2017 Snow -15 1029 92 10000 1 340 22:22 27.02.2020
2018 Snow -15 1029 92 10000 2 350 21:56 27.02.2020
2019 Snow -15 1029 92 10000 1 350 21:37 27.02.2020
2020 Snow -15 1029 92 10000 1 350 21:18 27.02.2020
2021 Snow -15 1029 92 10000 1 350 20:54 27.02.2020
2022 Snow -15 1029 92 10000 1 340 20:36 27.02.2020
2023 Snow -15 1029 92 10000 1 340 20:18 27.02.2020
2024 Snow -15 1029 92 10000 1 360 19:42 27.02.2020
2025 Snow -15 1029 92 10000 1 360 19:23 27.02.2020
2026 Snow -15 1029 92 10000 1 360 18:58 27.02.2020
2027 Snow -14 1029 84 10000 1 360 18:39 27.02.2020
2028 Snow -14 1029 84 10000 1 360 18:20 27.02.2020
2029 Snow -14 1029 84 10000 1 340 17:56 27.02.2020
2030 Snow -14 1029 84 10000 1 340 17:37 27.02.2020
2031 Snow -14 1029 84 10000 1 340 17:18 27.02.2020
2032 Snow -14 1029 84 10000 1 330 16:54 27.02.2020
2033 Snow -14 1029 84 10000 1 350 16:36 27.02.2020
2034 Snow -14 1029 84 10000 1 350 16:18 27.02.2020
2035 Snow -14 1029 92 10000 1 340 15:39 27.02.2020
2036 Snow -14 1029 92 10000 1 340 15:20 27.02.2020
2037 Snow -14 1029 92 10000 1 340 14:59 27.02.2020
2038 Snow -14 1029 92 10000 1 340 14:39 27.02.2020
2039 Snow -14 1029 92 10000 1 340 14:21 27.02.2020
2040 Snow -14 1029 92 10000 1 350 13:45 27.02.2020
2041 Snow -14 1029 84 10000 2 350 13:23 27.02.2020
2042 Snow -14 1029 92 10000 2 350 12:59 27.02.2020
2043 Snow -14 1029 92 10000 2 350 12:59 27.02.2020
2044 Snow -14 1029 84 10000 2 340 12:41 27.02.2020
2045 Snow -14 1029 84 10000 2 340 12:19 27.02.2020
2046 Snow -15 1029 92 10000 2 10 11:45 27.02.2020
2047 Snow -14 1029 84 10000 2 10 11:23 27.02.2020
2048 Snow -15 1029 92 10000 1 20 10:55 27.02.2020
2049 Snow -14 1029 84 10000 1 350 10:37 27.02.2020
2050 Snow -14 1029 84 10000 1 350 10:18 27.02.2020
2051 Snow -13 1029 84 10000 2 340 09:40 27.02.2020
2052 Snow -13 1029 84 10000 2 340 09:40 27.02.2020
2053 Snow -13 1029 84 10000 2 340 09:22 27.02.2020
2054 Snow -13 1028 92 10000 1 330 08:42 27.02.2020
2055 Snow -13 1028 84 10000 2 340 08:23 27.02.2020
2056 Snow -13 1028 84 10000 2 360 07:48 27.02.2020
2057 Snow -13 1028 84 10000 2 360 07:48 27.02.2020
2058 Snow -13 1028 84 10000 2 330 07:28 27.02.2020
2059 Snow -12 1028 85 10000 2 350 06:59 27.02.2020
2060 Snow -12 1028 85 10000 1 10 06:20 27.02.2020
2061 Snow -13 1029 84 5000 1 10 04:22 27.02.2020
2062 Snow -14 1029 84 3200 1 20 02:54 27.02.2020
2063 Snow -15 1028 84 5000 2 360 00:47 27.02.2020
2064 Snow -16 1028 91 5000 2 10 00:29 27.02.2020
2065 Snow -15 1028 84 10000 1 10 23:41 26.02.2020
2066 Snow -15 1028 84 10000 1 10 23:20 26.02.2020
2067 Snow -15 1028 84 10000 1 20 22:59 26.02.2020
2068 Snow -15 1028 84 10000 1 20 22:40 26.02.2020
2069 Snow -15 1028 84 10000 1 20 22:22 26.02.2020
2070 Snow -15 1028 84 10000 2 20 21:58 26.02.2020
2071 Snow -15 1028 84 10000 0.6 101 21:38 26.02.2020
2072 Snow -15 1028 84 10000 0.6 101 21:19 26.02.2020
2073 Snow -15 1028 84 10000 1 160 20:56 26.02.2020
2074 Snow -15 1028 84 10000 0.6 101 20:38 26.02.2020
2075 Snow -15 1028 84 10000 0.34 92 20:18 26.02.2020
2076 Snow -15 1028 84 10000 0.44 95 19:47 26.02.2020
2077 Snow -16 1028 91 10000 1 70 19:21 26.02.2020
2078 Snow -16 1028 91 10000 1 90 18:59 26.02.2020
2079 Snow -16 1028 91 10000 1 150 18:41 26.02.2020
2080 Snow -16 1028 91 10000 1 150 18:41 26.02.2020
2081 Snow -16 1028 91 10000 1 150 18:22 26.02.2020
2082 Snow -16 1028 91 10000 1 110 17:59 26.02.2020
2083 Snow -16 1028 91 10000 1 90 17:39 26.02.2020
2084 Snow -16 1028 91 10000 1 90 17:18 26.02.2020
2085 Snow -15 1028 84 10000 1 70 16:56 26.02.2020
2086 Snow -15 1028 84 10000 0.69 61 16:37 26.02.2020
2087 Snow -15 1028 84 10000 0.69 61 16:18 26.02.2020
2088 Snow -15 1028 84 10000 0.69 61 15:42 26.02.2020
2089 Snow -15 1028 84 10000 0.69 61 15:23 26.02.2020
2090 Snow -16 1028 91 10000 1 340 14:43 26.02.2020
2091 Snow -16 1028 84 10000 1 20 14:23 26.02.2020
2092 Snow -16 1028 91 10000 1 10 13:44 26.02.2020
2093 Snow -16 1028 91 10000 1 10 13:44 26.02.2020
2094 Snow -16 1028 91 10000 1 30 13:23 26.02.2020
2095 Snow -16 1028 91 10000 2 10 12:58 26.02.2020
2096 Snow -16 1028 91 10000 2 10 12:38 26.02.2020
2097 Snow -16 1028 91 10000 2 10 12:18 26.02.2020
2098 Snow -15 1027 84 10000 1 50 11:42 26.02.2020
2099 Snow -15 1027 84 10000 1 50 11:22 26.02.2020
2100 Snow -15 1027 84 10000 1 50 11:22 26.02.2020
2101 Snow -15 1027 84 5000 1 10 10:59 26.02.2020
2102 Snow -15 1027 84 5000 1 360 10:39 26.02.2020
2103 Snow -15 1027 84 5000 1 360 10:21 26.02.2020
2104 Snow -15 1027 84 5000 2 360 09:43 26.02.2020
2105 Snow -15 1027 84 10000 2 360 09:23 26.02.2020
2106 Snow -15 1027 84 10000 2 30 08:58 26.02.2020
2107 Snow -15 1027 84 10000 3 20 08:37 26.02.2020
2108 Snow -15 1027 84 10000 3 20 08:18 26.02.2020
2109 Snow -15 1026 84 10000 2 10 07:42 26.02.2020
2110 Snow -14 1026 77 10000 2 10 07:23 26.02.2020
2111 Snow -14 1026 84 10000 1 20 06:50 26.02.2020
2112 Snow -14 1026 84 10000 1 20 06:32 26.02.2020
2113 Snow -14 1026 84 10000 1 360 05:51 26.02.2020
2114 Snow -15 1026 84 10000 2 10 05:23 26.02.2020
2115 Snow -15 1026 84 10000 2 20 04:19 26.02.2020
2116 Snow -16 1025 84 5000 2 10 02:23 26.02.2020
2117 Snow -16 1025 84 3200 1 340 01:45 26.02.2020
2118 Snow -17 1025 84 5000 2 340 00:48 26.02.2020
2119 Snow -17 1025 84 3200 2 330 00:24 26.02.2020
2120 Snow -17 1025 84 10000 2 330 23:45 25.02.2020
2121 Snow -17 1024 84 10000 1 340 23:27 25.02.2020
2122 Snow -17 1024 84 5000 2 10 22:59 25.02.2020
2123 Snow -17 1024 84 5000 1 360 22:41 25.02.2020
2124 Snow -17 1024 84 5000 1 360 22:19 25.02.2020
2125 Snow -17 1024 84 5000 1 340 21:55 25.02.2020
2126 Snow -17 1024 84 5000 1 350 21:36 25.02.2020
2127 Snow -17 1024 84 5000 1 350 21:18 25.02.2020
2128 Snow -17 1024 84 5000 1 350 20:54 25.02.2020
2129 Snow -17 1024 84 3200 1 360 20:36 25.02.2020
2130 Snow -17 1024 84 3200 1 360 20:18 25.02.2020
2131 Snow -18 1024 91 10000 1 340 19:40 25.02.2020
2132 Snow -18 1024 91 10000 1 340 19:19 25.02.2020
2133 Snow -18 1023 84 10000 1 360 18:42 25.02.2020
2134 Snow -18 1024 84 10000 1 40 18:22 25.02.2020
2135 Snow -18 1024 84 10000 1 60 17:59 25.02.2020
2136 Snow -18 1024 84 10000 0.7 70 17:38 25.02.2020
2137 Snow -18 1024 84 10000 1 56 17:20 25.02.2020
2138 Snow -18 1024 84 10000 1 360 16:59 25.02.2020
2139 Snow -18 1024 84 10000 1 330 16:40 25.02.2020
2140 Snow -18 1024 84 10000 1 330 16:22 25.02.2020
2141 Snow -18 1024 84 10000 1 330 15:57 25.02.2020
2142 Snow -19 1024 84 5000 2 350 15:38 25.02.2020
2143 Snow -19 1024 84 5000 2 350 15:18 25.02.2020
2144 Snow -19 1024 84 5000 1 350 14:56 25.02.2020
2145 Snow -19 1024 84 5000 1 360 14:37 25.02.2020
2146 Snow -19 1024 84 5000 1 360 14:37 25.02.2020
2147 Snow -19 1024 84 5000 1 360 14:18 25.02.2020
2148 Snow -19 1024 84 5000 1 360 14:18 25.02.2020
2149 Snow -19 1024 84 5000 1 360 14:18 25.02.2020
2150 Snow -19 1024 84 3200 2 10 13:55 25.02.2020
2151 Snow -19 1024 84 5000 1 350 13:37 25.02.2020
2152 Snow -19 1024 84 5000 1 350 13:18 25.02.2020
2153 Snow -19 1024 84 10000 2 350 12:41 25.02.2020
2154 Snow -19 1024 84 10000 2 350 12:21 25.02.2020
2155 Snow -19 1024 84 5000 1 350 11:57 25.02.2020
2156 Snow -20 1024 83 3200 1 340 11:38 25.02.2020
2157 Snow -20 1024 83 3200 1 340 11:19 25.02.2020
2158 Snow -21 1023 83 10000 1 340 10:59 25.02.2020
2159 Snow -21 1023 83 10000 1 340 10:59 25.02.2020
2160 Snow -21 1023 83 10000 1 330 10:40 25.02.2020
2161 Snow -21 1023 83 10000 1 330 10:21 25.02.2020
2162 Clouds -20 1023 76 10000 2 350 09:41 25.02.2020
2163 Clouds -20 1023 76 10000 2 350 09:21 25.02.2020
2164 Snow -19 1023 77 10000 2 340 08:45 25.02.2020
2165 Snow -19 1023 77 10000 2 340 08:45 25.02.2020
2166 Snow -18 1023 77 10000 1 360 08:27 25.02.2020
2167 Clouds -19 1023 84 10000 1 20 07:58 25.02.2020
2168 Clouds -17 1023 77 10000 1 10 07:39 25.02.2020
2169 Clouds -17 1023 77 10000 1 10 07:18 25.02.2020
2170 Clouds -18 1022 77 10000 1 70 06:28 25.02.2020
2171 Clouds -18 1022 77 10000 1.4 347 05:25 25.02.2020
2172 Clouds -22 1021 76 10000 1 360 02:54 25.02.2020
2173 Snow -24 1020 83 10000 0.76 265 01:30 25.02.2020
2174 Snow -24 1020 83 10000 1 360 00:43 25.02.2020
2175 Snow -24 1019 76 10000 1 360 00:22 25.02.2020
2176 Snow -24 1019 76 10000 1 330 23:40 24.02.2020
2177 Snow -24 1019 76 10000 1 330 23:20 24.02.2020
2178 Snow -26 1018 75 10000 1 330 22:39 24.02.2020
2179 Snow -26 1018 75 10000 1 330 22:19 24.02.2020
2180 Snow -27 1018 82 10000 1 340 21:57 24.02.2020
2181 Snow -27 1018 82 10000 1 320 21:39 24.02.2020
2182 Snow -27 1018 82 10000 1 320 21:19 24.02.2020
2183 Snow -27 1018 82 10000 1 240 20:58 24.02.2020
2184 Snow -26 1018 75 10000 0.96 224 20:39 24.02.2020
2185 Snow -26 1018 75 10000 1.19 194 20:19 24.02.2020
2186 Clouds -27 1018 82 10000 1 340 19:56 24.02.2020
2187 Clouds -28 1018 75 10000 1.19 194 19:37 24.02.2020
2188 Clouds -28 1018 75 10000 1.19 194 19:19 24.02.2020
2189 Clouds -25 1018 83 10000 1 200 18:42 24.02.2020
2190 Clouds -25 1018 83 10000 1 200 18:24 24.02.2020
2191 Clouds -26 1018 75 10000 3 210 17:57 24.02.2020
2192 Clouds -29 1018 75 10000 2 240 17:39 24.02.2020
2193 Clouds -29 1018 75 10000 2 240 17:19 24.02.2020
2194 Clouds -30 1018 74 10000 1.98 191 16:55 24.02.2020
2195 Clouds -29 1019 75 10000 1 350 16:37 24.02.2020
2196 Clouds -29 1019 75 10000 1 350 16:19 24.02.2020
2197 Clouds -29 1018 75 10000 2 350 15:57 24.02.2020
2198 Clouds -29 1018 75 10000 1 360 15:38 24.02.2020
2199 Clouds -29 1018 75 10000 1 360 15:20 24.02.2020
2200 Clouds -28 1018 75 10000 1 170 14:42 24.02.2020
2201 Clouds -30 1019 82 10000 2 200 14:24 24.02.2020
2202 Clouds -30 1019 82 10000 2 200 14:24 24.02.2020
2203 Clouds -29 1019 75 10000 1 150 13:59 24.02.2020
2204 Clouds -29 1019 75 10000 1 230 13:41 24.02.2020
2205 Clouds -29 1019 75 10000 1 230 13:23 24.02.2020
2206 Clouds -28 1019 75 10000 1.52 177 12:59 24.02.2020
2207 Clouds -28 1019 82 10000 1 160 12:41 24.02.2020
2208 Clouds -28 1019 82 10000 1 160 12:22 24.02.2020
2209 Clouds -27 1019 82 10000 1 190 11:49 24.02.2020
2210 Clouds -27 1019 82 10000 1 190 11:31 24.02.2020
2211 Clouds -26 1019 75 10000 1 140 10:52 24.02.2020
2212 Clouds -25 1019 83 10000 0.58 243 10:32 24.02.2020
2213 Clouds -24 1019 76 10000 1 200 09:58 24.02.2020
2214 Clouds -22 1019 76 10000 1 190 09:39 24.02.2020
2215 Clouds -22 1019 76 10000 1 190 09:19 24.02.2020
2216 Clouds -22 1019 76 10000 1 190 09:19 24.02.2020
2217 Clouds -20 1019 76 10000 2 170 08:48 24.02.2020
2218 Clouds -20 1019 83 10000 2 160 08:28 24.02.2020
2219 Clouds -20 1018 76 10000 2 160 07:54 24.02.2020
2220 Clouds -20 1018 76 10000 3 160 07:33 24.02.2020
2221 Clouds -20 1018 76 10000 2 160 06:50 24.02.2020
2222 Clouds -21 1018 76 10000 2 150 06:23 24.02.2020
2223 Clouds -21 1017 76 10000 2 130 05:44 24.02.2020
2224 Clouds -22 1017 76 10000 2 120 05:24 24.02.2020
2225 Clouds -24 1016 83 10000 1 130 02:57 24.02.2020
2226 Snow -27 1016 75 10000 1 210 01:55 24.02.2020
2227 Snow -28 1016 75 10000 1 170 01:29 24.02.2020
2228 Snow -28 1015 75 10000 1 170 00:44 24.02.2020
2229 Snow -29 1015 82 10000 1 170 00:20 24.02.2020
2230 Snow -27 1015 75 10000 1 210 23:42 23.02.2020
2231 Snow -27 1015 75 10000 1 210 23:23 23.02.2020
2232 Snow -27 1014 75 10000 1 180 22:58 23.02.2020
2233 Snow -27 1014 75 10000 1.35 231 22:40 23.02.2020
2234 Snow -27 1014 75 10000 1.35 231 22:21 23.02.2020
2235 Snow -27 1015 75 10000 1 110 21:46 23.02.2020
2236 Snow -28 1014 82 10000 1 130 21:21 23.02.2020
2237 Snow -28 1014 75 3200 1 140 20:59 23.02.2020
2238 Snow -27 1014 75 5000 1.35 231 20:40 23.02.2020
2239 Snow -27 1014 75 5000 1.37 223 20:22 23.02.2020
2240 Snow -27 1014 75 10000 1.48 222 19:59 23.02.2020
2241 Clouds -28 1014 75 10000 1 170 19:41 23.02.2020
2242 Clouds -28 1014 75 10000 1 170 19:20 23.02.2020
2243 Clouds -29 1014 75 10000 1.48 222 18:59 23.02.2020
2244 Snow -29 1014 75 10000 1.48 222 18:38 23.02.2020
2245 Snow -29 1014 75 10000 1.48 222 18:19 23.02.2020
2246 Snow -29 1014 75 10000 1 300 17:58 23.02.2020
2247 Snow -30 1014 74 10000 1 250 17:39 23.02.2020
2248 Snow -30 1014 74 10000 1 250 17:21 23.02.2020
2249 Snow -29 1013 75 10000 1 210 16:56 23.02.2020
2250 Snow -29 1014 75 10000 0.92 229 16:36 23.02.2020
2251 Snow -29 1014 75 10000 0.92 229 16:18 23.02.2020
2252 Clouds -30 1014 74 10000 2 300 15:40 23.02.2020
2253 Clouds -30 1014 74 10000 2 300 15:21 23.02.2020
2254 Clouds -30 1014 74 10000 1 280 14:59 23.02.2020
2255 Clouds -30 1014 74 10000 1 280 14:59 23.02.2020
2256 Clouds -30 1014 74 10000 0.92 229 14:41 23.02.2020
2257 Clouds -30 1014 74 10000 0.92 229 14:23 23.02.2020
2258 Clouds -30 1014 74 10000 1 130 13:58 23.02.2020
2259 Clouds -30 1014 74 10000 0.36 227 13:39 23.02.2020
2260 Clouds -30 1014 74 10000 0.36 227 13:21 23.02.2020
2261 Clouds -30 1014 74 10000 0.52 228 12:44 23.02.2020
2262 Clouds -30 1014 74 10000 0.52 228 12:23 23.02.2020
2263 Clouds -29 1014 75 10000 0.52 228 11:59 23.02.2020
2264 Clouds -30 1014 67 10000 1 150 11:38 23.02.2020
2265 Clouds -30 1014 67 10000 1 150 11:19 23.02.2020
2266 Clouds -30 1014 74 10000 1 150 10:56 23.02.2020
2267 Clouds -29 1013 75 10000 1 150 10:38 23.02.2020
2268 Clouds -29 1013 75 10000 1 150 10:20 23.02.2020
2269 Clouds -26 1013 75 10000 1 10 09:41 23.02.2020
2270 Clouds -26 1013 75 10000 1 10 09:21 23.02.2020
2271 Clouds -24 1012 76 10000 0.85 355 08:59 23.02.2020
2272 Clouds -24 1012 83 10000 1 130 08:41 23.02.2020
2273 Clouds -24 1012 83 10000 1 130 08:21 23.02.2020
2274 Snow -23 1012 83 10000 1 130 07:40 23.02.2020
2275 Snow -23 1012 83 10000 1 130 07:18 23.02.2020
2276 Clouds -24 1012 83 10000 1 80 06:19 23.02.2020
2277 Clouds -24 1012 76 10000 1 80 04:49 23.02.2020
2278 Clouds -27 1011 82 10000 1 70 03:50 23.02.2020
2279 Snow -28 1011 82 10000 1 20 02:38 23.02.2020
2280 Snow -29 1011 75 10000 2 350 01:27 23.02.2020
2281 Snow -30 1011 74 10000 2 330 00:55 23.02.2020
2282 Snow -30 1010 74 10000 2 320 00:36 23.02.2020
2283 Snow -30 1010 74 10000 2 320 00:18 23.02.2020
2284 Snow -30 1010 74 10000 2 320 23:41 22.02.2020
2285 Clouds -30 1010 74 10000 2 320 23:19 22.02.2020
2286 Clouds -30 1009 74 10000 2 320 22:44 22.02.2020
2287 Clouds -29 1009 75 10000 2 310 22:19 22.02.2020
2288 Clouds -29 1009 75 10000 2 310 21:43 22.02.2020
2289 Clouds -29 1009 75 10000 2 310 21:24 22.02.2020
2290 Clouds -29 1009 82 10000 2 320 20:55 22.02.2020
2291 Snow -28 1009 75 10000 2 320 20:36 22.02.2020
2292 Snow -28 1009 75 10000 2 320 20:18 22.02.2020
2293 Snow -28 1009 75 10000 1 330 19:42 22.02.2020
2294 Snow -28 1009 75 10000 1 330 19:42 22.02.2020
2295 Snow -28 1009 82 10000 2 340 19:22 22.02.2020
2296 Snow -28 1009 82 10000 3 340 18:54 22.02.2020
2297 Snow -28 1009 75 10000 3 330 18:36 22.02.2020
2298 Snow -28 1009 75 10000 3 330 18:18 22.02.2020
2299 Snow -28 1009 82 10000 2 330 17:43 22.02.2020
2300 Snow -28 1009 82 10000 3 340 17:25 22.02.2020
2301 Snow -29 1009 82 10000 2 330 16:58 22.02.2020
2302 Snow -28 1009 75 10000 1 320 16:40 22.02.2020
2303 Snow -28 1009 75 10000 1 320 16:20 22.02.2020
2304 Snow -28 1009 75 10000 1 320 15:46 22.02.2020
2305 Snow -26 1009 75 10000 1 320 15:27 22.02.2020
2306 Snow -26 1009 83 10000 2 320 14:58 22.02.2020
2307 Snow -25 1009 75 10000 2 340 14:39 22.02.2020
2308 Snow -25 1009 75 10000 2 340 14:20 22.02.2020
2309 Snow -25 1009 75 10000 2 340 13:42 22.02.2020
2310 Snow -26 1010 83 10000 2 340 13:20 22.02.2020
2311 Snow -26 1010 83 10000 2 330 12:57 22.02.2020
2312 Snow -25 1010 75 5000 2 330 12:38 22.02.2020
2313 Snow -25 1010 75 5000 2 330 12:20 22.02.2020
2314 Snow -26 1010 83 10000 2 330 11:42 22.02.2020
2315 Snow -26 1010 83 10000 1 330 11:23 22.02.2020
2316 Clouds -27 1010 75 10000 2 350 10:42 22.02.2020
2317 Clouds -26 1010 75 10000 2 10 10:21 22.02.2020
2318 Snow -25 1009 75 10000 1 350 09:59 22.02.2020
2319 Snow -25 1009 83 10000 0.5 350 09:40 22.02.2020
2320 Snow -25 1009 83 10000 0.5 350 09:22 22.02.2020
2321 Snow -24 1009 83 10000 1 10 08:51 22.02.2020
2322 Snow -23 1010 83 10000 1 30 08:28 22.02.2020
2323 Snow -23 1010 83 10000 1 60 07:58 22.02.2020
2324 Clouds -23 1010 83 10000 1 40 07:38 22.02.2020
2325 Clouds -23 1010 83 10000 1 40 07:18 22.02.2020
2326 Clouds -24 1010 83 10000 1 40 06:43 22.02.2020
2327 Clouds -25 1011 83 10000 2 360 04:45 22.02.2020
2328 Clouds -25 1011 75 10000 2 10 03:52 22.02.2020
2329 Clouds -27 1011 75 10000 2 360 02:38 22.02.2020
2330 Clouds -28 1011 82 10000 1 350 01:48 22.02.2020
2331 Clouds -28 1011 75 10000 2 350 01:29 22.02.2020
2332 Clouds -28 1011 75 10000 2 310 00:48 22.02.2020
2333 Clouds -28 1011 82 10000 2 330 00:29 22.02.2020
2334 Clouds -26 1011 75 10000 3 340 23:53 21.02.2020
2335 Clouds -26 1011 75 10000 3 340 23:26 21.02.2020
2336 Snow -26 1011 83 10000 3 360 22:59 21.02.2020
2337 Clouds -25 1011 83 10000 3 350 22:41 21.02.2020
2338 Clouds -25 1011 83 10000 3 350 22:23 21.02.2020
2339 Clouds -26 1011 83 10000 3 350 21:55 21.02.2020
2340 Clouds -24 1011 83 10000 3 350 21:37 21.02.2020
2341 Clouds -24 1011 83 10000 3 350 21:18 21.02.2020
2342 Snow -24 1011 83 10000 4 350 20:41 21.02.2020
2343 Snow -23 1011 76 10000 4 350 20:23 21.02.2020
2344 Snow -22 1011 83 10000 3 350 19:39 21.02.2020
2345 Snow -22 1011 83 10000 3 350 19:19 21.02.2020
2346 Snow -21 1012 83 10000 3 350 18:43 21.02.2020
2347 Snow -21 1012 83 10000 3 350 18:23 21.02.2020
2348 Snow -21 1012 83 10000 3 340 17:57 21.02.2020
2349 Snow -19 1012 84 5000 3 350 17:37 21.02.2020
2350 Snow -19 1012 84 5000 3 350 17:19 21.02.2020
2351 Snow -19 1012 84 5000 3 340 16:44 21.02.2020
2352 Snow -19 1012 84 5000 2 340 16:24 21.02.2020
2353 Snow -19 1013 84 5000 3 330 15:59 21.02.2020
2354 Snow -19 1013 84 5000 3 330 15:38 21.02.2020
2355 Snow -19 1013 84 5000 3 330 15:18 21.02.2020
2356 Snow -19 1013 84 3200 2 340 14:42 21.02.2020
2357 Snow -19 1013 84 3200 2 350 14:22 21.02.2020
2358 Snow -19 1013 84 3200 1 350 13:59 21.02.2020
2359 Snow -18 1014 84 3200 2 350 13:39 21.02.2020
2360 Snow -18 1014 84 3200 2 350 13:20 21.02.2020
2361 Snow -18 1014 84 3200 2 340 12:43 21.02.2020
2362 Snow -19 1014 91 5000 1 350 12:24 21.02.2020
2363 Snow -18 1014 84 5000 2 330 11:56 21.02.2020
2364 Snow -19 1014 84 5000 1 320 11:37 21.02.2020
2365 Snow -19 1014 84 5000 1 320 11:19 21.02.2020
2366 Snow -19 1014 84 5000 2 330 10:42 21.02.2020
2367 Snow -19 1014 84 5000 2 330 10:42 21.02.2020
2368 Snow -19 1015 84 5000 2 330 10:20 21.02.2020
2369 Snow -19 1015 84 3200 2 330 09:58 21.02.2020
2370 Snow -19 1015 84 5000 2 330 09:38 21.02.2020
2371 Snow -19 1015 84 5000 2 330 09:20 21.02.2020
2372 Snow -20 1015 83 5000 2 340 08:54 21.02.2020
2373 Snow -20 1016 83 5000 2 330 08:36 21.02.2020
2374 Snow -20 1016 83 5000 2 330 08:18 21.02.2020
2375 Snow -22 1017 83 10000 2 340 07:41 21.02.2020
2376 Snow -22 1017 83 10000 2 340 07:20 21.02.2020
2377 Snow -22 1017 83 10000 3 330 06:55 21.02.2020
2378 Snow -22 1017 83 10000 2 330 06:31 21.02.2020
2379 Snow -23 1017 83 10000 2 350 05:55 21.02.2020
2380 Clouds -24 1019 83 10000 1 360 04:50 21.02.2020
2381 Clouds -25 1019 83 10000 1 20 04:25 21.02.2020
2382 Clouds -25 1019 75 10000 1 360 03:46 21.02.2020
2383 Clouds -26 1020 75 10000 1 360 02:58 21.02.2020
2384 Clouds -29 1021 75 10000 1 360 01:32 21.02.2020
2385 Clouds -29 1022 75 10000 1 10 00:46 21.02.2020
2386 Clouds -29 1022 75 10000 1 340 00:24 21.02.2020
2387 Mist -29 1022 75 5000 2 340 23:58 20.02.2020
2388 Clouds -29 1022 75 10000 2 350 23:39 20.02.2020
2389 Clouds -29 1022 75 10000 2 350 23:21 20.02.2020
2390 Clouds -30 1023 74 10000 1 350 22:40 20.02.2020
2391 Clouds -30 1023 74 10000 1 350 22:21 20.02.2020
2392 Clouds -30 1023 74 10000 1 340 21:57 20.02.2020
2393 Clouds -29 1023 75 10000 2 360 21:39 20.02.2020
2394 Clouds -29 1023 75 10000 2 360 21:39 20.02.2020
2395 Clouds -29 1023 75 10000 2 360 21:19 20.02.2020
2396 Clouds -30 1024 67 10000 1 330 20:56 20.02.2020
2397 Clouds -30 1024 67 10000 2 340 20:38 20.02.2020
2398 Clouds -30 1024 67 10000 2 340 20:19 20.02.2020
2399 Clouds -30 1024 74 10000 1 350 19:58 20.02.2020
2400 Clouds -30 1024 67 10000 1 340 19:40 20.02.2020
2401 Clouds -30 1024 67 10000 1 340 19:22 20.02.2020
2402 Clouds -30 1025 67 10000 1 320 18:40 20.02.2020
2403 Clouds -30 1025 67 10000 1 320 18:21 20.02.2020
2404 Clouds -29 1025 68 10000 2 20 17:58 20.02.2020
2405 Clouds -29 1025 68 10000 2 20 17:39 20.02.2020
2406 Clouds -29 1025 68 10000 2 20 17:38 20.02.2020
2407 Clouds -29 1025 68 10000 2 360 17:19 20.02.2020
2408 Clouds -29 1025 68 10000 2 360 16:56 20.02.2020
2409 Clouds -30 1025 74 10000 1 350 16:38 20.02.2020
2410 Clouds -30 1025 74 10000 1 350 16:18 20.02.2020
2411 Clouds -30 1025 74 10000 2 360 15:42 20.02.2020
2412 Clouds -29 1026 68 10000 1 360 15:22 20.02.2020
2413 Clouds -29 1026 75 10000 1 340 14:57 20.02.2020
2414 Snow -30 1026 74 10000 1 330 14:39 20.02.2020
2415 Snow -30 1026 74 10000 1 330 14:21 20.02.2020
2416 Snow -30 1026 74 10000 1 340 13:54 20.02.2020
2417 Snow -31 1026 74 10000 1 340 13:36 20.02.2020
2418 Snow -31 1026 74 10000 1 340 13:18 20.02.2020
2419 Snow -29 1026 75 10000 1 360 12:42 20.02.2020
2420 Snow -29 1026 75 10000 1 350 12:21 20.02.2020
2421 Snow -30 1027 74 10000 1 330 11:58 20.02.2020
2422 Clouds -31 1027 74 10000 1 320 11:39 20.02.2020
2423 Clouds -31 1027 74 10000 1 320 11:20 20.02.2020
2424 Clouds -32 1027 74 10000 1 350 10:56 20.02.2020
2425 Clouds -31 1027 74 10000 1 340 10:37 20.02.2020
2426 Clouds -31 1027 74 10000 1 340 10:19 20.02.2020
2427 Clouds -31 1027 74 10000 0.57 70 09:39 20.02.2020
2428 Clouds -31 1027 74 10000 0.57 70 09:20 20.02.2020
2429 Mist -30 1027 74 5000 0.57 70 08:44 20.02.2020
2430 Mist -30 1027 67 5000 0.57 70 08:24 20.02.2020
2431 Mist -30 1027 74 5000 0.98 174 07:48 20.02.2020
2432 Mist -30 1027 74 5000 0.98 174 07:27 20.02.2020
2433 Mist -30 1027 74 3200 0.98 174 06:59 20.02.2020
2434 Mist -31 1027 74 5000 1 50 06:40 20.02.2020
2435 Mist -31 1027 74 5000 1 50 05:47 20.02.2020
2436 Mist -30 1027 67 5000 0.98 174 05:25 20.02.2020
2437 Mist -31 1028 67 5000 1.39 169 04:48 20.02.2020
2438 Mist -34 1028 73 2400 2 100 03:46 20.02.2020
2439 Fog -34 1028 66 1900 1.39 169 02:47 20.02.2020
2440 Fog -38 1028 65 500 1 300 01:25 20.02.2020
2441 Fog -38 1028 65 600 1.21 172 00:46 20.02.2020
2442 Fog -38 1028 65 600 1 340 00:24 20.02.2020
2443 Fog -39 1028 65 800 1 330 23:46 19.02.2020
2444 Mist -38 1028 65 1200 1.36 163 23:18 19.02.2020
2445 Fog -38 1028 65 900 1.36 163 22:43 19.02.2020
2446 Fog -38 1028 65 1000 1 300 22:24 19.02.2020
2447 Mist -38 1028 65 1500 1 320 21:58 19.02.2020
2448 Mist -38 1027 65 2000 1.36 163 21:40 19.02.2020
2449 Mist -38 1027 65 2000 1.36 163 21:19 19.02.2020
2450 Mist -38 1028 65 5000 1.36 163 20:57 19.02.2020
2451 Clouds -38 1027 73 10000 1 310 20:38 19.02.2020
2452 Clouds -38 1027 73 10000 1 310 20:19 19.02.2020
2453 Clouds -37 1027 65 10000 1 320 19:57 19.02.2020
2454 Clouds -37 1027 65 10000 1 310 19:38 19.02.2020
2455 Clouds -37 1027 65 10000 1 310 19:19 19.02.2020
2456 Clouds -37 1027 73 10000 1 310 18:57 19.02.2020
2457 Clouds -37 1027 65 10000 1 320 18:39 19.02.2020
2458 Clouds -37 1027 65 10000 1 320 18:21 19.02.2020
2459 Clouds -36 1027 66 10000 1 310 17:44 19.02.2020
2460 Clouds -38 1027 65 10000 1 310 17:20 19.02.2020
2461 Clouds -38 1028 65 10000 1 300 16:59 19.02.2020
2462 Clouds -37 1028 65 10000 1 270 16:41 19.02.2020
2463 Clouds -37 1028 65 10000 1 270 16:18 19.02.2020
2464 Clouds -36 1028 73 10000 2 290 15:43 19.02.2020
2465 Clouds -36 1027 66 10000 1 280 15:25 19.02.2020
2466 Clouds -36 1027 66 10000 1 310 14:59 19.02.2020
2467 Clouds -35 1028 66 10000 1 300 14:40 19.02.2020
2468 Clouds -35 1028 66 10000 1 300 14:21 19.02.2020
2469 Clouds -35 1028 73 10000 1 300 13:42 19.02.2020
2470 Clouds -35 1028 66 10000 1.37 188 13:23 19.02.2020
2471 Clouds -34 1028 66 10000 1 320 12:57 19.02.2020
2472 Clouds -35 1028 73 10000 1.43 187 12:37 19.02.2020
2473 Clouds -35 1028 73 10000 1.43 187 12:18 19.02.2020
2474 Clouds -30 1028 74 10000 2 170 11:39 19.02.2020
2475 Clouds -30 1028 74 10000 2 170 11:20 19.02.2020
2476 Clouds -30 1028 74 10000 2 160 10:58 19.02.2020
2477 Clouds -30 1028 74 10000 2 170 10:38 19.02.2020
2478 Clouds -30 1028 74 10000 2 170 10:20 19.02.2020
2479 Clouds -29 1027 75 10000 1 170 09:59 19.02.2020
2480 Clouds -28 1027 75 10000 2 170 09:38 19.02.2020
2481 Clouds -28 1027 75 10000 2 170 09:19 19.02.2020
2482 Clouds -28 1027 75 10000 2 170 08:47 19.02.2020
2483 Clouds -27 1027 75 10000 2 170 08:24 19.02.2020
2484 Clouds -27 1027 82 10000 2 160 07:54 19.02.2020
2485 Clouds -26 1027 75 10000 2 170 07:36 19.02.2020
2486 Clouds -26 1027 75 10000 2 170 07:18 19.02.2020
2487 Clouds -28 1027 82 10000 3 160 06:34 19.02.2020
2488 Clouds -30 1027 67 10000 2 130 04:49 19.02.2020
2489 Clouds -30 1027 74 10000 1 130 03:50 19.02.2020
2490 Mist -34 1027 73 5000 1 120 02:35 19.02.2020
2491 Mist -35 1027 66 5000 1.2 302 01:33 19.02.2020
2492 Mist -37 1027 65 5000 2 280 00:59 19.02.2020
2493 Mist -36 1027 66 3200 1.2 302 00:36 19.02.2020
2494 Clouds -36 1026 66 10000 1 160 23:57 18.02.2020
2495 Clouds -36 1026 66 10000 1 200 23:39 18.02.2020
2496 Clouds -36 1026 66 10000 1 200 23:19 18.02.2020
2497 Clouds -36 1026 66 10000 1 200 23:19 18.02.2020
2498 Clouds -36 1026 66 10000 1 200 23:19 18.02.2020
2499 Mist -35 1026 73 5000 1 260 22:54 18.02.2020
2500 Mist -36 1026 66 5000 1 270 22:36 18.02.2020
2501 Mist -36 1026 66 5000 1 270 22:18 18.02.2020
2502 Clouds -36 1026 73 10000 1 220 21:38 18.02.2020
2503 Clouds -36 1026 73 10000 1 220 21:38 18.02.2020
2504 Clouds -36 1026 73 10000 1 220 21:20 18.02.2020
2505 Snow -34 1026 66 10000 2 290 20:59 18.02.2020
2506 Snow -34 1026 73 10000 2 290 20:39 18.02.2020
2507 Snow -34 1026 73 10000 2 290 20:21 18.02.2020
2508 Snow -34 1026 73 10000 2 290 20:21 18.02.2020
2509 Snow -35 1025 66 10000 1 260 19:56 18.02.2020
2510 Snow -35 1025 73 10000 1 270 19:38 18.02.2020
2511 Snow -35 1025 73 10000 1 270 19:18 18.02.2020
2512 Clouds -35 1025 66 10000 1 270 18:42 18.02.2020
2513 Clouds -35 1025 73 10000 2 300 18:21 18.02.2020
2514 Clouds -35 1025 73 10000 2 300 18:21 18.02.2020
2515 Clouds -33 1025 67 10000 2 280 17:57 18.02.2020
2516 Clouds -35 1025 66 10000 1 290 17:39 18.02.2020
2517 Clouds -35 1025 66 10000 1 290 17:19 18.02.2020
2518 Clouds -33 1025 74 10000 2 290 16:40 18.02.2020
2519 Clouds -33 1025 74 10000 2 290 16:40 18.02.2020
2520 Clouds -33 1025 74 10000 2 290 16:21 18.02.2020
2521 Clouds -32 1025 74 10000 3 300 15:55 18.02.2020
2522 Clouds -32 1024 67 10000 3 290 15:36 18.02.2020
2523 Clouds -32 1024 67 10000 3 290 15:18 18.02.2020
2524 Clouds -32 1024 74 10000 2 290 14:54 18.02.2020
2525 Clouds -32 1024 67 10000 3 290 14:36 18.02.2020
2526 Clouds -32 1024 67 10000 3 290 14:18 18.02.2020
2527 Clouds -31 1024 74 10000 2 300 13:41 18.02.2020
2528 Clouds -31 1024 74 10000 2 300 13:21 18.02.2020
2529 Clouds -32 1024 74 10000 2 300 12:47 18.02.2020
2530 Clouds -32 1024 74 10000 2 310 12:29 18.02.2020
2531 Clouds -32 1024 74 10000 2 320 11:59 18.02.2020
2532 Clouds -32 1024 74 10000 2 330 11:41 18.02.2020
2533 Clouds -32 1024 74 10000 2 330 11:41 18.02.2020
2534 Clouds -32 1024 74 10000 2 330 11:22 18.02.2020
2535 Clouds -31 1024 67 10000 1 340 10:44 18.02.2020
2536 Clouds -31 1024 74 10000 2 330 10:24 18.02.2020
2537 Clouds -30 1024 74 10000 2 350 09:57 18.02.2020
2538 -273 0 0 0 0 0 09:39 18.02.2020
2539 Clouds -29 1023 75 10000 1 30 09:20 18.02.2020
2540 Clouds -28 1023 75 10000 1 350 08:57 18.02.2020
2541 Snow -29 1023 75 10000 1 10 08:38 18.02.2020
2542 Snow -29 1023 75 10000 1 10 08:19 18.02.2020
2543 Snow -28 1023 75 10000 1 20 07:48 18.02.2020
2544 Snow -28 1023 75 10000 1 30 07:25 18.02.2020
2545 Snow -29 1023 75 10000 1 40 06:55 18.02.2020
2546 Snow -28 1023 75 10000 1 130 06:29 18.02.2020
2547 Clouds -27 1022 75 10000 1.08 349 05:48 18.02.2020
2548 Clouds -26 1023 75 10000 1.08 349 05:21 18.02.2020
2549 Clouds -31 1023 67 10000 1 70 03:54 18.02.2020
2550 Clouds -32 1023 74 10000 1 60 02:58 18.02.2020
2551 Mist -34 1023 73 5000 1.47 28 01:27 18.02.2020
2552 Snow -34 1023 73 3200 1 100 00:43 18.02.2020
2553 Snow -33 1022 67 5000 1 350 00:18 18.02.2020
2554 Snow -32 1022 74 5000 1 300 23:40 17.02.2020
2555 Snow -32 1022 74 5000 1 300 23:21 17.02.2020
2556 Snow -32 1022 74 10000 2 290 22:58 17.02.2020
2557 Snow -32 1022 74 10000 2 290 22:58 17.02.2020
2558 Snow -33 1022 74 10000 2 300 22:40 17.02.2020
2559 -273 0 0 0 0 0 22:19 17.02.2020
2560 Clouds -33 1022 67 10000 1 300 21:39 17.02.2020
2561 Clouds -33 1022 67 10000 1 300 21:19 17.02.2020
2562 Clouds -33 1022 67 10000 2 300 20:57 17.02.2020
2563 Clouds -33 1022 67 10000 1 310 20:38 17.02.2020
2564 Clouds -33 1022 67 10000 1 310 20:19 17.02.2020
2565 Clouds -33 1022 74 10000 1 330 19:43 17.02.2020
2566 Snow -33 1022 74 10000 1 310 19:22 17.02.2020
2567 Snow -33 1022 74 10000 1 310 19:22 17.02.2020
2568 Snow -32 1022 74 10000 1 330 18:58 17.02.2020
2569 Snow -32 1022 74 10000 2 320 18:36 17.02.2020
2570 Snow -32 1022 74 10000 2 320 18:18 17.02.2020
2571 Snow -31 1022 67 10000 1 330 17:38 17.02.2020
2572 Snow -31 1022 67 10000 1 330 17:20 17.02.2020
2573 Snow -31 1022 74 10000 2 330 16:59 17.02.2020
2574 Snow -31 1022 74 10000 2 330 16:41 17.02.2020
2575 Snow -31 1022 74 10000 2 330 16:22 17.02.2020
2576 Snow -31 1022 74 10000 1 290 15:56 17.02.2020
2577 Snow -30 1022 74 10000 2 310 15:37 17.02.2020
2578 Snow -30 1022 74 10000 2 310 15:37 17.02.2020
2579 Snow -30 1022 74 10000 2 310 15:19 17.02.2020
2580 Snow -30 1022 74 10000 2 300 14:42 17.02.2020
2581 Snow -30 1022 74 10000 2 300 14:42 17.02.2020
2582 Snow -29 1022 75 10000 1 340 14:24 17.02.2020
2583 Snow -29 1022 75 10000 2 320 13:58 17.02.2020
2584 Snow -29 1022 75 10000 1 330 13:39 17.02.2020
2585 Snow -29 1022 75 10000 1 330 13:19 17.02.2020
2586 Snow -28 1023 75 10000 2 340 12:44 17.02.2020
2587 Snow -28 1022 75 10000 2 340 12:25 17.02.2020
2588 Snow -27 1022 75 10000 1 330 11:59 17.02.2020
2589 Snow -27 1022 75 10000 2 340 11:40 17.02.2020
2590 Snow -27 1022 75 10000 2 340 11:21 17.02.2020
2591 Snow -27 1022 75 10000 2 350 10:55 17.02.2020
2592 Clouds -28 1022 75 10000 1 340 10:37 17.02.2020
2593 Clouds -28 1022 75 10000 1 340 10:18 17.02.2020
2594 Clouds -28 1022 75 10000 1 340 10:18 17.02.2020
2595 Clouds -27 1022 75 10000 1 350 09:41 17.02.2020
2596 Clouds -27 1022 75 10000 1 350 09:23 17.02.2020
2597 Clouds -26 1022 83 10000 1 360 08:59 17.02.2020
2598 Clouds -25 1022 83 10000 1 360 08:40 17.02.2020
2599 Snow -25 1022 83 10000 1 360 08:20 17.02.2020
2600 Clouds -25 1022 83 10000 0.85 357 07:47 17.02.2020
2601 Clouds -25 1022 75 10000 1 30 07:25 17.02.2020
2602 Clouds -25 1022 75 10000 1 60 06:53 17.02.2020
2603 Clouds -25 1022 75 10000 1 20 06:33 17.02.2020
2604 Clouds -25 1022 75 10000 1 20 05:59 17.02.2020
2605 Clouds -25 1022 83 10000 1 90 05:38 17.02.2020
2606 Snow -26 1023 83 10000 1 20 03:22 17.02.2020
2607 Snow -26 1023 75 10000 2 10 01:59 17.02.2020
2608 Clouds -26 1023 75 10000 2 360 00:51 17.02.2020
2609 Snow -26 1023 75 10000 2 350 00:22 17.02.2020
2610 Clouds -26 1023 75 10000 3 320 23:54 16.02.2020
2611 Clouds -26 1023 75 10000 2 330 23:33 16.02.2020
2612 Snow -27 1023 75 10000 3 320 22:58 16.02.2020
2613 Snow -27 1023 82 10000 3 330 22:39 16.02.2020
2614 Snow -27 1023 82 10000 3 330 22:39 16.02.2020
2615 Snow -27 1023 82 10000 3 330 22:21 16.02.2020
2616 Snow -27 1023 82 10000 3 330 22:21 16.02.2020
2617 Snow -26 1023 75 10000 3 330 21:59 16.02.2020
2618 Snow -26 1023 75 10000 3 350 21:40 16.02.2020
2619 Snow -26 1023 75 10000 3 350 21:22 16.02.2020
2620 Snow -26 1023 75 10000 3 360 20:58 16.02.2020
2621 Snow -26 1023 83 10000 3 360 20:40 16.02.2020
2622 Snow -26 1023 83 10000 3 360 20:21 16.02.2020
2623 Snow -26 1023 83 10000 3 350 19:58 16.02.2020
2624 Snow -25 1023 83 10000 4 360 19:38 16.02.2020
2625 Snow -25 1023 83 10000 4 360 19:19 16.02.2020
2626 Snow -24 1023 76 10000 4 350 18:45 16.02.2020
2627 Snow -24 1023 76 10000 4 360 18:26 16.02.2020
2628 Snow -24 1023 76 10000 3 360 17:58 16.02.2020
2629 Snow -24 1023 76 10000 4 350 17:40 16.02.2020
2630 Snow -24 1023 76 10000 4 350 17:20 16.02.2020
2631 Snow -24 1023 76 5000 3 350 16:56 16.02.2020
2632 Snow -25 1024 83 2400 4 350 16:38 16.02.2020
2633 Snow -25 1024 83 2400 4 350 16:19 16.02.2020
2634 Snow -25 1024 75 3200 4 350 15:41 16.02.2020
2635 Snow -25 1024 75 3200 4 350 15:41 16.02.2020
2636 Snow -25 1024 75 3200 4 350 15:22 16.02.2020
2637 Snow -25 1025 75 3200 3 360 14:57 16.02.2020
2638 Snow -26 1025 83 5000 3 360 14:38 16.02.2020
2639 Snow -26 1025 83 5000 3 360 14:19 16.02.2020
2640 Snow -26 1025 75 10000 3 360 13:45 16.02.2020
2641 Snow -27 1026 75 10000 3 340 13:23 16.02.2020
2642 Snow -30 1027 74 10000 2 360 12:41 16.02.2020
2643 Snow -30 1027 74 10000 2 360 12:20 16.02.2020
2644 Snow -30 1027 74 10000 2 360 11:59 16.02.2020
2645 Snow -30 1027 67 10000 2 340 11:37 16.02.2020
2646 Snow -30 1027 67 10000 2 340 11:18 16.02.2020
2647 Snow -31 1028 74 10000 2 350 10:56 16.02.2020
2648 Clouds -31 1028 74 10000 2 350 10:37 16.02.2020
2649 Clouds -31 1028 74 10000 2 350 10:19 16.02.2020
2650 Clouds -31 1028 67 10000 2 350 09:54 16.02.2020
2651 Snow -32 1028 74 10000 2 10 09:36 16.02.2020
2652 Snow -32 1028 74 10000 2 10 09:18 16.02.2020
2653 Snow -30 1029 67 5000 1 360 08:41 16.02.2020
2654 Snow -30 1029 67 5000 1 360 08:20 16.02.2020
2655 Snow -30 1029 67 5000 1 360 08:20 16.02.2020
2656 Snow -31 1030 74 5000 2 330 07:49 16.02.2020
2657 Clouds -31 1030 74 10000 1 320 07:26 16.02.2020
2658 Clouds -31 1030 67 10000 2 320 06:33 16.02.2020
2659 Mist -34 1032 66 5000 1 20 04:42 16.02.2020
2660 Mist -36 1033 66 2400 1 30 03:25 16.02.2020
2661 Mist -37 1033 65 1500 2 350 02:32 16.02.2020
2662 Mist -38 1033 65 1100 2 360 01:42 16.02.2020
2663 Fog -39 1033 65 600 1 10 01:22 16.02.2020
2664 Fog -39 1034 65 550 1 360 00:53 16.02.2020
2665 Fog -39 1034 58 800 1 350 00:31 16.02.2020
2666 Fog -40 1034 65 1100 1 10 23:54 15.02.2020
2667 Fog -40 1034 65 550 2 360 23:36 15.02.2020
2668 Fog -40 1034 65 550 2 360 23:18 15.02.2020
2669 Fog -40 1034 65 450 1 10 22:41 15.02.2020
2670 Fog -40 1034 65 450 1 10 22:22 15.02.2020
2671 Fog -40 1034 65 300 1 330 21:59 15.02.2020
2672 Fog -40 1034 65 400 1.47 146 21:40 15.02.2020
2673 Fog -40 1034 65 400 1.47 146 21:21 15.02.2020
2674 Mist -39 1035 58 2100 1.47 146 20:40 15.02.2020
2675 Mist -39 1035 58 2100 1.47 146 20:40 15.02.2020
2676 Mist -39 1035 58 2100 1.39 183 20:21 15.02.2020
2677 Fog -39 1035 65 900 1 300 19:44 15.02.2020
2678 Fog -39 1035 65 800 1.39 183 19:23 15.02.2020
2679 Fog -39 1035 65 800 1.39 183 18:55 15.02.2020
2680 Mist -39 1035 65 1500 1 300 18:36 15.02.2020
2681 Mist -39 1035 65 1500 1 300 18:18 15.02.2020
2682 Mist -40 1036 65 5000 1.39 183 17:43 15.02.2020
2683 Mist -40 1036 65 5000 1.39 183 17:22 15.02.2020
2684 Mist -40 1036 65 5000 1 300 16:58 15.02.2020
2685 Mist -39 1036 58 5000 1.1 210 16:39 15.02.2020
2686 Mist -39 1036 58 5000 1.1 210 16:19 15.02.2020
2687 Mist -39 1036 65 5000 1.1 210 15:42 15.02.2020
2688 Mist -38 1036 65 5000 1.1 210 15:23 15.02.2020
2689 Mist -39 1036 65 5000 1 170 14:45 15.02.2020
2690 Mist -39 1036 65 5000 1 110 14:21 15.02.2020
2691 Mist -39 1036 65 5000 1 300 13:56 15.02.2020
2692 Mist -39 1036 65 5000 1.27 223 13:38 15.02.2020
2693 Mist -39 1036 65 5000 1.31 209 13:20 15.02.2020
2694 Mist -39 1036 65 5000 1 300 12:43 15.02.2020
2695 Mist -38 1036 65 5000 1 320 12:25 15.02.2020
2696 Mist -38 1036 65 5000 1 320 12:25 15.02.2020
2697 Mist -39 1036 65 5000 1.31 209 11:54 15.02.2020
2698 Mist -38 1036 65 5000 1 10 11:36 15.02.2020
2699 Mist -38 1036 65 5000 1 10 11:18 15.02.2020
2700 Mist -36 1036 66 5000 1 330 10:39 15.02.2020
2701 Mist -36 1036 66 5000 1 330 10:20 15.02.2020
2702 Mist -35 1036 66 5000 1 350 09:44 15.02.2020
2703 Clear -33 1036 67 10000 1.49 207 09:25 15.02.2020
2704 Mist -31 1036 74 5000 1.49 207 08:46 15.02.2020
2705 Mist -31 1036 67 5000 1 160 08:26 15.02.2020
2706 Mist -31 1036 74 3200 1 170 07:59 15.02.2020
2707 Mist -31 1036 74 3200 2 160 07:40 15.02.2020
2708 Mist -31 1036 74 3200 2 160 07:22 15.02.2020
2709 Mist -32 1035 74 3200 2 170 06:38 15.02.2020
2710 Mist -32 1035 74 3200 2 170 06:18 15.02.2020
2711 Mist -34 1035 73 2000 1 180 04:51 15.02.2020
2712 Mist -36 1035 73 1900 1 140 04:24 15.02.2020
2713 Fog -38 1034 73 800 1 200 02:59 15.02.2020
2714 Fog -38 1034 65 600 1.1 255 02:28 15.02.2020
2715 Fog -40 1034 65 450 2 140 01:58 15.02.2020
2716 Fog -41 1034 64 700 2 210 01:36 15.02.2020
2717 Fog -41 1034 64 550 1 140 00:30 15.02.2020
2718 Fog -41 1033 64 550 1 160 23:48 14.02.2020
2719 Fog -41 1033 64 650 1 160 23:21 14.02.2020
2720 Fog -41 1032 57 700 0.99 261 22:58 14.02.2020
2721 Fog -41 1032 64 900 0.99 261 22:40 14.02.2020
2722 Fog -41 1032 64 900 0.99 261 22:21 14.02.2020
2723 Fog -41 1032 64 800 1 200 21:49 14.02.2020
2724 Fog -41 1032 64 550 0.99 261 21:31 14.02.2020
2725 Mist -40 1032 65 1000 0.99 261 20:48 14.02.2020
2726 Mist -40 1032 65 1000 2 130 20:21 14.02.2020
2727 Mist -38 1031 65 1200 2 270 19:59 14.02.2020
2728 Mist -40 1031 65 5000 2 250 19:41 14.02.2020
2729 Mist -40 1031 65 5000 2 250 19:41 14.02.2020
2730 Mist -40 1031 65 5000 2 250 19:41 14.02.2020
2731 Mist -40 1031 65 5000 2 250 19:23 14.02.2020
2732 Mist -39 1031 65 5000 1 220 18:57 14.02.2020
2733 Mist -39 1030 65 5000 1 200 18:39 14.02.2020
2734 Mist -39 1030 65 5000 1 200 18:20 14.02.2020
2735 Mist -38 1030 65 5000 2 210 17:44 14.02.2020
2736 Mist -38 1030 65 3200 2 200 17:22 14.02.2020
2737 Mist -39 1030 58 3200 2 210 16:59 14.02.2020
2738 Mist -40 1030 65 3200 2 200 16:40 14.02.2020
2739 Mist -40 1030 65 3200 2 200 16:22 14.02.2020
2740 Mist -38 1030 65 1500 2 160 15:56 14.02.2020
2741 Mist -40 1029 65 3200 1 150 15:38 14.02.2020
2742 Mist -40 1029 65 3200 1 150 15:19 14.02.2020
2743 Mist -40 1029 65 1500 1 180 14:58 14.02.2020
2744 Mist -39 1029 65 1300 2 140 14:40 14.02.2020
2745 Mist -39 1029 65 1300 2 140 14:21 14.02.2020
2746 Mist -38 1029 65 1300 1 170 13:54 14.02.2020
2747 Mist -38 1029 73 1300 2 110 13:36 14.02.2020
2748 Mist -38 1029 73 1300 2 110 13:18 14.02.2020
2749 Mist -38 1029 73 1300 2 130 12:55 14.02.2020
2750 Mist -37 1029 65 1300 2 140 12:37 14.02.2020
2751 Mist -37 1029 65 1300 2 140 12:18 14.02.2020
2752 Clear -37 1029 73 10000 1 180 11:41 14.02.2020
2753 Clouds -37 1029 73 10000 1 180 11:21 14.02.2020
2754 Clouds -36 1029 66 10000 2 230 10:57 14.02.2020
2755 Clouds -36 1029 73 10000 2 200 10:38 14.02.2020
2756 Clouds -36 1029 73 10000 2 200 10:20 14.02.2020
2757 Clouds -34 1029 73 10000 2 190 09:44 14.02.2020
2758 Clouds -33 1029 74 10000 3 220 09:22 14.02.2020
2759 Clouds -33 1028 67 10000 3 220 08:56 14.02.2020
2760 Clouds -31 1028 74 10000 2 200 08:37 14.02.2020
2761 Clouds -31 1028 74 10000 2 200 08:18 14.02.2020
2762 Mist -32 1028 74 5000 2 180 07:44 14.02.2020
2763 Mist -33 1028 67 5000 2 130 07:24 14.02.2020
2764 Mist -34 1028 73 2400 2 130 06:32 14.02.2020
2765 Mist -32 1028 74 2400 1 150 05:59 14.02.2020
2766 Mist -33 1027 74 2400 1 160 05:25 14.02.2020
2767 Fog -35 1027 73 800 1 330 03:31 14.02.2020
2768 Mist -35 1027 66 2000 1 310 02:42 14.02.2020
2769 Fog -39 1026 65 650 1 310 01:50 14.02.2020
2770 Fog -39 1026 65 800 3 320 00:44 14.02.2020
2771 Fog -41 1026 64 400 1 310 00:24 14.02.2020
2772 Fog -40 1025 65 350 2 310 23:51 13.02.2020
2773 Fog -40 1025 65 400 1 310 23:23 13.02.2020
2774 Fog -40 1025 65 400 2 320 22:56 13.02.2020
2775 Fog -40 1025 65 400 2 320 22:38 13.02.2020
2776 Fog -40 1025 65 400 2 320 22:18 13.02.2020
2777 Fog -39 1024 65 500 2 310 21:42 13.02.2020
2778 Fog -40 1024 65 400 2 320 21:23 13.02.2020
2779 Fog -39 1024 65 600 2 320 20:58 13.02.2020
2780 Fog -39 1024 65 600 2 340 20:40 13.02.2020
2781 Fog -39 1024 65 600 2 340 20:22 13.02.2020
2782 Fog -38 1023 65 600 1 340 19:56 13.02.2020
2783 Fog -37 1023 65 800 2 330 19:37 13.02.2020
2784 Fog -37 1023 65 800 2 330 19:19 13.02.2020
2785 Mist -36 1023 66 1500 3 340 18:55 13.02.2020
2786 Mist -37 1023 73 2400 3 330 18:37 13.02.2020
2787 Mist -37 1023 73 2400 3 330 18:19 13.02.2020
2788 Clouds -36 1023 66 10000 2 320 17:41 13.02.2020
2789 Clouds -36 1023 66 10000 2 320 17:22 13.02.2020
2790 Snow -36 1023 66 10000 2 310 16:59 13.02.2020
2791 Snow -36 1023 66 10000 2 320 16:40 13.02.2020
2792 Snow -36 1023 66 10000 2 320 16:20 13.02.2020
2793 Snow -35 1023 73 10000 1 330 15:57 13.02.2020
2794 Snow -34 1023 73 10000 1 320 15:39 13.02.2020
2795 Snow -34 1023 73 10000 1 320 15:19 13.02.2020
2796 Snow -33 1023 67 10000 2 310 14:58 13.02.2020
2797 Snow -34 1023 73 10000 2 310 14:39 13.02.2020
2798 Snow -34 1023 73 10000 2 310 14:21 13.02.2020
2799 Snow -34 1023 73 10000 2 310 14:21 13.02.2020
2800 Snow -33 1023 74 10000 2 320 13:48 13.02.2020
2801 Snow -33 1023 74 10000 2 320 13:48 13.02.2020
2802 Snow -33 1024 74 10000 1 310 13:19 13.02.2020
2803 Snow -32 1024 67 10000 2 350 12:56 13.02.2020
2804 Snow -32 1024 67 10000 2 350 12:56 13.02.2020
2805 Snow -32 1024 67 10000 2 350 12:56 13.02.2020
2806 Snow -31 1024 74 10000 2 350 12:38 13.02.2020
2807 Snow -31 1024 74 10000 2 350 12:38 13.02.2020
2808 Snow -31 1024 74 10000 2 350 12:38 13.02.2020
2809 Snow -31 1024 74 10000 2 350 12:19 13.02.2020
2810 Snow -30 1024 74 10000 2 340 11:47 13.02.2020
2811 Snow -31 1024 74 10000 0.91 259 11:20 13.02.2020
2812 Snow -31 1024 74 10000 0.91 259 10:56 13.02.2020
2813 Snow -31 1024 67 10000 0.91 259 10:38 13.02.2020
2814 Snow -31 1024 67 10000 0.91 259 10:38 13.02.2020
2815 Snow -31 1024 67 10000 0.91 259 10:20 13.02.2020
2816 Snow -28 1024 75 10000 1 270 09:41 13.02.2020
2817 Snow -28 1024 75 10000 1 270 09:22 13.02.2020
2818 Snow -27 1024 82 10000 2 250 08:44 13.02.2020
2819 Snow -26 1024 75 10000 3 240 08:19 13.02.2020
2820 Snow -26 1024 75 10000 2 230 07:42 13.02.2020
2821 Snow -26 1024 75 5000 2 220 07:22 13.02.2020
2822 Snow -26 1024 75 5000 2 220 07:22 13.02.2020
2823 Snow -26 1024 83 5000 2 230 06:49 13.02.2020
2824 Snow -26 1024 83 5000 2 240 06:31 13.02.2020
2825 Snow -26 1024 75 5000 1 130 05:43 13.02.2020
2826 Snow -27 1024 75 10000 1 130 04:39 13.02.2020
2827 Snow -27 1024 75 10000 1 130 04:18 13.02.2020
2828 Snow -29 1023 75 10000 1 180 03:29 13.02.2020
2829 Snow -30 1023 67 10000 1 190 02:55 13.02.2020
2830 Snow -31 1023 74 10000 1 190 02:20 13.02.2020
2831 Snow -31 1023 74 10000 1 190 02:20 13.02.2020
2832 Snow -34 1023 66 10000 1 230 01:40 13.02.2020
2833 Snow -34 1023 66 10000 1 230 01:40 13.02.2020
2834 Snow -34 1023 66 10000 1 230 01:40 13.02.2020
2835 Snow -35 1023 73 10000 1 210 00:45 13.02.2020
2836 Snow -36 1023 73 10000 1 180 00:26 13.02.2020
2837 Snow -35 1023 73 10000 1 200 23:42 12.02.2020
2838 Clouds -34 1023 73 10000 2 200 23:23 12.02.2020
2839 Clouds -31 1022 74 10000 3 200 22:56 12.02.2020
2840 Clouds -33 1022 67 10000 2 200 22:38 12.02.2020
2841 Clouds -33 1022 67 10000 2 200 22:20 12.02.2020
2842 Clouds -31 1022 74 10000 3 210 21:55 12.02.2020
2843 Clouds -31 1022 74 10000 1 170 21:36 12.02.2020
2844 Clouds -31 1022 74 10000 1 170 21:18 12.02.2020
2845 Clouds -33 1022 74 10000 1 210 20:42 12.02.2020
2846 Clouds -31 1022 67 10000 3 240 20:24 12.02.2020
2847 Clouds -31 1022 82 10000 3 230 19:57 12.02.2020
2848 Clouds -29 1022 75 10000 3 240 19:38 12.02.2020
2849 Clouds -29 1022 75 10000 3 240 19:20 12.02.2020
2850 Clouds -30 1021 82 10000 3 250 18:49 12.02.2020
2851 Clouds -30 1021 74 10000 3 230 18:20 12.02.2020
2852 Clouds -31 1021 82 10000 2 230 17:58 12.02.2020
2853 Clouds -30 1020 74 10000 2 230 17:38 12.02.2020
2854 Clouds -30 1020 74 10000 2 230 17:19 12.02.2020
2855 Clouds -27 1020 75 10000 2 220 16:55 12.02.2020
2856 Clouds -28 1020 75 10000 2 230 16:36 12.02.2020
2857 Clouds -28 1020 75 10000 2 230 16:18 12.02.2020
2858 Clouds -27 1019 75 10000 4 300 15:38 12.02.2020
2859 Clouds -27 1019 75 10000 4 300 15:19 12.02.2020
2860 Clouds -29 1019 75 10000 3 300 14:42 12.02.2020
2861 Snow -32 1019 74 10000 2 280 14:21 12.02.2020
2862 Snow -31 1018 74 10000 1 300 13:59 12.02.2020
2863 Snow -29 1018 75 10000 1 280 13:40 12.02.2020
2864 Snow -29 1018 75 10000 1 280 13:22 12.02.2020
2865 Clouds -29 1018 75 10000 1 290 12:58 12.02.2020
2866 Clouds -30 1018 74 10000 2 300 12:39 12.02.2020
2867 Clouds -30 1018 74 10000 2 300 12:19 12.02.2020
2868 Clouds -27 1017 75 10000 2 300 11:59 12.02.2020
2869 Clouds -28 1017 82 10000 3 290 11:40 12.02.2020
2870 Clouds -28 1017 82 10000 3 290 11:21 12.02.2020
2871 Clouds -28 1017 82 10000 3 290 11:21 12.02.2020
2872 Clouds -30 1017 82 10000 2.17 299 10:58 12.02.2020
2873 Clouds -31 1016 74 10000 2.17 299 10:39 12.02.2020
2874 Clouds -31 1016 74 10000 2.17 299 10:20 12.02.2020
2875 Clouds -27 1016 82 10000 1 290 09:42 12.02.2020
2876 Clouds -27 1016 82 10000 1 290 09:42 12.02.2020
2877 Clouds -24 1015 83 10000 3 280 09:24 12.02.2020
2878 Clouds -25 1015 75 10000 1 100 08:58 12.02.2020
2879 Clouds -25 1015 75 10000 1 100 08:58 12.02.2020
2880 Clouds -24 1014 83 10000 2 330 08:38 12.02.2020
2881 Clouds -24 1014 83 10000 2 330 08:20 12.02.2020
2882 Clouds -22 1014 76 10000 2 190 07:58 12.02.2020
2883 Clouds -21 1013 83 10000 1 150 07:39 12.02.2020
2884 Clouds -21 1013 83 10000 1 150 07:19 12.02.2020
2885 Clouds -22 1013 83 10000 2 240 06:41 12.02.2020
2886 Clouds -22 1013 83 10000 2 240 06:18 12.02.2020
2887 Clouds -22 1012 83 10000 1 210 05:21 12.02.2020
2888 Snow -24 1012 83 5000 3 260 04:42 12.02.2020
2889 Snow -23 1011 83 3200 1 310 03:57 12.02.2020
2890 Snow -24 1011 83 5000 1 100 03:28 12.02.2020
2891 Snow -25 1011 75 5000 1 230 02:43 12.02.2020
2892 Snow -25 1010 75 5000 1 340 02:24 12.02.2020
2893 Snow -26 1010 75 5000 1 110 01:29 12.02.2020
2894 Clouds -27 1009 75 10000 1 280 00:41 12.02.2020
2895 Clouds -27 1009 75 10000 1 280 00:22 12.02.2020
2896 Clouds -27 1009 75 10000 1 280 23:47 11.02.2020
2897 Clouds -29 1008 75 10000 2 220 23:29 11.02.2020
2898 Clouds -29 1008 75 10000 2 180 22:57 11.02.2020
2899 Clouds -30 1008 74 10000 2 270 22:39 11.02.2020
2900 Clouds -30 1008 74 10000 2 270 22:20 11.02.2020
2901 Clouds -26 1008 83 10000 2 260 21:57 11.02.2020
2902 Clouds -28 1007 82 10000 1.9 232 21:38 11.02.2020
2903 Clouds -28 1007 82 10000 1.9 232 21:18 11.02.2020
2904 Clouds -25 1007 83 10000 2 290 20:58 11.02.2020
2905 Clouds -24 1006 76 10000 2 280 20:38 11.02.2020
2906 Clouds -24 1006 76 10000 2 280 20:19 11.02.2020
2907 Clouds -24 1006 83 10000 3 290 19:56 11.02.2020
2908 Clouds -26 1006 83 10000 1 260 19:38 11.02.2020
2909 Clouds -26 1006 83 10000 1 260 19:20 11.02.2020
2910 Clouds -24 1006 76 10000 1 190 18:44 11.02.2020
2911 Clouds -23 1005 76 10000 3 270 18:25 11.02.2020
2912 Clouds -23 1004 76 10000 4 280 17:56 11.02.2020
2913 Clouds -23 1004 76 10000 4 280 17:56 11.02.2020
2914 Clouds -25 1004 75 10000 2 280 17:38 11.02.2020
2915 Clouds -25 1004 75 10000 2 280 17:19 11.02.2020
2916 Clouds -23 1004 83 10000 3 280 16:58 11.02.2020
2917 Clouds -24 1004 83 10000 2 280 16:38 11.02.2020
2918 Clouds -24 1004 83 10000 2 280 16:20 11.02.2020
2919 Clouds -25 1003 83 10000 2 150 15:57 11.02.2020
2920 Clouds -27 1003 82 10000 1 260 15:38 11.02.2020
2921 Clouds -27 1003 82 10000 1 260 15:18 11.02.2020
2922 Clouds -23 1003 83 10000 2.69 270 14:41 11.02.2020
2923 Snow -23 1003 83 10000 1.36 277 14:19 11.02.2020
2924 Snow -22 1002 83 10000 1 220 13:42 11.02.2020
2925 Snow -21 1002 83 10000 3 270 13:23 11.02.2020
2926 Clouds -19 1001 84 10000 2 290 12:59 11.02.2020
2927 Snow -19 1001 84 10000 3 280 12:41 11.02.2020
2928 Snow -19 1001 84 10000 3 280 12:21 11.02.2020
2929 Snow -20 1000 83 5000 1 300 11:58 11.02.2020
2930 Snow -18 1000 84 10000 2 300 11:40 11.02.2020
2931 Snow -18 1000 84 10000 2 300 11:19 11.02.2020
2932 Snow -17 999 84 10000 2 310 10:40 11.02.2020
2933 Snow -17 999 84 10000 2 310 10:21 11.02.2020
2934 Snow -17 999 91 5000 1 340 09:58 11.02.2020
2935 Snow -16 998 84 5000 1 360 09:40 11.02.2020
2936 Snow -16 998 84 5000 1 360 09:22 11.02.2020
2937 Snow -16 998 91 2400 2 330 08:49 11.02.2020
2938 Snow -16 998 91 3200 2 320 08:25 11.02.2020
2939 Snow -15 997 84 1900 2 360 07:55 11.02.2020
2940 Snow -15 997 84 1200 1 360 07:34 11.02.2020
2941 Snow -15 997 84 10000 2 310 06:58 11.02.2020
2942 Snow -15 996 92 10000 3.4 130 06:39 11.02.2020
2943 Snow -15 996 92 10000 3.4 130 06:20 11.02.2020
2944 Snow -15 996 84 10000 1 120 05:44 11.02.2020
2945 Snow -15 996 84 10000 1 120 05:20 11.02.2020
2946 Snow -16 996 91 10000 2 110 04:18 11.02.2020
2947 Snow -17 996 84 5000 2 110 02:38 11.02.2020
2948 Snow -17 996 84 5000 2 110 01:59 11.02.2020
2949 Snow -17 995 84 10000 2 100 01:31 11.02.2020
2950 Snow -18 995 91 2100 2 110 00:26 11.02.2020
2951 Snow -18 995 84 2100 3 100 23:50 10.02.2020
2952 Snow -18 995 84 2100 2 110 23:30 10.02.2020
2953 Snow -18 995 84 1500 3 110 22:58 10.02.2020
2954 Snow -18 995 84 1500 3 110 22:38 10.02.2020
2955 Snow -18 995 84 1500 3 110 22:19 10.02.2020
2956 Snow -19 996 84 1500 3 110 21:41 10.02.2020
2957 Snow -19 996 84 1500 3 110 21:23 10.02.2020
2958 Snow -19 996 84 2100 3 130 20:56 10.02.2020
2959 Snow -19 996 84 2100 4 120 20:38 10.02.2020
2960 Snow -19 996 84 2100 4 120 20:20 10.02.2020
2961 Snow -20 996 83 2100 3 110 19:58 10.02.2020
2962 Snow -20 997 83 2100 4 110 19:37 10.02.2020
2963 Snow -20 997 83 2100 4 110 19:18 10.02.2020
2964 Snow -20 997 76 10000 3 120 18:58 10.02.2020
2965 Snow -20 997 76 10000 3 120 18:58 10.02.2020
2966 Snow -22 997 83 10000 2 90 18:39 10.02.2020
2967 Snow -22 997 83 10000 2 90 18:20 10.02.2020
2968 Snow -24 998 76 10000 2 10 17:56 10.02.2020
2969 Snow -25 998 75 10000 2 30 17:37 10.02.2020
2970 Clouds -25 998 75 10000 2 30 17:19 10.02.2020
2971 Clouds -26 998 75 10000 3 10 16:58 10.02.2020
2972 Clouds -27 999 75 10000 3 10 16:38 10.02.2020
2973 Clouds -27 999 75 10000 3 10 16:18 10.02.2020
2974 Clouds -29 1000 75 10000 2 350 15:42 10.02.2020
2975 Clouds -29 1000 75 10000 2 350 15:23 10.02.2020
2976 Clouds -30 1000 74 10000 3 350 14:59 10.02.2020
2977 Clouds -30 1001 74 10000 3 340 14:41 10.02.2020
2978 Clouds -30 1001 74 10000 3 340 14:41 10.02.2020
2979 Clouds -30 1001 74 10000 3 340 14:19 10.02.2020
2980 Clouds -29 1001 68 10000 3 360 13:57 10.02.2020
2981 Clouds -31 1001 74 10000 3 340 13:38 10.02.2020
2982 Clouds -31 1001 74 10000 3 340 13:18 10.02.2020
2983 Clouds -30 1002 74 10000 2 350 12:47 10.02.2020
2984 Clouds -31 1002 74 10000 3 10 12:26 10.02.2020
2985 Clouds -29 1002 68 10000 4 20 11:55 10.02.2020
2986 Clouds -30 1003 74 10000 3 360 11:37 10.02.2020
2987 Clouds -30 1003 74 10000 3 360 11:19 10.02.2020
2988 Clouds -29 1004 75 10000 3 350 10:46 10.02.2020
2989 Clouds -30 1004 74 10000 3 360 10:26 10.02.2020
2990 Clouds -29 1004 75 10000 4 360 09:45 10.02.2020
2991 Clouds -29 1004 75 10000 4 350 09:26 10.02.2020
2992 Clouds -29 1005 75 10000 3 350 08:56 10.02.2020
2993 Clouds -28 1005 75 10000 3 360 08:37 10.02.2020
2994 Clouds -28 1005 75 10000 3 360 08:18 10.02.2020
2995 Clouds -28 1005 75 10000 4 350 07:47 10.02.2020
2996 Snow -28 1005 75 10000 3 340 07:26 10.02.2020
2997 Snow -29 1006 68 10000 3 360 06:19 10.02.2020
2998 Clouds -32 1008 74 10000 3 350 04:27 10.02.2020
2999 Clouds -33 1008 74 10000 3 340 03:34 10.02.2020
3000 Clouds -34 1009 66 10000 3 360 02:54 10.02.2020
3001 Clouds -36 1009 73 10000 3 340 01:38 10.02.2020
3002 Clouds -36 1010 66 10000 2 340 00:48 10.02.2020
3003 Clouds -36 1010 66 10000 2 350 00:30 10.02.2020
3004 Clouds -36 1010 66 10000 2 340 23:55 09.02.2020
3005 Clouds -37 1011 73 10000 3 350 23:36 09.02.2020
3006 Clouds -37 1011 73 10000 3 350 23:18 09.02.2020
3007 Clouds -36 1012 66 10000 3 350 22:39 09.02.2020
3008 Clouds -36 1012 66 10000 3 350 22:20 09.02.2020
3009 Clouds -36 1012 66 10000 2 340 21:42 09.02.2020
3010 Clouds -36 1012 66 10000 2 360 21:23 09.02.2020
3011 Clouds -36 1012 66 10000 2 330 20:48 09.02.2020
3012 Clouds -36 1013 66 10000 2 340 20:27 09.02.2020
3013 Clouds -36 1013 66 10000 2 340 19:58 09.02.2020
3014 Clouds -36 1013 66 10000 2 350 19:39 09.02.2020
3015 Clouds -36 1013 66 10000 2 350 19:21 09.02.2020
3016 Clouds -36 1013 66 10000 2 340 18:56 09.02.2020
3017 Clouds -36 1014 66 10000 3 350 18:38 09.02.2020
3018 Clouds -36 1014 66 10000 3 350 18:20 09.02.2020
3019 Clouds -36 1014 73 10000 2 330 17:42 09.02.2020
3020 Clouds -36 1014 73 10000 2 350 17:22 09.02.2020
3021 Clouds -35 1014 66 10000 3 350 16:56 09.02.2020
3022 Clouds -35 1015 66 10000 3 350 16:37 09.02.2020
3023 Clouds -35 1015 66 10000 3 350 16:18 09.02.2020
3024 Clouds -35 1015 66 10000 2 330 15:54 09.02.2020
3025 Clouds -35 1015 66 10000 2 350 15:36 09.02.2020
3026 Clouds -35 1015 66 10000 2 350 15:18 09.02.2020
3027 Clouds -35 1015 73 10000 3 360 14:41 09.02.2020
3028 Clouds -35 1015 73 10000 3 360 14:22 09.02.2020
3029 Clouds -35 1016 66 10000 2 350 13:47 09.02.2020
3030 Clouds -35 1016 73 10000 2 350 13:28 09.02.2020
3031 Clouds -35 1016 73 10000 2 350 12:57 09.02.2020
3032 Clouds -35 1016 66 10000 2 330 12:38 09.02.2020
3033 Clouds -35 1016 66 10000 2 330 12:19 09.02.2020
3034 Clouds -35 1016 66 10000 2 330 12:19 09.02.2020
3035 Clouds -35 1016 66 10000 2 330 12:19 09.02.2020
3036 Clouds -35 1017 73 10000 2 350 11:42 09.02.2020
3037 Clouds -34 1017 66 10000 2 350 11:23 09.02.2020
3038 Clouds -34 1017 73 10000 2 340 10:59 09.02.2020
3039 Clouds -33 1017 67 10000 2 340 10:41 09.02.2020
3040 Clouds -33 1017 67 10000 2 340 10:22 09.02.2020
3041 Clouds -33 1017 67 10000 2 340 09:47 09.02.2020
3042 Clouds -33 1017 67 10000 2 350 09:28 09.02.2020
3043 Clouds -33 1018 67 10000 1 320 08:54 09.02.2020
3044 Clouds -32 1017 67 10000 2 350 08:36 09.02.2020
3045 Clouds -32 1017 67 10000 2 350 08:18 09.02.2020
3046 Clouds -32 1017 67 10000 2 350 07:44 09.02.2020
3047 Clouds -33 1018 67 10000 3 350 06:54 09.02.2020
3048 Mist -33 1018 67 5000 2 340 06:36 09.02.2020
3049 Mist -33 1018 67 5000 2 330 05:45 09.02.2020
3050 Mist -33 1018 67 5000 2 330 05:20 09.02.2020
3051 Mist -36 1019 66 2400 3 340 03:53 09.02.2020
3052 Mist -37 1019 65 1600 2 350 02:47 09.02.2020
3053 Mist -38 1020 65 1800 2 10 02:26 09.02.2020
3054 Mist -39 1020 65 1400 2 360 01:35 09.02.2020
3055 Fog -39 1020 65 1000 2 340 00:48 09.02.2020
3056 Mist -40 1020 65 1000 2 350 00:27 09.02.2020
3057 Fog -40 1020 65 900 2 350 23:44 08.02.2020
3058 Fog -40 1020 65 750 2 340 23:22 08.02.2020
3059 Fog -40 1020 65 900 2 340 22:55 08.02.2020
3060 Fog -40 1020 65 900 2 350 22:36 08.02.2020
3061 Fog -40 1020 65 900 2 350 22:18 08.02.2020
3062 Fog -40 1021 58 750 3 330 21:41 08.02.2020
3063 Fog -40 1021 58 750 3 330 21:23 08.02.2020
3064 Fog -41 1020 64 750 2 350 20:58 08.02.2020
3065 Fog -41 1021 64 700 2 340 20:39 08.02.2020
3066 Fog -41 1021 64 700 2 340 20:19 08.02.2020
3067 Fog -41 1021 64 700 2 350 19:56 08.02.2020
3068 Fog -41 1021 64 650 3 340 19:38 08.02.2020
3069 Fog -41 1021 64 650 3 340 19:19 08.02.2020
3070 Fog -41 1021 64 650 3 340 18:43 08.02.2020
3071 Fog -41 1021 64 450 2 330 18:24 08.02.2020
3072 Fog -41 1021 64 700 3 360 17:56 08.02.2020
3073 Fog -41 1021 64 900 3 360 17:37 08.02.2020
3074 Fog -41 1021 64 900 3 360 17:18 08.02.2020
3075 Fog -40 1022 65 800 3 340 16:40 08.02.2020
3076 Fog -40 1022 65 800 3 340 16:22 08.02.2020
3077 Fog -40 1022 65 550 3 350 15:56 08.02.2020
3078 Fog -40 1022 58 600 3 360 15:38 08.02.2020
3079 Fog -40 1022 58 600 3 360 15:38 08.02.2020
3080 Fog -40 1022 58 600 3 360 15:18 08.02.2020
3081 Fog -40 1022 58 600 3 360 15:18 08.02.2020
3082 Fog -40 1022 65 800 3 360 14:41 08.02.2020
3083 Fog -40 1022 65 800 3 360 14:19 08.02.2020
3084 Fog -40 1022 65 800 3 360 14:19 08.02.2020
3085 Fog -39 1023 65 750 3 350 13:55 08.02.2020
3086 Fog -39 1023 58 650 3 340 13:37 08.02.2020
3087 Fog -39 1023 58 650 3 340 13:18 08.02.2020
3088 Fog -39 1023 58 700 3 350 12:39 08.02.2020
3089 Fog -39 1023 58 700 3 350 12:20 08.02.2020
3090 Fog -39 1023 65 800 3 340 11:47 08.02.2020
3091 Fog -39 1023 65 1000 3 340 11:22 08.02.2020
3092 Mist -39 1023 65 1100 3 340 10:59 08.02.2020
3093 Mist -39 1023 65 1100 3 340 10:59 08.02.2020
3094 Mist -39 1023 65 1300 3 340 10:40 08.02.2020
3095 Mist -39 1023 65 1300 3 340 10:20 08.02.2020
3096 Mist -38 1023 58 2400 3 350 09:50 08.02.2020
3097 Mist -38 1023 65 5000 4 350 09:26 08.02.2020
3098 Mist -38 1023 65 5000 3 350 08:48 08.02.2020
3099 Mist -37 1023 65 5000 2 350 08:29 08.02.2020
3100 Mist -37 1023 65 5000 2 10 07:54 08.02.2020
3101 Mist -37 1024 65 2400 3 350 07:35 08.02.2020
3102 Mist -37 1024 65 2400 3 340 06:55 08.02.2020
3103 Mist -37 1024 59 2400 3 340 06:23 08.02.2020
3104 Mist -39 1024 65 2400 4 350 05:37 08.02.2020
3105 Mist -39 1024 65 2400 4 350 05:18 08.02.2020
3106 Mist -40 1025 65 2400 3 350 04:31 08.02.2020
3107 Fog -41 1025 64 900 2 350 03:39 08.02.2020
3108 Fog -42 1025 64 900 2 360 02:43 08.02.2020
3109 Fog -43 1026 57 550 2 350 01:35 08.02.2020
3110 Fog -44 1026 63 800 2 340 00:59 08.02.2020
3111 Fog -44 1026 63 800 2 330 00:37 08.02.2020
3112 Fog -44 1026 63 800 2 330 00:18 08.02.2020
3113 Fog -44 1026 63 800 3 350 23:42 07.02.2020
3114 Fog -44 1026 63 800 3 350 23:20 07.02.2020
3115 Fog -44 1026 63 800 2 360 22:55 07.02.2020
3116 Fog -44 1027 63 800 2 350 22:37 07.02.2020
3117 Fog -44 1027 63 800 2 350 22:18 07.02.2020
3118 Fog -44 1027 63 800 2 350 22:18 07.02.2020
3119 Fog -43 1027 57 800 2 360 21:41 07.02.2020
3120 Fog -43 1027 57 800 2 360 21:21 07.02.2020
3121 Fog -43 1027 57 750 2 350 20:41 07.02.2020
3122 Fog -43 1027 57 750 2 350 20:22 07.02.2020
3123 Fog -43 1027 57 750 2 350 20:22 07.02.2020
3124 Fog -43 1027 57 600 2 340 19:57 07.02.2020
3125 Fog -43 1027 57 550 2 350 19:38 07.02.2020
3126 Fog -43 1027 57 550 2 350 19:19 07.02.2020
3127 Fog -43 1027 57 650 2 350 18:46 07.02.2020
3128 Fog -43 1027 64 600 2 350 18:27 07.02.2020
3129 Fog -43 1027 64 400 2 350 17:57 07.02.2020
3130 Fog -42 1028 57 400 2 330 17:39 07.02.2020
3131 Fog -42 1028 57 400 2 330 17:21 07.02.2020
3132 Fog -42 1028 57 300 2 330 16:52 07.02.2020
3133 Fog -42 1028 57 400 2 340 16:25 07.02.2020
3134 Fog -42 1028 57 450 2 360 15:55 07.02.2020
3135 Fog -42 1028 64 500 2 350 15:36 07.02.2020
3136 Fog -42 1028 64 500 2 350 15:18 07.02.2020
3137 Fog -42 1028 57 500 2 330 14:42 07.02.2020
3138 Fog -42 1028 57 500 2 330 14:24 07.02.2020
3139 Fog -42 1028 64 450 2 340 13:57 07.02.2020
3140 Fog -43 1028 64 400 2 320 13:38 07.02.2020
3141 Fog -43 1028 64 400 2 320 13:20 07.02.2020
3142 Fog -43 1029 64 250 1 360 12:44 07.02.2020
3143 Fog -42 1029 57 200 2 360 12:26 07.02.2020
3144 Fog -42 1029 57 300 1 330 11:58 07.02.2020
3145 Fog -43 1029 57 350 1.32 102 11:39 07.02.2020
3146 Fog -43 1029 57 350 1.18 136 11:18 07.02.2020
3147 Fog -42 1029 57 350 1 350 10:40 07.02.2020
3148 Fog -42 1029 57 350 1 350 10:20 07.02.2020
3149 Fog -42 1029 64 450 1 350 09:46 07.02.2020
3150 Fog -42 1029 64 350 1 340 09:26 07.02.2020
3151 Fog -41 1029 57 300 1 10 08:58 07.02.2020
3152 Fog -41 1029 64 400 1 350 08:37 07.02.2020
3153 Fog -41 1029 64 400 1 350 08:19 07.02.2020
3154 Fog -41 1029 64 300 1 360 07:40 07.02.2020
3155 Fog -41 1029 64 300 1 360 07:40 07.02.2020
3156 Fog -41 1029 64 300 1 360 07:22 07.02.2020
3157 Fog -40 1029 58 250 1 70 06:43 07.02.2020
3158 Fog -40 1028 65 200 0.74 175 06:23 07.02.2020
3159 Fog -41 1029 64 150 0.74 175 05:43 07.02.2020
3160 Fog -42 1029 64 200 1 150 04:24 07.02.2020
3161 Fog -43 1029 57 200 1 140 02:32 07.02.2020
3162 Fog -43 1029 57 350 1.51 177 01:35 07.02.2020
3163 Fog -44 1029 63 400 1 110 00:39 07.02.2020
3164 Fog -43 1029 57 300 1.49 177 23:57 06.02.2020
3165 Fog -44 1029 63 300 1.49 177 23:36 06.02.2020
3166 Fog -44 1029 63 300 1.17 185 23:18 06.02.2020
3167 Fog -44 1029 57 350 1.17 185 22:42 06.02.2020
3168 Fog -44 1029 57 350 1.17 185 22:23 06.02.2020
3169 Fog -43 1029 57 200 1 340 21:37 06.02.2020
3170 Fog -43 1029 57 200 1 340 21:19 06.02.2020
3171 Fog -43 1028 64 300 1.17 185 20:57 06.02.2020
3172 Fog -43 1028 64 300 1.17 185 20:57 06.02.2020
3173 Fog -43 1029 64 300 1.17 185 20:38 06.02.2020
3174 Fog -43 1029 64 300 1.13 203 20:19 06.02.2020
3175 Fog -43 1028 57 300 1.13 203 19:58 06.02.2020
3176 Fog -43 1028 57 300 1 320 19:40 06.02.2020
3177 Fog -43 1028 57 300 1 320 19:21 06.02.2020
3178 Fog -43 1028 64 300 1.13 203 18:58 06.02.2020
3179 Fog -43 1028 64 300 1.13 203 18:39 06.02.2020
3180 Fog -43 1028 64 300 1.13 203 18:20 06.02.2020
3181 Fog -42 1028 57 300 1.13 203 17:42 06.02.2020
3182 Fog -43 1028 64 300 1 140 17:21 06.02.2020
3183 Fog -42 1028 57 250 0.77 204 16:57 06.02.2020
3184 Fog -42 1028 57 250 0.77 204 16:39 06.02.2020
3185 Fog -42 1028 57 250 0.77 204 16:20 06.02.2020
3186 Fog -42 1028 64 250 0.77 204 15:42 06.02.2020
3187 Fog -42 1028 64 200 0.77 204 15:21 06.02.2020
3188 Fog -42 1028 57 200 0.77 204 14:49 06.02.2020
3189 Fog -42 1028 57 200 0.77 204 14:27 06.02.2020
3190 Fog -42 1028 57 200 0.47 287 13:57 06.02.2020
3191 Fog -42 1028 57 200 0.47 287 13:39 06.02.2020
3192 Fog -42 1028 57 200 0.47 287 13:19 06.02.2020
3193 Fog -42 1028 64 200 0.51 250 12:43 06.02.2020
3194 Fog -42 1028 64 200 1 350 12:19 06.02.2020
3195 Fog -42 1028 57 300 0.51 250 11:56 06.02.2020
3196 Fog -42 1028 57 400 0.51 250 11:38 06.02.2020
3197 Fog -42 1028 57 400 0.43 7 11:18 06.02.2020
3198 Fog -42 1028 57 400 1 20 10:56 06.02.2020
3199 Fog -41 1028 57 400 0.43 7 10:38 06.02.2020
3200 Fog -41 1028 57 400 0.43 7 10:18 06.02.2020
3201 Fog -42 1028 64 650 1 330 09:44 06.02.2020
3202 Fog -42 1028 64 550 1 50 09:20 06.02.2020
3203 Fog -41 1028 57 500 0.43 7 08:47 06.02.2020
3204 Fog -41 1028 57 450 1 90 08:25 06.02.2020
3205 Fog -41 1027 57 600 0.75 312 07:59 06.02.2020
3206 Fog -41 1027 64 500 0.75 312 07:39 06.02.2020
3207 Fog -41 1027 64 500 0.75 312 07:21 06.02.2020
3208 Fog -41 1028 64 550 1 70 06:21 06.02.2020
3209 Fog -41 1027 64 350 1 130 05:48 06.02.2020
3210 Fog -42 1028 57 250 0.6 334 04:19 06.02.2020
3211 Fog -43 1028 57 300 0.6 334 03:19 06.02.2020
3212 Fog -44 1028 57 450 1 260 02:27 06.02.2020
3213 Fog -44 1028 57 450 1 340 01:25 06.02.2020
3214 Fog -45 1028 63 450 1 300 00:53 06.02.2020
3215 Fog -44 1028 57 450 1 340 00:23 06.02.2020
3216 Fog -44 1028 57 600 0.62 6 23:43 05.02.2020
3217 Fog -44 1028 57 800 2 300 23:24 05.02.2020
3218 Fog -44 1028 57 900 1 320 22:57 05.02.2020
3219 Fog -44 1028 57 1100 0.92 7 22:39 05.02.2020
3220 Fog -44 1028 57 1100 0.92 7 22:20 05.02.2020
3221 Fog -44 1028 63 300 1 320 21:41 05.02.2020
3222 Fog -44 1028 63 300 1 320 21:23 05.02.2020
3223 Fog -44 1028 63 400 1 310 20:56 05.02.2020
3224 Fog -44 1028 57 300 1 330 20:38 05.02.2020
3225 Fog -44 1028 57 300 1 330 20:18 05.02.2020
3226 Fog -44 1028 63 300 1 330 19:55 05.02.2020
3227 Fog -44 1029 57 500 1 350 19:37 05.02.2020
3228 Fog -44 1029 57 500 1 350 19:18 05.02.2020
3229 Fog -44 1028 63 350 1 360 18:43 05.02.2020
3230 Fog -44 1028 63 350 1 360 18:21 05.02.2020
3231 Fog -43 1029 57 500 1 360 17:58 05.02.2020
3232 Fog -43 1029 57 500 1 360 17:37 05.02.2020
3233 Fog -43 1029 64 350 1 350 17:18 05.02.2020
3234 Fog -42 1029 57 600 1 340 16:43 05.02.2020
3235 Fog -42 1029 57 600 1 340 16:25 05.02.2020
3236 Fog -42 1029 57 700 1 360 15:59 05.02.2020
3237 Fog -42 1029 64 600 1 350 15:40 05.02.2020
3238 Fog -42 1029 64 600 1 350 15:19 05.02.2020
3239 Fog -42 1030 64 500 2 340 14:43 05.02.2020
3240 Fog -41 1030 57 900 1 330 14:25 05.02.2020
3241 Fog -42 1030 64 900 2 10 13:59 05.02.2020
3242 Fog -41 1030 64 900 2 20 13:39 05.02.2020
3243 Fog -41 1030 64 900 2 20 13:19 05.02.2020
3244 Fog -40 1030 58 900 1 10 12:43 05.02.2020
3245 Fog -40 1030 58 900 1 10 12:43 05.02.2020
3246 Mist -40 1030 65 1500 2 360 12:24 05.02.2020
3247 Mist -39 1030 58 2100 2 10 11:57 05.02.2020
3248 Mist -39 1030 65 3200 2 10 11:38 05.02.2020
3249 Mist -39 1030 65 3200 2 10 11:19 05.02.2020
3250 Mist -38 1030 65 1500 2 340 10:42 05.02.2020
3251 Mist -38 1030 65 1500 2 340 10:24 05.02.2020
3252 Mist -39 1030 65 5000 3 360 09:57 05.02.2020
3253 Mist -37 1030 65 5000 2 40 09:37 05.02.2020
3254 Mist -37 1030 65 5000 2 40 09:19 05.02.2020
3255 Mist -37 1030 73 5000 1 80 08:43 05.02.2020
3256 Mist -35 1031 66 5000 1 110 08:23 05.02.2020
3257 Mist -35 1031 66 5000 1 110 08:23 05.02.2020
3258 Mist -35 1031 66 5000 1 130 07:54 05.02.2020
3259 Mist -35 1031 66 5000 1 130 07:33 05.02.2020
3260 Mist -35 1031 73 5000 2 140 06:49 05.02.2020
3261 Mist -34 1031 66 3200 2 140 06:23 05.02.2020
3262 Mist -34 1031 66 5000 2 150 05:52 05.02.2020
3263 Clouds -35 1031 66 10000 2 130 05:18 05.02.2020
3264 Clouds -34 1032 66 10000 1 140 04:45 05.02.2020
3265 Mist -35 1032 66 5000 1 140 03:50 05.02.2020
3266 Mist -37 1033 65 1200 1 20 02:25 05.02.2020
3267 Mist -38 1033 73 5000 1 240 01:38 05.02.2020
3268 Mist -38 1033 73 5000 1 240 01:38 05.02.2020
3269 Mist -38 1033 65 5000 1 260 00:43 05.02.2020
3270 Clouds -38 1034 73 10000 1.54 267 23:57 04.02.2020
3271 Clouds -37 1034 65 10000 1.54 267 23:37 04.02.2020
3272 Clouds -37 1034 65 10000 1.66 264 23:18 04.02.2020
3273 Mist -37 1034 65 10000 1 250 22:42 04.02.2020
3274 Mist -37 1034 65 10000 1 250 22:42 04.02.2020
3275 Mist -37 1034 65 10000 1 250 22:22 04.02.2020
3276 Clouds -35 1034 66 10000 3 240 22:00 04.02.2020
3277 Clouds -36 1034 66 10000 3 230 21:41 04.02.2020
3278 Clouds -36 1034 66 10000 3 230 21:19 04.02.2020
3279 Clouds -36 1034 66 10000 3 230 21:19 04.02.2020
3280 Clouds -35 1034 66 10000 3 240 20:59 04.02.2020
3281 Mist -37 1034 65 5000 3 230 20:39 04.02.2020
3282 Mist -37 1034 65 5000 3 230 20:20 04.02.2020
3283 Mist -37 1034 65 5000 3 230 20:20 04.02.2020
3284 Mist -38 1035 65 2400 3 230 19:57 04.02.2020
3285 Mist -38 1035 65 1000 2 230 19:39 04.02.2020
3286 Mist -38 1035 65 1000 2 230 19:21 04.02.2020
3287 Clouds -37 1035 65 10000 2 230 18:55 04.02.2020
3288 Clouds -37 1035 73 10000 2 220 18:36 04.02.2020
3289 Clouds -37 1035 73 10000 2 220 18:18 04.02.2020
3290 Clouds -36 1035 66 10000 3 230 17:42 04.02.2020
3291 Clouds -36 1035 66 10000 3 230 17:20 04.02.2020
3292 Clouds -36 1035 66 10000 3 230 16:55 04.02.2020
3293 Clouds -35 1036 66 10000 2 210 16:36 04.02.2020
3294 Clouds -35 1036 66 10000 2 210 16:18 04.02.2020
3295 Clouds -35 1036 73 10000 2 220 15:55 04.02.2020
3296 Clouds -35 1036 66 10000 3 220 15:37 04.02.2020
3297 Clouds -35 1036 66 10000 3 220 15:18 04.02.2020
3298 Clouds -35 1036 66 10000 3 220 14:41 04.02.2020
3299 Clouds -35 1036 66 10000 3 220 14:21 04.02.2020
3300 Clouds -35 1036 66 10000 3 220 13:56 04.02.2020
3301 Clouds -35 1036 73 10000 2 240 13:38 04.02.2020
3302 Clouds -35 1036 73 10000 2 240 13:18 04.02.2020
3303 Clouds -34 1036 73 10000 2 240 12:43 04.02.2020
3304 Clouds -34 1036 66 10000 2 230 12:24 04.02.2020
3305 Clouds -35 1036 73 10000 2 220 11:57 04.02.2020
3306 Clouds -35 1036 73 10000 2 210 11:39 04.02.2020
3307 Clouds -35 1036 73 10000 2 210 11:19 04.02.2020
3308 Clouds -35 1036 66 10000 1 200 10:49 04.02.2020
3309 Clouds -34 1036 66 10000 2 230 10:27 04.02.2020
3310 Clouds -34 1037 66 10000 3 230 09:58 04.02.2020
3311 Clouds -33 1037 67 10000 2 240 09:39 04.02.2020
3312 Clouds -33 1037 67 10000 2 240 09:21 04.02.2020
3313 Clouds -33 1036 67 10000 3 230 08:47 04.02.2020
3314 Clouds -32 1036 67 10000 2 240 08:28 04.02.2020
3315 Clouds -32 1036 67 10000 2 230 07:56 04.02.2020
3316 Clouds -31 1036 67 10000 3 230 07:37 04.02.2020
3317 Clouds -31 1036 67 10000 3 230 07:18 04.02.2020
3318 Clouds -31 1036 67 10000 3 270 06:41 04.02.2020
3319 Clouds -32 1037 67 10000 4 260 05:35 04.02.2020
3320 Clouds -33 1037 67 10000 3 270 04:28 04.02.2020
3321 Clouds -34 1037 66 10000 2 270 03:48 04.02.2020
3322 Clouds -34 1037 66 10000 3 270 03:29 04.02.2020
3323 Clouds -35 1037 66 10000 2 260 02:42 04.02.2020
3324 Clouds -36 1037 73 10000 1 280 02:24 04.02.2020
3325 Clouds -35 1037 66 10000 2 270 01:45 04.02.2020
3326 Clouds -36 1037 66 10000 2 260 01:19 04.02.2020
3327 Clouds -36 1037 66 10000 2 260 00:23 04.02.2020
3328 Clouds -36 1037 66 10000 1 270 23:49 03.02.2020
3329 Clouds -36 1037 66 10000 2 270 23:30 03.02.2020
3330 Clouds -36 1037 66 10000 2 270 22:58 03.02.2020
3331 Clouds -36 1037 66 10000 2 270 22:58 03.02.2020
3332 Clouds -36 1037 66 10000 1 280 22:38 03.02.2020
3333 Clouds -36 1037 66 10000 1 280 22:19 03.02.2020
3334 Clouds -35 1036 66 10000 2 290 21:42 03.02.2020
3335 Clouds -35 1036 66 10000 2 290 21:20 03.02.2020
3336 Clouds -35 1036 66 10000 2 290 21:20 03.02.2020
3337 Clouds -35 1036 66 10000 3 300 20:56 03.02.2020
3338 Clouds -35 1036 66 10000 4 290 20:38 03.02.2020
3339 Clouds -35 1036 66 10000 4 290 20:38 03.02.2020
3340 Clouds -35 1036 66 10000 4 290 20:18 03.02.2020
3341 Clouds -35 1036 66 10000 3 300 19:42 03.02.2020
3342 Clouds -34 1036 66 10000 2 290 19:23 03.02.2020
3343 Clouds -34 1036 66 10000 2 290 18:59 03.02.2020
3344 Clouds -34 1036 66 10000 2 320 18:40 03.02.2020
3345 Clouds -34 1036 66 10000 2 320 18:21 03.02.2020
3346 Clouds -34 1036 66 10000 2 310 17:57 03.02.2020
3347 Clouds -34 1036 66 10000 1 290 17:39 03.02.2020
3348 Clouds -34 1036 66 10000 1 290 17:19 03.02.2020
3349 Clouds -34 1035 66 10000 1 320 16:40 03.02.2020
3350 Clouds -34 1035 66 10000 1 320 16:22 03.02.2020
3351 Clouds -34 1035 66 10000 1 310 15:58 03.02.2020
3352 Clouds -34 1035 66 10000 1 330 15:39 03.02.2020
3353 Clouds -34 1035 66 10000 1 330 15:20 03.02.2020
3354 Clouds -35 1035 73 10000 1 340 14:57 03.02.2020
3355 Clouds -35 1035 66 10000 1 20 14:39 03.02.2020
3356 Clouds -35 1035 66 10000 1 20 14:21 03.02.2020
3357 Clouds -33 1035 67 10000 2 320 13:43 03.02.2020
3358 Clouds -33 1035 67 10000 3 320 13:21 03.02.2020
3359 Clouds -33 1034 67 10000 2 320 12:59 03.02.2020
3360 Clouds -33 1034 74 10000 2 310 12:40 03.02.2020
3361 Clouds -33 1034 74 10000 2 310 12:21 03.02.2020
3362 Clouds -33 1034 74 10000 3 300 11:56 03.02.2020
3363 Clouds -33 1034 74 10000 2 300 11:37 03.02.2020
3364 Clouds -33 1034 74 10000 2 300 11:18 03.02.2020
3365 Clouds -33 1033 74 10000 2 310 10:40 03.02.2020
3366 Clouds -33 1033 74 10000 2 310 10:22 03.02.2020
3367 Clouds -33 1033 67 10000 2.04 314 09:48 03.02.2020
3368 Clouds -33 1033 67 10000 2.04 314 09:24 03.02.2020
3369 Clouds -33 1033 67 10000 2.04 314 08:56 03.02.2020
3370 Clouds -33 1033 67 10000 2.04 314 08:56 03.02.2020
3371 Clouds -33 1032 67 10000 1 70 08:37 03.02.2020
3372 Clouds -33 1032 67 10000 1 70 08:19 03.02.2020
3373 Clouds -33 1032 67 10000 1 70 07:40 03.02.2020
3374 Clouds -33 1032 67 10000 1 70 07:21 03.02.2020
3375 Clouds -33 1032 67 10000 2 70 06:51 03.02.2020
3376 Clouds -33 1032 74 10000 1 70 06:28 03.02.2020
3377 Clouds -32 1031 67 10000 1 360 05:37 03.02.2020
3378 Clouds -32 1031 67 10000 1 360 05:18 03.02.2020
3379 Clouds -33 1031 74 10000 2 350 03:51 03.02.2020
3380 Clouds -33 1031 67 10000 3 320 02:36 03.02.2020
3381 Clouds -33 1030 67 10000 2 310 01:42 03.02.2020
3382 Clouds -33 1030 67 10000 2 320 00:47 03.02.2020
3383 Clouds -33 1030 67 10000 3 320 00:25 03.02.2020
3384 Clouds -33 1030 74 10000 3 320 23:39 02.02.2020
3385 Clouds -33 1030 74 10000 3 320 23:21 02.02.2020
3386 Clouds -33 1030 74 10000 2 320 22:58 02.02.2020
3387 Clouds -33 1029 74 10000 2 310 22:38 02.02.2020
3388 Clouds -33 1029 74 10000 2 310 22:20 02.02.2020
3389 Clouds -32 1029 67 10000 3 320 21:56 02.02.2020
3390 Clouds -32 1029 67 10000 3 310 21:38 02.02.2020
3391 Clouds -32 1029 67 10000 3 310 21:20 02.02.2020
3392 Clouds -32 1029 67 10000 2 310 20:56 02.02.2020
3393 Clouds -32 1029 74 10000 2 320 20:37 02.02.2020
3394 Clouds -32 1029 74 10000 2 320 20:19 02.02.2020
3395 Clouds -32 1029 74 10000 2 300 19:55 02.02.2020
3396 Clouds -32 1029 74 10000 2 320 19:37 02.02.2020
3397 Clouds -32 1029 74 10000 2 320 19:18 02.02.2020
3398 Clouds -31 1029 74 10000 2 310 18:39 02.02.2020
3399 Clouds -31 1029 74 10000 2 310 18:21 02.02.2020
3400 Clouds -31 1029 74 10000 2 310 17:58 02.02.2020
3401 Clouds -31 1029 74 10000 2 310 17:38 02.02.2020
3402 Clouds -31 1029 74 10000 2 310 17:19 02.02.2020
3403 Clouds -31 1029 74 10000 2 310 17:19 02.02.2020
3404 Clouds -31 1029 74 10000 2 310 16:59 02.02.2020
3405 Clouds -31 1029 74 10000 2 300 16:40 02.02.2020
3406 Clouds -31 1029 74 10000 2 300 16:19 02.02.2020
3407 Clouds -31 1029 74 10000 2 300 15:59 02.02.2020
3408 Clouds -30 1029 67 10000 1 290 15:40 02.02.2020
3409 Clouds -30 1029 67 10000 1 290 15:20 02.02.2020
3410 Clouds -31 1029 74 10000 1 300 14:59 02.02.2020
3411 Clouds -30 1029 74 10000 1 300 14:40 02.02.2020
3412 Clouds -30 1029 74 10000 1 300 14:18 02.02.2020
3413 Clouds -30 1029 74 10000 2 300 13:55 02.02.2020
3414 Clouds -30 1029 74 10000 2 290 13:37 02.02.2020
3415 Clouds -30 1029 74 10000 2 290 13:19 02.02.2020
3416 Clouds -29 1029 68 10000 2 290 12:45 02.02.2020
3417 Clouds -29 1029 75 10000 2 300 12:23 02.02.2020
3418 Clouds -29 1029 75 10000 2 300 11:59 02.02.2020
3419 Clouds -29 1028 75 10000 2 300 11:40 02.02.2020
3420 Clouds -29 1028 75 10000 2 300 11:19 02.02.2020
3421 Clouds -29 1028 75 10000 2 310 10:56 02.02.2020
3422 Clouds -28 1028 75 10000 2 310 10:37 02.02.2020
3423 Clouds -28 1028 75 10000 2 310 10:19 02.02.2020
3424 Clouds -28 1028 75 10000 3 310 09:55 02.02.2020
3425 Clouds -28 1028 75 10000 2 310 09:37 02.02.2020
3426 Clouds -28 1028 75 10000 2 310 09:19 02.02.2020
3427 Clouds -28 1028 75 10000 2 300 08:42 02.02.2020
3428 Clouds -28 1028 75 10000 2 300 08:24 02.02.2020
3429 Clouds -28 1028 75 10000 2 290 07:46 02.02.2020
3430 Clouds -28 1028 75 10000 2 290 07:46 02.02.2020
3431 Clouds -27 1028 75 10000 2 280 07:28 02.02.2020
3432 Clouds -27 1028 75 10000 1 280 06:43 02.02.2020
3433 Clouds -27 1028 75 10000 1 270 06:25 02.02.2020
3434 Clouds -27 1028 75 10000 1 320 05:47 02.02.2020
3435 Clouds -27 1028 75 10000 1 320 05:47 02.02.2020
3436 Clouds -28 1029 75 10000 2 300 04:42 02.02.2020
3437 Clouds -29 1029 75 10000 2 300 03:25 02.02.2020
3438 Clouds -30 1029 74 10000 3 300 02:31 02.02.2020
3439 Clouds -30 1029 74 10000 3 300 01:54 02.02.2020
3440 Clouds -31 1029 74 10000 2 300 01:23 02.02.2020
3441 Clouds -30 1029 74 10000 2 290 00:44 02.02.2020
3442 Clouds -30 1029 67 10000 3 290 00:22 02.02.2020
3443 Clouds -30 1028 67 10000 2 290 23:47 01.02.2020
3444 Clouds -31 1028 74 10000 2 290 23:22 01.02.2020
3445 Clouds -31 1028 74 10000 2 290 22:51 01.02.2020
3446 Clouds -31 1028 67 10000 2 280 22:20 01.02.2020
3447 Clouds -30 1028 67 10000 2 290 21:59 01.02.2020
3448 Clouds -30 1028 74 10000 3 300 21:39 01.02.2020
3449 Clouds -30 1028 74 10000 3 300 21:18 01.02.2020
3450 Clouds -35 1029 66 10000 1 290 20:41 01.02.2020
3451 Clouds -35 1029 66 10000 1 290 20:20 01.02.2020
3452 Clouds -35 1029 66 10000 1 310 19:57 01.02.2020
3453 Clouds -35 1029 73 10000 1.93 313 19:39 01.02.2020
3454 Clouds -35 1029 73 10000 1.93 313 19:19 01.02.2020
3455 Clouds -35 1029 73 10000 1.93 313 18:57 01.02.2020
3456 Clouds -34 1029 66 10000 1.93 313 18:39 01.02.2020
3457 Clouds -34 1029 66 10000 1.93 313 18:21 01.02.2020
3458 Clouds -34 1029 66 10000 1.93 313 18:21 01.02.2020
3459 Clouds -33 1029 67 10000 1.93 313 17:57 01.02.2020
3460 Snow -34 1029 73 10000 1.93 313 17:38 01.02.2020
3461 Snow -34 1029 73 10000 1.98 336 17:19 01.02.2020
3462 Snow -33 1029 74 10000 1.98 336 16:42 01.02.2020
3463 Snow -32 1029 67 10000 1.98 336 16:24 01.02.2020
3464 Snow -31 1029 74 10000 1 320 15:58 01.02.2020
3465 Snow -30 1029 67 10000 1 320 15:38 01.02.2020
3466 Snow -30 1029 67 10000 1 320 15:19 01.02.2020
3467 Snow -29 1029 75 10000 1 360 14:41 01.02.2020
3468 Snow -29 1029 75 10000 1 360 14:21 01.02.2020
3469 Snow -29 1029 75 10000 1 10 13:46 01.02.2020
3470 Snow -29 1029 75 10000 2 10 13:25 01.02.2020
3471 Snow -28 1029 75 10000 1 20 12:59 01.02.2020
3472 Snow -28 1028 75 10000 1 20 12:41 01.02.2020
3473 Snow -28 1028 75 10000 1 20 12:22 01.02.2020
3474 Snow -28 1029 75 5000 1 30 11:44 01.02.2020
3475 Snow -28 1028 82 5000 1 30 11:24 01.02.2020
3476 Snow -27 1028 75 5000 1 30 10:59 01.02.2020
3477 Snow -27 1028 75 5000 1 30 10:40 01.02.2020
3478 Snow -27 1028 75 5000 1 30 10:40 01.02.2020
3479 Snow -27 1028 75 5000 1 30 10:22 01.02.2020
3480 Snow -27 1028 75 5000 1.08 1 09:59 01.02.2020
3481 Snow -27 1028 75 5000 1.08 1 09:40 01.02.2020
3482 Snow -27 1028 75 5000 1.08 1 09:21 01.02.2020
3483 Snow -28 1028 75 10000 1 10 08:52 01.02.2020
3484 Snow -27 1028 75 10000 1 10 07:56 01.02.2020
3485 Snow -27 1028 75 10000 1.32 4 07:38 01.02.2020
3486 Snow -27 1028 75 10000 1.32 4 07:19 01.02.2020
3487 Snow -27 1028 75 10000 1 360 06:42 01.02.2020
3488 Clouds -28 1028 75 10000 2 20 05:53 01.02.2020
3489 Snow -28 1028 75 10000 1 10 04:22 01.02.2020
3490 Snow -28 1028 75 10000 1 10 04:22 01.02.2020
3491 Snow -28 1028 75 10000 1 20 03:25 01.02.2020
3492 Snow -28 1028 75 10000 2 20 02:50 01.02.2020
3493 Snow -28 1028 75 10000 2 10 02:30 01.02.2020
3494 Snow -29 1028 75 10000 2 30 01:56 01.02.2020
3495 Snow -29 1028 75 10000 1 30 01:37 01.02.2020
3496 Snow -29 1028 75 10000 1 30 00:38 01.02.2020
3497 Snow -29 1028 75 10000 1 30 00:19 01.02.2020
3498 Snow -29 1027 75 10000 2 20 23:38 31.01.2020
3499 Snow -29 1027 75 10000 2 20 23:18 31.01.2020
3500 Snow -29 1027 75 10000 2 20 22:54 31.01.2020
3501 Snow -29 1027 75 10000 1 40 22:36 31.01.2020
3502 Snow -29 1027 75 10000 1 40 22:18 31.01.2020
3503 Snow -29 1027 75 10000 2 10 21:39 31.01.2020
3504 Snow -29 1027 75 10000 2 10 21:21 31.01.2020
3505 Snow -30 1027 74 10000 2 10 20:57 31.01.2020
3506 Snow -29 1027 75 10000 2 30 20:39 31.01.2020
3507 Snow -28 1027 75 10000 1 20 20:20 31.01.2020
3508 Snow -28 1027 75 10000 1 20 19:56 31.01.2020
3509 Snow -28 1027 75 10000 1 20 19:38 31.01.2020
3510 Snow -28 1027 75 10000 1 20 19:19 31.01.2020
3511 Snow -28 1027 75 10000 1 350 18:46 31.01.2020
3512 Snow -28 1027 75 10000 1 340 18:27 31.01.2020
3513 Snow -29 1027 75 10000 1 330 17:59 31.01.2020
3514 Snow -29 1027 75 10000 1 320 17:40 31.01.2020
3515 Snow -29 1027 75 10000 1 320 17:21 31.01.2020
3516 Snow -30 1027 74 10000 1 340 16:56 31.01.2020
3517 Snow -30 1027 74 10000 2 340 16:37 31.01.2020
3518 Snow -30 1027 74 10000 2 340 16:18 31.01.2020
3519 Clouds -31 1027 74 10000 2 340 15:56 31.01.2020
3520 Clouds -31 1027 74 10000 2 340 15:56 31.01.2020
3521 Clouds -30 1026 74 10000 2 330 15:37 31.01.2020
3522 Clouds -30 1026 74 10000 2 330 15:19 31.01.2020
3523 Clouds -30 1026 74 10000 2 360 14:42 31.01.2020
3524 Clouds -30 1026 74 10000 2 360 14:20 31.01.2020
3525 Clouds -30 1026 74 10000 3 340 13:50 31.01.2020
3526 Clouds -30 1025 74 10000 2 350 13:32 31.01.2020
3527 Clouds -30 1025 74 10000 3 330 12:56 31.01.2020
3528 Clouds -30 1025 74 10000 3 330 12:56 31.01.2020
3529 Clouds -32 1025 74 10000 2 330 12:38 31.01.2020
3530 Clouds -32 1025 74 10000 2 330 12:38 31.01.2020
3531 Clouds -32 1025 74 10000 2 330 12:20 31.01.2020
3532 Clouds -31 1025 74 10000 2 340 11:41 31.01.2020
3533 Clouds -31 1025 74 10000 2 340 11:23 31.01.2020
3534 Clouds -31 1025 74 10000 1 330 10:58 31.01.2020
3535 Clouds -30 1024 74 10000 2 350 10:39 31.01.2020
3536 Clouds -30 1024 74 10000 2 350 10:20 31.01.2020
3537 Clouds -29 1024 75 10000 2 340 09:55 31.01.2020
3538 Clouds -30 1024 74 10000 2 350 09:37 31.01.2020
3539 Clouds -30 1024 74 10000 2 350 09:18 31.01.2020
3540 Clouds -29 1024 75 10000 1 330 08:49 31.01.2020
3541 Clouds -28 1023 75 10000 1 350 08:24 31.01.2020
3542 Clouds -27 1023 75 10000 1 350 07:52 31.01.2020
3543 Clouds -27 1023 75 10000 1 360 07:24 31.01.2020
3544 Clouds -26 1022 75 10000 0.34 160 06:42 31.01.2020
3545 Clouds -27 1022 75 10000 0.34 160 05:58 31.01.2020
3546 Clouds -27 1022 75 10000 1 10 05:37 31.01.2020
3547 Clouds -25 1022 75 10000 0.39 180 04:47 31.01.2020
3548 Snow -26 1021 83 5000 1 170 02:58 31.01.2020
3549 Snow -26 1020 75 10000 2 170 01:32 31.01.2020
3550 Snow -27 1020 82 10000 1 160 00:42 31.01.2020
3551 Snow -27 1020 75 10000 1 160 00:24 31.01.2020
3552 Snow -28 1019 75 10000 1 230 23:48 30.01.2020
3553 Snow -28 1019 75 10000 1 190 23:23 30.01.2020
3554 Snow -29 1019 75 10000 1 150 22:56 30.01.2020
3555 Snow -29 1019 75 10000 1 150 22:56 30.01.2020
3556 Snow -29 1019 75 10000 2 160 22:36 30.01.2020
3557 Snow -29 1019 75 10000 2 160 22:18 30.01.2020
3558 Snow -29 1018 75 10000 1 170 21:43 30.01.2020
3559 Snow -30 1018 74 10000 0.33 239 21:19 30.01.2020
3560 Snow -30 1018 74 10000 0.33 239 20:59 30.01.2020
3561 Snow -31 1018 67 10000 0.33 239 20:38 30.01.2020
3562 Snow -31 1018 67 10000 0.77 274 20:20 30.01.2020
3563 Snow -31 1017 67 10000 0.71 257 19:55 30.01.2020
3564 Snow -32 1017 74 10000 0.71 257 19:36 30.01.2020
3565 Snow -32 1017 74 10000 0.71 257 19:18 30.01.2020
3566 Snow -32 1017 74 10000 0.71 257 19:18 30.01.2020
3567 Snow -30 1017 74 5000 1 300 18:39 30.01.2020
3568 Snow -30 1017 74 5000 1 300 18:19 30.01.2020
3569 Clouds -31 1017 74 10000 2 300 17:55 30.01.2020
3570 Clouds -32 1017 74 10000 1 310 17:36 30.01.2020
3571 Clouds -32 1017 74 10000 1 310 17:18 30.01.2020
3572 Clouds -32 1016 67 10000 1 350 16:41 30.01.2020
3573 Clouds -32 1016 67 10000 1 350 16:21 30.01.2020
3574 Clouds -32 1016 67 10000 2 350 15:58 30.01.2020
3575 Clouds -32 1017 74 10000 2 360 15:40 30.01.2020
3576 Clouds -32 1017 74 10000 2 360 15:19 30.01.2020
3577 Clouds -32 1017 67 10000 2 340 14:43 30.01.2020
3578 Clouds -32 1017 67 10000 2 340 14:43 30.01.2020
3579 Clouds -32 1017 74 10000 2 330 14:25 30.01.2020
3580 Clouds -32 1017 74 10000 2 340 13:43 30.01.2020
3581 Clouds -32 1017 67 10000 3 10 13:24 30.01.2020
3582 Clouds -32 1017 74 10000 2 340 12:58 30.01.2020
3583 Clouds -31 1017 74 10000 3 350 12:39 30.01.2020
3584 Clouds -31 1017 74 10000 3 350 12:21 30.01.2020
3585 Clouds -32 1017 74 10000 3 10 11:41 30.01.2020
3586 Clouds -32 1017 74 10000 3 10 11:23 30.01.2020
3587 Clouds -32 1017 74 10000 3 350 10:59 30.01.2020
3588 Clouds -32 1017 74 10000 3 350 10:59 30.01.2020
3589 Clouds -32 1017 74 10000 2 340 10:41 30.01.2020
3590 Clouds -32 1017 74 10000 2 340 10:21 30.01.2020
3591 Clouds -32 1017 74 10000 2 360 09:47 30.01.2020
3592 Clouds -31 1018 67 10000 3 360 09:28 30.01.2020
3593 Clouds -31 1018 74 10000 3 350 08:57 30.01.2020
3594 Clouds -30 1018 67 10000 3 360 08:37 30.01.2020
3595 Clouds -30 1018 67 10000 3 360 08:18 30.01.2020
3596 Clouds -30 1018 74 10000 3 350 07:48 30.01.2020
3597 Clouds -30 1018 74 10000 3 350 07:20 30.01.2020
3598 Clouds -29 1019 68 10000 3 340 06:46 30.01.2020
3599 Clouds -30 1019 74 10000 3 340 06:27 30.01.2020
3600 Clouds -30 1020 67 10000 3 350 05:43 30.01.2020
3601 Clouds -31 1020 74 10000 3 350 05:19 30.01.2020
3602 Clouds -33 1021 74 10000 2 360 03:52 30.01.2020
3603 Clouds -33 1021 74 10000 3 350 03:34 30.01.2020
3604 Clouds -34 1023 66 10000 3 350 01:57 30.01.2020
3605 Clouds -35 1023 73 10000 3 10 00:38 30.01.2020
3606 Clouds -35 1023 73 10000 3 10 00:19 30.01.2020
3607 Clouds -35 1024 73 10000 3 10 23:45 29.01.2020
3608 Clouds -34 1024 73 10000 3 10 23:21 29.01.2020
3609 Clouds -34 1024 73 10000 3 10 23:21 29.01.2020
3610 Clouds -34 1024 73 10000 3 10 22:56 29.01.2020
3611 Clouds -34 1024 66 10000 3 10 22:38 29.01.2020
3612 Clouds -34 1024 66 10000 3 10 22:19 29.01.2020
3613 Clouds -34 1024 66 10000 3 360 21:57 29.01.2020
3614 Clouds -34 1025 66 10000 3 10 21:38 29.01.2020
3615 Clouds -34 1025 66 10000 3 10 21:18 29.01.2020
3616 Clouds -34 1025 73 10000 3 10 20:57 29.01.2020
3617 Clouds -33 1025 67 10000 3 20 20:37 29.01.2020
3618 Clouds -33 1025 67 10000 3 20 20:19 29.01.2020
3619 Clouds -33 1026 67 10000 3 10 19:55 29.01.2020
3620 Clouds -34 1026 73 10000 3 360 19:36 29.01.2020
3621 Clouds -34 1026 73 10000 3 360 19:18 29.01.2020
3622 Clouds -33 1026 74 10000 3 360 18:42 29.01.2020
3623 Clouds -33 1026 74 10000 3 360 18:19 29.01.2020
3624 Clouds -33 1027 67 10000 3 360 17:55 29.01.2020
3625 Clouds -33 1027 67 10000 3 360 17:37 29.01.2020
3626 Clouds -33 1027 67 10000 3 360 17:18 29.01.2020
3627 Clouds -33 1028 74 10000 3 340 16:40 29.01.2020
3628 Clouds -33 1028 74 10000 3 340 16:20 29.01.2020
3629 Clouds -32 1028 67 10000 3 360 15:40 29.01.2020
3630 Clouds -32 1028 67 10000 3 360 15:22 29.01.2020
3631 Clouds -32 1029 67 10000 2 350 14:58 29.01.2020
3632 Clouds -32 1029 67 10000 2 350 14:58 29.01.2020
3633 Clouds -32 1029 67 10000 2 360 14:40 29.01.2020
3634 Clouds -32 1029 67 10000 2 360 14:18 29.01.2020
3635 Clouds -33 1030 74 10000 2 350 13:41 29.01.2020
3636 Clouds -33 1030 74 10000 2 350 13:22 29.01.2020
3637 Clouds -33 1030 74 10000 2 350 12:57 29.01.2020
3638 Clouds -33 1030 67 10000 2 350 12:39 29.01.2020
3639 Clouds -33 1030 67 10000 2 350 12:21 29.01.2020
3640 Clouds -34 1030 66 10000 3 350 11:56 29.01.2020
3641 Clouds -34 1031 66 10000 3 350 11:38 29.01.2020
3642 Clouds -34 1031 66 10000 3 350 11:38 29.01.2020
3643 Clouds -34 1031 66 10000 3 350 11:19 29.01.2020
3644 Clouds -35 1031 73 10000 3 350 10:46 29.01.2020
3645 Clouds -35 1032 66 10000 3 350 10:22 29.01.2020
3646 Clouds -35 1032 66 10000 3 350 09:40 29.01.2020
3647 Clouds -35 1032 66 10000 3 350 09:40 29.01.2020
3648 Clouds -35 1032 66 10000 3 350 09:22 29.01.2020
3649 Clouds -35 1032 66 10000 2 10 08:59 29.01.2020
3650 Clouds -35 1032 66 10000 2 350 08:40 29.01.2020
3651 Clouds -35 1032 66 10000 2 350 08:22 29.01.2020
3652 Clouds -35 1032 66 10000 2 350 07:45 29.01.2020
3653 Clouds -35 1033 66 10000 2 340 07:25 29.01.2020
3654 Clouds -35 1033 66 10000 2 320 06:55 29.01.2020
3655 Clouds -35 1033 66 10000 2 320 06:55 29.01.2020
3656 Mist -36 1033 66 5000 2 10 06:37 29.01.2020
3657 Mist -36 1033 66 5000 2 10 06:18 29.01.2020
3658 Mist -36 1034 66 3200 1 350 05:46 29.01.2020
3659 Mist -37 1034 65 3200 2 360 05:27 29.01.2020
3660 Fog -38 1034 65 800 1 340 04:38 29.01.2020
3661 Fog -39 1034 58 650 1 10 03:50 29.01.2020
3662 Fog -42 1035 64 350 1 350 02:33 29.01.2020
3663 Fog -42 1035 64 300 1 330 00:51 29.01.2020
3664 Fog -43 1036 64 250 1 360 00:29 29.01.2020
3665 Fog -42 1036 57 200 2 10 23:58 28.01.2020
3666 Fog -42 1036 64 200 1 310 23:37 28.01.2020
3667 Fog -42 1036 64 200 1 310 23:19 28.01.2020
3668 Fog -42 1036 57 200 1 360 22:44 28.01.2020
3669 Fog -42 1036 57 250 1 10 22:26 28.01.2020
3670 Fog -41 1036 57 200 1 320 21:54 28.01.2020
3671 Fog -41 1036 57 250 1 310 21:36 28.01.2020
3672 Fog -41 1036 57 250 1 310 21:18 28.01.2020
3673 Fog -41 1036 57 250 1 310 21:18 28.01.2020
3674 Fog -41 1036 57 250 1 310 21:18 28.01.2020
3675 Fog -42 1036 64 350 1 20 20:45 28.01.2020
3676 Fog -41 1036 57 550 1.53 154 20:25 28.01.2020
3677 Fog -41 1036 64 600 1.79 176 19:55 28.01.2020
3678 Fog -41 1036 64 1000 1.79 176 19:36 28.01.2020
3679 Fog -41 1036 64 1000 1.79 176 19:18 28.01.2020
3680 Fog -41 1036 64 1000 1.79 176 19:18 28.01.2020
3681 Fog -41 1036 64 400 1 310 18:41 28.01.2020
3682 Fog -41 1036 64 400 1 310 18:22 28.01.2020
3683 Fog -40 1036 58 400 1 330 17:59 28.01.2020
3684 Fog -41 1036 64 700 1.79 176 17:39 28.01.2020
3685 Fog -41 1036 64 700 1.48 190 17:21 28.01.2020
3686 Fog -40 1036 65 600 1 310 16:57 28.01.2020
3687 Mist -40 1036 65 1300 1 280 16:39 28.01.2020
3688 Mist -40 1036 65 1300 1 280 16:21 28.01.2020
3689 Mist -40 1036 65 1500 1.48 190 15:45 28.01.2020
3690 Mist -40 1036 58 5000 1 300 15:19 28.01.2020
3691 Clear -40 1036 65 10000 2 280 14:57 28.01.2020
3692 Clear -39 1036 58 10000 1.48 190 14:39 28.01.2020
3693 Clear -39 1036 58 10000 1.48 190 14:39 28.01.2020
3694 Clear -39 1036 58 10000 0.56 208 14:18 28.01.2020
3695 Clear -39 1035 65 10000 0.56 208 13:41 28.01.2020
3696 Clear -39 1035 65 10000 0.6 208 13:23 28.01.2020
3697 Clear -40 1035 65 10000 1 160 12:43 28.01.2020
3698 Clear -38 1035 58 10000 1 280 12:24 28.01.2020
3699 Clear -38 1035 65 10000 2 290 11:56 28.01.2020
3700 Clear -37 1035 65 10000 2 310 11:38 28.01.2020
3701 Clear -37 1035 65 10000 2 310 11:19 28.01.2020
3702 Clear -36 1034 66 10000 0.79 288 10:41 28.01.2020
3703 Clear -36 1034 66 10000 0.79 288 10:23 28.01.2020
3704 Clear -36 1034 66 10000 2 160 09:56 28.01.2020
3705 Clear -37 1034 65 10000 2 180 09:37 28.01.2020
3706 Clear -37 1034 65 10000 2 180 09:19 28.01.2020
3707 Clear -34 1033 66 10000 1 170 08:42 28.01.2020
3708 Clear -33 1033 74 10000 1 150 08:21 28.01.2020
3709 Clear -32 1032 67 10000 2 160 07:39 28.01.2020
3710 Clear -32 1032 67 10000 1 140 06:58 28.01.2020
3711 Clear -30 1031 67 10000 1.27 295 06:40 28.01.2020
3712 Clear -30 1031 67 10000 1.27 295 06:22 28.01.2020
3713 Clear -30 1030 67 10000 1 330 05:34 28.01.2020
3714 Clear -32 1030 67 10000 1 310 04:40 28.01.2020
3715 Clear -34 1029 66 10000 2 290 03:41 28.01.2020
3716 Clear -34 1029 66 10000 3 290 02:40 28.01.2020
3717 Clouds -34 1029 66 10000 3 290 02:21 28.01.2020
3718 Clouds -35 1028 73 10000 2 290 01:48 28.01.2020
3719 Clouds -34 1028 66 10000 3 270 00:51 28.01.2020
3720 Clouds -34 1027 66 10000 2 260 00:30 28.01.2020
3721 Clouds -34 1027 66 10000 2 250 23:59 27.01.2020
3722 Clouds -33 1027 67 10000 2 270 23:41 27.01.2020
3723 Clouds -33 1027 67 10000 2 270 23:18 27.01.2020
3724 Clouds -33 1027 67 10000 1 280 22:44 27.01.2020
3725 Clouds -32 1026 67 10000 3 280 22:20 27.01.2020
3726 Snow -32 1026 67 10000 2 300 21:57 27.01.2020
3727 Snow -32 1026 67 10000 2 300 21:38 27.01.2020
3728 Snow -32 1026 67 10000 2 300 21:18 27.01.2020
3729 Snow -32 1025 67 10000 2 310 20:55 27.01.2020
3730 Snow -32 1025 67 10000 2 300 20:37 27.01.2020
3731 Snow -32 1025 67 10000 2 300 20:18 27.01.2020
3732 Snow -32 1025 67 10000 2 310 19:41 27.01.2020
3733 Snow -33 1025 74 10000 3 300 19:23 27.01.2020
3734 Snow -33 1024 67 10000 2 300 18:57 27.01.2020
3735 Snow -33 1024 67 10000 2 310 18:39 27.01.2020
3736 Snow -33 1024 67 10000 2 310 18:39 27.01.2020
3737 Snow -33 1024 67 10000 2 310 18:20 27.01.2020
3738 Snow -33 1023 67 10000 2 310 17:55 27.01.2020
3739 Clouds -35 1023 73 10000 2 310 17:37 27.01.2020
3740 Clouds -35 1023 73 10000 2 310 17:37 27.01.2020
3741 Snow -35 1023 73 10000 2 310 17:18 27.01.2020
3742 Snow -34 1022 66 10000 2 310 16:42 27.01.2020
3743 Snow -34 1022 66 10000 2 310 16:24 27.01.2020
3744 Snow -34 1022 66 10000 2 310 16:24 27.01.2020
3745 Snow -34 1022 73 10000 2 330 15:55 27.01.2020
3746 Snow -33 1021 67 10000 3 330 15:37 27.01.2020
3747 Snow -33 1021 67 10000 3 330 15:19 27.01.2020
3748 Snow -33 1021 67 10000 3 340 14:55 27.01.2020
3749 Snow -33 1021 67 10000 2 360 14:36 27.01.2020
3750 Snow -33 1021 67 10000 2 360 14:18 27.01.2020
3751 Snow -32 1021 67 5000 3 10 13:42 27.01.2020
3752 Snow -32 1020 67 5000 3 360 13:21 27.01.2020
3753 Snow -32 1020 67 5000 3 360 13:21 27.01.2020
3754 Snow -33 1020 74 5000 2 350 12:56 27.01.2020
3755 Snow -33 1020 74 10000 3 360 12:37 27.01.2020
3756 Snow -33 1020 74 10000 3 360 12:19 27.01.2020
3757 Snow -33 1020 74 10000 2 350 11:41 27.01.2020
3758 Snow -33 1020 74 10000 2 350 11:21 27.01.2020
3759 Snow -33 1020 74 10000 2 350 11:21 27.01.2020
3760 Snow -33 1020 67 10000 3 360 10:44 27.01.2020
3761 Snow -33 1020 74 10000 3 360 10:25 27.01.2020
3762 Snow -33 1019 74 10000 3 10 09:58 27.01.2020
3763 Clouds -32 1019 67 10000 4 360 09:39 27.01.2020
3764 Clouds -32 1019 67 10000 4 360 09:18 27.01.2020
3765 Clouds -32 1019 67 10000 4 360 08:46 27.01.2020
3766 Snow -32 1019 74 10000 4 360 08:22 27.01.2020
3767 Snow -31 1018 67 10000 3 350 07:54 27.01.2020
3768 Snow -31 1018 74 10000 3 340 07:35 27.01.2020
3769 Snow -30 1018 67 10000 3 340 06:55 27.01.2020
3770 Snow -30 1018 67 10000 3 20 06:27 27.01.2020
3771 Snow -30 1018 67 10000 3 20 06:27 27.01.2020
3772 Snow -30 1017 74 10000 4 20 05:28 27.01.2020
3773 Snow -30 1017 67 3200 4 30 04:20 27.01.2020
3774 Snow -30 1017 67 5000 4 10 03:23 27.01.2020
3775 Snow -30 1017 67 2400 3 80 01:32 27.01.2020
3776 Snow -30 1017 67 5000 4 80 00:59 27.01.2020
3777 Snow -32 1016 74 3200 3 20 00:38 27.01.2020
3778 Snow -32 1016 74 3200 3 20 00:19 27.01.2020
3779 Snow -33 1017 74 5000 3 360 23:42 26.01.2020
3780 Snow -33 1017 74 5000 3 350 23:20 26.01.2020
3781 Snow -33 1017 74 5000 4 10 22:57 26.01.2020
3782 Snow -34 1017 73 5000 3 360 22:37 26.01.2020
3783 Snow -34 1017 73 5000 3 360 22:18 26.01.2020
3784 Snow -35 1017 73 5000 4 360 21:56 26.01.2020
3785 Snow -35 1017 66 2100 3 350 21:38 26.01.2020
3786 Snow -35 1017 66 2100 3 350 21:19 26.01.2020
3787 Snow -35 1018 66 3200 4 360 20:55 26.01.2020
3788 Mist -35 1018 66 5000 3 360 20:37 26.01.2020
3789 Mist -35 1018 66 5000 3 360 20:18 26.01.2020
3790 Mist -36 1018 66 5000 3 350 19:56 26.01.2020
3791 Mist -36 1019 66 5000 3 350 19:37 26.01.2020
3792 Mist -36 1019 66 5000 3 350 19:18 26.01.2020
3793 Mist -37 1019 65 3500 3 360 18:41 26.01.2020
3794 Mist -37 1019 65 3500 3 360 18:22 26.01.2020
3795 Mist -38 1020 65 2100 3 350 17:59 26.01.2020
3796 Mist -38 1020 65 2100 3 350 17:59 26.01.2020
3797 Mist -39 1019 65 2100 3 360 17:39 26.01.2020
3798 Mist -39 1019 65 2100 3 360 17:20 26.01.2020
3799 Mist -39 1020 58 1500 3 360 16:58 26.01.2020
3800 Mist -40 1020 58 1100 3 350 16:40 26.01.2020
3801 Mist -40 1020 58 1100 3 350 16:21 26.01.2020
3802 Clouds -34 1025 87 0 3.6 97 15:58 26.01.2020
3803 Clouds -34 1025 87 0 3.6 97 15:39 26.01.2020
3804 Clouds -34 1025 87 0 3.6 97 15:19 26.01.2020
3805 Clouds -34 1025 87 0 3.6 97 14:41 26.01.2020
3806 Clear -37 1027 90 0 2.61 100 14:22 26.01.2020
3807 Clear -37 1027 90 0 2.61 100 13:57 26.01.2020
3808 Clear -37 1027 90 0 2.61 100 13:37 26.01.2020
3809 Clear -37 1027 91 0 2.62 99 13:18 26.01.2020
3810 Clear -37 1027 91 0 2.62 99 12:42 26.01.2020
3811 Clear -37 1027 91 0 2.62 99 12:24 26.01.2020
3812 Clear -37 1027 91 0 2.62 99 12:24 26.01.2020
3813 Clear -37 1027 91 0 2.62 99 11:58 26.01.2020
3814 Clear -37 1027 91 0 2.62 99 11:39 26.01.2020
3815 Clear -37 1027 91 0 2.62 99 11:39 26.01.2020
3816 Fog -45 1023 56 700 2 350 11:19 26.01.2020
3817 Fog -45 1023 56 700 2 350 10:58 26.01.2020
3818 Fog -45 1023 56 700 2 350 10:38 26.01.2020
3819 Fog -45 1023 56 700 2 350 10:38 26.01.2020
3820 Fog -45 1023 56 700 2 350 10:20 26.01.2020
3821 Fog -45 1024 56 650 2 340 09:58 26.01.2020
3822 Fog -46 1024 56 700 2 10 09:40 26.01.2020
3823 Fog -46 1024 56 700 2 10 09:21 26.01.2020
3824 Fog -45 1024 56 450 1 360 08:43 26.01.2020
3825 Fog -45 1024 56 450 1 340 08:23 26.01.2020
3826 Fog -45 1024 56 900 1 350 07:57 26.01.2020
3827 Fog -45 1024 56 900 1 360 07:39 26.01.2020
3828 Fog -45 1024 56 900 1 360 07:21 26.01.2020
3829 Fog -45 1024 56 450 1 20 06:31 26.01.2020
3830 Fog -45 1025 56 600 1 330 05:32 26.01.2020
3831 Fog -45 1025 56 600 1 330 05:32 26.01.2020
3832 Fog -46 1025 63 500 1 360 04:45 26.01.2020
3833 Fog -47 1025 49 200 1 20 02:58 26.01.2020
3834 Fog -47 1025 55 150 1 350 01:50 26.01.2020
3835 Fog -47 1026 49 250 1 310 01:25 26.01.2020
3836 Fog -47 1026 55 150 1 310 00:58 26.01.2020
3837 Fog -48 1026 55 150 1 330 00:37 26.01.2020
3838 Fog -48 1026 55 150 1 330 00:19 26.01.2020
3839 Clear -40 1031 97 0 1.16 94 23:37 25.01.2020
3840 Clear -41 1030 97 0 1.13 91 23:18 25.01.2020
3841 Clear -41 1030 97 0 1.13 91 22:40 25.01.2020
3842 Clear -41 1030 97 0 1.13 91 22:19 25.01.2020
3843 Clear -41 1030 97 0 1.13 91 21:57 25.01.2020
3844 Clear -41 1030 97 0 1.13 91 21:38 25.01.2020
3845 Clear -41 1030 97 0 1.13 91 21:20 25.01.2020
3846 Clear -41 1030 97 0 1.13 91 20:44 25.01.2020
3847 Clear -41 1030 97 0 1.13 91 20:25 25.01.2020
3848 Clear -40 1030 97 0 1.43 74 19:56 25.01.2020
3849 Clear -40 1031 97 0 1.43 76 19:37 25.01.2020
3850 Clear -40 1031 97 0 1.43 76 19:18 25.01.2020
3851 Clear -40 1030 97 0 1.43 74 18:43 25.01.2020
3852 Clear -40 1031 97 0 1.43 76 18:23 25.01.2020
3853 Clear -40 1031 97 0 1.43 76 17:59 25.01.2020
3854 Clear -40 1031 97 0 1.43 76 17:39 25.01.2020
3855 Clear -40 1031 97 0 1.38 74 17:19 25.01.2020
3856 Clear -40 1031 97 0 1.38 74 16:56 25.01.2020
3857 Clear -40 1031 97 0 1.37 75 16:36 25.01.2020
3858 Clear -40 1031 97 0 1.37 75 16:18 25.01.2020
3859 Clear -40 1031 97 0 1.37 75 15:42 25.01.2020
3860 Clear -40 1031 97 0 1.37 75 15:23 25.01.2020
3861 Clear -40 1031 97 0 1.37 75 14:44 25.01.2020
3862 Clear -39 1032 97 0 1.59 73 14:19 25.01.2020
3863 Clear -39 1032 97 0 1.59 73 13:56 25.01.2020
3864 Clear -39 1032 97 0 1.59 73 13:38 25.01.2020
3865 Clear -39 1032 97 0 1.61 70 13:18 25.01.2020
3866 Fog -46 1028 56 550 2 340 12:41 25.01.2020
3867 Fog -46 1028 56 550 2 340 12:20 25.01.2020
3868 Fog -46 1028 56 500 2 340 11:40 25.01.2020
3869 Fog -46 1028 56 500 2 340 11:21 25.01.2020
3870 Fog -46 1028 56 500 2 340 11:21 25.01.2020
3871 Fog -46 1028 56 600 2 350 10:56 25.01.2020
3872 Fog -46 1028 56 550 1 350 10:38 25.01.2020
3873 Fog -46 1028 56 550 1 350 10:19 25.01.2020
3874 Fog -45 1028 56 500 1 350 09:40 25.01.2020
3875 Fog -45 1028 56 500 1 350 09:20 25.01.2020
3876 Fog -45 1028 56 600 2 340 08:43 25.01.2020
3877 Fog -45 1028 63 700 1 340 08:20 25.01.2020
3878 Fog -44 1028 57 550 1 330 07:41 25.01.2020
3879 Fog -44 1028 57 800 1 360 06:44 25.01.2020
3880 Fog -44 1028 57 700 1 10 06:24 25.01.2020
3881 Fog -44 1028 57 750 2 10 05:44 25.01.2020
3882 Fog -45 1029 56 800 1 360 04:25 25.01.2020
3883 Fog -45 1029 56 900 2 360 03:50 25.01.2020
3884 Fog -46 1029 56 450 2 340 02:48 25.01.2020
3885 Fog -46 1030 56 200 1 340 01:58 25.01.2020
3886 Fog -46 1030 56 250 1 320 01:35 25.01.2020
3887 Fog -46 1030 56 150 1 330 00:42 25.01.2020
3888 Fog -46 1030 56 150 1 330 00:23 25.01.2020
3889 Fog -46 1030 56 200 1 340 23:56 24.01.2020
3890 Fog -46 1030 56 200 1 330 23:38 24.01.2020
3891 Fog -46 1030 56 200 1 330 23:19 24.01.2020
3892 Fog -46 1030 56 150 1 320 22:42 24.01.2020
3893 Fog -46 1030 63 250 1 350 22:23 24.01.2020
3894 Fog -46 1031 63 250 1 310 21:41 24.01.2020
3895 Fog -46 1031 63 250 1 310 21:20 24.01.2020
3896 Fog -45 1031 56 200 1.02 106 20:55 24.01.2020
3897 Fog -45 1030 56 250 1 330 20:37 24.01.2020
3898 Fog -45 1030 56 250 1 330 20:18 24.01.2020
3899 Fog -45 1031 56 200 1 340 19:55 24.01.2020
3900 Fog -45 1031 56 200 1 350 19:37 24.01.2020
3901 Fog -45 1031 56 200 1 350 19:19 24.01.2020
3902 Fog -45 1031 56 200 1 350 18:42 24.01.2020
3903 Fog -45 1031 56 300 1 340 18:22 24.01.2020
3904 Fog -45 1031 56 200 1 310 17:45 24.01.2020
3905 Fog -45 1031 56 200 1 310 17:45 24.01.2020
3906 Fog -44 1031 57 200 2 350 17:22 24.01.2020
3907 Fog -44 1031 57 250 1 350 16:57 24.01.2020
3908 Fog -44 1031 57 300 1 320 16:38 24.01.2020
3909 Fog -44 1031 57 300 1 320 16:19 24.01.2020
3910 Fog -44 1031 63 300 1 320 15:42 24.01.2020
3911 Fog -44 1031 63 350 1 320 15:21 24.01.2020
3912 Fog -43 1031 57 400 1 310 14:55 24.01.2020
3913 Fog -43 1031 57 400 1 310 14:55 24.01.2020
3914 Fog -43 1031 57 450 0.78 169 14:36 24.01.2020
3915 Fog -43 1031 57 450 0.53 205 14:18 24.01.2020
3916 Fog -41 1031 57 450 1 290 13:41 24.01.2020
3917 Fog -41 1031 57 450 1 290 13:21 24.01.2020
3918 Fog -42 1031 57 400 1 310 12:43 24.01.2020
3919 Fog -41 1031 64 550 1 310 12:21 24.01.2020
3920 Fog -41 1031 64 750 2 300 11:45 24.01.2020
3921 Fog -42 1031 64 800 2 290 11:19 24.01.2020
3922 Fog -42 1031 64 800 2 290 11:19 24.01.2020
3923 Fog -42 1031 64 800 2 290 11:19 24.01.2020
3924 Mist -42 1031 57 1100 1 280 10:58 24.01.2020
3925 Mist -41 1031 64 3200 0.96 237 10:40 24.01.2020
3926 Mist -41 1031 64 3200 0.96 237 10:19 24.01.2020
3927 Mist -40 1031 58 1000 2 140 09:41 24.01.2020
3928 Mist -40 1031 58 1000 2 140 09:23 24.01.2020
3929 Mist -39 1030 65 2000 2 150 08:41 24.01.2020
3930 Mist -39 1030 65 2000 2 150 08:21 24.01.2020
3931 Clouds -36 1030 66 10000 1 150 07:59 24.01.2020
3932 Clouds -34 1030 66 10000 1 170 07:41 24.01.2020
3933 Clouds -34 1030 66 10000 0.86 254 06:55 24.01.2020
3934 Clouds -34 1030 66 10000 1 140 06:35 24.01.2020
3935 Clouds -34 1030 66 10000 1 150 05:59 24.01.2020
3936 Mist -35 1030 66 5000 1 140 05:20 24.01.2020
3937 Mist -37 1029 65 5000 1 260 02:56 24.01.2020
3938 Mist -37 1029 65 5000 1 260 02:38 24.01.2020
3939 Mist -37 1029 65 5000 1 260 02:18 24.01.2020
3940 Clouds -35 1029 66 10000 1 310 01:37 24.01.2020
3941 Clouds -34 1029 66 10000 1 320 00:40 24.01.2020
3942 Clouds -34 1029 66 10000 1 320 00:18 24.01.2020
3943 Clouds -35 1028 66 10000 1 310 23:41 23.01.2020
3944 Clouds -35 1028 66 10000 1 310 23:21 23.01.2020
3945 Clouds -36 1028 66 10000 1 330 22:58 23.01.2020
3946 Clouds -35 1028 66 10000 1 280 22:36 23.01.2020
3947 Clouds -35 1028 66 10000 1 280 22:18 23.01.2020
3948 Clouds -35 1028 66 10000 1 280 21:55 23.01.2020
3949 Clouds -34 1027 73 10000 1 300 21:37 23.01.2020
3950 Clouds -34 1027 73 10000 1 300 21:18 23.01.2020
3951 Clouds -33 1027 67 10000 1 300 20:41 23.01.2020
3952 Clouds -33 1027 67 10000 1 300 20:22 23.01.2020
3953 Clouds -34 1027 73 10000 2 270 19:57 23.01.2020
3954 Clouds -33 1027 74 10000 1 270 19:39 23.01.2020
3955 Clouds -33 1027 74 10000 1 270 19:21 23.01.2020
3956 Clouds -34 1027 66 10000 1 270 18:56 23.01.2020
3957 Clouds -34 1026 66 10000 1 270 18:38 23.01.2020
3958 Clouds -34 1026 66 10000 1 270 18:19 23.01.2020
3959 Clouds -33 1026 74 10000 2 260 17:45 23.01.2020
3960 Snow -34 1026 66 10000 2 230 17:21 23.01.2020
3961 Snow -34 1026 66 10000 2 240 16:59 23.01.2020
3962 Snow -35 1026 66 10000 1 220 16:39 23.01.2020
3963 Snow -35 1026 66 10000 1 220 16:19 23.01.2020
3964 Snow -35 1026 66 10000 1.75 313 15:58 23.01.2020
3965 Snow -35 1025 73 10000 1.75 313 15:38 23.01.2020
3966 Snow -35 1025 73 10000 1.75 313 15:19 23.01.2020
3967 Snow -35 1025 73 10000 1.75 313 14:58 23.01.2020
3968 Snow -34 1025 66 10000 1.75 313 14:40 23.01.2020
3969 Clouds -34 1025 66 10000 1.61 329 14:21 23.01.2020
3970 Clouds -35 1025 73 10000 1 270 13:54 23.01.2020
3971 Clouds -36 1025 73 10000 1 220 13:36 23.01.2020
3972 Clouds -36 1025 73 10000 1 220 13:18 23.01.2020
3973 Clouds -36 1025 66 10000 1 130 12:40 23.01.2020
3974 Clouds -36 1025 66 10000 1 130 12:22 23.01.2020
3975 Clouds -37 1024 65 10000 1.23 326 11:55 23.01.2020
3976 Clouds -36 1024 66 10000 2 220 11:36 23.01.2020
3977 Clouds -36 1024 66 10000 2 220 11:18 23.01.2020
3978 Mist -37 1024 65 5000 1 200 10:41 23.01.2020
3979 Mist -37 1024 65 5000 1 200 10:19 23.01.2020
3980 Mist -36 1023 66 5000 1 150 09:41 23.01.2020
3981 Mist -36 1023 66 5000 1 150 09:23 23.01.2020
3982 Mist -36 1022 66 5000 1 190 08:57 23.01.2020
3983 Mist -36 1022 73 5000 1 180 08:38 23.01.2020
3984 Mist -36 1022 73 5000 1 180 08:20 23.01.2020
3985 Mist -36 1022 66 5000 1 150 07:42 23.01.2020
3986 Mist -36 1021 66 5000 1 160 07:24 23.01.2020
3987 Mist -36 1021 66 5000 1 120 06:46 23.01.2020
3988 Mist -36 1021 66 5000 1 130 06:19 23.01.2020
3989 Clouds -36 1020 66 10000 0.25 352 04:44 23.01.2020
3990 Clouds -36 1020 66 10000 0.25 352 04:21 23.01.2020
3991 Clouds -36 1018 66 10000 1 340 01:58 23.01.2020
3992 Clouds -36 1018 66 10000 1 20 00:47 23.01.2020
3993 Clouds -36 1018 66 10000 2 360 00:26 23.01.2020
3994 Mist -36 1018 66 5000 2 340 23:47 22.01.2020
3995 Mist -36 1018 66 5000 2 340 23:47 22.01.2020
3996 Mist -37 1018 65 5000 2 330 23:28 22.01.2020
3997 Mist -37 1017 65 5000 2 330 22:55 22.01.2020
3998 Mist -37 1017 65 5000 2 360 22:37 22.01.2020
3999 Mist -37 1017 65 5000 2 360 22:19 22.01.2020
4000 Mist -37 1017 73 3200 2 340 21:39 22.01.2020
4001 Mist -37 1017 73 3200 2 340 21:21 22.01.2020
4002 Mist -37 1016 65 3200 3 360 20:56 22.01.2020
4003 Mist -37 1016 65 3200 3 350 20:36 22.01.2020
4004 Mist -37 1016 65 3200 3 350 20:36 22.01.2020
4005 Mist -37 1016 65 3200 3 350 20:18 22.01.2020
4006 Mist -37 1016 65 1800 2 350 19:55 22.01.2020
4007 Mist -38 1016 65 1800 2 340 19:37 22.01.2020
4008 Mist -38 1016 65 1800 2 340 19:37 22.01.2020
4009 Mist -38 1016 65 1800 2 340 19:18 22.01.2020
4010 Mist -38 1016 65 1800 2 350 18:55 22.01.2020
4011 Mist -38 1016 65 1800 2 340 18:36 22.01.2020
4012 Mist -38 1016 65 1800 2 340 18:18 22.01.2020
4013 Mist -38 1016 65 1800 2 340 18:18 22.01.2020
4014 Mist -38 1016 65 1800 2 350 17:39 22.01.2020
4015 Mist -38 1016 65 1800 2 350 17:21 22.01.2020
4016 Mist -39 1016 65 1800 2 350 16:57 22.01.2020
4017 Mist -39 1016 65 1200 2 350 16:39 22.01.2020
4018 Mist -39 1016 65 1200 2 350 16:20 22.01.2020
4019 Fog -39 1016 65 900 2 360 15:55 22.01.2020
4020 Fog -38 1016 65 900 2 340 15:37 22.01.2020
4021 Fog -38 1016 65 900 2 340 15:18 22.01.2020
4022 Fog -39 1016 65 1400 2 330 14:39 22.01.2020
4023 Fog -39 1016 65 1400 2 330 14:20 22.01.2020
4024 Mist -39 1016 65 1600 2 350 13:58 22.01.2020
4025 Mist -39 1016 65 2400 2 340 13:37 22.01.2020
4026 Mist -39 1016 65 2400 2 340 13:37 22.01.2020
4027 Mist -39 1016 65 2400 2 340 13:19 22.01.2020
4028 Mist -38 1016 65 2400 2 340 12:57 22.01.2020
4029 Mist -38 1016 65 2400 2 350 12:38 22.01.2020
4030 Mist -38 1016 65 2400 2 350 12:19 22.01.2020
4031 Mist -38 1016 65 2400 3 340 11:57 22.01.2020
4032 Mist -38 1016 65 2400 3 350 11:39 22.01.2020
4033 Mist -38 1016 65 2400 3 350 11:19 22.01.2020
4034 Mist -38 1016 65 2400 3 350 10:45 22.01.2020
4035 Mist -38 1016 65 2400 3 340 10:21 22.01.2020
4036 Mist -38 1016 65 2400 3 330 09:58 22.01.2020
4037 Mist -38 1016 65 2400 2 340 09:40 22.01.2020
4038 Mist -38 1016 65 2400 2 340 09:21 22.01.2020
4039 Mist -39 1016 65 2400 2 340 08:55 22.01.2020
4040 Mist -39 1016 65 2400 2 340 08:37 22.01.2020
4041 Mist -39 1016 65 2400 2 340 08:19 22.01.2020
4042 Mist -38 1016 65 2000 2 340 07:44 22.01.2020
4043 Mist -38 1016 65 2000 2 330 07:26 22.01.2020
4044 Mist -37 1016 65 1500 1 360 06:34 22.01.2020
4045 Fog -36 1016 66 800 1 117 05:54 22.01.2020
4046 Fog -40 1016 65 350 1 340 04:25 22.01.2020
4047 Fog -40 1016 65 300 1 10 03:26 22.01.2020
4048 Fog -40 1016 65 350 1 330 02:48 22.01.2020
4049 Mist -39 1016 58 3200 1 330 00:47 22.01.2020
4050 Mist -39 1016 65 5000 1 310 00:28 22.01.2020
4051 Mist -38 1016 65 5000 2 300 23:57 21.01.2020
4052 Mist -38 1016 65 5000 2 300 23:57 21.01.2020
4053 Mist -37 1016 65 5000 1 300 23:37 21.01.2020
4054 Mist -37 1016 65 5000 1 300 23:19 21.01.2020
4055 Mist -39 1016 65 5000 1 280 22:40 21.01.2020
4056 Mist -39 1016 65 5000 1 280 22:40 21.01.2020
4057 Mist -39 1016 65 5000 1 280 22:21 21.01.2020
4058 Mist -37 1016 65 5000 0.99 245 21:58 21.01.2020
4059 Clouds -38 1016 73 10000 0.99 245 21:39 21.01.2020
4060 Clouds -38 1016 73 10000 0.99 245 21:20 21.01.2020
4061 Clouds -36 1016 66 10000 1 170 20:57 21.01.2020
4062 Clouds -36 1016 66 10000 1 170 20:57 21.01.2020
4063 Clouds -35 1015 66 10000 1 140 20:38 21.01.2020
4064 Snow -35 1015 66 10000 1 140 20:20 21.01.2020
4065 Clouds -34 1015 66 10000 1 160 19:57 21.01.2020
4066 Snow -33 1016 67 10000 1 140 19:39 21.01.2020
4067 Snow -33 1016 67 10000 1 140 19:20 21.01.2020
4068 Snow -33 1016 67 10000 1 130 18:55 21.01.2020
4069 Snow -33 1016 67 10000 1 150 18:37 21.01.2020
4070 Snow -33 1016 67 10000 1 150 18:19 21.01.2020
4071 Snow -33 1015 67 10000 1 150 17:45 21.01.2020
4072 Snow -33 1015 74 5000 1 130 17:20 21.01.2020
4073 Snow -32 1015 67 5000 1 110 16:59 21.01.2020
4074 Snow -32 1015 67 3200 0.6 163 16:37 21.01.2020
4075 Snow -32 1015 67 3200 0.6 163 16:19 21.01.2020
4076 Snow -33 1015 74 3200 0.6 163 15:56 21.01.2020
4077 Clouds -33 1015 74 10000 0.6 163 15:37 21.01.2020
4078 Clouds -33 1015 74 10000 0.6 163 15:18 21.01.2020
4079 Snow -33 1014 67 10000 0.6 163 14:38 21.01.2020
4080 Snow -33 1014 67 10000 0.56 216 14:20 21.01.2020
4081 Snow -33 1014 74 10000 2 30 13:41 21.01.2020
4082 Snow -33 1014 74 10000 2 30 13:19 21.01.2020
4083 Snow -32 1014 74 10000 1 50 12:56 21.01.2020
4084 Snow -32 1014 74 10000 1 30 12:38 21.01.2020
4085 Snow -32 1014 74 10000 1 30 12:19 21.01.2020
4086 Snow -32 1014 74 10000 2 30 11:40 21.01.2020
4087 Snow -32 1014 74 10000 2 30 11:21 21.01.2020
4088 Snow -32 1014 74 10000 2 360 10:59 21.01.2020
4089 Snow -32 1014 74 10000 1 350 10:40 21.01.2020
4090 Snow -32 1014 74 10000 1 350 10:21 21.01.2020
4091 Snow -32 1013 67 10000 1 340 09:42 21.01.2020
4092 Clouds -33 1013 74 10000 2 350 09:23 21.01.2020
4093 Clouds -33 1013 67 10000 2 350 08:54 21.01.2020
4094 Clouds -33 1013 67 10000 2 10 08:36 21.01.2020
4095 Clouds -33 1013 67 10000 2 10 08:18 21.01.2020
4096 Clouds -34 1013 73 10000 2 10 07:41 21.01.2020
4097 Clouds -34 1013 73 10000 2 10 07:22 21.01.2020
4098 Clouds -34 1013 66 10000 3 10 06:49 21.01.2020
4099 Clouds -35 1013 66 10000 2 360 06:29 21.01.2020
4100 Clear -35 1013 66 10000 2 10 05:43 21.01.2020
4101 Snow -35 1013 66 5000 2 350 04:40 21.01.2020
4102 Snow -35 1013 66 3200 2 360 02:57 21.01.2020
4103 Mist -36 1013 73 3200 2 360 01:56 21.01.2020
4104 Mist -36 1013 66 3200 2 360 01:26 21.01.2020
4105 Snow -37 1013 73 2100 1 10 00:37 21.01.2020
4106 Snow -37 1013 65 3200 2 10 23:59 20.01.2020
4107 Snow -37 1013 65 3200 2 20 23:41 20.01.2020
4108 Snow -37 1013 65 3200 2 20 23:19 20.01.2020
4109 Snow -37 1013 65 2100 1 40 22:58 20.01.2020
4110 Snow -37 1013 65 2100 1 30 22:38 20.01.2020
4111 Snow -37 1013 65 2100 1 30 22:20 20.01.2020
4112 Snow -37 1013 65 2100 1 30 22:20 20.01.2020
4113 Snow -37 1013 65 1400 1 20 21:58 20.01.2020
4114 Mist -38 1013 65 1300 1 10 21:37 20.01.2020
4115 Mist -38 1013 65 1300 1 10 21:19 20.01.2020
4116 Mist -38 1013 65 1300 0.73 110 20:56 20.01.2020
4117 Mist -39 1013 65 1100 0.73 110 20:38 20.01.2020
4118 Mist -39 1013 65 1100 0.26 163 20:18 20.01.2020
4119 Mist -39 1013 65 1300 1 60 19:56 20.01.2020
4120 Mist -39 1013 65 1200 1 60 19:38 20.01.2020
4121 Mist -39 1013 65 1200 1 60 19:18 20.01.2020
4122 Mist -39 1013 65 1000 0.26 163 18:44 20.01.2020
4123 Clouds -38 1013 65 10000 0.26 163 18:22 20.01.2020
4124 Clouds -36 1014 66 10000 0.26 163 17:42 20.01.2020
4125 Clouds -36 1014 66 10000 0.28 319 17:20 20.01.2020
4126 Clouds -37 1014 73 10000 1 300 16:59 20.01.2020
4127 Clouds -36 1014 66 10000 0.28 319 16:39 20.01.2020
4128 Clouds -36 1014 66 10000 0.28 319 16:19 20.01.2020
4129 Clouds -37 1014 73 10000 1 320 15:57 20.01.2020
4130 Clouds -36 1014 66 10000 0.28 319 15:39 20.01.2020
4131 Clouds -36 1014 66 10000 0.28 319 15:20 20.01.2020
4132 Clouds -38 1014 65 10000 1 320 14:41 20.01.2020
4133 Clouds -38 1014 65 10000 1 320 14:23 20.01.2020
4134 Clouds -38 1014 65 10000 0.79 323 13:58 20.01.2020
4135 Clouds -38 1014 65 10000 1 300 13:40 20.01.2020
4136 Clouds -38 1014 65 10000 1 300 13:22 20.01.2020
4137 Clouds -38 1014 65 10000 1 310 12:47 20.01.2020
4138 Clouds -37 1014 65 10000 1 290 12:28 20.01.2020
4139 Clouds -36 1014 73 10000 2 300 11:59 20.01.2020
4140 Clouds -37 1014 65 10000 1 300 11:40 20.01.2020
4141 Clouds -37 1014 65 10000 1 300 11:21 20.01.2020
4142 Clouds -37 1014 65 10000 1 220 10:55 20.01.2020
4143 Clouds -37 1014 65 10000 1 200 10:37 20.01.2020
4144 Clouds -37 1014 65 10000 1 200 10:18 20.01.2020
4145 Clouds -35 1014 66 10000 0.56 350 09:40 20.01.2020
4146 Clouds -35 1014 66 10000 0.56 350 09:20 20.01.2020
4147 Clouds -34 1013 66 10000 1 160 08:46 20.01.2020
4148 Clouds -34 1013 73 10000 0.56 350 08:28 20.01.2020
4149 Clouds -32 1013 67 10000 1 280 07:45 20.01.2020
4150 Clouds -32 1013 67 10000 1.13 357 07:25 20.01.2020
4151 Clouds -31 1013 67 10000 1 220 06:54 20.01.2020
4152 Clouds -32 1013 74 10000 1 170 06:28 20.01.2020
4153 Clouds -30 1013 67 10000 1 260 05:43 20.01.2020
4154 Clouds -30 1013 67 10000 1 260 05:43 20.01.2020
4155 Clouds -31 1013 74 10000 1 260 05:22 20.01.2020
4156 Clouds -31 1013 67 10000 2 290 04:47 20.01.2020
4157 Clouds -33 1013 67 10000 1 350 02:58 20.01.2020
4158 Snow -33 1012 67 10000 0.37 3 01:57 20.01.2020
4159 Snow -34 1012 73 10000 0.37 3 01:37 20.01.2020
4160 Snow -33 1012 67 10000 0.36 354 00:45 20.01.2020
4161 Snow -33 1012 74 10000 0.36 354 00:25 20.01.2020
4162 Snow -34 1012 66 10000 0.36 354 23:40 19.01.2020
4163 Clouds -34 1012 66 10000 0.84 317 23:20 19.01.2020
4164 Clouds -34 1012 66 10000 0.84 317 22:57 19.01.2020
4165 Clouds -33 1012 67 10000 1 330 22:39 19.01.2020
4166 Clouds -33 1012 67 10000 1 330 22:21 19.01.2020
4167 Clouds -34 1011 66 10000 1 320 21:57 19.01.2020
4168 Clouds -34 1011 73 10000 1 320 21:39 19.01.2020
4169 Clouds -34 1011 73 10000 1 320 21:20 19.01.2020
4170 Clouds -33 1011 67 10000 1 360 20:57 19.01.2020
4171 Clouds -33 1011 67 10000 1 320 20:39 19.01.2020
4172 Clouds -33 1011 67 10000 1 320 20:21 19.01.2020
4173 -273 0 0 0 0 0 19:57 19.01.2020
4174 Snow -33 1011 74 10000 1 330 19:39 19.01.2020
4175 Snow -33 1011 74 10000 1 330 19:21 19.01.2020
4176 Snow -33 1011 74 10000 1 10 18:59 19.01.2020
4177 -273 0 0 0 0 0 18:41 19.01.2020
4178 Snow -32 1011 67 10000 1 10 18:21 19.01.2020
4179 Snow -32 1011 67 10000 2 350 17:59 19.01.2020
4180 Snow -32 1011 67 10000 2 340 17:40 19.01.2020
4181 Snow -32 1011 67 10000 2 340 17:22 19.01.2020
4182 Snow -33 1011 74 10000 1 330 17:00 19.01.2020
4183 Snow -33 1011 74 10000 1 350 16:40 19.01.2020
4184 Snow -33 1011 74 10000 1 350 16:40 19.01.2020
4185 Snow -33 1011 74 10000 1 350 16:22 19.01.2020
4186 Snow -33 1011 74 10000 1 20 15:59 19.01.2020
4187 Snow -33 1011 74 10000 2 10 15:40 19.01.2020
4188 Snow -33 1011 74 10000 2 10 15:21 19.01.2020
4189 Snow -32 1011 74 10000 1 350 14:59 19.01.2020
4190 Snow -33 1012 74 10000 1 320 14:39 19.01.2020
4191 Snow -33 1012 74 10000 1 320 14:19 19.01.2020
4192 Snow -34 1012 73 10000 1 350 13:58 19.01.2020
4193 Clouds -33 1012 67 10000 1 360 13:38 19.01.2020
4194 Clouds -33 1012 67 10000 1 360 13:38 19.01.2020
4195 Clouds -33 1012 67 10000 1 360 13:20 19.01.2020
4196 Clouds -34 1011 73 10000 1 360 12:56 19.01.2020
4197 Clouds -34 1012 66 10000 1 340 12:37 19.01.2020
4198 Clouds -34 1012 66 10000 1 340 12:19 19.01.2020
4199 Clouds -34 1012 66 10000 2 330 11:56 19.01.2020
4200 Clouds -34 1012 66 10000 2 330 11:37 19.01.2020
4201 Clouds -34 1012 66 10000 2 330 11:18 19.01.2020
4202 Clouds -34 1012 73 10000 2 330 10:39 19.01.2020
4203 Clouds -34 1012 73 10000 2 330 10:19 19.01.2020
4204 Clouds -34 1012 66 10000 2 330 09:56 19.01.2020
4205 Snow -34 1012 66 10000 2 330 09:38 19.01.2020
4206 Snow -34 1012 66 10000 2 330 09:19 19.01.2020
4207 Snow -34 1012 66 10000 2 350 08:54 19.01.2020
4208 Snow -34 1012 66 10000 3 350 08:31 19.01.2020
4209 Snow -34 1012 66 10000 2 350 07:49 19.01.2020
4210 Snow -34 1012 66 10000 2 340 07:28 19.01.2020
4211 Snow -34 1012 66 10000 2 360 06:54 19.01.2020
4212 Snow -34 1012 73 10000 3 360 06:21 19.01.2020
4213 Snow -35 1012 66 10000 2 20 03:52 19.01.2020
4214 Snow -35 1013 66 10000 3 10 02:32 19.01.2020
4215 Snow -35 1013 66 10000 2 360 01:39 19.01.2020
4216 Snow -35 1013 66 10000 2 360 01:18 19.01.2020
4217 Snow -36 1013 73 10000 2 360 00:44 19.01.2020
4218 Snow -36 1013 66 10000 3 10 00:19 19.01.2020
4219 Snow -36 1013 66 10000 3 10 23:45 18.01.2020
4220 Snow -36 1013 66 10000 4 10 23:25 18.01.2020
4221 Snow -36 1013 66 10000 2 360 22:58 18.01.2020
4222 Snow -36 1013 66 10000 1 20 22:40 18.01.2020
4223 Snow -36 1013 66 10000 1 20 22:21 18.01.2020
4224 Snow -37 1013 73 10000 3 10 21:58 18.01.2020
4225 Snow -36 1013 66 10000 2 20 21:38 18.01.2020
4226 Snow -36 1013 66 10000 2 20 21:20 18.01.2020
4227 Snow -36 1013 66 10000 3 10 20:55 18.01.2020
4228 Snow -35 1013 66 10000 3 20 20:36 18.01.2020
4229 Snow -35 1013 66 10000 3 20 20:18 18.01.2020
4230 Snow -35 1013 66 10000 3 20 19:42 18.01.2020
4231 Snow -35 1013 73 10000 2 20 19:24 18.01.2020
4232 Snow -34 1013 66 10000 2 40 18:43 18.01.2020
4233 Snow -34 1013 66 10000 3 10 18:24 18.01.2020
4234 Snow -34 1013 73 10000 3 20 17:58 18.01.2020
4235 Snow -34 1013 73 10000 4 20 17:40 18.01.2020
4236 Snow -34 1013 73 10000 4 20 17:20 18.01.2020
4237 Snow -33 1013 67 10000 3 10 16:56 18.01.2020
4238 Snow -33 1013 67 10000 4 10 16:37 18.01.2020
4239 Snow -33 1013 67 10000 4 10 16:19 18.01.2020
4240 Snow -34 1013 73 10000 2 10 15:44 18.01.2020
4241 Snow -34 1013 73 10000 2 360 15:25 18.01.2020
4242 Snow -34 1013 66 10000 2 360 14:59 18.01.2020
4243 Snow -34 1013 66 10000 2 350 14:40 18.01.2020
4244 Snow -34 1013 66 10000 2 350 14:19 18.01.2020
4245 Snow -35 1013 73 10000 2 350 13:55 18.01.2020
4246 Snow -35 1013 73 10000 1 360 13:36 18.01.2020
4247 Snow -35 1013 73 10000 1 360 13:18 18.01.2020
4248 Snow -35 1013 66 10000 1 350 12:40 18.01.2020
4249 Snow -35 1013 66 10000 1 350 12:21 18.01.2020
4250 Snow -35 1013 66 10000 2 340 11:45 18.01.2020
4251 Snow -36 1013 73 10000 1 340 11:24 18.01.2020
4252 Snow -36 1013 73 10000 2 360 10:58 18.01.2020
4253 Snow -36 1013 66 10000 2 330 10:39 18.01.2020
4254 Snow -36 1013 66 10000 2 330 10:20 18.01.2020
4255 Snow -36 1013 66 10000 2 350 09:49 18.01.2020
4256 Snow -36 1013 66 5000 2 350 09:31 18.01.2020
4257 Snow -36 1013 66 5000 2 350 08:58 18.01.2020
4258 Snow -37 1013 73 5000 2 350 08:39 18.01.2020
4259 Snow -37 1013 73 5000 2 350 08:19 18.01.2020
4260 Snow -37 1013 65 5000 2 350 07:52 18.01.2020
4261 Snow -37 1013 65 3200 3 360 07:32 18.01.2020
4262 Snow -37 1013 65 3200 3 360 06:48 18.01.2020
4263 Snow -36 1013 66 3200 2 360 06:18 18.01.2020
4264 Snow -37 1013 65 3200 2 360 05:25 18.01.2020
4265 Snow -38 1013 65 2000 2 360 03:25 18.01.2020
4266 Snow -39 1013 58 2000 1 350 01:59 18.01.2020
4267 Snow -39 1013 65 2100 2 350 01:35 18.01.2020
4268 Snow -39 1013 65 1300 2 350 00:37 18.01.2020
4269 Snow -39 1013 65 1300 2 350 00:19 18.01.2020
4270 Snow -39 1013 58 2400 2 350 23:44 17.01.2020
4271 Snow -39 1013 65 3200 3 360 23:20 17.01.2020
4272 Mist -39 1013 65 3200 2 350 22:59 17.01.2020
4273 Mist -39 1013 58 3200 3 10 22:40 17.01.2020
4274 Mist -39 1013 58 3200 3 10 22:18 17.01.2020
4275 Fog -39 1013 58 600 2 350 21:41 17.01.2020
4276 Fog -39 1013 58 600 2 350 21:22 17.01.2020
4277 Fog -39 1013 65 1400 2 350 20:58 17.01.2020
4278 Fog -39 1013 65 1500 1 10 20:40 17.01.2020
4279 Fog -39 1013 65 1500 1 10 20:20 17.01.2020
4280 Fog -39 1013 58 1100 2 10 19:56 17.01.2020
4281 Fog -39 1013 58 1200 2 360 19:37 17.01.2020
4282 Fog -39 1013 58 1200 2 360 19:19 17.01.2020
4283 Fog -39 1013 65 1100 2 340 18:56 17.01.2020
4284 Fog -39 1013 65 1100 2 340 18:56 17.01.2020
4285 Fog -39 1013 58 900 2 340 18:36 17.01.2020
4286 Fog -39 1013 58 900 2 340 18:18 17.01.2020
4287 Fog -39 1013 58 900 2 340 17:39 17.01.2020
4288 Fog -39 1013 58 900 2 340 17:20 17.01.2020
4289 -273 0 0 0 0 0 16:44 17.01.2020
4290 Fog -39 1013 65 700 2 350 16:21 17.01.2020
4291 Fog -39 1013 65 700 2 350 16:21 17.01.2020
4292 Fog -38 1013 65 600 2 350 15:58 17.01.2020
4293 Fog -38 1013 65 600 2 350 15:58 17.01.2020
4294 Fog -40 1013 65 400 1 340 15:39 17.01.2020
4295 Fog -40 1013 65 400 1 340 15:20 17.01.2020
4296 Fog -40 1013 65 350 2 330 14:43 17.01.2020
4297 Fog -40 1013 65 450 1 350 14:24 17.01.2020
4298 Fog -39 1013 65 450 2 340 13:43 17.01.2020
4299 Fog -39 1013 65 650 2 320 13:23 17.01.2020
4300 Fog -39 1013 65 900 1 330 12:47 17.01.2020
4301 Fog -39 1013 65 1000 2 320 12:23 17.01.2020
4302 Mist -39 1013 65 1000 1 330 11:43 17.01.2020
4303 Mist -38 1013 65 1500 2 340 11:20 17.01.2020
4304 Mist -38 1013 65 1500 2 340 11:20 17.01.2020
4305 Mist -39 1013 72 3200 3 340 10:58 17.01.2020
4306 Mist -39 1012 65 5000 1 30 10:40 17.01.2020
4307 Mist -39 1012 65 5000 1 30 10:21 17.01.2020
4308 Mist -38 1013 65 5000 1 70 09:56 17.01.2020
4309 Clouds -38 1012 65 10000 1.09 45 09:37 17.01.2020
4310 Clouds -38 1012 65 10000 1.09 45 09:18 17.01.2020
4311 Clouds -37 1012 65 10000 1 350 08:42 17.01.2020
4312 Clouds -37 1012 65 10000 1 300 08:23 17.01.2020
4313 Clouds -36 1012 66 10000 1 340 07:49 17.01.2020
4314 Clouds -36 1012 73 10000 1 350 07:30 17.01.2020
4315 Clouds -35 1012 66 10000 1.12 27 06:56 17.01.2020
4316 Clouds -35 1012 66 10000 1 350 06:37 17.01.2020
4317 Mist -35 1012 66 5000 1 20 05:27 17.01.2020
4318 Clouds -26 1014 98 0 1.03 17 03:38 17.01.2020
4319 Clouds -26 1014 98 0 1.03 17 02:44 17.01.2020
4320 Snow -26 1014 98 0 1.2 14 01:46 17.01.2020
4321 Clouds -26 1014 98 0 1.26 18 01:27 17.01.2020
4322 Clouds -26 1014 98 0 1.26 18 00:43 17.01.2020
4323 Snow -36 1012 73 10000 1 350 00:20 17.01.2020
4324 Snow -36 1012 73 10000 1 350 23:42 16.01.2020
4325 Snow -36 1012 73 10000 1 350 23:24 16.01.2020
4326 Snow -35 1011 66 10000 1 350 22:43 16.01.2020
4327 Snow -35 1011 73 10000 1 330 22:22 16.01.2020
4328 Snow -35 1011 73 10000 1 330 21:57 16.01.2020
4329 Snow -35 1011 73 10000 1 360 21:39 16.01.2020
4330 Snow -35 1011 73 10000 1 360 21:19 16.01.2020
4331 Snow -35 1011 73 10000 1 350 20:58 16.01.2020
4332 Snow -35 1011 66 10000 1.14 43 20:39 16.01.2020
4333 Snow -35 1011 66 10000 1.38 30 20:20 16.01.2020
4334 Snow -35 1011 66 10000 1 30 19:56 16.01.2020
4335 Snow -35 1011 66 10000 1 30 19:56 16.01.2020
4336 Snow -35 1011 73 10000 1 30 19:38 16.01.2020
4337 Snow -35 1011 73 10000 1 30 19:38 16.01.2020
4338 Snow -35 1011 73 10000 1 30 19:20 16.01.2020
4339 Snow -35 1011 73 10000 1 360 18:55 16.01.2020
4340 Snow -35 1011 66 10000 2 10 18:37 16.01.2020
4341 Snow -35 1011 66 10000 2 10 18:37 16.01.2020
4342 Snow -35 1011 66 10000 2 10 18:18 16.01.2020
4343 Snow -35 1011 66 10000 1 20 17:42 16.01.2020
4344 Snow -36 1011 73 10000 1 10 17:23 16.01.2020
4345 Snow -35 1011 73 10000 2 40 16:57 16.01.2020
4346 Snow -34 1011 66 10000 1 20 16:39 16.01.2020
4347 Snow -34 1011 66 10000 1 20 16:20 16.01.2020
4348 Snow -35 1011 73 10000 1 330 15:44 16.01.2020
4349 Snow -35 1011 73 10000 1 330 15:44 16.01.2020
4350 Snow -34 1011 66 10000 1 320 15:24 16.01.2020
4351 Snow -34 1011 66 10000 1 320 15:24 16.01.2020
4352 Snow -34 1011 66 10000 2 10 14:59 16.01.2020
4353 Snow -34 1011 66 10000 2 10 14:41 16.01.2020
4354 Snow -34 1011 66 10000 2 10 14:22 16.01.2020
4355 Snow -33 1011 67 10000 2 10 13:45 16.01.2020
4356 Snow -32 1011 67 10000 2 20 13:26 16.01.2020
4357 Snow -32 1011 74 10000 2 10 12:57 16.01.2020
4358 Snow -31 1011 74 10000 2 360 12:38 16.01.2020
4359 Snow -31 1011 74 10000 2 360 12:20 16.01.2020
4360 Snow -31 1011 74 10000 3 350 11:41 16.01.2020
4361 Snow -31 1011 74 10000 3 350 11:41 16.01.2020
4362 Snow -31 1011 74 10000 3 350 11:23 16.01.2020
4363 Snow -31 1012 74 10000 2 350 10:55 16.01.2020
4364 Snow -30 1012 67 10000 3 350 10:37 16.01.2020
4365 Snow -30 1012 67 10000 3 350 10:19 16.01.2020
4366 Snow -30 1012 74 10000 3 350 09:43 16.01.2020
4367 Snow -30 1012 74 10000 2 350 09:24 16.01.2020
4368 Snow -30 1012 74 10000 3 350 08:58 16.01.2020
4369 Snow -30 1012 74 10000 2 350 08:40 16.01.2020
4370 Snow -30 1012 74 10000 2 350 08:19 16.01.2020
4371 Snow -30 1012 74 3200 2 350 07:42 16.01.2020
4372 Clouds -30 1012 74 10000 2 360 07:23 16.01.2020
4373 Snow -30 1012 74 10000 1 10 06:52 16.01.2020
4374 Snow -30 1012 74 10000 1 310 06:34 16.01.2020
4375 Snow -31 1012 74 10000 1 350 05:49 16.01.2020
4376 Snow -31 1012 74 10000 1 10 04:50 16.01.2020
4377 Snow -31 1013 74 10000 1 350 03:57 16.01.2020
4378 Snow -31 1014 67 5000 1 20 02:47 16.01.2020
4379 Snow -32 1014 74 10000 1 20 01:34 16.01.2020
4380 Snow -32 1014 67 5000 0.81 248 00:43 16.01.2020
4381 Snow -32 1014 67 3200 1 20 00:23 16.01.2020
4382 Snow -32 1015 67 10000 1 40 23:44 15.01.2020
4383 Snow -32 1015 74 10000 1 340 23:22 15.01.2020
4384 Snow -33 1015 74 10000 1 250 22:56 15.01.2020
4385 Snow -33 1015 74 10000 1 250 22:38 15.01.2020
4386 Snow -33 1015 74 10000 1 250 22:18 15.01.2020
4387 Snow -33 1015 74 10000 1 20 21:56 15.01.2020
4388 Snow -33 1015 74 10000 1 20 21:56 15.01.2020
4389 Snow -33 1016 74 10000 1 250 21:37 15.01.2020
4390 Snow -33 1016 74 10000 1 250 21:18 15.01.2020
4391 Snow -33 1016 74 10000 1 10 20:55 15.01.2020
4392 Snow -33 1016 67 10000 1 340 20:37 15.01.2020
4393 Snow -33 1016 67 10000 1 340 20:18 15.01.2020
4394 Snow -34 1017 73 10000 2 20 19:54 15.01.2020
4395 Snow -34 1016 73 10000 1 80 19:36 15.01.2020
4396 Snow -34 1016 73 10000 1 80 19:18 15.01.2020
4397 Clouds -34 1017 73 10000 0.42 217 18:55 15.01.2020
4398 Clouds -34 1017 66 10000 0.42 217 18:37 15.01.2020
4399 Clouds -34 1017 66 10000 0.42 217 18:19 15.01.2020
4400 Clouds -35 1017 73 10000 0.42 217 17:41 15.01.2020
4401 Clouds -35 1017 73 10000 0.3 269 17:22 15.01.2020
4402 Clouds -35 1017 66 10000 1 30 16:57 15.01.2020
4403 Clouds -35 1017 66 10000 0.3 269 16:38 15.01.2020
4404 Clouds -35 1017 66 10000 0.3 269 16:20 15.01.2020
4405 Clouds -35 1017 66 10000 0.3 269 16:20 15.01.2020
4406 Clouds -35 1017 66 10000 0.3 269 16:20 15.01.2020
4407 Clouds -35 1017 66 10000 0.3 269 16:20 15.01.2020
4408 Clouds -36 1017 73 10000 0.3 269 15:43 15.01.2020
4409 Clouds -37 1018 65 10000 0.3 269 15:21 15.01.2020
4410 Clouds -36 1018 66 10000 0.3 269 14:57 15.01.2020
4411 Clouds -36 1018 66 10000 0.3 269 14:39 15.01.2020
4412 Snow -36 1018 66 10000 0.41 94 14:18 15.01.2020
4413 Snow -36 1018 66 10000 0.41 94 13:44 15.01.2020
4414 Snow -36 1018 66 10000 0.47 99 13:24 15.01.2020
4415 Snow -36 1018 73 10000 1 50 12:57 15.01.2020
4416 Snow -35 1018 66 10000 0.47 99 12:39 15.01.2020
4417 Snow -35 1018 66 10000 0.47 99 12:19 15.01.2020
4418 Snow -35 1019 66 10000 0.47 99 11:56 15.01.2020
4419 Snow -35 1019 66 10000 0.47 99 11:36 15.01.2020
4420 Clouds -35 1019 66 10000 0.54 23 11:18 15.01.2020
4421 Clouds -34 1019 66 10000 0.54 23 10:41 15.01.2020
4422 Clouds -34 1019 66 10000 0.54 23 10:23 15.01.2020
4423 Clouds -34 1019 66 10000 1 350 09:42 15.01.2020
4424 Clouds -34 1019 66 10000 1 350 09:22 15.01.2020
4425 Clouds -34 1019 66 10000 1 350 08:55 15.01.2020
4426 Clouds -35 1019 73 10000 1 40 08:37 15.01.2020
4427 Clouds -35 1019 73 10000 1 40 08:19 15.01.2020
4428 Clouds -34 1019 66 10000 0.36 91 07:43 15.01.2020
4429 Clouds -34 1019 73 10000 1 90 07:24 15.01.2020
4430 Clouds -33 1019 67 10000 1 90 06:44 15.01.2020
4431 Clouds -33 1019 67 10000 1 40 05:57 15.01.2020
4432 Snow -34 1020 73 10000 1 70 04:34 15.01.2020
4433 Snow -34 1020 66 10000 1 10 02:30 15.01.2020
4434 Clouds -35 1021 73 10000 1 350 01:25 15.01.2020
4435 Clouds -35 1021 66 10000 1 310 00:45 15.01.2020
4436 Clouds -35 1021 66 10000 1 330 00:26 15.01.2020
4437 Clouds -36 1021 73 10000 1 350 23:47 14.01.2020
4438 Clouds -36 1021 73 10000 1 350 23:29 14.01.2020
4439 Clouds -35 1021 66 10000 2 350 22:59 14.01.2020
4440 Snow -35 1021 66 10000 1 360 22:40 14.01.2020
4441 Snow -35 1021 66 10000 1 360 22:19 14.01.2020
4442 Snow -35 1021 66 10000 1 350 21:58 14.01.2020
4443 Snow -35 1021 66 10000 1 300 21:39 14.01.2020
4444 Snow -35 1021 66 10000 1 300 21:20 14.01.2020
4445 Clouds -36 1021 73 10000 1 310 20:57 14.01.2020
4446 Snow -36 1022 66 10000 1 350 20:39 14.01.2020
4447 Snow -36 1022 66 10000 1 350 20:19 14.01.2020
4448 Snow -36 1022 66 10000 1 350 19:55 14.01.2020
4449 Snow -36 1021 73 10000 1 30 19:37 14.01.2020
4450 Snow -36 1021 73 10000 1 30 19:18 14.01.2020
4451 Snow -35 1021 66 10000 1.38 34 18:41 14.01.2020
4452 Snow -35 1021 66 10000 1.38 34 18:20 14.01.2020
4453 Snow -35 1021 66 10000 1.38 34 17:59 14.01.2020
4454 Clouds -35 1021 66 10000 1.38 34 17:37 14.01.2020
4455 Clouds -35 1021 66 10000 1.14 30 17:18 14.01.2020
4456 Clouds -35 1021 66 10000 1.14 30 17:18 14.01.2020
4457 Snow -35 1022 66 10000 1 320 16:54 14.01.2020
4458 Snow -35 1022 73 10000 1 340 16:36 14.01.2020
4459 Snow -35 1022 73 10000 1 340 16:18 14.01.2020
4460 Clouds -35 1022 73 10000 2 350 15:42 14.01.2020
4461 Clouds -35 1022 73 10000 2 350 15:19 14.01.2020
4462 Clouds -35 1022 66 10000 2 360 14:46 14.01.2020
4463 Clouds -36 1022 73 10000 1 340 14:23 14.01.2020
4464 Clouds -36 1022 73 10000 1 340 13:58 14.01.2020
4465 Clouds -35 1022 66 10000 1 320 13:39 14.01.2020
4466 Clouds -35 1022 66 10000 1 320 13:19 14.01.2020
4467 Clouds -35 1022 66 10000 1 320 13:19 14.01.2020
4468 Clouds -36 1021 73 10000 1 350 12:42 14.01.2020
4469 Clouds -36 1021 73 10000 1 350 12:23 14.01.2020
4470 Clouds -36 1021 66 10000 1 360 11:57 14.01.2020
4471 Clouds -35 1021 66 10000 2 350 11:38 14.01.2020
4472 Clouds -35 1021 66 10000 2 350 11:20 14.01.2020
4473 Clouds -35 1021 73 10000 1 360 10:55 14.01.2020
4474 Clouds -34 1021 66 10000 2 330 10:36 14.01.2020
4475 Clouds -34 1021 66 10000 2 330 10:18 14.01.2020
4476 Clouds -34 1021 66 10000 2 330 10:18 14.01.2020
4477 Clouds -34 1021 66 10000 2 350 09:42 14.01.2020
4478 Clouds -34 1021 66 10000 2 360 09:21 14.01.2020
4479 Clouds -34 1021 73 10000 2 10 08:57 14.01.2020
4480 Clouds -33 1021 67 10000 1 360 08:39 14.01.2020
4481 Snow -33 1021 67 10000 1 360 08:20 14.01.2020
4482 Snow -33 1020 74 10000 2 330 07:38 14.01.2020
4483 Snow -32 1020 74 10000 1 340 06:59 14.01.2020
4484 Snow -32 1020 74 10000 2 10 06:40 14.01.2020
4485 Snow -32 1020 74 10000 2 20 05:35 14.01.2020
4486 Clouds -32 1020 74 10000 2 30 04:23 14.01.2020
4487 Snow -32 1020 74 10000 2 20 03:43 14.01.2020
4488 Snow -31 1020 67 10000 2 10 02:30 14.01.2020
4489 Snow -32 1020 74 10000 1 10 01:18 14.01.2020
4490 Snow -31 1019 74 10000 2 20 00:42 14.01.2020
4491 Snow -31 1019 74 10000 2 20 00:21 14.01.2020
4492 Snow -31 1019 74 10000 2 360 23:38 13.01.2020
4493 Snow -31 1019 74 10000 2 360 23:18 13.01.2020
4494 Snow -31 1019 74 3200 2 10 22:55 13.01.2020
4495 Snow -31 1019 74 10000 2 10 22:37 13.01.2020
4496 Snow -31 1019 74 10000 2 10 22:19 13.01.2020
4497 Snow -31 1019 74 10000 2 360 21:54 13.01.2020
4498 Snow -31 1019 74 10000 1 340 21:36 13.01.2020
4499 Snow -31 1019 74 10000 1 340 21:18 13.01.2020
4500 Snow -31 1019 67 10000 2 350 20:42 13.01.2020
4501 Snow -31 1019 67 10000 2 350 20:23 13.01.2020
4502 Snow -32 1019 74 10000 2 340 19:59 13.01.2020
4503 Snow -32 1019 67 10000 2 340 19:41 13.01.2020
4504 Snow -32 1019 67 10000 2 340 19:20 13.01.2020
4505 Snow -33 1019 74 10000 1 340 18:58 13.01.2020
4506 Snow -33 1019 74 10000 1 340 18:58 13.01.2020
4507 Snow -32 1019 67 10000 2 350 18:38 13.01.2020
4508 Snow -32 1019 67 10000 2 350 18:38 13.01.2020
4509 Snow -32 1019 67 10000 2 350 18:19 13.01.2020
4510 Snow -32 1018 67 10000 2 340 17:57 13.01.2020
4511 Snow -32 1018 67 10000 2 350 17:38 13.01.2020
4512 Clouds -32 1018 67 10000 2 350 17:20 13.01.2020
4513 Clouds -26 1021 98 0 0.91 29 16:41 13.01.2020
4514 Clouds -26 1021 98 0 0.91 29 16:22 13.01.2020
4515 Clouds -26 1021 98 0 0.91 29 15:56 13.01.2020
4516 Clouds -26 1021 98 0 0.91 29 15:38 13.01.2020
4517 Clouds -26 1021 98 0 0.91 29 15:19 13.01.2020
4518 Clouds -26 1021 98 0 0.91 29 14:42 13.01.2020
4519 Clouds -26 1021 98 0 0.91 29 14:24 13.01.2020
4520 Snow -26 1021 98 0 0.97 65 13:58 13.01.2020
4521 Snow -26 1021 98 0 0.97 65 13:39 13.01.2020
4522 Snow -26 1021 98 0 0.91 61 13:21 13.01.2020
4523 Snow -34 1018 66 10000 2 330 12:55 13.01.2020
4524 Snow -34 1018 66 10000 2 330 12:36 13.01.2020
4525 Snow -34 1018 66 10000 2 330 12:18 13.01.2020
4526 Snow -34 1018 66 10000 1 330 11:39 13.01.2020
4527 Snow -34 1018 66 10000 1 330 11:20 13.01.2020
4528 Snow -34 1018 73 10000 2 330 10:57 13.01.2020
4529 Snow -33 1018 67 10000 2 350 10:39 13.01.2020
4530 Snow -33 1018 67 10000 2 350 10:20 13.01.2020
4531 Snow -33 1018 74 10000 2 340 09:56 13.01.2020
4532 Snow -33 1018 74 5000 2 360 09:38 13.01.2020
4533 Snow -33 1018 74 5000 2 360 09:19 13.01.2020
4534 Snow -33 1018 74 5000 2 360 09:19 13.01.2020
4535 Snow -33 1018 74 5000 1 10 08:39 13.01.2020
4536 Snow -33 1018 74 5000 1 10 08:20 13.01.2020
4537 Snow -33 1018 67 5000 1 10 07:47 13.01.2020
4538 Snow -33 1017 67 5000 0.88 106 07:27 13.01.2020
4539 Snow -34 1017 73 10000 1 40 06:43 13.01.2020
4540 Snow -34 1017 66 5000 1 30 06:20 13.01.2020
4541 Mist -35 1017 66 2400 1 10 05:23 13.01.2020
4542 Fog -37 1017 65 900 1 20 03:54 13.01.2020
4543 Mist -38 1017 65 1500 1 30 03:22 13.01.2020
4544 Fog -38 1017 65 900 0.94 131 02:44 13.01.2020
4545 Fog -39 1017 65 550 1 360 02:24 13.01.2020
4546 Fog -40 1017 65 600 1 10 01:18 13.01.2020
4547 Fog -39 1017 65 350 1.34 139 00:41 13.01.2020
4548 Fog -39 1017 65 350 1.34 139 00:22 13.01.2020
4549 Fog -40 1016 65 400 1.34 139 23:42 12.01.2020
4550 Fog -40 1016 65 400 1.34 139 23:23 12.01.2020
4551 Fog -40 1016 65 550 1.31 167 22:58 12.01.2020
4552 Fog -40 1016 65 550 1.31 167 22:58 12.01.2020
4553 Fog -40 1016 65 600 1 30 22:39 12.01.2020
4554 Fog -40 1016 65 600 1 30 22:21 12.01.2020
4555 Fog -39 1016 65 700 1.31 167 21:56 12.01.2020
4556 Fog -39 1016 65 800 1.31 167 21:38 12.01.2020
4557 Fog -39 1016 65 800 1.31 167 21:19 12.01.2020
4558 Fog -39 1016 65 750 1.31 167 20:56 12.01.2020
4559 Fog -39 1016 65 750 1.31 167 20:38 12.01.2020
4560 Fog -39 1016 65 750 0.98 152 20:19 12.01.2020
4561 Fog -39 1016 65 650 1.16 169 19:56 12.01.2020
4562 Fog -40 1015 65 650 1.16 169 19:37 12.01.2020
4563 Fog -40 1015 65 650 1.16 169 19:18 12.01.2020
4564 Fog -39 1015 58 650 1 110 18:57 12.01.2020
4565 Fog -39 1015 65 800 1.16 169 18:39 12.01.2020
4566 Fog -39 1015 65 800 1.16 169 18:21 12.01.2020
4567 Mist -39 1015 65 1200 1 290 17:43 12.01.2020
4568 Mist -38 1015 65 1200 1.16 169 17:23 12.01.2020
4569 Mist -38 1015 65 1200 1.16 169 17:23 12.01.2020
4570 Mist -38 1015 65 1200 0.63 197 16:59 12.01.2020
4571 Mist -38 1015 65 1200 1 290 16:39 12.01.2020
4572 Mist -38 1015 65 1200 1 290 16:21 12.01.2020
4573 Mist -37 1014 65 2400 1 270 15:58 12.01.2020
4574 Mist -38 1014 65 2400 0.63 197 15:39 12.01.2020
4575 Mist -38 1014 65 2400 0.63 197 15:21 12.01.2020
4576 Clear -39 1014 65 10000 0.63 197 14:43 12.01.2020
4577 Clear -37 1014 65 10000 0.63 197 14:25 12.01.2020
4578 Clouds -37 1014 65 10000 1 290 13:57 12.01.2020
4579 Clouds -37 1014 65 10000 1 290 13:57 12.01.2020
4580 Clouds -37 1014 65 10000 1 290 13:57 12.01.2020
4581 Clouds -38 1014 65 10000 1 250 13:39 12.01.2020
4582 Clear -38 1014 65 10000 1 250 13:20 12.01.2020
4583 Clear -38 1014 65 10000 0.52 303 12:57 12.01.2020
4584 Clear -36 1013 66 10000 1 310 12:38 12.01.2020
4585 Clear -36 1013 66 10000 1 310 12:19 12.01.2020
4586 Clear -37 1013 65 10000 1 280 11:42 12.01.2020
4587 Clear -37 1013 65 10000 1 280 11:22 12.01.2020
4588 Clear -37 1013 65 10000 0.94 353 10:59 12.01.2020
4589 Clear -37 1013 65 10000 1 290 10:40 12.01.2020
4590 Clear -37 1013 65 10000 1 290 10:21 12.01.2020
4591 Clear -37 1012 65 10000 1 290 09:44 12.01.2020
4592 Clear -36 1012 73 10000 1 280 09:24 12.01.2020
4593 Clear -35 1012 73 10000 3 290 08:57 12.01.2020
4594 Clear -37 1012 73 10000 1 280 08:38 12.01.2020
4595 Clouds -37 1012 73 10000 1 280 08:19 12.01.2020
4596 Clouds -33 1011 74 10000 1.67 340 07:38 12.01.2020
4597 Clouds -33 1011 74 10000 1.67 340 07:19 12.01.2020
4598 Clouds -32 1011 67 10000 1.67 340 06:42 12.01.2020
4599 Clouds -33 1010 67 10000 1 80 06:18 12.01.2020
4600 Clouds -32 1010 67 10000 1 340 05:21 12.01.2020
4601 Clouds -33 1009 67 10000 2 300 03:45 12.01.2020
4602 Clouds -34 1009 73 10000 1 320 02:59 12.01.2020
4603 Clouds -34 1009 66 10000 2 300 02:30 12.01.2020
4604 Clouds -33 1008 67 10000 2 300 01:42 12.01.2020
4605 Clouds -33 1008 67 10000 2 300 01:21 12.01.2020
4606 Clouds -33 1008 74 10000 2 300 00:40 12.01.2020
4607 Clouds -33 1008 74 10000 2 300 00:19 12.01.2020
4608 Clouds -32 1007 74 10000 3 320 23:42 11.01.2020
4609 Clouds -32 1007 74 10000 3 320 23:19 11.01.2020
4610 Clouds -31 1007 67 10000 3 330 22:57 11.01.2020
4611 Clouds -31 1007 74 10000 3 330 22:39 11.01.2020
4612 Clouds -31 1007 74 10000 3 330 22:20 11.01.2020
4613 Snow -30 1006 74 10000 3 330 21:55 11.01.2020
4614 Clouds -30 1006 74 10000 3 350 21:37 11.01.2020
4615 Clouds -30 1006 74 10000 3 350 21:18 11.01.2020
4616 Clouds -29 1006 75 10000 3 350 20:40 11.01.2020
4617 Snow -29 1006 75 10000 3 350 20:22 11.01.2020
4618 Snow -29 1006 75 10000 3 340 19:58 11.01.2020
4619 Snow -29 1006 82 10000 3 350 19:38 11.01.2020
4620 Snow -29 1006 82 10000 3 350 19:38 11.01.2020
4621 Snow -29 1006 82 10000 3 350 19:20 11.01.2020
4622 Snow -28 1005 75 10000 4 350 18:58 11.01.2020
4623 Snow -28 1005 75 10000 2 10 18:38 11.01.2020
4624 Snow -28 1005 75 10000 2 10 18:19 11.01.2020
4625 Snow -28 1005 75 10000 3 10 17:57 11.01.2020
4626 Snow -28 1005 75 10000 3 10 17:57 11.01.2020
4627 Snow -28 1005 75 10000 3 10 17:39 11.01.2020
4628 Snow -28 1005 75 10000 3 10 17:19 11.01.2020
4629 Snow -28 1005 75 10000 4 10 16:45 11.01.2020
4630 Snow -28 1005 82 10000 4 360 16:27 11.01.2020
4631 Snow -28 1005 75 10000 3 10 15:58 11.01.2020
4632 Snow -28 1005 75 5000 3 360 15:40 11.01.2020
4633 Snow -28 1005 75 5000 3 360 15:20 11.01.2020
4634 Snow -28 1005 75 5000 3 350 14:56 11.01.2020
4635 Snow -28 1006 75 5000 4 350 14:38 11.01.2020
4636 Snow -28 1006 75 5000 4 350 14:19 11.01.2020
4637 Snow -28 1006 82 3200 3 350 13:39 11.01.2020
4638 Snow -28 1006 82 3200 3 350 13:20 11.01.2020
4639 Snow -28 1006 82 3200 3 350 13:20 11.01.2020
4640 Snow -28 1006 75 5000 3 340 12:57 11.01.2020
4641 Snow -28 1006 75 5000 3 360 12:38 11.01.2020
4642 Snow -28 1006 75 5000 3 360 12:20 11.01.2020
4643 Snow -28 1007 75 5000 3 350 11:46 11.01.2020
4644 Snow -28 1007 75 5000 3 350 11:25 11.01.2020
4645 Snow -28 1007 75 10000 3 350 10:50 11.01.2020
4646 Snow -28 1007 75 10000 3 350 10:30 11.01.2020
4647 Snow -28 1008 75 10000 2 350 09:55 11.01.2020
4648 Snow -29 1008 82 10000 3 350 09:37 11.01.2020
4649 Snow -29 1008 82 10000 3 350 09:18 11.01.2020
4650 Snow -28 1009 75 10000 2 350 08:41 11.01.2020
4651 Snow -28 1009 75 10000 2 350 08:21 11.01.2020
4652 Snow -27 1009 75 10000 2 350 07:44 11.01.2020
4653 Snow -27 1009 75 3200 2 360 07:25 11.01.2020
4654 Snow -27 1009 75 2400 2 350 06:48 11.01.2020
4655 Snow -27 1010 75 10000 2 350 05:34 11.01.2020
4656 Snow -27 1011 75 3200 2 360 04:46 11.01.2020
4657 Snow -28 1011 82 3200 2 360 04:27 11.01.2020
4658 Snow -28 1012 82 10000 2 350 02:49 11.01.2020
4659 Snow -27 1012 82 10000 2 300 01:57 11.01.2020
4660 Snow -28 1013 82 10000 1 310 01:38 11.01.2020
4661 Snow -28 1013 82 10000 1 310 01:18 11.01.2020
4662 Snow -27 1013 75 10000 2 290 00:38 11.01.2020
4663 Snow -27 1013 75 10000 2 290 23:59 10.01.2020
4664 Snow -27 1013 75 10000 1.05 231 23:40 10.01.2020
4665 Snow -27 1013 75 10000 0.96 230 23:21 10.01.2020
4666 Snow -27 1013 82 10000 0.96 230 22:56 10.01.2020
4667 Snow -25 1013 83 10000 1 210 22:38 10.01.2020
4668 Snow -25 1013 83 10000 1 210 22:19 10.01.2020
4669 Snow -23 1014 83 10000 1 230 21:55 10.01.2020
4670 Snow -22 1014 76 10000 1 230 21:36 10.01.2020
4671 Snow -22 1014 76 10000 1 230 21:18 10.01.2020
4672 Snow -22 1015 83 10000 2 230 20:42 10.01.2020
4673 Snow -22 1015 83 10000 2 230 20:24 10.01.2020
4674 Snow -22 1015 83 10000 2 230 20:24 10.01.2020
4675 Snow -21 1015 83 10000 3 210 19:55 10.01.2020
4676 Snow -21 1015 83 10000 3 220 19:37 10.01.2020
4677 Snow -21 1015 83 10000 3 220 19:19 10.01.2020
4678 Snow -21 1015 83 10000 3 220 18:41 10.01.2020
4679 Snow -21 1015 83 10000 3 220 18:19 10.01.2020
4680 Snow -21 1015 83 10000 3 220 18:19 10.01.2020
4681 Snow -21 1015 83 10000 3 230 17:57 10.01.2020
4682 Snow -21 1015 83 10000 3 240 17:39 10.01.2020
4683 Snow -21 1015 83 10000 3 240 17:20 10.01.2020
4684 Snow -21 1015 83 10000 3 250 16:56 10.01.2020
4685 Snow -21 1016 83 10000 4 240 16:37 10.01.2020
4686 Snow -21 1016 83 10000 4 240 16:19 10.01.2020
4687 Snow -25 1016 83 10000 2 260 15:55 10.01.2020
4688 Snow -25 1016 83 10000 1 170 15:36 10.01.2020
4689 Snow -25 1016 83 10000 1 170 15:18 10.01.2020
4690 Snow -25 1017 75 10000 1 210 14:54 10.01.2020
4691 Snow -26 1017 75 10000 2.06 259 14:36 10.01.2020
4692 Snow -26 1017 75 10000 0.94 229 14:18 10.01.2020
4693 Snow -27 1017 75 10000 0.94 229 13:42 10.01.2020
4694 Snow -27 1017 75 10000 1.18 238 13:23 10.01.2020
4695 Snow -29 1017 75 10000 1.18 238 12:58 10.01.2020
4696 Snow -29 1017 75 10000 1.18 238 12:39 10.01.2020
4697 Snow -29 1017 75 10000 1.18 238 12:19 10.01.2020
4698 Snow -28 1017 75 10000 1.18 238 11:55 10.01.2020
4699 Snow -28 1017 75 10000 1.18 238 11:37 10.01.2020
4700 Snow -28 1017 75 10000 0.34 274 11:18 10.01.2020
4701 Snow -28 1017 75 10000 0.34 274 11:18 10.01.2020
4702 Snow -29 1017 75 10000 1 310 10:44 10.01.2020
4703 Snow -31 1017 67 10000 1 330 10:24 10.01.2020
4704 Snow -32 1017 67 10000 1 360 09:59 10.01.2020
4705 Snow -31 1017 74 10000 0.34 274 09:40 10.01.2020
4706 Snow -31 1017 74 10000 0.34 274 09:22 10.01.2020
4707 Snow -30 1017 74 10000 1 320 08:43 10.01.2020
4708 Snow -29 1017 75 10000 1 330 08:24 10.01.2020
4709 Snow -28 1017 82 10000 0.59 344 07:47 10.01.2020
4710 Snow -27 1017 75 10000 1 320 07:28 10.01.2020
4711 Snow -27 1017 75 5000 0.59 344 06:55 10.01.2020
4712 Snow -27 1017 75 5000 1 360 06:27 10.01.2020
4713 Snow -26 1017 75 5000 1 70 05:52 10.01.2020
4714 Snow -25 1017 75 10000 0.22 228 03:47 10.01.2020
4715 Snow -27 1017 75 10000 1 310 03:28 10.01.2020
4716 Snow -27 1017 75 10000 0.22 228 02:51 10.01.2020
4717 Snow -27 1018 75 10000 0.69 165 01:49 10.01.2020
4718 Snow -28 1018 82 10000 0.69 191 01:28 10.01.2020
4719 Snow -28 1018 82 10000 0.69 191 00:47 10.01.2020
4720 Snow -27 1018 75 10000 0.69 191 00:29 10.01.2020
4721 Snow -26 1018 75 10000 0.69 191 23:39 09.01.2020
4722 Snow -26 1018 75 10000 0.69 191 23:39 09.01.2020
4723 Snow -26 1018 75 10000 0.69 191 23:39 09.01.2020
4724 Snow -26 1018 75 10000 0.69 191 23:39 09.01.2020
4725 Snow -26 1018 75 10000 0.69 191 23:39 09.01.2020
4726 Snow -26 1018 75 10000 0.99 206 23:21 09.01.2020
4727 Snow -26 1018 83 10000 1 290 22:58 09.01.2020
4728 Snow -26 1018 83 10000 1 290 22:58 09.01.2020
4729 Snow -26 1018 83 10000 0.99 206 22:39 09.01.2020
4730 Snow -26 1018 83 10000 0.99 206 22:19 09.01.2020
4731 Clouds -27 1018 82 10000 0.99 206 21:57 09.01.2020
4732 Clouds -27 1018 82 10000 0.99 206 21:57 09.01.2020
4733 Clouds -27 1018 75 10000 0.99 206 21:38 09.01.2020
4734 Clouds -27 1018 75 10000 0.99 206 21:20 09.01.2020
4735 Snow -27 1018 75 10000 0.99 206 20:58 09.01.2020
4736 Snow -28 1018 82 10000 1 280 20:39 09.01.2020
4737 Snow -28 1018 82 10000 1 280 20:20 09.01.2020
4738 Snow -28 1018 82 10000 1 280 20:20 09.01.2020
4739 Clouds -27 1018 75 10000 1 310 19:59 09.01.2020
4740 Clouds -27 1018 75 10000 1 310 19:39 09.01.2020
4741 Snow -27 1019 75 10000 1 310 19:20 09.01.2020
4742 Snow -27 1019 75 10000 0.96 191 18:56 09.01.2020
4743 Snow -27 1019 75 10000 0.96 191 18:38 09.01.2020
4744 Snow -25 1019 75 10000 0.96 191 18:20 09.01.2020
4745 Snow -25 1019 83 10000 2 310 17:41 09.01.2020
4746 Snow -25 1019 83 10000 1 300 17:19 09.01.2020
4747 Clouds -25 1019 83 10000 0.74 214 16:58 09.01.2020
4748 Snow -24 1019 76 10000 0.74 214 16:39 09.01.2020
4749 Snow -24 1019 76 10000 0.74 214 16:20 09.01.2020
4750 Clouds -24 1019 76 10000 0.74 214 15:43 09.01.2020
4751 Clouds -25 1019 75 10000 0.74 214 15:22 09.01.2020
4752 Clouds -25 1019 75 10000 0.74 214 14:58 09.01.2020
4753 Clouds -24 1019 76 10000 1 250 14:40 09.01.2020
4754 Clouds -24 1019 76 10000 1 250 14:19 09.01.2020
4755 Clouds -25 1019 83 10000 1.07 278 13:55 09.01.2020
4756 Clouds -24 1019 76 10000 2 230 13:37 09.01.2020
4757 Clouds -24 1019 76 10000 2 230 13:18 09.01.2020
4758 Clouds -23 1019 76 10000 1 270 12:55 09.01.2020
4759 Clouds -23 1019 76 10000 2 280 12:37 09.01.2020
4760 Clouds -23 1019 76 10000 2 280 12:18 09.01.2020
4761 Clouds -23 1019 83 10000 1 210 11:42 09.01.2020
4762 Clouds -21 1018 83 10000 2 230 11:24 09.01.2020
4763 Clouds -21 1018 83 10000 1 250 10:57 09.01.2020
4764 Clouds -21 1018 83 10000 1 250 10:57 09.01.2020
4765 Clouds -21 1018 83 10000 1 250 10:39 09.01.2020
4766 Clouds -21 1018 83 10000 1 230 10:20 09.01.2020
4767 Snow -19 1018 84 5000 1 210 09:41 09.01.2020
4768 Snow -19 1018 84 5000 1 200 09:23 09.01.2020
4769 Snow -19 1018 84 5000 1.47 270 08:57 09.01.2020
4770 Snow -19 1018 84 5000 1.47 270 08:38 09.01.2020
4771 Snow -20 1018 83 10000 1 150 08:20 09.01.2020
4772 Snow -20 1018 83 10000 1 140 07:46 09.01.2020
4773 Snow -19 1018 84 10000 1 120 07:28 09.01.2020
4774 Snow -19 1018 84 10000 1 210 06:40 09.01.2020
4775 Snow -20 1017 83 10000 1 170 06:21 09.01.2020
4776 Snow -20 1017 83 10000 2 150 05:51 09.01.2020
4777 Snow -20 1017 83 10000 1 150 04:54 09.01.2020
4778 Snow -21 1017 83 10000 1.05 328 04:36 09.01.2020
4779 Snow -22 1017 76 10000 1.05 328 03:26 09.01.2020
4780 Snow -22 1016 83 10000 1.05 328 02:46 09.01.2020
4781 Snow -21 1016 76 10000 1 340 01:41 09.01.2020
4782 Snow -21 1016 83 10000 1 70 00:57 09.01.2020
4783 Snow -21 1016 83 10000 1 50 00:37 09.01.2020
4784 Snow -21 1016 83 10000 1 50 00:19 09.01.2020
4785 Snow -21 1015 76 10000 1 340 23:39 08.01.2020
4786 Snow -21 1015 83 10000 1 30 23:20 08.01.2020
4787 Snow -21 1014 83 10000 1 30 22:40 08.01.2020
4788 Snow -21 1014 83 10000 1 340 22:22 08.01.2020
4789 Snow -21 1014 83 5000 1 350 21:59 08.01.2020
4790 Snow -21 1014 83 5000 1 350 21:40 08.01.2020
4791 Snow -21 1014 83 5000 1 360 21:21 08.01.2020
4792 Snow -21 1014 83 5000 2 350 20:59 08.01.2020
4793 Snow -21 1014 83 5000 2 350 20:59 08.01.2020
4794 Snow -21 1014 83 5000 2 350 20:41 08.01.2020
4795 Snow -21 1014 83 10000 1 340 20:21 08.01.2020
4796 Snow -21 1014 83 10000 1 360 19:58 08.01.2020
4797 Snow -21 1014 83 10000 1 350 19:38 08.01.2020
4798 Snow -21 1014 83 10000 1 350 19:19 08.01.2020
4799 Snow -20 1013 83 10000 2 10 18:58 08.01.2020
4800 Snow -20 1013 83 10000 2 10 18:39 08.01.2020
4801 Snow -20 1013 83 10000 2 10 18:39 08.01.2020
4802 Snow -20 1013 83 10000 2 350 18:19 08.01.2020
4803 Snow -20 1013 83 10000 2 350 17:57 08.01.2020
4804 Snow -20 1013 83 10000 2 330 17:38 08.01.2020
4805 Snow -20 1013 83 10000 2 330 17:19 08.01.2020
4806 Snow -20 1013 83 10000 2 330 17:19 08.01.2020
4807 Snow -20 1013 83 10000 2 340 16:55 08.01.2020
4808 Snow -20 1013 83 10000 2 340 16:37 08.01.2020
4809 Snow -20 1013 83 10000 2 340 16:18 08.01.2020
4810 Snow -20 1013 83 10000 2 350 15:44 08.01.2020
4811 Snow -20 1013 83 10000 2 350 15:44 08.01.2020
4812 Snow -20 1013 83 10000 2 350 15:44 08.01.2020
4813 Snow -21 1013 83 10000 2 360 15:21 08.01.2020
4814 Snow -21 1013 83 10000 1 330 14:58 08.01.2020
4815 Snow -21 1013 83 10000 1 330 14:40 08.01.2020
4816 Snow -21 1013 83 10000 1 340 14:21 08.01.2020
4817 Snow -20 1013 76 10000 2 340 13:41 08.01.2020
4818 Snow -21 1013 83 10000 1 340 13:21 08.01.2020
4819 Snow -21 1013 83 10000 2 10 12:55 08.01.2020
4820 Snow -22 1013 83 10000 2 340 12:36 08.01.2020
4821 Snow -22 1013 83 10000 2 340 12:18 08.01.2020
4822 Snow -24 1013 83 10000 2 350 11:47 08.01.2020
4823 Snow -24 1013 83 10000 2 340 11:19 08.01.2020
4824 Snow -24 1013 83 10000 2 340 11:19 08.01.2020
4825 Snow -23 1013 83 10000 1 340 10:58 08.01.2020
4826 Snow -23 1013 83 10000 1 340 10:40 08.01.2020
4827 Snow -23 1013 83 10000 1 340 10:40 08.01.2020
4828 Snow -23 1013 83 10000 1 20 10:20 08.01.2020
4829 Snow -22 1013 83 10000 1 30 09:43 08.01.2020
4830 Snow -20 1013 83 5000 1 40 09:20 08.01.2020
4831 Snow -19 1013 84 5000 1 70 08:58 08.01.2020
4832 Snow -19 1013 84 5000 1 70 08:40 08.01.2020
4833 Snow -19 1013 84 5000 1 80 08:21 08.01.2020
4834 Snow -19 1013 84 5000 2 50 07:52 08.01.2020
4835 Snow -19 1013 84 5000 1 100 07:33 08.01.2020
4836 Snow -19 1013 84 5000 1 120 06:58 08.01.2020
4837 Snow -19 1013 84 5000 1 120 06:40 08.01.2020
4838 Snow -19 1013 84 5000 2 140 05:55 08.01.2020
4839 Snow -20 1013 83 5000 2 160 05:25 08.01.2020
4840 Snow -19 1013 84 5000 1 150 04:36 08.01.2020
4841 Snow -20 1014 83 5000 1 160 02:46 08.01.2020
4842 Snow -20 1013 83 10000 1 150 02:28 08.01.2020
4843 Snow -20 1014 83 10000 1 170 01:56 08.01.2020
4844 Snow -21 1014 83 10000 1 180 01:30 08.01.2020
4845 Snow -21 1014 83 10000 1 150 00:51 08.01.2020
4846 Snow -21 1014 83 10000 1 130 00:22 08.01.2020
4847 Snow -21 1013 83 10000 1 150 23:46 07.01.2020
4848 Snow -20 1013 76 10000 0.55 309 23:21 07.01.2020
4849 Snow -20 1013 83 10000 0.55 309 22:41 07.01.2020
4850 Snow -20 1013 76 10000 1 280 22:21 07.01.2020
4851 Snow -21 1013 83 10000 1 250 21:59 07.01.2020
4852 Snow -21 1013 83 10000 1 250 21:59 07.01.2020
4853 Snow -21 1013 83 10000 1 250 21:41 07.01.2020
4854 Snow -21 1013 83 10000 0.55 309 21:21 07.01.2020
4855 Snow -21 1013 83 10000 0.55 309 20:57 07.01.2020
4856 Snow -21 1013 83 10000 0.55 309 20:39 07.01.2020
4857 Snow -21 1013 83 10000 0.55 309 20:39 07.01.2020
4858 Snow -21 1013 76 10000 1.07 348 20:21 07.01.2020
4859 Snow -22 1013 83 10000 1 290 19:57 07.01.2020
4860 Snow -22 1013 83 10000 1 290 19:37 07.01.2020
4861 Snow -22 1013 83 10000 1 290 19:19 07.01.2020
4862 Snow -22 1013 83 10000 1 290 19:19 07.01.2020
4863 Snow -22 1013 83 10000 1 290 19:19 07.01.2020
4864 Snow -23 1013 83 10000 2 280 18:56 07.01.2020
4865 Snow -23 1013 83 10000 2 290 18:37 07.01.2020
4866 Snow -23 1013 83 10000 2 290 18:18 07.01.2020
4867 Snow -23 1013 76 10000 2 290 17:42 07.01.2020
4868 Snow -25 1013 83 10000 3 270 17:23 07.01.2020
4869 Snow -25 1013 83 10000 3 270 17:23 07.01.2020
4870 Clouds -25 1013 75 10000 3 280 16:58 07.01.2020
4871 Clouds -25 1013 75 10000 3 280 16:39 07.01.2020
4872 Clouds -24 1012 83 10000 2 280 16:20 07.01.2020
4873 Clouds -24 1012 83 10000 2 280 15:59 07.01.2020
4874 Clouds -24 1012 83 10000 2 280 15:41 07.01.2020
4875 Clouds -23 1012 83 10000 2 290 15:23 07.01.2020
4876 Snow -23 1012 83 10000 2 300 14:58 07.01.2020
4877 Snow -23 1012 83 10000 2 300 14:38 07.01.2020
4878 Snow -22 1012 83 10000 2 310 14:19 07.01.2020
4879 Snow -21 1011 83 10000 2 330 13:44 07.01.2020
4880 Snow -20 1011 76 5000 2 320 13:20 07.01.2020
4881 Snow -21 1011 83 5000 2 340 12:55 07.01.2020
4882 Snow -21 1011 83 5000 2 350 12:36 07.01.2020
4883 Snow -21 1011 83 5000 2 350 12:18 07.01.2020
4884 Snow -21 1010 83 5000 2 340 11:41 07.01.2020
4885 Snow -21 1010 83 5000 2 350 11:22 07.01.2020
4886 Snow -21 1011 83 5000 2 350 10:55 07.01.2020
4887 Snow -21 1011 76 5000 2 350 10:37 07.01.2020
4888 Snow -21 1011 76 5000 2 350 10:19 07.01.2020
4889 Snow -22 1010 83 3200 2 350 09:39 07.01.2020
4890 Snow -22 1010 83 3200 2 340 09:20 07.01.2020
4891 Snow -22 1011 76 2400 2 340 08:57 07.01.2020
4892 Snow -23 1011 83 2400 2 330 08:37 07.01.2020
4893 Snow -23 1011 83 2400 2 330 08:37 07.01.2020
4894 Snow -23 1011 83 2400 2 330 08:18 07.01.2020
4895 Snow -23 1011 83 2100 2 340 07:42 07.01.2020
4896 Snow -23 1011 83 2100 2 340 07:42 07.01.2020
4897 Snow -24 1011 83 2100 1 350 06:57 07.01.2020
4898 Snow -24 1011 83 3200 2 350 06:35 07.01.2020
4899 Snow -24 1012 76 3200 2 10 05:59 07.01.2020
4900 Snow -24 1012 76 3200 2 10 05:40 07.01.2020
4901 Snow -25 1013 75 2400 1 360 03:45 07.01.2020
4902 Snow -26 1014 83 2100 1 360 03:24 07.01.2020
4903 Snow -26 1015 75 2400 1 360 02:18 07.01.2020
4904 Snow -27 1015 82 2400 1 360 01:40 07.01.2020
4905 Snow -27 1016 75 5000 1 10 00:58 07.01.2020
4906 Snow -27 1016 75 3200 2 360 00:21 07.01.2020
4907 Snow -28 1017 75 3200 1 20 23:57 06.01.2020
4908 Snow -28 1017 75 2400 1 20 23:37 06.01.2020
4909 Snow -28 1017 75 2400 1 20 23:19 06.01.2020
4910 Snow -28 1017 75 3200 1 360 22:44 06.01.2020
4911 Snow -29 1018 75 2400 1.06 137 22:25 06.01.2020
4912 Snow -29 1018 75 2400 1 60 21:59 06.01.2020
4913 Snow -29 1018 75 2400 1 60 21:40 06.01.2020
4914 Snow -29 1018 75 3200 1 40 21:20 06.01.2020
4915 Snow -29 1019 75 10000 1.06 137 20:57 06.01.2020
4916 Snow -29 1019 68 10000 1.06 137 20:39 06.01.2020
4917 Snow -29 1019 68 10000 0.32 187 20:20 06.01.2020
4918 Clouds -30 1019 74 10000 0.32 187 19:57 06.01.2020
4919 Clouds -30 1019 74 10000 0.32 187 19:39 06.01.2020
4920 Clouds -30 1019 74 10000 1 270 19:20 06.01.2020
4921 Snow -31 1019 74 10000 0.32 187 18:48 06.01.2020
4922 Snow -31 1019 74 10000 0.32 187 18:48 06.01.2020
4923 Snow -31 1020 67 10000 0.32 187 18:23 06.01.2020
4924 Clouds -32 1020 74 10000 2 280 17:59 06.01.2020
4925 Clouds -32 1020 67 10000 1 310 17:39 06.01.2020
4926 Clouds -32 1020 67 10000 1 310 17:19 06.01.2020
4927 Clouds -32 1020 67 10000 1 290 16:47 06.01.2020
4928 Clouds -32 1020 74 10000 1 310 16:27 06.01.2020
4929 Clouds -32 1020 74 10000 2 310 15:59 06.01.2020
4930 Clouds -32 1020 74 10000 2 310 15:41 06.01.2020
4931 Clouds -31 1020 67 10000 3 300 15:20 06.01.2020
4932 Clouds -31 1020 74 10000 3 300 14:59 06.01.2020
4933 Clouds -31 1020 74 10000 3 300 14:40 06.01.2020
4934 Snow -31 1020 74 10000 3 290 14:20 06.01.2020
4935 Snow -31 1020 74 10000 3 300 13:57 06.01.2020
4936 Snow -31 1020 74 10000 3 300 13:57 06.01.2020
4937 Snow -30 1020 74 10000 3 300 13:37 06.01.2020
4938 Snow -30 1020 74 10000 3 300 13:19 06.01.2020
4939 Clouds -30 1020 74 10000 2 300 12:43 06.01.2020
4940 Clouds -30 1020 74 10000 2 310 12:21 06.01.2020
4941 Snow -28 1020 75 10000 2 340 11:58 06.01.2020
4942 Snow -28 1020 75 10000 3 350 11:39 06.01.2020
4943 Snow -28 1020 75 10000 3 350 11:20 06.01.2020
4944 Snow -28 1020 82 10000 3 340 10:54 06.01.2020
4945 Snow -28 1019 75 10000 2 340 10:36 06.01.2020
4946 Snow -28 1019 75 10000 2 340 10:18 06.01.2020
4947 Snow -26 1019 75 10000 3 350 09:37 06.01.2020
4948 Snow -26 1019 75 10000 3 350 09:19 06.01.2020
4949 Snow -25 1019 83 5000 3 350 08:43 06.01.2020
4950 Snow -25 1019 75 5000 3 350 08:25 06.01.2020
4951 Snow -25 1019 75 5000 3 350 07:51 06.01.2020
4952 Snow -25 1019 75 5000 2 340 07:26 06.01.2020
4953 Snow -25 1019 75 5000 2 340 06:45 06.01.2020
4954 Snow -26 1019 75 5000 2 360 06:19 06.01.2020
4955 Snow -26 1019 75 5000 2 350 05:42 06.01.2020
4956 Snow -28 1020 75 10000 2 10 04:33 06.01.2020
4957 Snow -28 1020 75 10000 2 360 03:59 06.01.2020
4958 Snow -30 1021 74 10000 2 350 02:46 06.01.2020
4959 Snow -31 1021 74 10000 2 330 02:23 06.01.2020
4960 Snow -31 1021 67 10000 2 340 01:44 06.01.2020
4961 Snow -32 1022 74 10000 2 340 01:24 06.01.2020
4962 Snow -32 1022 74 10000 2 340 00:41 06.01.2020
4963 Snow -31 1022 74 10000 2 340 00:20 06.01.2020
4964 Snow -30 1022 67 10000 1 340 23:41 05.01.2020
4965 Snow -30 1022 74 10000 2 20 23:22 05.01.2020
4966 Snow -30 1022 74 10000 0.49 165 22:56 05.01.2020
4967 Snow -30 1022 74 10000 1 110 22:37 05.01.2020
4968 Snow -30 1022 74 10000 1 110 22:19 05.01.2020
4969 Snow -30 1022 67 10000 1 110 21:54 05.01.2020
4970 Snow -30 1023 67 10000 1 130 21:36 05.01.2020
4971 Snow -30 1023 67 10000 1 130 21:18 05.01.2020
4972 Snow -30 1023 67 10000 1 100 20:55 05.01.2020
4973 Snow -31 1023 74 10000 0.49 165 20:36 05.01.2020
4974 Snow -31 1023 74 10000 0.45 200 20:18 05.01.2020
4975 Snow -31 1023 67 10000 1 100 19:54 05.01.2020
4976 Snow -32 1023 74 10000 1 80 19:36 05.01.2020
4977 Snow -32 1023 74 10000 1 80 19:18 05.01.2020
4978 Snow -32 1023 74 10000 0.47 233 18:54 05.01.2020
4979 Snow -32 1023 67 10000 0.47 233 18:36 05.01.2020
4980 Snow -32 1023 67 10000 0.47 233 18:18 05.01.2020
4981 Snow -32 1023 74 10000 0.47 233 17:39 05.01.2020
4982 Snow -32 1023 74 10000 0.46 97 17:20 05.01.2020
4983 Snow -32 1023 67 10000 0.46 97 16:57 05.01.2020
4984 Snow -32 1023 67 10000 0.46 97 16:39 05.01.2020
4985 Snow -32 1023 67 10000 0.46 97 16:20 05.01.2020
4986 Snow -32 1023 67 10000 1 10 15:41 05.01.2020
4987 Snow -33 1023 74 10000 1 340 15:22 05.01.2020
4988 Snow -33 1023 67 10000 0.46 97 14:58 05.01.2020
4989 Snow -33 1023 67 10000 0.46 97 14:40 05.01.2020
4990 Snow -34 1023 66 10000 0.81 88 14:22 05.01.2020
4991 Snow -34 1023 66 10000 1 330 13:59 05.01.2020
4992 Snow -34 1023 66 10000 1 330 13:39 05.01.2020
4993 Snow -34 1023 73 10000 0.85 64 13:20 05.01.2020
4994 Snow -33 1023 67 10000 0.85 64 12:57 05.01.2020
4995 Snow -34 1023 73 10000 0.85 64 12:38 05.01.2020
4996 Snow -34 1023 73 10000 0.85 64 12:20 05.01.2020
4997 Snow -35 1023 66 10000 1 310 11:55 05.01.2020
4998 Snow -34 1023 66 10000 1 320 11:36 05.01.2020
4999 Snow -34 1023 66 10000 1 320 11:36 05.01.2020
5000 Snow -34 1023 66 10000 1 320 11:18 05.01.2020
5001 Snow -34 1023 66 10000 1 290 10:41 05.01.2020
5002 Snow -35 1023 73 10000 1 310 10:20 05.01.2020
5003 Snow -34 1022 66 10000 1 330 09:57 05.01.2020
5004 Snow -34 1022 66 10000 1 310 09:38 05.01.2020
5005 Snow -34 1022 66 10000 1 310 09:38 05.01.2020
5006 Snow -34 1022 66 10000 1 310 09:20 05.01.2020
5007 Snow -33 1022 67 10000 1 320 08:45 05.01.2020
5008 Snow -32 1022 67 10000 1 360 08:21 05.01.2020
5009 Snow -32 1022 74 10000 1 340 07:47 05.01.2020
5010 Snow -32 1022 74 10000 1 350 07:29 05.01.2020
5011 Snow -31 1022 67 10000 2 340 06:56 05.01.2020
5012 Snow -32 1021 74 10000 2 350 05:52 05.01.2020
5013 Snow -32 1021 67 10000 2 350 04:57 05.01.2020
5014 Snow -33 1020 67 10000 2 360 04:19 05.01.2020
5015 Snow -33 1020 67 10000 2 360 04:19 05.01.2020
5016 Snow -33 1020 67 10000 2 10 03:40 05.01.2020
5017 Snow -34 1020 73 10000 2 360 02:36 05.01.2020
5018 Snow -34 1020 73 10000 2 360 02:36 05.01.2020
5019 Snow -34 1020 73 10000 2 360 02:18 05.01.2020
5020 Snow -35 1020 66 10000 2 350 01:36 05.01.2020
5021 Snow -35 1020 66 10000 2 350 01:18 05.01.2020
5022 Snow -35 1020 66 10000 2 340 00:39 05.01.2020
5023 Clouds -35 1019 66 10000 2 340 00:21 05.01.2020
5024 Clouds -35 1019 66 10000 2 340 23:58 04.01.2020
5025 Snow -35 1019 66 10000 2 340 23:38 04.01.2020
5026 Snow -35 1019 66 10000 2 340 23:18 04.01.2020
5027 Snow -34 1018 66 10000 2 350 22:39 04.01.2020
5028 Snow -34 1018 66 10000 2 340 22:20 04.01.2020
5029 Snow -34 1018 66 10000 2 10 21:56 04.01.2020
5030 Snow -34 1018 66 10000 2 360 21:37 04.01.2020
5031 Snow -34 1018 66 10000 2 360 21:19 04.01.2020
5032 Snow -34 1018 66 10000 2 360 21:19 04.01.2020
5033 Snow -34 1018 66 10000 2 350 20:56 04.01.2020
5034 Snow -34 1018 66 10000 1 350 20:37 04.01.2020
5035 Snow -34 1018 66 10000 1 350 20:18 04.01.2020
5036 Snow -35 1018 66 10000 2 350 19:41 04.01.2020
5037 Snow -35 1018 66 10000 2 350 19:41 04.01.2020
5038 Snow -35 1018 66 10000 2 350 19:41 04.01.2020
5039 Snow -35 1017 66 10000 2 360 19:23 04.01.2020
5040 Snow -36 1017 66 10000 1 350 18:58 04.01.2020
5041 Snow -36 1017 66 10000 1 350 18:39 04.01.2020
5042 Clouds -36 1017 66 10000 1 350 18:20 04.01.2020
5043 Clouds -37 1017 65 10000 1 340 17:57 04.01.2020
5044 Clouds -37 1017 65 10000 1 340 17:39 04.01.2020
5045 Clouds -37 1017 65 10000 1 340 17:21 04.01.2020
5046 Clouds -37 1017 65 10000 1 350 16:42 04.01.2020
5047 Clouds -37 1017 65 10000 2 360 16:24 04.01.2020
5048 Clouds -37 1017 65 10000 1 350 15:57 04.01.2020
5049 Clouds -37 1017 65 10000 1 350 15:39 04.01.2020
5050 Clouds -37 1017 65 10000 2 360 15:19 04.01.2020
5051 Clouds -37 1017 65 10000 1 360 14:57 04.01.2020
5052 Clouds -37 1017 65 10000 1 360 14:39 04.01.2020
5053 Clouds -36 1017 66 10000 2 350 14:19 04.01.2020
5054 Clouds -36 1017 66 10000 2 350 14:19 04.01.2020
5055 Clouds -36 1017 66 10000 2 350 14:19 04.01.2020
5056 Clouds -36 1017 66 10000 1 340 13:55 04.01.2020
5057 Clouds -36 1017 66 10000 1 350 13:36 04.01.2020
5058 Clouds -36 1017 66 10000 1 350 13:18 04.01.2020
5059 Clouds -36 1017 66 10000 2 350 12:41 04.01.2020
5060 Clouds -36 1017 66 10000 2 360 12:20 04.01.2020
5061 Clouds -36 1017 66 10000 2 350 11:58 04.01.2020
5062 Clouds -36 1017 66 10000 2 350 11:39 04.01.2020
5063 Clouds -36 1017 66 10000 2 350 11:19 04.01.2020
5064 Clouds -36 1017 73 10000 2 360 10:55 04.01.2020
5065 Clouds -35 1017 66 10000 1 340 10:36 04.01.2020
5066 Clouds -35 1017 66 10000 1 340 10:18 04.01.2020
5067 Clouds -35 1017 66 10000 1 350 09:41 04.01.2020
5068 Clouds -35 1017 66 10000 2 10 09:22 04.01.2020
5069 Clouds -34 1017 66 10000 2 360 08:42 04.01.2020
5070 Snow -34 1018 66 10000 2 350 08:21 04.01.2020
5071 Snow -33 1017 67 10000 2 350 07:44 04.01.2020
5072 Snow -34 1017 73 10000 2 350 07:21 04.01.2020
5073 Snow -34 1017 66 10000 2 340 06:33 04.01.2020
5074 Snow -34 1017 66 10000 1 360 05:45 04.01.2020
5075 Clouds -35 1017 73 10000 2 360 04:44 04.01.2020
5076 Snow -35 1018 66 10000 2 350 04:26 04.01.2020
5077 Snow -36 1018 66 10000 2 360 03:19 04.01.2020
5078 Snow -36 1018 66 10000 1 360 02:23 04.01.2020
5079 Snow -36 1018 66 10000 1 360 02:23 04.01.2020
5080 Snow -37 1018 65 10000 2 10 01:57 04.01.2020
5081 Snow -37 1018 65 10000 2 10 01:32 04.01.2020
5082 Snow -36 1018 66 10000 2 360 00:50 04.01.2020
5083 Snow -36 1018 66 10000 2 10 00:28 04.01.2020
5084 Snow -36 1018 66 10000 2 10 23:52 03.01.2020
5085 Mist -37 1019 65 5000 2 10 23:27 03.01.2020
5086 Mist -38 1019 65 5000 1 360 22:55 03.01.2020
5087 Mist -38 1019 65 5000 1 360 22:36 03.01.2020
5088 Mist -38 1019 65 5000 1 360 22:18 03.01.2020
5089 Mist -38 1019 65 5000 1 360 21:55 03.01.2020
5090 Mist -39 1019 65 5000 2 350 21:37 03.01.2020
5091 Mist -39 1019 65 5000 2 350 21:18 03.01.2020
5092 Mist -38 1019 58 5000 2 360 20:43 03.01.2020
5093 Mist -38 1019 58 5000 2 10 20:19 03.01.2020
5094 Mist -38 1019 58 5000 2 360 19:59 03.01.2020
5095 Mist -38 1019 58 5000 2 360 19:40 03.01.2020
5096 Mist -38 1019 58 5000 2 360 19:22 03.01.2020
5097 Mist -38 1019 58 5000 2 360 18:46 03.01.2020
5098 Mist -38 1019 58 5000 2 360 18:26 03.01.2020
5099 Mist -39 1019 65 3200 1 350 17:57 03.01.2020
5100 Mist -39 1019 65 3200 1 350 17:39 03.01.2020
5101 Mist -39 1019 65 3200 1 350 17:19 03.01.2020
5102 Mist -39 1019 65 3200 1 360 16:43 03.01.2020
5103 Mist -39 1019 65 3200 1 360 16:24 03.01.2020
5104 Mist -39 1019 65 3200 1 350 15:58 03.01.2020
5105 Mist -39 1019 65 3200 1 350 15:40 03.01.2020
5106 Mist -39 1019 65 3200 1 350 15:18 03.01.2020
5107 Mist -39 1019 65 5000 2 360 14:39 03.01.2020
5108 Mist -39 1019 65 5000 1 360 14:20 03.01.2020
5109 Mist -39 1019 65 3200 1 360 13:56 03.01.2020
5110 Mist -39 1019 65 3200 1 360 13:37 03.01.2020
5111 Mist -39 1019 65 3200 1 360 13:19 03.01.2020
5112 Mist -39 1019 65 3200 1 360 12:40 03.01.2020
5113 Mist -39 1019 65 3200 1 350 12:21 03.01.2020
5114 Mist -39 1019 65 3200 1 350 11:49 03.01.2020
5115 Mist -39 1019 65 3200 1 350 11:30 03.01.2020
5116 Mist -39 1019 65 3200 1 350 10:47 03.01.2020
5117 Mist -39 1019 65 3200 1 360 10:28 03.01.2020
5118 Mist -39 1019 65 3200 1 360 09:59 03.01.2020
5119 Mist -39 1019 65 3200 1 360 09:41 03.01.2020
5120 Mist -38 1019 58 5000 1 350 09:22 03.01.2020
5121 Clouds -38 1019 65 10000 1 350 08:57 03.01.2020
5122 Clouds -38 1019 65 10000 1 350 08:39 03.01.2020
5123 Clouds -38 1019 65 10000 1 350 08:20 03.01.2020
5124 Clouds -37 1019 65 10000 1 340 07:41 03.01.2020
5125 Clouds -37 1019 65 10000 1 340 07:19 03.01.2020
5126 Clouds -37 1019 65 10000 1 360 06:54 03.01.2020
5127 Clouds -36 1019 73 10000 1 350 06:35 03.01.2020
5128 Clouds -35 1019 66 10000 1 360 05:48 03.01.2020
5129 Mist -35 1019 73 5000 1 330 04:31 03.01.2020
5130 Mist -35 1020 73 5000 1.15 104 03:18 03.01.2020
5131 Mist -35 1020 66 5000 1 10 02:45 03.01.2020
5132 Snow -35 1020 66 5000 1 20 01:47 03.01.2020
5133 Snow -34 1020 66 10000 1.26 149 00:57 03.01.2020
5134 Snow -34 1021 66 10000 1.26 149 00:33 03.01.2020
5135 Clouds -34 1021 66 10000 1 10 23:58 02.01.2020
5136 Clouds -33 1020 67 10000 1.26 149 23:39 02.01.2020
5137 Clouds -33 1020 67 10000 1.45 188 23:19 02.01.2020
5138 Clouds -33 1021 67 10000 1.45 188 22:58 02.01.2020
5139 Clouds -33 1021 67 10000 1.45 188 22:58 02.01.2020
5140 Clouds -34 1021 73 10000 1.45 188 22:39 02.01.2020
5141 Clouds -34 1021 73 10000 1.45 188 22:19 02.01.2020
5142 Clouds -34 1021 66 10000 1.45 188 21:54 02.01.2020
5143 Clouds -34 1021 66 10000 1 160 21:36 02.01.2020
5144 Clouds -34 1021 66 10000 1 160 21:36 02.01.2020
5145 Clouds -34 1021 66 10000 1 160 21:18 02.01.2020
5146 Clouds -34 1021 66 10000 1 170 20:40 02.01.2020
5147 Clouds -34 1021 66 10000 1 140 20:21 02.01.2020
5148 Clouds -34 1021 66 10000 1 150 19:56 02.01.2020
5149 Clouds -34 1021 66 10000 1 150 19:56 02.01.2020
5150 Clouds -33 1021 67 10000 1 150 19:38 02.01.2020
5151 Clouds -33 1021 67 10000 1 150 19:19 02.01.2020
5152 Clouds -33 1021 67 10000 1 150 18:59 02.01.2020
5153 Clouds -33 1021 67 10000 1 150 18:40 02.01.2020
5154 Clouds -33 1020 67 10000 1.67 222 18:22 02.01.2020
5155 Clouds -33 1020 67 10000 1.67 222 17:57 02.01.2020
5156 Clouds -34 1020 73 10000 1.67 222 17:38 02.01.2020
5157 Clouds -34 1020 73 10000 2.05 251 17:19 02.01.2020
5158 Clouds -34 1020 66 10000 2.05 251 16:57 02.01.2020
5159 Clouds -34 1020 73 10000 2.05 251 16:39 02.01.2020
5160 Clouds -34 1020 73 10000 2.05 251 16:20 02.01.2020
5161 Clouds -34 1020 73 10000 1 220 15:57 02.01.2020
5162 Clouds -34 1020 73 10000 1 240 15:37 02.01.2020
5163 Clouds -33 1020 67 10000 1 220 15:19 02.01.2020
5164 Clouds -33 1020 67 10000 1 220 14:55 02.01.2020
5165 Clouds -34 1020 66 10000 1 230 14:36 02.01.2020
5166 Clouds -34 1020 66 10000 2.09 258 14:18 02.01.2020
5167 Clouds -34 1020 66 10000 2.09 258 13:47 02.01.2020
5168 Clouds -34 1020 66 10000 2.26 263 13:29 02.01.2020
5169 Mist -34 1021 66 5000 2.26 263 12:45 02.01.2020
5170 Mist -35 1020 73 5000 2.26 263 12:25 02.01.2020
5171 Mist -35 1020 66 3200 2.26 263 11:44 02.01.2020
5172 Mist -35 1020 66 3200 2.26 263 11:26 02.01.2020
5173 Mist -36 1020 66 2100 2.18 286 10:58 02.01.2020
5174 Mist -37 1020 65 2100 2.18 286 10:39 02.01.2020
5175 Mist -37 1020 65 2100 2.18 286 10:19 02.01.2020
5176 Mist -37 1020 65 2400 2.18 286 09:42 02.01.2020
5177 Mist -38 1020 65 2400 2.18 286 09:24 02.01.2020
5178 Mist -39 1020 65 2400 2.18 286 08:45 02.01.2020
5179 Mist -40 1020 65 1600 2.18 286 08:27 02.01.2020
5180 Mist -39 1019 58 1000 2.12 266 07:50 02.01.2020
5181 Fog -39 1019 65 900 2.12 266 07:30 02.01.2020
5182 Fog -39 1018 65 900 2.12 266 06:44 02.01.2020
5183 Fog -38 1018 58 500 2.12 266 06:26 02.01.2020
5184 Fog -39 1017 65 300 1.8 278 04:41 02.01.2020
5185 Fog -40 1017 65 300 1.8 278 04:21 02.01.2020
5186 Fog -41 1017 57 350 1.8 278 02:28 02.01.2020
5187 Fog -41 1016 57 550 1.64 292 01:58 02.01.2020
5188 Fog -41 1016 64 700 1.55 288 01:32 02.01.2020
5189 Fog -41 1016 64 450 1.55 288 00:57 02.01.2020
5190 Fog -41 1016 64 350 1.55 288 00:33 02.01.2020
5191 Fog -41 1016 64 350 1.55 288 00:33 02.01.2020
5192 Fog -41 1016 64 300 1 140 23:49 01.01.2020
5193 Fog -41 1016 64 300 1.55 288 23:26 01.01.2020
5194 Fog -41 1015 64 450 1.35 307 22:56 01.01.2020
5195 Fog -42 1015 64 700 1.35 307 22:37 01.01.2020
5196 Fog -42 1015 64 700 1.35 307 22:19 01.01.2020
5197 Mist -42 1015 57 3200 1.35 307 21:55 01.01.2020
5198 Mist -42 1015 57 3200 1.35 307 21:37 01.01.2020
5199 Mist -42 1015 57 3200 1.35 307 21:18 01.01.2020
5200 Mist -42 1015 57 1900 1.35 307 20:42 01.01.2020
5201 Mist -42 1015 64 1900 1.47 310 20:22 01.01.2020
5202 Snow -41 1014 57 1400 1 70 19:58 01.01.2020
5203 Snow -41 1014 57 1400 1 70 19:40 01.01.2020
5204 Snow -41 1013 64 1500 1.47 310 19:21 01.01.2020
5205 Snow -41 1013 64 3200 1 320 18:59 01.01.2020
5206 Snow -41 1013 64 3200 1 320 18:39 01.01.2020
5207 Snow -40 1014 58 3200 1 20 18:20 01.01.2020
5208 Snow -40 1013 65 3200 1 50 17:59 01.01.2020
5209 Snow -40 1013 65 3200 1 50 17:40 01.01.2020
5210 Snow -39 1013 58 2100 1 70 17:20 01.01.2020
5211 Snow -38 1013 65 2100 1 80 16:59 01.01.2020
5212 Snow -38 1013 65 2100 1 80 16:59 01.01.2020
5213 Snow -38 1013 65 2100 1 80 16:38 01.01.2020
5214 Snow -38 1013 65 2100 0.87 20 16:20 01.01.2020
5215 Snow -39 1013 65 2100 0.87 20 15:57 01.01.2020
5216 Snow -39 1013 65 2100 0.87 20 15:38 01.01.2020
5217 Snow -40 1013 65 2100 1 330 15:20 01.01.2020
5218 Snow -40 1013 65 2100 1 340 14:56 01.01.2020
5219 Snow -40 1013 58 2100 1 360 14:38 01.01.2020
5220 Snow -40 1013 58 2100 1 360 14:19 01.01.2020
5221 Snow -41 1014 64 3200 0.43 56 13:55 01.01.2020
5222 Snow -41 1014 64 3200 0.43 56 13:55 01.01.2020
5223 Snow -41 1013 64 3200 1 40 13:37 01.01.2020
5224 Snow -41 1013 64 3200 1 40 13:18 01.01.2020
5225 Snow -40 1013 58 1100 1 40 12:55 01.01.2020
5226 Snow -41 1013 64 1100 1 320 12:36 01.01.2020
5227 Snow -41 1013 64 1100 1 320 12:18 01.01.2020
5228 Snow -41 1013 64 1400 1 340 11:42 01.01.2020
5229 Snow -42 1014 64 1500 1.23 119 11:21 01.01.2020
5230 Mist -42 1014 64 1100 1 10 10:57 01.01.2020
5231 Mist -42 1014 64 1000 1.23 119 10:38 01.01.2020
5232 Mist -42 1014 64 1000 1.23 119 10:19 01.01.2020
5233 Fog -42 1014 64 900 1.23 119 09:42 01.01.2020
5234 Fog -42 1014 64 550 1.23 119 09:23 01.01.2020
5235 Fog -42 1015 57 500 1.23 119 08:57 01.01.2020
5236 Fog -42 1015 57 500 1.23 119 08:39 01.01.2020
5237 Fog -42 1015 57 450 0.92 148 08:20 01.01.2020
5238 Fog -42 1015 57 450 0.59 182 07:59 01.01.2020
5239 Fog -42 1015 57 450 0.59 182 07:41 01.01.2020
5240 Fog -43 1015 64 700 0.59 182 07:20 01.01.2020
5241 Fog -43 1015 57 750 0.59 182 06:40 01.01.2020
5242 Fog -42 1015 57 450 0.59 182 06:18 01.01.2020
5243 Fog -43 1016 64 450 1.56 157 04:36 01.01.2020
5244 Fog -43 1016 57 500 1.56 157 03:40 01.01.2020
5245 Fog -43 1017 64 300 1.56 157 03:21 01.01.2020
5246 Fog -43 1017 64 350 1.56 157 02:43 01.01.2020
5247 Fog -43 1018 64 250 1.56 157 02:24 01.01.2020
5248 Fog -43 1018 57 250 1.29 189 01:45 01.01.2020
5249 Fog -43 1018 57 250 1.38 189 01:23 01.01.2020
5250 Fog -43 1018 57 250 1.38 189 00:45 01.01.2020
5251 Fog -43 1018 57 250 1.38 189 00:26 01.01.2020
5252 Fog -43 1019 57 250 1.38 189 23:58 31.12.2019
5253 Fog -43 1019 64 150 1.38 189 23:38 31.12.2019
5254 Fog -43 1019 64 150 1.68 191 23:18 31.12.2019
5255 Fog -43 1019 64 150 1.68 191 22:56 31.12.2019
5256 Fog -43 1020 57 250 1.68 191 22:37 31.12.2019
5257 Fog -43 1020 57 250 1.68 191 22:18 31.12.2019
5258 Fog -43 1020 64 150 1.68 191 21:43 31.12.2019
5259 Fog -43 1020 57 150 1.68 191 21:25 31.12.2019
5260 Fog -43 1020 57 150 1.68 191 20:57 31.12.2019
5261 Fog -43 1020 57 150 1.68 191 20:39 31.12.2019
5262 Fog -43 1020 64 150 1.23 206 20:21 31.12.2019
5263 Fog -43 1021 64 200 1.23 206 19:58 31.12.2019
5264 Fog -43 1021 64 200 1.23 206 19:40 31.12.2019
5265 Fog -43 1021 57 250 1.23 206 19:22 31.12.2019
5266 Fog -43 1021 64 250 1.23 206 18:57 31.12.2019
5267 Fog -43 1021 64 300 1.23 206 18:38 31.12.2019
5268 Fog -43 1021 64 300 1.23 206 18:19 31.12.2019
5269 Fog -42 1021 57 350 1.23 206 17:56 31.12.2019
5270 Fog -42 1021 64 500 1.23 206 17:37 31.12.2019
5271 Fog -42 1021 64 500 1.43 244 17:18 31.12.2019
5272 Fog -42 1021 64 500 1.43 244 16:56 31.12.2019
5273 Fog -41 1022 57 250 1.43 244 16:37 31.12.2019
5274 Fog -41 1022 57 250 1.43 244 16:19 31.12.2019
5275 Fog -41 1022 64 250 1.43 244 15:56 31.12.2019
5276 Fog -41 1022 64 250 1.43 244 15:38 31.12.2019
5277 Fog -41 1022 64 300 1.43 244 15:19 31.12.2019
5278 Fog -40 1022 65 500 1.43 244 14:55 31.12.2019
5279 Fog -40 1022 65 500 1.43 244 14:37 31.12.2019
5280 Fog -40 1022 65 500 1.56 235 14:19 31.12.2019
5281 Fog -39 1022 58 500 1.56 235 13:56 31.12.2019
5282 Fog -39 1022 58 350 1.56 235 13:38 31.12.2019
5283 Fog -39 1022 58 350 1.58 236 13:20 31.12.2019
5284 Fog -39 1022 65 400 1.58 236 12:55 31.12.2019
5285 Fog -39 1022 58 500 1.58 236 12:37 31.12.2019
5286 Fog -39 1022 58 500 1.58 236 12:19 31.12.2019
5287 Fog -39 1022 58 600 1.58 236 11:55 31.12.2019
5288 Fog -39 1022 58 400 1.58 236 11:37 31.12.2019
5289 Fog -39 1022 58 400 1.64 205 11:19 31.12.2019
5290 Fog -40 1022 65 300 1.64 205 10:56 31.12.2019
5291 Fog -40 1022 65 400 1.64 205 10:37 31.12.2019
5292 Fog -40 1022 65 400 1.64 205 10:19 31.12.2019
5293 Fog -40 1022 65 450 1.64 205 09:57 31.12.2019
5294 Fog -40 1022 65 450 1.64 205 09:57 31.12.2019
5295 Fog -40 1023 65 500 1.64 205 09:38 31.12.2019
5296 Fog -40 1023 65 500 1.64 205 09:19 31.12.2019
5297 Mist -40 1023 65 1200 1.64 205 08:43 31.12.2019
5298 Snow -40 1022 65 1700 1.66 204 08:23 31.12.2019
5299 Snow -40 1022 65 1800 0.98 167 07:59 31.12.2019
5300 Snow -40 1022 65 1800 0.98 167 07:41 31.12.2019
5301 Snow -40 1022 65 1500 0.98 167 07:19 31.12.2019
5302 Snow -40 1023 65 1300 0.98 167 06:42 31.12.2019
5303 Fog -40 1023 65 800 0.98 167 05:45 31.12.2019
5304 Fog -41 1023 64 400 0.79 185 04:27 31.12.2019
5305 Fog -41 1024 57 700 0.79 185 03:27 31.12.2019
5306 Fog -42 1024 64 800 0.79 185 02:39 31.12.2019
5307 Fog -42 1024 64 550 0.49 127 01:53 31.12.2019
5308 Fog -42 1025 57 550 0.49 127 01:34 31.12.2019
5309 Fog -42 1025 57 450 0.62 136 00:56 31.12.2019
5310 Fog -43 1025 64 500 0.62 136 00:37 31.12.2019
5311 Fog -43 1025 64 500 0.62 136 00:18 31.12.2019
5312 Fog -43 1025 57 400 0.62 136 23:55 30.12.2019
5313 Fog -43 1025 57 500 0.62 136 23:37 30.12.2019
5314 Fog -43 1025 57 500 0.84 149 23:18 30.12.2019
5315 Fog -43 1025 57 800 0.84 149 22:56 30.12.2019
5316 Fog -43 1025 57 600 0.84 149 22:37 30.12.2019
5317 Fog -43 1025 57 600 0.84 149 22:18 30.12.2019
5318 Fog -43 1026 57 550 0.84 149 21:55 30.12.2019
5319 Fog -43 1026 57 350 0.84 149 21:37 30.12.2019
5320 Fog -43 1026 57 350 0.84 149 21:18 30.12.2019
5321 Fog -43 1026 57 350 0.84 149 20:56 30.12.2019
5322 Fog -43 1026 57 500 0.84 149 20:37 30.12.2019
5323 Fog -43 1026 57 500 1.08 169 20:19 30.12.2019
5324 Fog -43 1026 57 450 1.08 169 19:55 30.12.2019
5325 Fog -43 1027 57 500 1.08 169 19:37 30.12.2019
5326 Fog -43 1027 57 500 1.08 169 19:18 30.12.2019
5327 Fog -43 1027 57 500 1.08 169 18:56 30.12.2019
5328 Fog -43 1027 57 350 1.08 169 18:36 30.12.2019
5329 Fog -43 1027 57 350 1.08 169 18:18 30.12.2019
5330 Fog -43 1027 57 350 1.08 169 17:54 30.12.2019
5331 Fog -43 1027 57 600 1.08 169 17:36 30.12.2019
5332 Fog -43 1027 57 600 1.06 158 17:18 30.12.2019
5333 Fog -43 1028 57 650 1.06 158 16:41 30.12.2019
5334 Fog -43 1028 57 700 1.06 158 16:20 30.12.2019
5335 Fog -43 1028 57 800 1.06 158 15:57 30.12.2019
5336 Fog -43 1028 57 800 1.06 158 15:39 30.12.2019
5337 Fog -43 1028 57 800 1.06 158 15:19 30.12.2019
5338 Fog -43 1028 57 800 1.06 158 15:19 30.12.2019
5339 Fog -43 1029 57 650 1.06 158 14:55 30.12.2019
5340 Fog -43 1029 57 800 1 350 14:37 30.12.2019
5341 Fog -43 1029 57 800 1 350 14:37 30.12.2019
5342 Fog -43 1029 57 800 1 350 14:18 30.12.2019
5343 Fog -43 1030 57 600 1.02 171 13:42 30.12.2019
5344 Fog -43 1030 57 600 1 350 13:24 30.12.2019
5345 Fog -43 1030 57 450 1.08 166 12:59 30.12.2019
5346 Fog -43 1030 57 450 1.08 166 12:41 30.12.2019
5347 Fog -44 1031 63 400 1.08 166 12:19 30.12.2019
5348 Fog -43 1031 57 400 1.08 166 11:58 30.12.2019
5349 Fog -43 1031 57 400 1.08 166 11:39 30.12.2019
5350 Fog -44 1031 57 450 1 360 11:18 30.12.2019
5351 Fog -44 1031 63 650 1 360 10:43 30.12.2019
5352 Fog -44 1032 63 450 1 10 10:21 30.12.2019
5353 Fog -43 1032 57 450 1.53 180 09:55 30.12.2019
5354 Fog -43 1032 57 400 1 350 09:37 30.12.2019
5355 Fog -43 1032 57 400 1 350 09:18 30.12.2019
5356 Fog -43 1032 57 900 1.53 180 08:46 30.12.2019
5357 Fog -43 1033 57 800 1.61 182 08:23 30.12.2019
5358 Fog -43 1033 57 800 1.41 179 07:53 30.12.2019
5359 Fog -43 1033 57 750 1.41 179 07:33 30.12.2019
5360 Fog -43 1033 57 350 1.41 179 06:50 30.12.2019
5361 Fog -43 1035 57 350 1.11 190 04:50 30.12.2019
5362 Fog -43 1035 64 400 1.11 190 03:52 30.12.2019
5363 Fog -43 1036 57 250 1.11 190 02:47 30.12.2019
5364 Fog -43 1036 57 150 1.11 190 02:29 30.12.2019
5365 Fog -44 1036 63 150 1.62 199 01:47 30.12.2019
5366 Fog -43 1037 57 150 1.62 199 01:19 30.12.2019
5367 Fog -43 1037 57 150 1.62 201 00:42 30.12.2019
5368 Fog -43 1037 57 200 1.62 201 23:59 29.12.2019
5369 Fog -43 1037 57 200 1.62 201 23:38 29.12.2019
5370 Fog -43 1037 57 200 1.47 196 23:20 29.12.2019
5371 Fog -43 1038 57 250 1.47 196 22:42 29.12.2019
5372 Fog -43 1038 64 300 1.47 196 22:22 29.12.2019
5373 Fog -43 1038 64 300 1.47 196 22:22 29.12.2019
5374 Fog -42 1038 57 450 1.47 196 21:57 29.12.2019
5375 Fog -42 1038 57 450 1.47 196 21:39 29.12.2019
5376 Fog -42 1038 57 800 1.47 196 21:20 29.12.2019
5377 Fog -42 1039 64 600 1.47 196 20:57 29.12.2019
5378 Fog -42 1039 64 600 1.47 196 20:38 29.12.2019
5379 Fog -42 1039 64 600 1 150 20:20 29.12.2019
5380 Fog -43 1039 64 200 1.39 196 19:58 29.12.2019
5381 Fog -43 1039 64 200 1.39 196 19:39 29.12.2019
5382 Fog -43 1039 64 200 1.39 196 19:20 29.12.2019
5383 Fog -43 1039 64 200 1.39 196 18:56 29.12.2019
5384 Fog -42 1039 57 150 1.39 196 18:38 29.12.2019
5385 Fog -42 1039 57 150 1.39 196 18:19 29.12.2019
5386 Fog -42 1040 57 150 1.39 196 17:57 29.12.2019
5387 Fog -42 1040 64 150 1.39 196 17:39 29.12.2019
5388 Fog -42 1040 64 150 1.56 208 17:20 29.12.2019
5389 Fog -41 1040 57 450 1 200 16:56 29.12.2019
5390 Fog -42 1040 64 400 1 170 16:37 29.12.2019
5391 Fog -42 1040 64 400 1 170 16:19 29.12.2019
5392 Fog -42 1040 64 700 1 120 15:56 29.12.2019
5393 Fog -42 1040 64 700 1 120 15:38 29.12.2019
5394 Fog -41 1040 57 350 1.56 208 15:19 29.12.2019
5395 Fog -41 1041 57 500 1.56 208 14:56 29.12.2019
5396 Fog -42 1041 64 550 1 170 14:37 29.12.2019
5397 Fog -42 1041 64 550 1 170 14:18 29.12.2019
5398 Fog -42 1041 64 700 1 150 13:55 29.12.2019
5399 Fog -42 1041 64 700 1 150 13:55 29.12.2019
5400 Fog -42 1041 64 500 1.2 233 13:37 29.12.2019
5401 Fog -42 1041 64 500 1.25 228 13:18 29.12.2019
5402 Fog -42 1041 64 500 1.25 228 13:18 29.12.2019
5403 Fog -42 1041 64 150 1.25 228 12:43 29.12.2019
5404 Fog -41 1041 57 750 1.25 228 12:25 29.12.2019
5405 Fog -41 1041 57 750 1.25 228 12:25 29.12.2019
5406 Fog -41 1041 57 400 1 160 11:56 29.12.2019
5407 Fog -42 1041 64 550 1 150 11:38 29.12.2019
5408 Fog -42 1041 64 550 1 150 11:20 29.12.2019
5409 Fog -42 1041 64 500 1.41 215 10:42 29.12.2019
5410 Fog -42 1041 57 500 1.41 215 10:23 29.12.2019
5411 Fog -42 1041 64 200 1.41 215 09:57 29.12.2019
5412 Fog -42 1041 64 200 1.41 215 09:38 29.12.2019
5413 Fog -42 1041 64 450 1.41 215 09:20 29.12.2019
5414 Fog -42 1041 57 200 1 140 08:47 29.12.2019
5415 Fog -42 1041 64 450 1.41 215 08:24 29.12.2019
5416 Fog -42 1040 57 600 1 160 07:55 29.12.2019
5417 Fog -42 1040 57 500 1 150 07:28 29.12.2019
5418 Fog -42 1040 57 400 1 160 06:55 29.12.2019
5419 Fog -42 1040 57 350 1.3 222 06:25 29.12.2019
5420 Fog -42 1040 57 500 1 160 05:51 29.12.2019
5421 Fog -43 1040 64 350 1 180 04:36 29.12.2019
5422 Fog -43 1040 57 450 1 160 03:54 29.12.2019
5423 Fog -43 1040 57 300 1 160 03:20 29.12.2019
5424 Fog -44 1040 57 500 1 150 02:20 29.12.2019
5425 Fog -44 1039 57 300 1.29 223 01:31 29.12.2019
5426 Fog -44 1039 57 300 1.29 223 01:31 29.12.2019
5427 Fog -44 1039 57 400 1.29 223 00:58 29.12.2019
5428 Fog -44 1039 63 150 1.29 223 00:40 29.12.2019
5429 Fog -44 1039 63 150 1.29 223 00:21 29.12.2019
5430 Fog -44 1039 57 300 1 220 23:43 28.12.2019
5431 Fog -44 1039 57 550 1 180 23:18 28.12.2019
5432 Fog -45 1038 56 900 1 160 22:39 28.12.2019
5433 Fog -45 1038 56 250 1 150 22:20 28.12.2019
5434 Fog -45 1038 56 650 1 120 21:58 28.12.2019
5435 Fog -45 1038 56 650 1 120 21:39 28.12.2019
5436 Fog -44 1038 57 150 1 160 21:21 28.12.2019
5437 Fog -44 1038 57 400 1 220 20:57 28.12.2019
5438 Fog -45 1038 56 1300 1 180 20:37 28.12.2019
5439 Fog -45 1038 56 1300 1 180 20:37 28.12.2019
5440 Fog -45 1038 56 1300 1 180 20:19 28.12.2019
5441 Fog -45 1037 56 450 2 150 19:57 28.12.2019
5442 Fog -45 1037 56 450 2 150 19:39 28.12.2019
5443 Fog -45 1037 56 450 1 150 19:20 28.12.2019
5444 Fog -45 1037 56 550 1 170 18:57 28.12.2019
5445 Fog -45 1037 63 500 1 150 18:39 28.12.2019
5446 Fog -45 1037 63 500 1 150 18:18 28.12.2019
5447 Fog -45 1037 63 450 1 180 17:54 28.12.2019
5448 Fog -45 1036 56 900 1 170 17:36 28.12.2019
5449 Fog -45 1036 56 900 1 170 17:18 28.12.2019
5450 Fog -45 1036 56 400 1 130 16:46 28.12.2019
5451 Fog -45 1036 56 450 1 150 16:25 28.12.2019
5452 Fog -45 1036 56 600 1 160 15:46 28.12.2019
5453 Fog -45 1036 56 550 1 170 15:24 28.12.2019
5454 Fog -45 1036 56 600 1 170 14:59 28.12.2019
5455 Fog -45 1036 56 600 1 170 14:39 28.12.2019
5456 Fog -45 1036 56 350 2 160 14:20 28.12.2019
5457 Fog -45 1035 56 500 1 160 13:56 28.12.2019
5458 Fog -45 1035 56 300 1 150 13:37 28.12.2019
5459 Fog -45 1035 56 300 1 150 13:18 28.12.2019
5460 Fog -45 1035 56 400 1 190 12:42 28.12.2019
5461 Fog -46 1035 56 350 1 160 12:23 28.12.2019
5462 Fog -46 1034 56 400 2 150 11:56 28.12.2019
5463 Fog -46 1034 63 250 2 150 11:38 28.12.2019
5464 Fog -46 1034 63 250 2 150 11:18 28.12.2019
5465 Fog -46 1034 56 300 1 180 10:44 28.12.2019
5466 Fog -46 1034 56 350 1 160 10:22 28.12.2019
5467 Fog -46 1033 56 350 1 150 09:57 28.12.2019
5468 Fog -46 1033 56 350 1 150 09:39 28.12.2019
5469 Fog -45 1033 56 250 2 160 09:19 28.12.2019
5470 Fog -45 1033 56 550 2 170 08:44 28.12.2019
5471 Fog -45 1033 56 600 2 160 08:26 28.12.2019
5472 Fog -45 1033 56 450 1 150 07:49 28.12.2019
5473 Fog -45 1032 56 300 1 140 07:30 28.12.2019
5474 Fog -45 1032 63 300 1 140 06:27 28.12.2019
5475 Fog -45 1031 56 400 0.68 278 04:36 28.12.2019
5476 Fog -45 1031 56 350 0.68 278 03:39 28.12.2019
5477 Fog -46 1031 56 300 0.68 278 02:48 28.12.2019
5478 Fog -47 1031 55 300 1 110 01:59 28.12.2019
5479 Fog -46 1030 56 400 0.79 331 01:30 28.12.2019
5480 Fog -47 1030 55 250 0.84 326 00:55 28.12.2019
5481 Fog -47 1030 55 300 0.84 326 00:37 28.12.2019
5482 Fog -47 1030 55 300 0.84 326 00:19 28.12.2019
5483 Fog -47 1030 55 350 0.84 326 23:43 27.12.2019
5484 Fog -47 1030 49 450 0.7 1 23:19 27.12.2019
5485 Fog -47 1030 49 450 0.7 1 23:19 27.12.2019
5486 Fog -47 1030 49 500 0.7 1 22:57 27.12.2019
5487 Fog -47 1030 49 500 0.7 1 22:38 27.12.2019
5488 Fog -47 1029 55 600 0.7 1 22:20 27.12.2019
5489 Fog -47 1029 55 350 0.7 1 21:55 27.12.2019
5490 Fog -47 1029 55 300 0.7 1 21:36 27.12.2019
5491 Fog -47 1029 55 300 0.7 1 21:18 27.12.2019
5492 Fog -47 1029 55 350 2 310 20:41 27.12.2019
5493 Fog -47 1029 55 750 1 300 20:22 27.12.2019
5494 Fog -46 1029 56 600 1.08 31 19:42 27.12.2019
5495 Fog -46 1029 56 600 1.08 31 19:21 27.12.2019
5496 Fog -47 1029 55 550 1 300 18:59 27.12.2019
5497 Fog -47 1029 55 550 1 300 18:39 27.12.2019
5498 Fog -46 1028 56 450 1 310 18:20 27.12.2019
5499 Fog -46 1028 56 700 1 310 17:57 27.12.2019
5500 Fog -46 1028 56 350 1 310 17:39 27.12.2019
5501 Fog -46 1028 56 350 1 310 17:19 27.12.2019
5502 Fog -46 1028 56 550 1 300 16:58 27.12.2019
5503 Fog -46 1028 56 300 1 310 16:38 27.12.2019
5504 Fog -46 1028 56 300 1 310 16:19 27.12.2019
5505 Fog -46 1028 56 400 1 300 15:44 27.12.2019
5506 Fog -46 1028 56 400 1.13 33 15:22 27.12.2019
5507 Fog -46 1028 56 500 1 300 14:57 27.12.2019
5508 Fog -46 1028 56 500 1 300 14:39 27.12.2019
5509 Fog -46 1028 56 200 1 300 14:20 27.12.2019
5510 Fog -46 1028 56 200 1 300 14:20 27.12.2019
5511 Fog -46 1028 56 200 1 330 13:48 27.12.2019
5512 Fog -47 1028 55 450 1 340 13:25 27.12.2019
5513 Fog -47 1028 55 500 1 360 12:58 27.12.2019
5514 Fog -47 1028 55 500 1 360 12:40 27.12.2019
5515 Fog -46 1028 56 450 1 360 12:21 27.12.2019
5516 Fog -46 1028 56 550 1 330 11:45 27.12.2019
5517 Fog -46 1027 56 450 1 330 11:26 27.12.2019
5518 Fog -46 1027 56 600 1 350 10:58 27.12.2019
5519 Fog -46 1027 56 600 1 350 10:39 27.12.2019
5520 Fog -46 1027 56 750 2 360 10:21 27.12.2019
5521 Fog -46 1027 56 650 1 350 09:44 27.12.2019
5522 Fog -46 1027 56 450 1 340 09:22 27.12.2019
5523 Fog -47 1027 55 500 2 340 08:59 27.12.2019
5524 Fog -46 1027 56 500 1 340 08:36 27.12.2019
5525 Fog -46 1027 56 300 1 340 07:52 27.12.2019
5526 Fog -46 1027 56 450 1 340 07:33 27.12.2019
5527 Fog -46 1026 56 900 1 360 06:38 27.12.2019
5528 Fog -47 1027 55 550 2 360 05:38 27.12.2019
5529 Fog -47 1027 49 300 2 330 03:47 27.12.2019
5530 Fog -48 1027 55 350 1 360 02:23 27.12.2019
5531 Fog -48 1027 55 300 2 350 01:42 27.12.2019
5532 Fog -48 1027 55 300 1 350 01:20 27.12.2019
5533 Fog -48 1027 55 300 1 330 00:44 27.12.2019
5534 Fog -48 1026 55 400 1 330 00:24 27.12.2019
5535 Fog -48 1026 55 400 1 360 23:42 26.12.2019
5536 Fog -48 1026 55 400 1 360 23:23 26.12.2019
5537 Fog -48 1026 55 450 1 340 22:57 26.12.2019
5538 Fog -48 1026 55 450 2 340 22:37 26.12.2019
5539 Fog -48 1026 55 450 2 340 22:18 26.12.2019
5540 Fog -48 1026 55 400 2 350 21:39 26.12.2019
5541 Fog -48 1026 55 500 2 350 21:21 26.12.2019
5542 Fog -48 1026 55 500 1 350 20:47 26.12.2019
5543 Fog -48 1026 55 600 2 360 20:24 26.12.2019
5544 Fog -48 1026 55 400 2 350 19:59 26.12.2019
5545 Fog -48 1026 55 400 2 350 19:40 26.12.2019
5546 Fog -48 1026 55 400 1 350 19:22 26.12.2019
5547 Fog -48 1026 55 250 1 350 18:59 26.12.2019
5548 Fog -48 1026 55 250 1 350 18:40 26.12.2019
5549 Fog -48 1025 55 300 1 330 18:20 26.12.2019
5550 Fog -48 1026 55 250 1 340 17:58 26.12.2019
5551 Fog -48 1026 55 250 1 340 17:40 26.12.2019
5552 Fog -48 1026 55 250 1 330 17:19 26.12.2019
5553 Fog -48 1026 55 250 1 320 16:46 26.12.2019
5554 Fog -48 1026 55 200 1 340 16:26 26.12.2019
5555 Fog -48 1026 55 150 1 340 15:56 26.12.2019
5556 Fog -48 1026 55 150 1 340 15:38 26.12.2019
5557 Fog -48 1026 55 150 1 340 15:18 26.12.2019
5558 Fog -48 1026 55 150 1 340 15:18 26.12.2019
5559 Fog -48 1026 55 400 1 10 14:41 26.12.2019
5560 Fog -48 1026 55 600 1 20 14:23 26.12.2019
5561 Fog -48 1026 55 600 1 30 13:45 26.12.2019
5562 Fog -48 1026 55 450 1 20 13:24 26.12.2019
5563 Fog -48 1026 55 450 1 10 12:59 26.12.2019
5564 Fog -48 1026 55 450 1 10 12:41 26.12.2019
5565 Fog -47 1025 49 300 1 350 12:23 26.12.2019
5566 Fog -47 1025 49 300 1 350 11:58 26.12.2019
5567 Fog -47 1025 49 300 1 350 11:58 26.12.2019
5568 Fog -47 1025 49 300 1 350 11:40 26.12.2019
5569 Fog -47 1025 55 300 1 330 11:21 26.12.2019
5570 Fog -47 1025 55 350 1 360 10:50 26.12.2019
5571 Fog -47 1025 55 300 1 350 10:25 26.12.2019
5572 Fog -47 1025 55 250 1 350 09:54 26.12.2019
5573 Fog -47 1025 55 300 1 340 09:33 26.12.2019
5574 Fog -47 1025 49 200 1 320 08:58 26.12.2019
5575 Fog -47 1025 49 200 1 320 08:39 26.12.2019
5576 Fog -48 1025 55 200 1 320 08:20 26.12.2019
5577 Fog -48 1025 55 250 1 340 07:35 26.12.2019
5578 Fog -48 1025 55 600 1 10 06:57 26.12.2019
5579 Fog -48 1025 55 450 2 30 06:37 26.12.2019
5580 Fog -48 1025 55 450 2 30 06:19 26.12.2019
5581 Fog -47 1025 55 350 1.46 50 05:40 26.12.2019
5582 Fog -48 1025 55 350 1.41 33 04:32 26.12.2019
5583 Fog -48 1025 55 300 1.41 33 03:31 26.12.2019
5584 Fog -48 1025 55 100 1.41 33 02:46 26.12.2019
5585 Fog -48 1025 49 500 1 350 02:25 26.12.2019
5586 Fog -48 1025 49 500 1 350 02:25 26.12.2019
5587 Fog -49 1025 55 500 1 10 01:44 26.12.2019
5588 Fog -48 1026 55 200 1 30 01:24 26.12.2019
5589 Fog -48 1025 55 200 1.22 16 00:43 26.12.2019
5590 Fog -48 1025 49 200 1.22 16 00:22 26.12.2019
5591 Fog -48 1025 55 400 1 320 23:57 25.12.2019
5592 Fog -48 1025 49 200 1 320 23:36 25.12.2019
5593 Fog -48 1025 49 200 1 320 23:18 25.12.2019
5594 Fog -48 1025 49 150 1 310 22:55 25.12.2019
5595 Fog -49 1025 55 150 1 350 22:37 25.12.2019
5596 Fog -49 1025 55 150 1 350 22:37 25.12.2019
5597 Fog -49 1025 55 150 1 350 22:18 25.12.2019
5598 Fog -49 1025 55 150 0.97 30 21:55 25.12.2019
5599 Fog -49 1025 55 150 0.97 30 21:37 25.12.2019
5600 Fog -49 1025 55 150 0.97 30 21:18 25.12.2019
5601 Fog -49 1025 55 300 1 340 20:40 25.12.2019
5602 Fog -49 1025 55 350 1 320 20:20 25.12.2019
5603 Fog -49 1025 55 150 1 310 19:59 25.12.2019
5604 Fog -49 1025 55 150 1 310 19:40 25.12.2019
5605 Fog -49 1025 55 350 1 350 19:21 25.12.2019
5606 Fog -49 1025 55 300 1 10 18:40 25.12.2019
5607 Fog -49 1025 55 400 0.95 30 18:21 25.12.2019
5608 Fog -49 1025 55 400 0.95 30 18:21 25.12.2019
5609 Fog -48 1025 49 300 1 300 17:57 25.12.2019
5610 Fog -48 1025 49 300 1 300 17:39 25.12.2019
5611 Fog -48 1025 49 200 1.07 31 17:18 25.12.2019
5612 Fog -49 1026 55 300 1 350 16:39 25.12.2019
5613 Fog -48 1026 55 450 1.07 31 16:20 25.12.2019
5614 Fog -48 1026 55 200 1 340 15:59 25.12.2019
5615 Fog -48 1026 55 200 1 340 15:40 25.12.2019
5616 Fog -48 1026 55 200 1 350 15:22 25.12.2019
5617 Fog -48 1026 55 250 1.07 31 14:59 25.12.2019
5618 Fog -48 1026 55 250 1.07 31 14:41 25.12.2019
5619 Fog -48 1026 55 100 1 350 14:23 25.12.2019
5620 Fog -49 1026 55 150 2 10 13:58 25.12.2019
5621 Fog -49 1026 55 150 2 10 13:39 25.12.2019
5622 Fog -48 1026 49 200 1 360 13:19 25.12.2019
5623 Fog -48 1026 55 300 1 340 12:43 25.12.2019
5624 Fog -48 1026 55 300 1.18 9 12:21 25.12.2019
5625 Fog -47 1026 55 450 1 310 11:57 25.12.2019
5626 Fog -47 1026 55 450 1 310 11:39 25.12.2019
5627 Fog -47 1026 49 450 1 350 11:20 25.12.2019
5628 Fog -47 1026 55 500 2 340 10:39 25.12.2019
5629 Fog -47 1026 55 500 2 340 10:39 25.12.2019
5630 Fog -47 1026 55 550 2 330 10:21 25.12.2019
5631 Fog -47 1026 55 500 2 350 09:51 25.12.2019
5632 Fog -47 1026 55 650 2 360 09:33 25.12.2019
5633 Fog -47 1027 55 700 2 340 08:56 25.12.2019
5634 Fog -47 1027 55 650 2 340 08:38 25.12.2019
5635 Fog -47 1027 55 650 2 340 08:19 25.12.2019
5636 Fog -47 1027 55 600 2 350 07:40 25.12.2019
5637 Mist -47 1027 55 1000 3 360 07:21 25.12.2019
5638 Fog -47 1026 55 700 2 350 06:24 25.12.2019
5639 Fog -46 1027 56 800 2 350 05:44 25.12.2019
5640 Mist -46 1027 56 1000 3 350 04:42 25.12.2019
5641 Mist -46 1027 56 1000 2 350 04:24 25.12.2019
5642 Mist -47 1027 55 1000 2 360 03:43 25.12.2019
5643 Mist -47 1027 55 1000 2 350 02:58 25.12.2019
5644 Fog -46 1027 56 800 2 340 02:29 25.12.2019
5645 Mist -46 1027 56 1000 2 350 01:43 25.12.2019
5646 Mist -46 1027 56 1000 2 10 01:18 25.12.2019
5647 Mist -46 1027 56 1000 2 360 00:41 25.12.2019
5648 Mist -46 1027 56 1000 3 360 00:23 25.12.2019
5649 Mist -46 1027 56 1000 3 360 00:23 25.12.2019
5650 Mist -45 1027 56 1000 2 360 23:39 24.12.2019
5651 Mist -45 1026 56 1000 2 350 23:20 24.12.2019
5652 Mist -45 1026 56 1200 2 350 22:42 24.12.2019
5653 Mist -45 1026 63 1500 2 350 22:24 24.12.2019
5654 Mist -44 1026 57 1500 2 360 21:59 24.12.2019
5655 Mist -44 1026 57 3200 2 10 21:41 24.12.2019
5656 Mist -44 1026 57 3200 2 10 21:20 24.12.2019
5657 Mist -43 1026 57 5000 2 20 20:42 24.12.2019
5658 Clouds -43 1026 64 10000 3 20 20:23 24.12.2019
5659 Clouds -43 1026 64 10000 4 10 19:55 24.12.2019
5660 Snow -42 1026 57 10000 3 10 19:37 24.12.2019
5661 Snow -42 1026 57 10000 3 10 19:18 24.12.2019
5662 Snow -42 1026 57 10000 3 10 19:18 24.12.2019
5663 Snow -42 1026 64 10000 3 20 18:42 24.12.2019
5664 Snow -41 1026 57 10000 3 10 18:19 24.12.2019
5665 Snow -41 1026 64 2400 4 30 17:44 24.12.2019
5666 Snow -40 1026 65 1500 2 360 17:22 24.12.2019
5667 Snow -40 1026 65 1500 2 360 17:22 24.12.2019
5668 Snow -40 1026 65 1500 2 350 16:58 24.12.2019
5669 Snow -40 1026 65 1500 2 350 16:40 24.12.2019
5670 Snow -40 1026 58 1500 2 360 16:21 24.12.2019
5671 Snow -41 1026 64 10000 2 10 15:58 24.12.2019
5672 Snow -40 1026 58 10000 2 20 15:37 24.12.2019
5673 Snow -40 1026 58 10000 2 20 15:19 24.12.2019
5674 Snow -39 1025 58 10000 2 20 14:58 24.12.2019
5675 Snow -39 1025 58 10000 2 20 14:40 24.12.2019
5676 Snow -39 1025 58 10000 2 20 14:40 24.12.2019
5677 Snow -39 1025 58 10000 2 20 14:21 24.12.2019
5678 Snow -39 1025 58 10000 2 30 13:56 24.12.2019
5679 Snow -39 1025 58 10000 2 30 13:38 24.12.2019
5680 Snow -39 1025 65 10000 2 30 13:20 24.12.2019
5681 Snow -39 1025 65 5000 2 30 12:56 24.12.2019
5682 Snow -39 1025 65 5000 2 30 12:56 24.12.2019
5683 Snow -39 1025 65 5000 2 30 12:38 24.12.2019
5684 Snow -39 1025 65 5000 2 30 12:19 24.12.2019
5685 Snow -39 1025 65 5000 2 30 12:19 24.12.2019
5686 Snow -39 1025 65 10000 2 20 11:56 24.12.2019
5687 Snow -39 1025 65 10000 3 10 11:37 24.12.2019
5688 Snow -39 1025 65 10000 3 10 11:19 24.12.2019
5689 Snow -39 1025 65 10000 3 20 10:56 24.12.2019
5690 Snow -39 1025 65 10000 3 20 10:56 24.12.2019
5691 Snow -39 1025 65 10000 3 30 10:38 24.12.2019
5692 Snow -39 1025 65 10000 3 30 10:38 24.12.2019
5693 Snow -39 1025 65 10000 3 30 10:19 24.12.2019
5694 Snow -39 1024 65 10000 3 20 09:55 24.12.2019
5695 Snow -38 1024 58 10000 3 20 09:37 24.12.2019
5696 Snow -38 1024 58 10000 3 20 09:19 24.12.2019
5697 Snow -38 1024 58 10000 3 20 08:46 24.12.2019
5698 Clouds -38 1024 58 10000 3 30 08:24 24.12.2019
5699 Snow -38 1024 58 10000 3 30 07:46 24.12.2019
5700 Snow -39 1024 65 10000 3 20 07:28 24.12.2019
5701 Snow -39 1023 65 10000 3 20 06:59 24.12.2019
5702 Snow -39 1023 65 10000 3 20 06:39 24.12.2019
5703 Snow -38 1023 58 10000 2 30 06:19 24.12.2019
5704 Snow -38 1023 65 10000 3 30 05:49 24.12.2019
5705 Snow -37 1023 59 10000 2 20 05:18 24.12.2019
5706 Snow -37 1023 59 10000 3 30 03:55 24.12.2019
5707 Snow -38 1023 65 5000 3 20 03:33 24.12.2019
5708 Snow -37 1023 65 5000 3 20 02:28 24.12.2019
5709 Snow -37 1023 65 5000 3 30 01:53 24.12.2019
5710 Snow -37 1023 65 5000 3 30 01:23 24.12.2019
5711 Snow -37 1022 65 5000 3 20 00:55 24.12.2019
5712 Snow -36 1022 66 5000 2 20 00:37 24.12.2019
5713 Snow -36 1022 66 5000 2 20 00:19 24.12.2019
5714 Snow -36 1022 66 5000 2 40 23:41 23.12.2019
5715 Snow -36 1022 73 5000 2 30 23:23 23.12.2019
5716 Snow -35 1022 66 5000 2 20 22:56 23.12.2019
5717 Snow -34 1022 66 3200 2 320 22:37 23.12.2019
5718 Snow -34 1022 66 3200 2 320 22:19 23.12.2019
5719 Snow -34 1022 66 5000 2 290 21:55 23.12.2019
5720 Snow -34 1022 66 5000 1 300 21:36 23.12.2019
5721 Snow -34 1022 66 5000 1 300 21:36 23.12.2019
5722 Snow -34 1022 66 5000 1 300 21:18 23.12.2019
5723 Snow -34 1022 66 5000 1 300 21:18 23.12.2019
5724 Snow -34 1022 66 3200 1 300 20:57 23.12.2019
5725 Snow -34 1022 66 3200 1 300 20:39 23.12.2019
5726 Snow -34 1022 66 5000 1 250 20:18 23.12.2019
5727 Snow -34 1022 66 5000 2 240 19:56 23.12.2019
5728 Snow -34 1022 66 5000 2 220 19:38 23.12.2019
5729 Snow -34 1022 66 5000 2 220 19:19 23.12.2019
5730 Snow -35 1022 73 5000 1 220 18:58 23.12.2019
5731 Snow -36 1022 73 5000 1 230 18:39 23.12.2019
5732 Snow -36 1022 73 5000 1 230 18:20 23.12.2019
5733 Mist -38 1022 65 1500 1 220 17:57 23.12.2019
5734 Fog -39 1022 65 450 1.38 245 17:39 23.12.2019
5735 Fog -39 1022 65 450 1.36 235 17:19 23.12.2019
5736 Fog -39 1022 65 400 1.36 235 16:55 23.12.2019
5737 Fog -39 1022 58 350 1.36 235 16:37 23.12.2019
5738 Fog -39 1022 58 350 1.36 235 16:18 23.12.2019
5739 Fog -40 1022 65 300 1.36 235 15:55 23.12.2019
5740 Fog -40 1022 65 250 1.36 235 15:36 23.12.2019
5741 Fog -40 1022 65 250 1.36 235 15:18 23.12.2019
5742 Fog -40 1022 65 300 1.36 235 14:55 23.12.2019
5743 Fog -41 1022 64 250 1.36 235 14:36 23.12.2019
5744 Fog -41 1022 64 250 1.31 261 14:18 23.12.2019
5745 Fog -41 1022 57 200 1.31 261 13:55 23.12.2019
5746 Fog -42 1022 64 250 1.31 261 13:37 23.12.2019
5747 Fog -42 1022 64 250 1.26 259 13:19 23.12.2019
5748 Fog -41 1022 57 200 1.26 259 12:41 23.12.2019
5749 Fog -41 1022 57 200 1.26 259 12:21 23.12.2019
5750 Fog -42 1022 64 150 1.26 259 11:59 23.12.2019
5751 Fog -42 1022 64 150 1.26 259 11:41 23.12.2019
5752 Fog -42 1022 64 150 1.64 276 11:22 23.12.2019
5753 Fog -41 1022 57 150 1.64 276 10:55 23.12.2019
5754 Fog -41 1022 64 100 1 260 10:37 23.12.2019
5755 Fog -41 1022 64 100 1 260 10:37 23.12.2019
5756 Fog -41 1022 64 100 1 260 10:18 23.12.2019
5757 Fog -41 1022 64 250 1.64 276 09:56 23.12.2019
5758 Fog -41 1022 64 250 1.64 276 09:37 23.12.2019
5759 Fog -41 1022 64 250 1.64 276 09:19 23.12.2019
5760 Fog -41 1022 57 300 1.64 276 08:41 23.12.2019
5761 Fog -41 1022 57 300 1.15 278 08:22 23.12.2019
5762 Fog -41 1022 64 250 1.15 278 07:56 23.12.2019
5763 Fog -41 1022 64 250 1.15 278 07:38 23.12.2019
5764 Fog -41 1022 64 250 1.15 278 07:18 23.12.2019
5765 Fog -41 1022 64 250 1.15 278 06:39 23.12.2019
5766 Fog -41 1022 64 300 1.15 278 06:21 23.12.2019
5767 Fog -41 1021 64 300 1.15 278 05:44 23.12.2019
5768 Fog -41 1022 57 250 1.63 281 04:44 23.12.2019
5769 Fog -41 1022 57 200 1.63 281 03:58 23.12.2019
5770 Fog -42 1022 57 150 1.63 281 02:47 23.12.2019
5771 Fog -42 1022 57 150 1.39 277 02:20 23.12.2019
5772 Fog -42 1021 57 150 1.39 277 01:50 23.12.2019
5773 Fog -42 1021 57 200 1.39 277 01:31 23.12.2019
5774 Fog -42 1021 57 300 1.36 273 00:48 23.12.2019
5775 Fog -43 1021 64 400 1.36 273 00:27 23.12.2019
5776 Fog -42 1021 57 400 1.36 273 23:57 22.12.2019
5777 Fog -42 1021 57 400 1.36 273 23:57 22.12.2019
5778 Fog -42 1020 64 400 1.36 273 23:37 22.12.2019
5779 Fog -42 1020 64 400 1.12 273 23:19 22.12.2019
5780 Fog -41 1020 57 500 1 290 22:56 22.12.2019
5781 Fog -41 1020 57 900 1 280 22:38 22.12.2019
5782 Fog -41 1020 57 900 1 280 22:19 22.12.2019
5783 Fog -41 1020 57 900 1.12 273 21:56 22.12.2019
5784 Fog -41 1020 57 500 1.12 273 21:38 22.12.2019
5785 Fog -41 1020 57 500 1.12 273 21:20 22.12.2019
5786 Fog -41 1020 57 900 1.12 273 20:41 22.12.2019
5787 Fog -41 1020 64 450 1.01 282 20:19 22.12.2019
5788 Fog -41 1020 64 450 0.66 309 19:58 22.12.2019
5789 Fog -41 1020 64 450 0.66 309 19:39 22.12.2019
5790 Fog -41 1020 57 450 0.66 309 19:20 22.12.2019
5791 Fog -41 1020 57 400 0.66 309 18:55 22.12.2019
5792 Fog -41 1019 57 450 1 280 18:37 22.12.2019
5793 Fog -41 1019 57 450 1 280 18:18 22.12.2019
5794 Fog -41 1020 64 450 0.66 309 17:54 22.12.2019
5795 Mist -41 1020 64 1100 1 300 17:36 22.12.2019
5796 Mist -41 1020 64 1100 1 300 17:18 22.12.2019
5797 Mist -41 1020 64 1800 1 340 16:42 22.12.2019
5798 Mist -41 1020 64 1800 0.41 9 16:23 22.12.2019
5799 Fog -41 1019 64 900 0.41 9 15:57 22.12.2019
5800 Fog -41 1019 64 900 0.41 9 15:39 22.12.2019
5801 Fog -41 1019 64 650 1 20 15:21 22.12.2019
5802 Clouds -40 1019 58 10000 0.41 9 14:57 22.12.2019
5803 Clouds -40 1019 58 10000 0.41 9 14:38 22.12.2019
5804 Clouds -40 1019 58 10000 1 20 14:19 22.12.2019
5805 Clouds -40 1019 58 10000 1 350 13:56 22.12.2019
5806 Clouds -40 1019 65 10000 1 10 13:38 22.12.2019
5807 Clouds -40 1019 65 10000 1 10 13:19 22.12.2019
5808 Mist -39 1019 58 2100 1 20 12:57 22.12.2019
5809 Mist -38 1019 58 2100 1 10 12:38 22.12.2019
5810 Mist -38 1019 58 2100 1 10 12:19 22.12.2019
5811 Mist -38 1019 58 5000 1 10 11:56 22.12.2019
5812 Snow -38 1019 65 5000 1 10 11:38 22.12.2019
5813 Snow -38 1019 65 5000 1 10 11:19 22.12.2019
5814 Snow -37 1019 65 5000 0.69 340 10:56 22.12.2019
5815 Snow -37 1019 65 5000 0.69 340 10:38 22.12.2019
5816 Snow -37 1018 65 3200 1 40 10:19 22.12.2019
5817 Mist -37 1018 65 2400 0.69 340 09:57 22.12.2019
5818 Mist -37 1018 65 2400 0.69 340 09:39 22.12.2019
5819 Mist -37 1018 65 2400 0.69 340 09:20 22.12.2019
5820 Mist -38 1018 65 2400 0.69 340 08:42 22.12.2019
5821 Mist -38 1018 65 2400 1 360 08:22 22.12.2019
5822 Snow -38 1018 65 3200 1 20 07:44 22.12.2019
5823 Snow -38 1018 65 3200 0.86 7 07:21 22.12.2019
5824 Snow -38 1018 65 1200 0.86 7 06:53 22.12.2019
5825 Fog -38 1018 65 900 1 60 06:26 22.12.2019
5826 Fog -38 1018 65 800 1 20 05:33 22.12.2019
5827 Mist -39 1018 65 1000 0.66 31 04:55 22.12.2019
5828 Mist -39 1018 65 1500 0.66 31 04:25 22.12.2019
5829 Snow -39 1018 65 1000 0.66 31 02:46 22.12.2019
5830 Snow -39 1018 65 1000 0.66 31 02:46 22.12.2019
5831 Snow -39 1018 65 2100 0.7 53 02:21 22.12.2019
5832 Snow -39 1018 58 3200 0.7 53 01:31 22.12.2019
5833 Snow -39 1017 58 3200 1 40 00:56 22.12.2019
5834 Snow -39 1017 65 2100 0.72 53 00:36 22.12.2019
5835 Snow -39 1017 65 2100 0.72 53 00:18 22.12.2019
5836 Snow -39 1017 65 2100 0.72 53 23:40 21.12.2019
5837 Snow -39 1017 58 2100 1 350 23:21 21.12.2019
5838 Snow -39 1017 58 2100 1 350 22:56 21.12.2019
5839 Snow -39 1017 58 2100 0.75 49 22:37 21.12.2019
5840 Snow -39 1017 58 2100 0.75 49 22:18 21.12.2019
5841 Snow -40 1017 65 2100 1 10 21:54 21.12.2019
5842 Snow -40 1017 65 2100 1 30 21:36 21.12.2019
5843 Snow -40 1017 65 2100 1 30 21:18 21.12.2019
5844 Snow -40 1017 65 2100 1 360 20:55 21.12.2019
5845 Snow -40 1017 65 2100 1 350 20:37 21.12.2019
5846 Snow -40 1017 65 2100 1 350 20:18 21.12.2019
5847 Snow -40 1017 58 2100 1 330 19:55 21.12.2019
5848 Snow -40 1017 58 2100 1 350 19:36 21.12.2019
5849 Snow -40 1017 58 2100 1 350 19:18 21.12.2019
5850 Snow -40 1017 58 2100 1 360 18:40 21.12.2019
5851 Snow -40 1017 58 2100 1 10 18:22 21.12.2019
5852 Snow -40 1017 58 2100 1 350 17:55 21.12.2019
5853 Snow -41 1017 64 2100 1 350 17:37 21.12.2019
5854 Snow -41 1017 64 2100 1 350 17:18 21.12.2019
5855 Snow -41 1017 64 2100 1 360 16:54 21.12.2019
5856 Mist -41 1017 64 2100 1 360 16:36 21.12.2019
5857 Mist -41 1017 64 2100 1 360 16:36 21.12.2019
5858 Mist -41 1017 64 2100 1 360 16:18 21.12.2019
5859 Mist -41 1017 64 2100 1 350 15:55 21.12.2019
5860 Mist -41 1017 64 2100 1 340 15:36 21.12.2019
5861 Mist -41 1017 64 2100 1 340 15:18 21.12.2019
5862 Mist -41 1017 57 2100 1 360 14:41 21.12.2019
5863 Snow -41 1017 57 2100 1 360 14:22 21.12.2019
5864 Snow -41 1017 57 2100 1 330 13:58 21.12.2019
5865 Snow -41 1017 57 2100 1 330 13:39 21.12.2019
5866 Snow -41 1017 57 2100 1 350 13:19 21.12.2019
5867 Snow -41 1017 57 2100 2 350 12:56 21.12.2019
5868 Snow -41 1017 64 2100 1 350 12:38 21.12.2019
5869 Snow -41 1017 64 2100 1 350 12:19 21.12.2019
5870 Snow -41 1016 64 2100 1 350 11:46 21.12.2019
5871 Snow -41 1016 64 3200 1 360 11:27 21.12.2019
5872 Snow -41 1016 64 3200 1 360 10:58 21.12.2019
5873 Snow -41 1016 64 3200 1 360 10:39 21.12.2019
5874 Snow -40 1016 58 3200 1 360 10:21 21.12.2019
5875 Snow -40 1016 58 3200 1 20 09:57 21.12.2019
5876 Snow -40 1016 58 3200 1 20 09:39 21.12.2019
5877 Snow -40 1016 65 2400 1 20 09:19 21.12.2019
5878 Snow -40 1016 65 2100 1 10 08:47 21.12.2019
5879 Mist -40 1016 65 2000 1 360 08:26 21.12.2019
5880 Mist -40 1016 65 1500 1 10 07:47 21.12.2019
5881 Mist -40 1016 65 1000 0.3 3 07:23 21.12.2019
5882 Mist -40 1016 58 1300 0.3 3 06:49 21.12.2019
5883 Mist -40 1015 58 1200 0.3 3 06:31 21.12.2019
5884 Fog -41 1015 64 550 1 40 05:59 21.12.2019
5885 Fog -41 1015 64 750 1.05 273 04:59 21.12.2019
5886 Fog -41 1015 64 550 1.05 273 04:34 21.12.2019
5887 Fog -41 1015 64 500 1 330 03:56 21.12.2019
5888 Fog -40 1015 58 1000 1.05 273 02:25 21.12.2019
5889 Mist -40 1016 65 1500 1 350 01:43 21.12.2019
5890 Mist -39 1015 65 1500 1 20 01:24 21.12.2019
5891 Mist -39 1015 65 1500 1 20 00:40 21.12.2019
5892 Mist -39 1015 65 1500 1.62 248 00:21 21.12.2019
5893 Mist -39 1015 65 1500 1 360 23:39 20.12.2019
5894 Fog -38 1015 65 900 1 350 23:20 20.12.2019
5895 Mist -38 1015 65 3200 1 10 22:57 20.12.2019
5896 Mist -38 1015 65 3200 1 10 22:38 20.12.2019
5897 Mist -37 1015 65 3200 1 20 22:18 20.12.2019
5898 Mist -36 1015 66 3200 1.5 251 21:41 20.12.2019
5899 Mist -36 1015 66 3200 1.5 251 21:21 20.12.2019
5900 Mist -36 1015 66 1100 1.5 251 20:59 20.12.2019
5901 Mist -36 1015 66 1100 1.5 251 20:38 20.12.2019
5902 Fog -37 1015 65 900 1.71 244 20:19 20.12.2019
5903 Fog -37 1015 65 500 1.71 244 19:56 20.12.2019
5904 Fog -38 1015 65 350 1.71 244 19:38 20.12.2019
5905 Fog -38 1015 65 350 1.71 244 19:18 20.12.2019
5906 Fog -38 1015 65 250 1.71 244 18:41 20.12.2019
5907 Fog -39 1015 65 200 1.71 244 18:22 20.12.2019
5908 Fog -40 1015 65 250 1.71 244 17:57 20.12.2019
5909 Fog -40 1015 65 250 1.71 244 17:39 20.12.2019
5910 Fog -40 1015 65 250 1.71 244 17:39 20.12.2019
5911 Fog -40 1015 65 250 1.8 245 17:20 20.12.2019
5912 Fog -41 1015 64 350 1.8 245 16:56 20.12.2019
5913 Fog -41 1015 64 250 1.8 245 16:38 20.12.2019
5914 Fog -41 1015 64 250 1.8 245 16:38 20.12.2019
5915 Fog -41 1015 64 250 1.8 245 16:19 20.12.2019
5916 Fog -42 1015 64 200 1.8 245 15:54 20.12.2019
5917 Fog -42 1015 57 200 1.8 245 15:36 20.12.2019
5918 Fog -42 1015 57 200 1.8 245 15:18 20.12.2019
5919 Fog -43 1015 64 150 1.8 245 14:42 20.12.2019
5920 Fog -43 1015 64 150 1.8 245 14:24 20.12.2019
5921 Fog -43 1015 64 150 1.99 255 13:57 20.12.2019
5922 Fog -42 1014 57 150 1.99 255 13:37 20.12.2019
5923 Fog -42 1014 57 150 1.94 250 13:18 20.12.2019
5924 Fog -42 1014 57 150 1.94 250 13:18 20.12.2019
5925 Fog -42 1014 57 100 1.94 250 12:55 20.12.2019
5926 Fog -42 1014 57 200 1.94 250 12:36 20.12.2019
5927 Fog -42 1014 57 200 1.94 250 12:18 20.12.2019
5928 Fog -42 1014 64 200 1 210 11:57 20.12.2019
5929 Fog -42 1014 64 150 1 220 11:38 20.12.2019
5930 Fog -42 1014 64 150 1 220 11:18 20.12.2019
5931 Fog -42 1014 57 200 1 220 10:55 20.12.2019
5932 Fog -42 1014 57 200 1 230 10:37 20.12.2019
5933 Fog -42 1014 57 200 1 230 10:19 20.12.2019
5934 Fog -43 1014 64 300 1.49 260 09:42 20.12.2019
5935 Fog -43 1014 64 300 1.49 260 09:21 20.12.2019
5936 Fog -43 1014 64 450 1.49 260 08:55 20.12.2019
5937 Fog -43 1014 64 450 1.49 260 08:37 20.12.2019
5938 Fog -43 1014 64 450 2.05 279 08:19 20.12.2019
5939 Fog -43 1014 57 550 1 170 07:55 20.12.2019
5940 Fog -43 1014 57 650 1 190 07:36 20.12.2019
5941 Fog -43 1014 57 650 1 190 07:18 20.12.2019
5942 Fog -43 1014 57 300 1.96 275 06:43 20.12.2019
5943 Fog -43 1014 57 300 1.96 275 06:25 20.12.2019
5944 Fog -43 1014 57 100 1.96 275 05:47 20.12.2019
5945 Fog -43 1013 57 150 2.14 277 04:57 20.12.2019
5946 Fog -43 1013 57 150 2.14 277 03:48 20.12.2019
5947 Fog -43 1013 57 250 1 350 02:46 20.12.2019
5948 Fog -43 1013 64 400 1.93 283 01:59 20.12.2019
5949 Fog -42 1013 64 450 1 340 01:35 20.12.2019
5950 Fog -41 1013 57 450 1 340 00:54 20.12.2019
5951 Fog -41 1013 64 700 1 350 00:35 20.12.2019
5952 Mist -39 1013 58 1600 1 30 23:58 19.12.2019
5953 Fog -39 1012 65 900 1.93 281 23:39 19.12.2019
5954 Fog -39 1012 65 900 2.02 288 23:19 19.12.2019
5955 Fog -39 1012 65 650 2.02 288 22:40 19.12.2019
5956 Fog -39 1012 65 650 2.02 288 22:22 19.12.2019
5957 Fog -39 1012 65 650 2.02 288 21:57 19.12.2019
5958 Fog -39 1012 65 650 2.02 288 21:57 19.12.2019
5959 Fog -39 1013 58 550 2.02 288 21:38 19.12.2019
5960 Fog -39 1013 58 550 2.02 288 21:19 19.12.2019
5961 Fog -40 1013 65 500 2.02 288 20:57 19.12.2019
5962 Fog -40 1013 65 500 2.02 288 20:37 19.12.2019
5963 Fog -40 1013 65 500 2.19 291 20:19 19.12.2019
5964 Fog -40 1013 65 450 1.81 290 19:58 19.12.2019
5965 Fog -40 1013 65 450 1.81 290 19:58 19.12.2019
5966 Fog -41 1013 64 400 1.81 290 19:39 19.12.2019
5967 Fog -41 1013 64 400 1.81 290 19:19 19.12.2019
5968 Fog -41 1013 64 400 1.81 290 19:19 19.12.2019
5969 Fog -41 1013 64 400 1.81 290 19:19 19.12.2019
5970 Fog -41 1013 64 400 1.81 290 19:19 19.12.2019
5971 Fog -41 1013 57 400 1.81 290 18:57 19.12.2019
5972 Fog -42 1013 64 400 1.81 290 18:39 19.12.2019
5973 Fog -42 1013 64 400 1.81 290 18:19 19.12.2019
5974 Fog -43 1013 64 250 1 150 17:55 19.12.2019
5975 Fog -43 1014 57 300 1.81 290 17:37 19.12.2019
5976 Fog -43 1014 57 300 2.29 288 17:18 19.12.2019
5977 Fog -43 1014 57 250 1 150 16:55 19.12.2019
5978 Fog -43 1014 57 250 1 150 16:55 19.12.2019
5979 Fog -43 1014 57 300 1 170 16:37 19.12.2019
5980 Fog -43 1014 57 300 1 170 16:19 19.12.2019
5981 Fog -43 1014 57 350 1 180 15:55 19.12.2019
5982 Fog -43 1015 64 250 1 150 15:37 19.12.2019
5983 Fog -43 1015 64 250 1 150 15:18 19.12.2019
5984 Fog -44 1015 63 200 1 120 14:42 19.12.2019
5985 Fog -44 1015 63 200 1 120 14:20 19.12.2019
5986 Fog -44 1015 63 200 2.01 288 13:59 19.12.2019
5987 Fog -44 1015 63 200 1 150 13:38 19.12.2019
5988 Fog -44 1015 63 200 1 150 13:19 19.12.2019
5989 Fog -44 1015 63 250 1 140 12:57 19.12.2019
5990 Fog -43 1016 57 200 1 150 12:39 19.12.2019
5991 Fog -43 1016 57 200 1 150 12:19 19.12.2019
5992 Fog -43 1016 57 200 1 150 12:19 19.12.2019
5993 Fog -43 1016 57 200 1 140 11:58 19.12.2019
5994 Fog -43 1016 57 200 1 170 11:40 19.12.2019
5995 Fog -43 1016 57 200 1 170 11:18 19.12.2019
5996 Fog -43 1016 57 350 1 160 10:58 19.12.2019
5997 Fog -43 1016 57 400 1 160 10:38 19.12.2019
5998 Fog -43 1016 57 400 1 160 10:20 19.12.2019
5999 Fog -43 1016 57 400 1 170 09:54 19.12.2019
6000 Fog -43 1016 64 300 1 150 09:36 19.12.2019
6001 Fog -43 1016 64 300 1 150 09:18 19.12.2019
6002 Fog -42 1016 64 200 1 170 08:41 19.12.2019
6003 Fog -42 1016 64 200 1 170 08:20 19.12.2019
6004 Fog -42 1016 64 250 1 170 07:59 19.12.2019
6005 Fog -42 1017 64 250 1 160 07:38 19.12.2019
6006 Fog -42 1017 64 250 1 160 07:20 19.12.2019
6007 Fog -42 1017 57 300 1 160 06:50 19.12.2019
6008 Fog -42 1017 57 450 1 140 06:32 19.12.2019
6009 Fog -42 1017 57 350 1 150 05:57 19.12.2019
6010 Fog -42 1017 57 400 1 140 05:39 19.12.2019
6011 Fog -42 1017 57 300 1 130 04:56 19.12.2019
6012 Fog -43 1017 57 250 0.72 280 03:45 19.12.2019
6013 Fog -44 1018 57 250 0.72 280 02:24 19.12.2019
6014 Fog -45 1018 56 250 0.44 257 01:23 19.12.2019
6015 Fog -46 1018 56 200 0.44 257 00:44 19.12.2019
6016 Fog -46 1018 56 200 0.44 257 00:24 19.12.2019
6017 Fog -46 1018 63 250 0.44 257 23:58 18.12.2019
6018 Fog -46 1019 56 350 0.44 257 23:38 18.12.2019
6019 Fog -46 1019 56 350 0.37 275 23:19 18.12.2019
6020 Fog -45 1018 56 400 0.37 275 22:56 18.12.2019
6021 Fog -46 1019 56 350 0.37 275 22:37 18.12.2019
6022 Fog -46 1019 56 350 0.37 275 22:19 18.12.2019
6023 Fog -46 1019 56 400 0.37 275 21:57 18.12.2019
6024 Fog -47 1019 63 400 0.37 275 21:39 18.12.2019
6025 Fog -47 1019 63 400 0.37 275 21:19 18.12.2019
6026 Fog -47 1019 55 350 0.37 275 20:55 18.12.2019
6027 Fog -47 1019 55 200 0.37 275 20:37 18.12.2019
6028 Fog -47 1019 55 200 0.37 275 20:37 18.12.2019
6029 Fog -47 1019 55 200 0.51 334 20:19 18.12.2019
6030 Fog -47 1019 55 200 1 30 19:55 18.12.2019
6031 Fog -48 1020 62 200 0.51 334 19:37 18.12.2019
6032 Fog -48 1020 62 200 0.51 334 19:18 18.12.2019
6033 Fog -48 1020 62 200 0.51 334 19:18 18.12.2019
6034 Fog -48 1020 55 200 1 360 18:44 18.12.2019
6035 Fog -48 1020 55 200 1 360 18:25 18.12.2019
6036 Fog -47 1020 55 200 0.51 334 17:57 18.12.2019
6037 Fog -48 1020 62 200 0.51 334 17:39 18.12.2019
6038 Fog -48 1020 62 200 0.19 2 17:19 18.12.2019
6039 Fog -47 1020 55 200 1 40 16:57 18.12.2019
6040 Fog -47 1020 55 200 1 40 16:57 18.12.2019
6041 Fog -47 1020 55 200 1 40 16:38 18.12.2019
6042 Fog -47 1020 55 200 0.19 2 16:20 18.12.2019
6043 Fog -47 1020 55 200 1 50 15:55 18.12.2019
6044 Fog -47 1020 55 150 0.19 2 15:37 18.12.2019
6045 Fog -47 1020 55 150 0.19 2 15:37 18.12.2019
6046 Fog -47 1020 55 150 0.19 2 15:19 18.12.2019
6047 Fog -47 1021 55 200 0.19 2 14:42 18.12.2019
6048 Fog -47 1021 55 350 0.5 25 14:22 18.12.2019
6049 Fog -47 1021 55 150 0.5 25 13:57 18.12.2019
6050 Fog -47 1021 55 200 1 10 13:39 18.12.2019
6051 Fog -47 1021 55 200 1 10 13:39 18.12.2019
6052 Fog -47 1021 55 200 1 10 13:20 18.12.2019
6053 Fog -47 1021 55 150 1 10 12:59 18.12.2019
6054 Fog -47 1021 55 150 1 10 12:59 18.12.2019
6055 Fog -47 1021 55 100 1 10 12:38 18.12.2019
6056 Fog -47 1021 55 100 1 10 12:20 18.12.2019
6057 Fog -47 1022 55 100 1 10 11:56 18.12.2019
6058 Fog -47 1022 55 100 1 330 11:38 18.12.2019
6059 Fog -47 1022 55 100 1 330 11:19 18.12.2019
6060 Fog -47 1022 55 100 1 30 10:56 18.12.2019
6061 Fog -47 1022 55 100 0.27 60 10:38 18.12.2019
6062 Fog -47 1022 55 100 0.27 60 10:20 18.12.2019
6063 Fog -47 1022 55 100 1 340 09:50 18.12.2019
6064 Fog -47 1022 55 100 1 340 09:50 18.12.2019
6065 Fog -47 1022 55 150 1 320 09:18 18.12.2019
6066 Fog -47 1022 55 300 1 360 08:41 18.12.2019
6067 Fog -47 1022 55 250 1 10 08:23 18.12.2019
6068 Fog -47 1022 55 300 1 360 07:55 18.12.2019
6069 Fog -47 1022 55 400 1 10 07:36 18.12.2019
6070 Fog -47 1022 55 400 1 10 07:18 18.12.2019
6071 Fog -47 1022 55 550 0.63 68 06:49 18.12.2019
6072 Fog -47 1022 55 450 1 20 06:22 18.12.2019
6073 Fog -46 1022 56 900 1 20 05:22 18.12.2019
6074 Fog -47 1022 55 250 1 10 03:31 18.12.2019
6075 Fog -47 1022 63 200 0.47 96 02:38 18.12.2019
6076 Fog -47 1022 63 200 0.21 82 02:20 18.12.2019
6077 Fog -47 1023 55 100 1 20 01:42 18.12.2019
6078 Fog -46 1023 56 100 1 350 01:23 18.12.2019
6079 Fog -47 1023 55 150 1 10 00:42 18.12.2019
6080 Fog -46 1023 56 150 1 350 00:23 18.12.2019
6081 Fog -46 1022 63 300 0.1 173 23:58 17.12.2019
6082 Fog -45 1022 56 200 0.1 173 23:39 17.12.2019
6083 Fog -45 1022 56 200 0.31 207 23:20 17.12.2019
6084 Fog -45 1022 56 200 1 330 22:56 17.12.2019
6085 Fog -45 1022 56 250 1 330 22:38 17.12.2019
6086 Fog -45 1022 56 250 1 330 22:19 17.12.2019
6087 Fog -45 1022 56 200 1 340 21:56 17.12.2019
6088 Fog -45 1022 56 200 1 340 21:56 17.12.2019
6089 Fog -45 1022 63 300 1 310 21:38 17.12.2019
6090 Fog -45 1022 63 300 1 310 21:19 17.12.2019
6091 Fog -45 1022 56 150 0.31 207 20:57 17.12.2019
6092 Fog -44 1022 63 300 0.31 207 20:38 17.12.2019
6093 Fog -44 1022 63 300 1.19 276 20:18 17.12.2019
6094 Fog -44 1022 63 700 1 310 19:56 17.12.2019
6095 Fog -43 1023 57 400 1 320 19:38 17.12.2019
6096 Fog -43 1023 57 400 1 320 19:18 17.12.2019
6097 Fog -44 1023 63 200 1 300 18:54 17.12.2019
6098 Fog -44 1023 57 250 1.19 276 18:36 17.12.2019
6099 Fog -44 1023 57 250 1.19 276 18:18 17.12.2019
6100 Fog -43 1023 57 300 1.19 276 17:42 17.12.2019
6101 Fog -43 1023 57 300 1.19 276 17:42 17.12.2019
6102 Fog -43 1023 57 300 0.98 246 17:21 17.12.2019
6103 Fog -42 1023 57 350 1 300 16:57 17.12.2019
6104 Fog -43 1023 57 250 1 350 16:38 17.12.2019
6105 Fog -43 1023 57 250 1 350 16:19 17.12.2019
6106 Fog -42 1023 57 350 1 300 15:58 17.12.2019
6107 Fog -42 1023 57 300 1 320 15:37 17.12.2019
6108 Fog -42 1023 57 300 1 320 15:19 17.12.2019
6109 Fog -42 1023 64 250 0.98 246 14:56 17.12.2019
6110 Fog -41 1023 57 200 1 300 14:37 17.12.2019
6111 Fog -41 1023 57 200 1 300 14:18 17.12.2019
6112 Fog -41 1023 57 200 1 300 14:18 17.12.2019
6113 Fog -41 1023 64 200 1 290 13:56 17.12.2019
6114 Fog -41 1023 57 350 1.2 247 13:38 17.12.2019
6115 Fog -41 1023 57 350 1.3 238 13:19 17.12.2019
6116 Fog -42 1023 64 400 1.3 238 12:55 17.12.2019
6117 Fog -41 1023 64 900 1.3 238 12:37 17.12.2019
6118 Fog -41 1023 64 900 1.3 238 12:18 17.12.2019
6119 Mist -39 1023 65 3200 2 270 11:55 17.12.2019
6120 Clouds -41 1023 64 10000 1 240 11:36 17.12.2019
6121 Clouds -41 1023 64 10000 1 240 11:18 17.12.2019
6122 Clouds -41 1023 64 10000 1 240 11:18 17.12.2019
6123 Clouds -38 1023 65 10000 1 270 10:55 17.12.2019
6124 Clouds -37 1023 65 10000 1 270 10:36 17.12.2019
6125 Clouds -37 1023 65 10000 1 270 10:18 17.12.2019
6126 Clouds -37 1023 65 10000 2 270 09:42 17.12.2019
6127 Clouds -38 1023 73 10000 1 270 09:21 17.12.2019
6128 Clouds -38 1022 65 10000 2 260 08:58 17.12.2019
6129 Clouds -37 1022 73 10000 3 260 08:39 17.12.2019
6130 Clouds -37 1022 73 10000 3 260 08:21 17.12.2019
6131 Clouds -36 1022 66 10000 2 260 07:57 17.12.2019
6132 Clouds -35 1022 66 10000 2 270 07:39 17.12.2019
6133 Clouds -35 1022 66 10000 2 270 07:19 17.12.2019
6134 Clouds -34 1022 66 10000 2 260 06:36 17.12.2019
6135 Clouds -34 1022 66 10000 2 260 06:18 17.12.2019
6136 Clouds -34 1021 66 10000 3 240 05:38 17.12.2019
6137 Clouds -34 1021 66 10000 3 240 04:46 17.12.2019
6138 Snow -33 1021 67 10000 1 250 03:31 17.12.2019
6139 Snow -32 1021 67 10000 2 260 01:58 17.12.2019
6140 Snow -32 1021 74 10000 2 230 01:21 17.12.2019
6141 Clouds -32 1021 67 10000 1 270 00:39 17.12.2019
6142 Clouds -32 1021 67 10000 1 270 00:21 17.12.2019
6143 Clouds -32 1020 74 10000 2 270 23:43 16.12.2019
6144 Clouds -33 1020 74 10000 2 260 23:19 16.12.2019
6145 Snow -33 1020 74 10000 2 230 22:58 16.12.2019
6146 Snow -32 1020 74 10000 3 210 22:38 16.12.2019
6147 Snow -32 1020 74 10000 3 210 22:20 16.12.2019
6148 Snow -32 1020 74 10000 2 210 21:57 16.12.2019
6149 Snow -31 1020 67 10000 2 200 21:38 16.12.2019
6150 Snow -31 1020 67 10000 2 200 21:20 16.12.2019
6151 Clouds -31 1020 74 10000 1 230 20:58 16.12.2019
6152 Clouds -30 1020 67 10000 2 250 20:39 16.12.2019
6153 Clouds -30 1020 67 10000 2 250 20:19 16.12.2019
6154 Clouds -30 1019 67 10000 1 290 19:56 16.12.2019
6155 Clouds -30 1019 74 10000 2 300 19:37 16.12.2019
6156 Clouds -30 1019 74 10000 2 300 19:19 16.12.2019
6157 Clouds -30 1019 67 10000 2 290 18:58 16.12.2019
6158 Clouds -30 1019 67 10000 2 290 18:58 16.12.2019
6159 Clouds -30 1019 74 10000 2 290 18:40 16.12.2019
6160 Clouds -30 1019 74 10000 2 290 18:40 16.12.2019
6161 Clouds -30 1019 74 10000 2 290 18:20 16.12.2019
6162 Clouds -30 1019 74 10000 3 290 17:57 16.12.2019
6163 Clouds -30 1019 74 10000 3 290 17:57 16.12.2019
6164 Clouds -30 1019 74 10000 3 290 17:57 16.12.2019
6165 Clouds -30 1019 74 10000 3 290 17:39 16.12.2019
6166 Clouds -30 1019 74 10000 3 290 17:21 16.12.2019
6167 Clouds -29 1019 68 10000 3 280 16:57 16.12.2019
6168 Clouds -29 1019 75 10000 2 280 16:38 16.12.2019
6169 Clouds -29 1019 75 10000 2 280 16:19 16.12.2019
6170 Clouds -29 1019 75 10000 2 280 15:58 16.12.2019
6171 Clouds -29 1018 75 10000 3 280 15:38 16.12.2019
6172 Clouds -29 1018 75 10000 3 280 15:20 16.12.2019
6173 Clouds -29 1018 75 10000 3 280 14:55 16.12.2019
6174 Clouds -29 1018 75 10000 3 270 14:37 16.12.2019
6175 Clouds -29 1018 75 10000 3 270 14:19 16.12.2019
6176 Clouds -29 1017 75 10000 2 290 13:56 16.12.2019
6177 Clouds -29 1017 75 10000 2 290 13:56 16.12.2019
6178 Clouds -29 1017 75 10000 2 290 13:56 16.12.2019
6179 Clouds -29 1017 68 10000 2 300 13:37 16.12.2019
6180 Clouds -29 1017 68 10000 2 300 13:37 16.12.2019
6181 Clouds -29 1017 68 10000 2 300 13:19 16.12.2019
6182 Clouds -29 1017 75 10000 3 300 12:57 16.12.2019
6183 Clouds -29 1017 75 10000 3 300 12:57 16.12.2019
6184 Clouds -28 1017 68 10000 2 310 12:39 16.12.2019
6185 Clouds -28 1017 68 10000 2 310 12:18 16.12.2019
6186 Clouds -28 1016 75 10000 2 320 11:58 16.12.2019
6187 Clouds -28 1016 68 10000 2 300 11:40 16.12.2019
6188 Clouds -28 1016 68 10000 2 300 11:20 16.12.2019
6189 Clouds -28 1016 68 10000 2 300 11:20 16.12.2019
6190 Clouds -28 1016 82 10000 2 290 10:56 16.12.2019
6191 Clouds -28 1015 75 10000 2 280 10:36 16.12.2019
6192 Clouds -28 1015 75 10000 2 280 10:18 16.12.2019
6193 Clouds -30 1015 67 10000 1 280 09:44 16.12.2019
6194 Clouds -30 1015 67 10000 1 280 09:44 16.12.2019
6195 Clouds -29 1015 75 10000 1 280 09:26 16.12.2019
6196 Clouds -30 1015 74 10000 2 180 08:41 16.12.2019
6197 Snow -31 1014 74 10000 2 240 08:21 16.12.2019
6198 Snow -32 1014 67 10000 2 220 07:57 16.12.2019
6199 Snow -31 1014 74 10000 2 190 07:38 16.12.2019
6200 Snow -31 1014 74 10000 2 190 07:19 16.12.2019
6201 Snow -31 1013 74 10000 2 150 06:40 16.12.2019
6202 Snow -31 1013 74 10000 2 150 06:22 16.12.2019
6203 Snow -31 1012 67 10000 1 190 05:47 16.12.2019
6204 Snow -31 1012 74 10000 2 150 05:29 16.12.2019
6205 Snow -31 1011 74 10000 1 60 03:41 16.12.2019
6206 Snow -31 1010 74 5000 1 320 01:58 16.12.2019
6207 Snow -31 1010 74 10000 2 330 01:39 16.12.2019
6208 Snow -32 1009 67 10000 2 320 00:41 16.12.2019
6209 Snow -32 1009 67 10000 2 320 00:23 16.12.2019
6210 Snow -33 1009 74 10000 2 280 23:58 15.12.2019
6211 Snow -33 1009 74 10000 2 300 23:38 15.12.2019
6212 Clouds -33 1009 74 10000 2 300 23:19 15.12.2019
6213 Snow -33 1008 74 10000 1 310 22:55 15.12.2019
6214 Snow -32 1008 67 10000 2 300 22:37 15.12.2019
6215 Snow -32 1008 67 10000 2 300 22:18 15.12.2019
6216 Snow -33 1008 74 10000 1 290 21:55 15.12.2019
6217 Snow -33 1008 74 10000 1 300 21:37 15.12.2019
6218 Snow -33 1008 74 10000 1 300 21:37 15.12.2019
6219 Snow -33 1008 74 10000 1 300 21:18 15.12.2019
6220 Snow -32 1008 67 10000 1 350 20:54 15.12.2019
6221 Snow -32 1008 74 5000 2 300 20:36 15.12.2019
6222 Snow -32 1008 74 5000 2 300 20:36 15.12.2019
6223 Snow -32 1008 74 5000 2 300 20:18 15.12.2019
6224 Snow -32 1008 74 5000 1 340 19:54 15.12.2019
6225 Snow -31 1007 74 5000 2 340 19:36 15.12.2019
6226 Snow -31 1007 74 5000 2 340 19:18 15.12.2019
6227 Snow -31 1007 74 5000 0.5 0 18:54 15.12.2019
6228 Snow -31 1007 74 5000 0.5 0 18:36 15.12.2019
6229 Snow -31 1007 74 5000 0.5 0 18:18 15.12.2019
6230 Snow -31 1007 74 5000 1 40 17:55 15.12.2019
6231 Snow -32 1007 74 10000 1 40 17:36 15.12.2019
6232 Snow -32 1007 74 10000 1 40 17:18 15.12.2019
6233 Snow -31 1007 74 5000 0.98 11 16:42 15.12.2019
6234 Snow -29 1007 75 5000 0.98 11 16:22 15.12.2019
6235 Snow -27 1007 75 5000 1.04 2 15:57 15.12.2019
6236 Snow -27 1007 75 3200 1.04 2 15:39 15.12.2019
6237 Snow -27 1007 75 3200 1.04 2 15:19 15.12.2019
6238 Snow -27 1006 75 10000 1 340 14:56 15.12.2019
6239 Snow -27 1006 75 10000 1 10 14:37 15.12.2019
6240 Snow -27 1006 75 10000 1 10 14:19 15.12.2019
6241 Snow -28 1006 75 3200 1 340 13:58 15.12.2019
6242 Snow -27 1006 75 3200 1 350 13:38 15.12.2019
6243 Snow -27 1006 75 3200 1 350 13:19 15.12.2019
6244 Snow -27 1006 75 2100 1 10 12:57 15.12.2019
6245 Snow -27 1006 75 2100 2 330 12:39 15.12.2019
6246 Snow -27 1006 75 2100 2 330 12:21 15.12.2019
6247 Snow -28 1006 75 2100 2 320 11:59 15.12.2019
6248 Snow -28 1006 75 2400 2 350 11:37 15.12.2019
6249 Snow -28 1006 75 2400 2 350 11:19 15.12.2019
6250 Snow -28 1006 75 5000 2 350 10:55 15.12.2019
6251 Snow -28 1006 75 2100 2 350 10:37 15.12.2019
6252 Snow -28 1006 75 2100 2 350 10:19 15.12.2019
6253 Snow -28 1006 75 3200 2 350 09:41 15.12.2019
6254 Snow -29 1006 75 3200 2 350 09:20 15.12.2019
6255 Snow -29 1006 75 3200 2 350 08:59 15.12.2019
6256 Snow -29 1006 75 3200 2 350 08:41 15.12.2019
6257 Snow -29 1006 75 3200 2 360 08:22 15.12.2019
6258 Snow -29 1006 75 3200 2 360 08:22 15.12.2019
6259 Snow -28 1006 68 3200 2 10 07:56 15.12.2019
6260 Snow -28 1006 75 5000 1 360 07:36 15.12.2019
6261 Snow -28 1006 68 5000 1 20 06:56 15.12.2019
6262 Snow -29 1006 75 3200 1 20 06:21 15.12.2019
6263 Snow -29 1006 75 10000 2 20 05:37 15.12.2019
6264 Snow -29 1006 75 10000 2 20 05:18 15.12.2019
6265 Snow -29 1006 75 5000 1 30 03:56 15.12.2019
6266 Snow -29 1007 75 5000 1 350 02:35 15.12.2019
6267 Snow -29 1007 68 10000 1 350 01:55 15.12.2019
6268 Snow -30 1007 74 10000 1 10 01:37 15.12.2019
6269 Snow -30 1007 74 10000 1 10 01:18 15.12.2019
6270 Snow -31 1007 74 10000 1 320 00:42 15.12.2019
6271 Snow -31 1007 74 10000 1 320 00:23 15.12.2019
6272 Snow -31 1006 74 10000 2 340 23:40 14.12.2019
6273 Snow -31 1006 74 10000 2 340 23:21 14.12.2019
6274 Clouds -32 1006 74 10000 1 310 22:59 14.12.2019
6275 Clouds -33 1006 74 10000 2 320 22:41 14.12.2019
6276 Clouds -33 1006 74 10000 2 320 22:21 14.12.2019
6277 Clouds -32 1006 74 10000 2 330 21:56 14.12.2019
6278 Clouds -31 1006 74 10000 3 330 21:38 14.12.2019
6279 Clouds -31 1006 74 10000 3 330 21:19 14.12.2019
6280 Clouds -31 1006 74 10000 3 340 20:57 14.12.2019
6281 Clouds -31 1006 74 10000 3 330 20:39 14.12.2019
6282 Snow -31 1006 74 10000 3 330 20:19 14.12.2019
6283 Snow -31 1006 74 10000 3 340 19:57 14.12.2019
6284 Snow -31 1006 74 10000 3 340 19:37 14.12.2019
6285 Snow -31 1006 74 10000 3 340 19:19 14.12.2019
6286 Snow -30 1005 67 10000 3 340 18:56 14.12.2019
6287 Snow -30 1005 74 10000 4 350 18:37 14.12.2019
6288 Snow -30 1005 74 10000 4 350 18:19 14.12.2019
6289 Snow -30 1005 74 10000 4 350 17:43 14.12.2019
6290 Snow -30 1005 74 10000 4 350 17:24 14.12.2019
6291 Snow -30 1005 74 10000 4 350 16:58 14.12.2019
6292 Snow -30 1005 74 10000 4 350 16:39 14.12.2019
6293 Snow -30 1005 74 10000 4 350 16:39 14.12.2019
6294 Snow -30 1005 74 10000 4 350 16:39 14.12.2019
6295 Snow -30 1005 74 10000 4 350 16:18 14.12.2019
6296 Snow -29 1005 75 10000 4 360 15:43 14.12.2019
6297 Snow -29 1004 75 10000 4 360 15:22 14.12.2019
6298 Snow -29 1004 75 10000 4 10 14:59 14.12.2019
6299 Snow -29 1004 75 10000 4 10 14:38 14.12.2019
6300 Snow -29 1004 75 10000 4 10 14:19 14.12.2019
6301 Snow -28 1004 75 2100 3 20 13:55 14.12.2019
6302 Snow -28 1004 75 2100 3 20 13:37 14.12.2019
6303 Snow -28 1004 75 2100 3 20 13:18 14.12.2019
6304 Snow -28 1005 75 1600 3 40 12:54 14.12.2019
6305 Snow -28 1005 68 2100 3 60 12:36 14.12.2019
6306 Snow -28 1005 68 2100 3 60 12:18 14.12.2019
6307 Snow -29 1005 75 3200 3 50 11:54 14.12.2019
6308 Snow -29 1005 68 3200 3 60 11:36 14.12.2019
6309 Snow -29 1005 68 3200 3 60 11:18 14.12.2019
6310 Snow -30 1006 74 5000 3 60 10:55 14.12.2019
6311 Snow -30 1006 74 5000 4 70 10:36 14.12.2019
6312 Snow -30 1006 74 5000 4 70 10:18 14.12.2019
6313 Snow -30 1007 67 5000 3 60 09:40 14.12.2019
6314 Snow -31 1007 74 2400 3 30 09:20 14.12.2019
6315 Snow -33 1008 74 2400 3 10 08:44 14.12.2019
6316 Snow -33 1008 74 2400 3 10 08:44 14.12.2019
6317 Snow -33 1008 74 2400 3 10 08:20 14.12.2019
6318 Snow -34 1009 66 2400 3 10 07:57 14.12.2019
6319 Snow -35 1009 66 2400 2 340 07:38 14.12.2019
6320 Snow -35 1009 66 2400 2 340 07:19 14.12.2019
6321 Snow -35 1009 66 2400 2 340 07:19 14.12.2019
6322 Snow -36 1010 66 2400 3 10 06:39 14.12.2019
6323 Snow -36 1010 66 2400 3 10 06:20 14.12.2019
6324 Snow -38 1011 65 2100 2 360 05:22 14.12.2019
6325 Mist -39 1014 65 2100 2 10 02:49 14.12.2019
6326 Mist -40 1015 65 2100 2 360 02:22 14.12.2019
6327 Mist -40 1015 65 2100 2 350 01:43 14.12.2019
6328 Mist -41 1015 64 2100 2 360 00:54 14.12.2019
6329 Mist -41 1015 64 2100 2 360 00:54 14.12.2019
6330 Mist -41 1016 64 2100 2 360 00:36 14.12.2019
6331 Mist -41 1016 64 2100 2 360 00:18 14.12.2019
6332 Mist -40 1016 58 2400 2 360 23:39 13.12.2019
6333 Mist -40 1016 58 2400 2 360 23:19 13.12.2019
6334 Mist -40 1016 58 2400 2 360 23:19 13.12.2019
6335 Mist -41 1017 64 2400 1 10 22:55 13.12.2019
6336 Mist -41 1017 64 2400 1 30 22:36 13.12.2019
6337 Mist -41 1017 64 2400 1 30 22:18 13.12.2019
6338 Mist -41 1017 64 1500 1 20 21:42 13.12.2019
6339 Mist -41 1017 64 1000 1 10 21:21 13.12.2019
6340 Fog -41 1017 64 900 1 20 20:57 13.12.2019
6341 Fog -40 1018 58 900 1 40 20:39 13.12.2019
6342 Fog -40 1018 58 900 1 40 20:19 13.12.2019
6343 Fog -40 1018 58 900 1 40 19:56 13.12.2019
6344 Fog -40 1018 58 800 1 20 19:38 13.12.2019
6345 Fog -40 1018 58 800 1 20 19:18 13.12.2019
6346 Fog -40 1018 65 700 1 80 18:42 13.12.2019
6347 Fog -40 1018 65 700 1 80 18:20 13.12.2019
6348 Fog -40 1018 65 650 0.99 100 17:59 13.12.2019
6349 Fog -40 1018 65 700 0.99 100 17:39 13.12.2019
6350 Fog -40 1018 65 700 0.2 138 17:18 13.12.2019
6351 Fog -40 1018 58 700 1 80 16:56 13.12.2019
6352 Fog -40 1018 58 700 0.2 138 16:38 13.12.2019
6353 Fog -40 1018 58 700 0.2 138 16:19 13.12.2019
6354 Fog -40 1019 58 750 0.2 138 15:42 13.12.2019
6355 Fog -40 1019 58 750 0.2 138 15:21 13.12.2019
6356 Fog -40 1018 58 900 1 80 14:57 13.12.2019
6357 Fog -41 1019 64 900 1 30 14:37 13.12.2019
6358 Fog -41 1019 64 900 1 30 14:19 13.12.2019
6359 Fog -40 1019 58 900 0.79 46 13:43 13.12.2019
6360 Fog -40 1019 58 900 0.84 51 13:24 13.12.2019
6361 Fog -41 1018 64 900 0.84 51 12:58 13.12.2019
6362 Fog -41 1019 64 600 0.84 51 12:40 13.12.2019
6363 Fog -41 1019 64 600 0.84 51 12:18 13.12.2019
6364 Fog -41 1019 57 350 1 340 11:44 13.12.2019
6365 Fog -41 1019 57 500 0.84 51 11:26 13.12.2019
6366 Fog -41 1019 57 650 0.92 28 10:57 13.12.2019
6367 Fog -41 1018 64 500 0.92 28 10:39 13.12.2019
6368 Fog -41 1018 64 500 0.92 28 10:21 13.12.2019
6369 Fog -41 1018 64 650 1 320 09:42 13.12.2019
6370 Fog -41 1018 64 650 1 320 09:21 13.12.2019
6371 Mist -41 1018 64 1200 1 330 08:55 13.12.2019
6372 Mist -41 1018 64 1500 1 350 08:36 13.12.2019
6373 Mist -41 1018 64 1500 1 350 08:18 13.12.2019
6374 Mist -40 1018 58 2400 1 10 07:42 13.12.2019
6375 Mist -40 1018 58 2400 1 10 07:19 13.12.2019
6376 Mist -40 1018 58 2000 1 350 06:39 13.12.2019
6377 Mist -40 1018 58 2000 1 350 06:20 13.12.2019
6378 Mist -41 1017 64 1300 2 10 05:37 13.12.2019
6379 Mist -41 1017 64 1300 2 10 05:19 13.12.2019
6380 Fog -41 1017 57 900 1 340 03:55 13.12.2019
6381 Fog -42 1017 57 800 2 330 02:35 13.12.2019
6382 Fog -42 1017 57 1000 2 360 01:54 13.12.2019
6383 Fog -42 1017 64 600 1 350 01:27 13.12.2019
6384 Fog -42 1016 64 600 1 340 00:47 13.12.2019
6385 Fog -42 1016 64 700 1 330 00:26 13.12.2019
6386 Fog -42 1016 57 800 1 360 23:42 12.12.2019
6387 Fog -42 1016 57 800 1 360 23:24 12.12.2019
6388 Mist -42 1016 57 1200 2 360 22:56 12.12.2019
6389 Mist -42 1016 64 1600 2 360 22:38 12.12.2019
6390 Mist -42 1016 64 1600 2 360 22:38 12.12.2019
6391 Mist -42 1016 64 1600 2 360 22:20 12.12.2019
6392 Mist -42 1016 64 1400 2 350 21:56 12.12.2019
6393 Fog -42 1016 57 900 2 340 21:37 12.12.2019
6394 Fog -42 1016 57 900 2 340 21:19 12.12.2019
6395 Fog -42 1016 57 900 2 350 20:58 12.12.2019
6396 Fog -42 1016 64 900 2 340 20:40 12.12.2019
6397 Fog -42 1016 64 900 2 340 20:21 12.12.2019
6398 Fog -42 1015 57 800 2 350 19:56 12.12.2019
6399 Fog -42 1015 57 900 1 350 19:37 12.12.2019
6400 Fog -42 1015 57 900 1 350 19:18 12.12.2019
6401 Mist -42 1015 57 1100 2 350 18:55 12.12.2019
6402 Mist -42 1015 64 1100 2 350 18:37 12.12.2019
6403 Mist -42 1015 64 1100 2 350 18:19 12.12.2019
6404 Mist -42 1015 64 1200 2 360 17:56 12.12.2019
6405 Mist -42 1015 64 1200 2 350 17:38 12.12.2019
6406 Mist -42 1015 64 1200 2 350 17:19 12.12.2019
6407 Mist -42 1015 64 1100 2 350 16:54 12.12.2019
6408 Mist -42 1015 64 1500 2 360 16:36 12.12.2019
6409 Mist -42 1015 64 1500 2 360 16:18 12.12.2019
6410 Fog -42 1015 64 900 2 360 15:42 12.12.2019
6411 Fog -42 1015 64 900 2 360 15:20 12.12.2019
6412 Mist -42 1015 64 1100 2 340 14:57 12.12.2019
6413 Snow -42 1015 64 1200 2 340 14:37 12.12.2019
6414 Snow -42 1015 64 1200 2 340 14:19 12.12.2019
6415 Snow -42 1015 64 1300 2 350 13:55 12.12.2019
6416 Snow -41 1015 57 1500 2 350 13:37 12.12.2019
6417 Snow -41 1015 57 1500 2 350 13:19 12.12.2019
6418 Snow -41 1015 57 1000 2 350 12:55 12.12.2019
6419 Snow -41 1014 57 1000 2 350 12:37 12.12.2019
6420 Snow -41 1014 57 1000 2 350 12:18 12.12.2019
6421 Fog -41 1014 57 900 2 340 11:43 12.12.2019
6422 Fog -41 1014 57 900 2 340 11:22 12.12.2019
6423 Fog -42 1014 64 900 2 350 10:59 12.12.2019
6424 Fog -42 1014 64 900 2 340 10:41 12.12.2019
6425 Fog -42 1014 64 900 2 340 10:23 12.12.2019
6426 Fog -42 1014 64 750 2 330 09:58 12.12.2019
6427 Fog -42 1014 64 800 1 340 09:40 12.12.2019
6428 Fog -42 1014 64 800 1 340 09:21 12.12.2019
6429 Fog -42 1014 64 900 1 350 08:54 12.12.2019
6430 Fog -42 1014 64 900 1 340 08:36 12.12.2019
6431 Fog -42 1014 64 900 1 340 08:18 12.12.2019
6432 Fog -42 1014 64 800 2 350 07:41 12.12.2019
6433 Fog -42 1014 64 800 2 350 07:21 12.12.2019
6434 Fog -42 1014 64 700 1 350 06:43 12.12.2019
6435 Fog -42 1014 64 700 1 350 06:23 12.12.2019
6436 Mist -42 1014 64 1000 1 10 05:35 12.12.2019
6437 Fog -42 1014 64 900 1 350 04:49 12.12.2019
6438 Fog -42 1014 57 500 1 330 02:57 12.12.2019
6439 Fog -42 1014 57 450 1 340 02:37 12.12.2019
6440 Fog -42 1014 57 450 1 340 02:18 12.12.2019
6441 Fog -42 1014 57 500 1 360 01:37 12.12.2019
6442 Fog -42 1014 57 500 1 360 01:18 12.12.2019
6443 Fog -42 1014 64 600 1 340 00:40 12.12.2019
6444 Fog -42 1014 64 600 1 340 00:18 12.12.2019
6445 Fog -42 1014 64 500 1 330 23:42 11.12.2019
6446 Fog -42 1014 64 500 1 330 23:20 11.12.2019
6447 Fog -42 1014 64 450 1 330 22:57 11.12.2019
6448 Fog -42 1015 64 900 1 350 22:38 11.12.2019
6449 Fog -42 1015 64 900 1 350 22:19 11.12.2019
6450 Fog -42 1015 64 800 1 350 21:57 11.12.2019
6451 Fog -42 1015 64 450 1 330 21:37 11.12.2019
6452 Fog -42 1015 64 450 1 330 21:37 11.12.2019
6453 Fog -42 1015 64 450 1 330 21:19 11.12.2019
6454 Fog -42 1015 64 550 1 320 20:56 11.12.2019
6455 Fog -42 1015 64 550 1 310 20:37 11.12.2019
6456 Fog -42 1015 64 550 1 310 20:19 11.12.2019
6457 Fog -41 1015 57 500 1 300 19:57 11.12.2019
6458 Fog -41 1015 64 500 0.78 82 19:38 11.12.2019
6459 Fog -41 1015 64 500 0.78 82 19:18 11.12.2019
6460 Fog -41 1015 57 650 1 310 18:40 11.12.2019
6461 Fog -41 1015 57 650 1 310 18:21 11.12.2019
6462 Fog -41 1015 57 650 1 310 17:57 11.12.2019
6463 Fog -41 1015 57 650 1 310 17:57 11.12.2019
6464 Fog -41 1015 64 650 1 290 17:38 11.12.2019
6465 Fog -41 1015 64 650 1 290 17:18 11.12.2019
6466 Fog -40 1015 58 450 1 330 16:57 11.12.2019
6467 Fog -40 1015 58 450 1 330 16:57 11.12.2019
6468 Fog -40 1015 58 450 1 310 16:38 11.12.2019
6469 Fog -40 1015 58 450 1 310 16:38 11.12.2019
6470 Fog -40 1015 58 450 1 310 16:38 11.12.2019
6471 Fog -40 1015 58 450 1 310 16:20 11.12.2019
6472 Fog -40 1016 58 450 0.49 95 15:59 11.12.2019
6473 Fog -40 1016 58 450 1 300 15:39 11.12.2019
6474 Fog -40 1016 58 450 1 300 15:21 11.12.2019
6475 Fog -40 1016 65 400 1 310 14:56 11.12.2019
6476 Fog -40 1016 65 400 1 290 14:37 11.12.2019
6477 Fog -40 1016 65 400 1 290 14:19 11.12.2019
6478 Fog -40 1016 65 300 0.56 115 13:54 11.12.2019
6479 Fog -40 1016 65 400 0.56 115 13:36 11.12.2019
6480 Fog -40 1016 65 400 0.62 127 13:18 11.12.2019
6481 Fog -40 1016 65 400 0.62 127 13:18 11.12.2019
6482 Fog -40 1016 58 400 1 340 12:54 11.12.2019
6483 Fog -40 1016 65 550 0.62 127 12:36 11.12.2019
6484 Fog -40 1016 65 550 0.62 127 12:18 11.12.2019
6485 Fog -40 1016 65 450 0.62 127 11:55 11.12.2019
6486 Fog -40 1017 65 350 1 330 11:37 11.12.2019
6487 Fog -40 1017 65 350 1 330 11:18 11.12.2019
6488 Fog -39 1017 58 300 0.51 122 10:44 11.12.2019
6489 Fog -39 1017 58 300 0.51 122 10:25 11.12.2019
6490 Fog -39 1017 65 250 0.51 122 09:58 11.12.2019
6491 Fog -39 1017 58 400 0.51 122 09:38 11.12.2019
6492 Fog -39 1017 58 400 0.51 122 09:20 11.12.2019
6493 Fog -40 1017 65 600 0.51 122 08:56 11.12.2019
6494 Fog -39 1017 58 600 0.51 122 08:37 11.12.2019
6495 Fog -39 1017 58 600 0.34 87 08:18 11.12.2019
6496 Fog -39 1017 58 600 0.34 87 07:45 11.12.2019
6497 Fog -39 1017 65 500 0.34 87 07:25 11.12.2019
6498 Fog -39 1017 65 350 0.34 87 06:46 11.12.2019
6499 Fog -39 1017 65 450 0.34 87 06:25 11.12.2019
6500 Fog -39 1018 65 450 0.34 87 05:56 11.12.2019
6501 Fog -39 1018 65 300 0.34 87 05:37 11.12.2019
6502 Fog -39 1018 65 400 0.78 186 04:55 11.12.2019
6503 Fog -39 1018 65 500 0.78 186 03:41 11.12.2019
6504 Fog -39 1019 65 400 0.78 186 02:40 11.12.2019
6505 Fog -39 1019 65 600 0.54 181 01:22 11.12.2019
6506 Fog -39 1019 65 450 0.64 178 00:46 11.12.2019
6507 Fog -39 1019 65 450 0.64 178 00:21 11.12.2019
6508 Fog -39 1019 65 450 0.64 178 23:46 10.12.2019
6509 Fog -39 1019 65 550 0.64 178 23:28 10.12.2019
6510 Fog -39 1019 65 800 0.45 185 22:57 10.12.2019
6511 Mist -40 1019 65 1800 1 290 22:39 10.12.2019
6512 Mist -40 1019 65 1800 1 290 22:21 10.12.2019
6513 Mist -39 1019 65 1800 1 300 21:55 10.12.2019
6514 Mist -39 1019 65 1100 1 310 21:37 10.12.2019
6515 Mist -39 1019 65 1100 1 310 21:18 10.12.2019
6516 Mist -39 1019 65 1500 0.45 185 20:56 10.12.2019
6517 Mist -39 1020 65 3200 0.45 185 20:37 10.12.2019
6518 Mist -39 1020 65 3200 0.34 259 20:18 10.12.2019
6519 Mist -38 1019 65 5000 0.34 259 19:54 10.12.2019
6520 Mist -38 1019 65 5000 0.34 259 19:36 10.12.2019
6521 Mist -38 1019 65 5000 0.34 259 19:18 10.12.2019
6522 Mist -38 1019 65 5000 0.34 259 18:39 10.12.2019
6523 Mist -38 1019 65 5000 0.34 259 18:20 10.12.2019
6524 Mist -38 1019 65 5000 0.34 259 17:57 10.12.2019
6525 Mist -38 1019 65 5000 1 290 17:39 10.12.2019
6526 Mist -38 1019 65 5000 1 290 17:20 10.12.2019
6527 Mist -37 1019 65 5000 0.35 273 16:43 10.12.2019
6528 Clouds -37 1019 65 10000 0.35 273 16:21 10.12.2019
6529 Clouds -37 1019 65 10000 0.35 273 16:21 10.12.2019
6530 Mist -36 1019 66 5000 0.35 273 15:59 10.12.2019
6531 Mist -37 1020 65 5000 0.35 273 15:37 10.12.2019
6532 Mist -37 1020 65 5000 0.35 273 15:18 10.12.2019
6533 Mist -37 1020 65 3200 0.35 273 14:56 10.12.2019
6534 Mist -37 1020 65 3200 0.35 273 14:37 10.12.2019
6535 Mist -37 1020 65 3200 0.35 273 14:37 10.12.2019
6536 Mist -37 1020 65 3200 0.42 327 14:19 10.12.2019
6537 Mist -37 1020 65 3200 0.42 327 13:56 10.12.2019
6538 Mist -37 1020 65 5000 0.42 327 13:38 10.12.2019
6539 Mist -37 1020 65 5000 0.28 294 13:19 10.12.2019
6540 Mist -37 1020 65 5000 0.28 294 12:45 10.12.2019
6541 Mist -37 1020 65 5000 0.28 294 12:45 10.12.2019
6542 Mist -37 1019 65 5000 1 310 12:25 10.12.2019
6543 Mist -37 1019 65 5000 1 280 11:45 10.12.2019
6544 Mist -37 1019 65 2000 1 280 11:25 10.12.2019
6545 Fog -38 1019 65 800 0.6 331 10:57 10.12.2019
6546 Fog -38 1019 65 900 0.6 331 10:39 10.12.2019
6547 Fog -38 1019 65 900 0.6 331 10:39 10.12.2019
6548 Fog -38 1019 65 900 0.6 331 10:21 10.12.2019
6549 Fog -38 1019 58 900 0.6 331 09:56 10.12.2019
6550 Fog -39 1019 65 900 0.6 331 09:38 10.12.2019
6551 Fog -39 1019 65 900 0.6 331 09:20 10.12.2019
6552 Fog -39 1019 65 900 0.6 331 08:57 10.12.2019
6553 Fog -39 1019 65 900 0.6 331 08:57 10.12.2019
6554 Fog -39 1019 65 900 0.6 331 08:38 10.12.2019
6555 Fog -39 1019 65 900 0.86 347 08:19 10.12.2019
6556 Fog -39 1019 65 1600 1 70 07:44 10.12.2019
6557 Fog -39 1018 65 1300 1 60 07:26 10.12.2019
6558 Mist -38 1018 58 1800 1.09 345 06:49 10.12.2019
6559 Mist -39 1018 65 1900 1.09 345 06:24 10.12.2019
6560 Mist -39 1019 65 2000 1.09 345 05:55 10.12.2019
6561 Mist -39 1018 65 2000 1.27 358 04:58 10.12.2019
6562 Mist -40 1018 65 2000 1 300 03:47 10.12.2019
6563 Mist -41 1018 57 2000 1 290 02:48 10.12.2019
6564 Mist -41 1018 57 2000 1 290 02:48 10.12.2019
6565 Fog -42 1018 64 450 1 300 01:51 10.12.2019
6566 Fog -42 1018 57 750 1 300 01:26 10.12.2019
6567 Fog -42 1018 57 750 1 300 01:26 10.12.2019
6568 Fog -42 1018 64 650 1 280 00:51 10.12.2019
6569 Fog -42 1018 64 650 1 280 00:24 10.12.2019
6570 Fog -42 1019 64 400 1 300 23:55 09.12.2019
6571 Fog -42 1019 57 900 1 20 23:36 09.12.2019
6572 Fog -42 1019 57 900 1 20 23:18 09.12.2019
6573 Fog -42 1018 57 900 1 350 22:54 09.12.2019
6574 Fog -42 1018 64 900 1 320 22:36 09.12.2019
6575 Fog -42 1018 64 900 1 320 22:18 09.12.2019
6576 Fog -42 1018 64 900 1 310 21:54 09.12.2019
6577 Fog -42 1018 64 900 2 300 21:36 09.12.2019
6578 Fog -42 1018 64 900 2 300 21:18 09.12.2019
6579 Fog -42 1018 57 900 1 290 20:54 09.12.2019
6580 Fog -42 1018 64 800 1 300 20:36 09.12.2019
6581 Fog -42 1018 64 800 1 300 20:18 09.12.2019
6582 Fog -41 1019 57 600 2 320 19:54 09.12.2019
6583 Fog -41 1019 57 600 1 330 19:36 09.12.2019
6584 Fog -41 1019 57 600 1 330 19:18 09.12.2019
6585 Fog -41 1018 64 800 1 330 18:40 09.12.2019
6586 Fog -41 1018 64 800 1 330 18:20 09.12.2019
6587 Fog -41 1018 57 800 2 330 17:59 09.12.2019
6588 Fog -41 1018 57 800 2 330 17:59 09.12.2019
6589 Fog -41 1018 57 800 2 340 17:41 09.12.2019
6590 Fog -41 1018 57 800 2 340 17:21 09.12.2019
6591 Fog -41 1019 57 800 1 340 16:57 09.12.2019
6592 Fog -41 1018 57 800 2 350 16:39 09.12.2019
6593 Fog -41 1018 57 800 2 350 16:20 09.12.2019
6594 Fog -41 1019 57 800 1 330 15:56 09.12.2019
6595 Fog -41 1019 57 800 2 340 15:38 09.12.2019
6596 Fog -41 1019 57 800 2 340 15:19 09.12.2019
6597 Fog -41 1019 64 800 2 340 14:59 09.12.2019
6598 Fog -41 1019 64 800 2 340 14:40 09.12.2019
6599 Fog -41 1019 64 800 2 340 14:18 09.12.2019
6600 Fog -41 1019 64 800 2 330 13:55 09.12.2019
6601 Fog -41 1019 64 700 2 330 13:36 09.12.2019
6602 Fog -41 1019 64 700 2 330 13:18 09.12.2019
6603 Fog -41 1019 57 700 2 340 12:54 09.12.2019
6604 Fog -41 1019 57 900 2 340 12:36 09.12.2019
6605 Fog -41 1019 57 900 2 340 12:18 09.12.2019
6606 Fog -41 1019 64 900 3 360 11:40 09.12.2019
6607 Fog -41 1019 64 900 3 360 11:22 09.12.2019
6608 Fog -41 1019 64 900 2 350 10:59 09.12.2019
6609 Fog -41 1019 64 800 2 350 10:39 09.12.2019
6610 Fog -41 1019 64 800 2 350 10:19 09.12.2019
6611 Mist -41 1019 64 5000 3 10 09:45 09.12.2019
6612 Mist -41 1019 64 5000 3 360 09:25 09.12.2019
6613 Mist -41 1020 64 5000 3 10 08:57 09.12.2019
6614 Mist -41 1020 64 5000 2 360 08:39 09.12.2019
6615 Mist -41 1020 64 5000 2 360 08:21 09.12.2019
6616 Mist -40 1019 58 2400 2 330 07:52 09.12.2019
6617 Mist -40 1019 65 5000 2 350 07:34 09.12.2019
6618 Mist -40 1019 58 5000 2 360 06:58 09.12.2019
6619 Mist -40 1019 58 3200 3 10 06:32 09.12.2019
6620 Mist -40 1020 58 3200 3 360 05:48 09.12.2019
6621 Mist -40 1019 58 3200 2 350 05:24 09.12.2019
6622 Mist -41 1019 64 3200 3 350 04:28 09.12.2019
6623 Mist -41 1020 57 2000 3 340 02:46 09.12.2019
6624 Mist -41 1020 57 1800 3 350 01:47 09.12.2019
6625 Mist -42 1020 64 1100 2 350 01:23 09.12.2019
6626 Mist -41 1020 57 1500 3 360 00:34 09.12.2019
6627 Mist -41 1020 57 1500 2 350 23:58 08.12.2019
6628 Mist -41 1020 57 1500 2 360 23:37 08.12.2019
6629 Mist -41 1020 57 1500 2 360 23:19 08.12.2019
6630 Mist -41 1020 57 2400 2 350 22:56 08.12.2019
6631 Mist -41 1020 57 2400 3 360 22:38 08.12.2019
6632 Mist -41 1020 57 2400 3 360 22:18 08.12.2019
6633 Mist -41 1020 57 2400 3 360 21:57 08.12.2019
6634 Mist -41 1020 57 2400 2 350 21:38 08.12.2019
6635 Mist -41 1020 57 2400 2 350 21:19 08.12.2019
6636 Mist -41 1020 64 3200 2 350 20:56 08.12.2019
6637 Mist -41 1020 64 3200 2 350 20:37 08.12.2019
6638 Mist -41 1020 64 3200 2 350 20:37 08.12.2019
6639 Mist -41 1020 64 3200 2 350 20:19 08.12.2019
6640 Mist -41 1020 64 1600 2 340 19:56 08.12.2019
6641 Mist -41 1020 57 5000 2 350 19:38 08.12.2019
6642 Mist -41 1020 57 5000 2 350 19:20 08.12.2019
6643 Mist -41 1020 57 5000 2 360 18:55 08.12.2019
6644 Mist -41 1021 57 1800 3 20 18:36 08.12.2019
6645 Mist -41 1021 57 1800 3 20 18:36 08.12.2019
6646 Mist -41 1021 57 1800 3 20 18:18 08.12.2019
6647 Mist -41 1021 64 1800 2 350 17:55 08.12.2019
6648 Mist -41 1020 64 1700 3 350 17:37 08.12.2019
6649 Mist -41 1020 64 1700 3 350 17:19 08.12.2019
6650 Mist -41 1020 64 1400 3 340 16:55 08.12.2019
6651 Mist -41 1020 64 1400 3 350 16:37 08.12.2019
6652 Mist -41 1020 64 1400 3 350 16:18 08.12.2019
6653 Mist -41 1021 64 1500 3 350 15:38 08.12.2019
6654 Mist -41 1021 64 1500 3 350 15:19 08.12.2019
6655 Mist -41 1021 64 1400 2 340 14:58 08.12.2019
6656 Mist -41 1021 57 1400 2 350 14:39 08.12.2019
6657 Mist -41 1021 57 1400 2 350 14:39 08.12.2019
6658 Mist -41 1021 57 1400 2 350 14:21 08.12.2019
6659 Mist -41 1021 57 1200 3 350 13:56 08.12.2019
6660 Mist -41 1021 57 1200 3 350 13:56 08.12.2019
6661 Mist -41 1021 57 1200 3 340 13:38 08.12.2019
6662 Mist -41 1021 57 1200 3 340 13:19 08.12.2019
6663 Mist -41 1021 57 1000 3 350 12:54 08.12.2019
6664 Mist -41 1021 57 1000 3 350 12:36 08.12.2019
6665 Mist -41 1021 57 1000 3 350 12:18 08.12.2019
6666 Mist -41 1021 57 1000 2 350 11:38 08.12.2019
6667 Mist -41 1021 57 1000 2 350 11:20 08.12.2019
6668 Mist -42 1021 64 1000 2 330 10:58 08.12.2019
6669 Mist -42 1022 64 1000 3 340 10:38 08.12.2019
6670 Mist -42 1022 64 1000 3 340 10:20 08.12.2019
6671 Mist -42 1022 64 1000 3 350 09:56 08.12.2019
6672 Mist -42 1022 64 1000 3 350 09:37 08.12.2019
6673 Mist -42 1022 64 1000 3 350 09:19 08.12.2019
6674 Fog -42 1022 64 900 2 350 08:57 08.12.2019
6675 Mist -42 1022 57 2000 3 10 08:37 08.12.2019
6676 Mist -42 1022 57 2000 3 10 08:37 08.12.2019
6677 Mist -42 1022 57 2000 3 10 08:18 08.12.2019
6678 Mist -42 1022 64 2000 3 350 07:42 08.12.2019
6679 Mist -42 1022 64 2000 3 350 07:19 08.12.2019
6680 Mist -42 1022 64 2000 3 340 06:50 08.12.2019
6681 Mist -42 1022 57 2000 3 340 06:22 08.12.2019
6682 Mist -42 1022 57 2000 2 350 05:48 08.12.2019
6683 Mist -42 1022 57 1500 3 340 05:18 08.12.2019
6684 Fog -43 1023 57 900 2 350 03:50 08.12.2019
6685 Fog -43 1023 57 800 3 10 03:22 08.12.2019
6686 Fog -43 1023 57 800 2 350 02:39 08.12.2019
6687 Mist -44 1023 57 1800 2 360 01:55 08.12.2019
6688 Mist -44 1024 57 1500 2 20 01:23 08.12.2019
6689 Mist -44 1024 63 1200 2 360 00:40 08.12.2019
6690 Mist -44 1024 63 1200 2 360 00:20 08.12.2019
6691 Mist -43 1024 57 1200 2 330 23:41 07.12.2019
6692 Mist -43 1024 57 1200 2 330 23:21 07.12.2019
6693 Mist -43 1024 57 1200 2 350 22:57 07.12.2019
6694 Mist -43 1024 57 1200 2 360 22:39 07.12.2019
6695 Mist -43 1024 57 1200 2 360 22:21 07.12.2019
6696 Mist -43 1025 57 1200 2 360 21:56 07.12.2019
6697 Fog -43 1025 57 900 1 360 21:38 07.12.2019
6698 Fog -43 1025 57 900 1 360 21:19 07.12.2019
6699 Fog -43 1025 57 900 2 350 20:59 07.12.2019
6700 Fog -43 1025 64 900 2 350 20:36 07.12.2019
6701 Fog -43 1025 64 900 2 350 20:18 07.12.2019
6702 Fog -42 1025 57 800 2 350 19:56 07.12.2019
6703 Mist -42 1025 57 1100 2 360 19:38 07.12.2019
6704 Mist -42 1025 57 1100 2 360 19:20 07.12.2019
6705 Mist -42 1025 57 1100 2 360 18:44 07.12.2019
6706 Mist -42 1025 64 1100 2 350 18:19 07.12.2019
6707 Mist -42 1026 57 1800 2 20 17:58 07.12.2019
6708 Mist -42 1025 64 1100 2 360 17:40 07.12.2019
6709 Mist -42 1025 64 1100 2 360 17:21 07.12.2019
6710 Mist -42 1025 64 2400 1 30 16:56 07.12.2019
6711 Mist -41 1026 57 1000 2 10 16:38 07.12.2019
6712 Mist -41 1026 57 1000 2 10 16:20 07.12.2019
6713 Mist -41 1026 64 1000 2 10 15:57 07.12.2019
6714 Mist -41 1026 57 5000 1 20 15:38 07.12.2019
6715 Mist -41 1026 57 5000 1 20 15:20 07.12.2019
6716 Fog -41 1027 64 900 2 10 14:42 07.12.2019
6717 Fog -41 1027 64 900 2 10 14:19 07.12.2019
6718 Fog -41 1027 64 900 1 10 13:55 07.12.2019
6719 Fog -41 1027 64 900 2 10 13:37 07.12.2019
6720 Fog -41 1027 64 900 2 10 13:18 07.12.2019
6721 Fog -40 1027 58 900 2 350 12:41 07.12.2019
6722 Fog -40 1027 58 900 2 350 12:22 07.12.2019
6723 Fog -40 1027 65 800 2 350 11:58 07.12.2019
6724 Mist -39 1027 58 1000 1 10 11:40 07.12.2019
6725 Mist -39 1027 58 1000 1 10 11:21 07.12.2019
6726 Mist -39 1027 58 3200 1 10 10:38 07.12.2019
6727 Mist -39 1027 58 3200 1 10 10:20 07.12.2019
6728 Mist -39 1027 65 3200 1 50 09:58 07.12.2019
6729 Mist -39 1027 65 3200 1 40 09:37 07.12.2019
6730 Mist -39 1027 65 3200 1 40 09:18 07.12.2019
6731 Clouds -42 1033 93 0 1.22 152 08:41 07.12.2019
6732 Mist -39 1027 65 3200 1 50 08:21 07.12.2019
6733 Mist -39 1027 65 3200 1 50 07:46 07.12.2019
6734 Mist -39 1027 65 3200 1 50 07:26 07.12.2019
6735 Mist -39 1027 65 2400 1 70 06:50 07.12.2019
6736 Fog -39 1027 65 1000 1 60 06:25 07.12.2019
6737 Fog -39 1026 65 700 1 20 05:38 07.12.2019
6738 Fog -40 1027 65 350 1.03 212 04:19 07.12.2019
6739 Fog -40 1026 65 400 1.03 212 03:44 07.12.2019
6740 Fog -40 1026 58 1000 1 290 02:21 07.12.2019
6741 Mist -40 1026 65 3200 1 300 01:35 07.12.2019
6742 Mist -40 1026 65 5000 1 290 00:57 07.12.2019
6743 Clouds -40 1026 65 10000 2 290 00:21 07.12.2019
6744 Clouds -40 1026 65 10000 2 300 23:56 06.12.2019
6745 Clouds -40 1026 65 10000 2 290 23:38 06.12.2019
6746 Clouds -40 1026 65 10000 2 290 23:18 06.12.2019
6747 Clouds -39 1026 65 10000 2 290 22:39 06.12.2019
6748 Clouds -39 1026 65 10000 2 290 22:20 06.12.2019
6749 Clouds -39 1026 58 10000 1 280 21:58 06.12.2019
6750 Clouds -39 1026 65 10000 2 280 21:39 06.12.2019
6751 Clouds -39 1026 65 10000 2 280 21:20 06.12.2019
6752 Clouds -39 1026 65 10000 2 290 20:43 06.12.2019
6753 Clouds -39 1025 65 10000 1 270 20:25 06.12.2019
6754 Clouds -38 1025 58 10000 2 280 19:59 06.12.2019
6755 Clouds